<?xml version="1.0" encoding="utf-8"?>
<gpx xmlns:xsi="http://www.w3.org/2001/XMLSchema-instance" xmlns:xsd="http://www.w3.org/2001/XMLSchema" version="1.1" creator="Shapelink.com" xmlns="http://www.topografix.com/GPX/1/1" xmlns:gpxtpx="http://www.garmin.com/xmlschemas/TrackPointExtension/v1">
  <metadata>
    <name>Ciclismo 20.81 km, 2015-03-25</name>
    <desc></desc>
    <author><name>Henrik Amren</name></author> 
    <time>2015-03-25T17:19:15Z</time>
  </metadata>
  <trk>
    <name>Ciclismo 20.81 km, 2015-03-25</name>
    <trkseg>
      <trkpt lat="37.390193" lon="-122.123456">
        <ele>42.7</ele>
        <time>2015-03-25T17:19:15Z</time>
      </trkpt>
      <trkpt lat="37.390167" lon="-122.123437">
        <ele>42.7</ele>
        <time>2015-03-25T17:19:23Z</time>
      </trkpt>
      <trkpt lat="37.390133" lon="-122.123411">
        <ele>42.7</ele>
        <time>2015-03-25T17:19:25Z</time>
      </trkpt>
      <trkpt lat="37.390098" lon="-122.12338">
        <ele>42.7</ele>
        <time>2015-03-25T17:19:27Z</time>
      </trkpt>
      <trkpt lat="37.39007" lon="-122.123336">
        <ele>42.5</ele>
        <time>2015-03-25T17:19:29Z</time>
      </trkpt>
      <trkpt lat="37.390054" lon="-122.123275">
        <ele>42.4</ele>
        <time>2015-03-25T17:19:31Z</time>
      </trkpt>
      <trkpt lat="37.39005" lon="-122.123238">
        <ele>42.3</ele>
        <time>2015-03-25T17:19:32Z</time>
      </trkpt>
      <trkpt lat="37.390051" lon="-122.1232">
        <ele>42.2</ele>
        <time>2015-03-25T17:19:33Z</time>
      </trkpt>
      <trkpt lat="37.390053" lon="-122.123159">
        <ele>42.1</ele>
        <time>2015-03-25T17:19:34Z</time>
      </trkpt>
      <trkpt lat="37.39006" lon="-122.123113">
        <ele>42.1</ele>
        <time>2015-03-25T17:19:35Z</time>
      </trkpt>
      <trkpt lat="37.390067" lon="-122.123062">
        <ele>42.1</ele>
        <time>2015-03-25T17:19:36Z</time>
      </trkpt>
      <trkpt lat="37.390077" lon="-122.123003">
        <ele>42</ele>
        <time>2015-03-25T17:19:37Z</time>
      </trkpt>
      <trkpt lat="37.390089" lon="-122.122945">
        <ele>41.9</ele>
        <time>2015-03-25T17:19:38Z</time>
      </trkpt>
      <trkpt lat="37.390105" lon="-122.122884">
        <ele>41.8</ele>
        <time>2015-03-25T17:19:39Z</time>
      </trkpt>
      <trkpt lat="37.390115" lon="-122.122833">
        <ele>41.8</ele>
        <time>2015-03-25T17:19:40Z</time>
      </trkpt>
      <trkpt lat="37.390125" lon="-122.122786">
        <ele>41.7</ele>
        <time>2015-03-25T17:19:41Z</time>
      </trkpt>
      <trkpt lat="37.390141" lon="-122.122736">
        <ele>41.6</ele>
        <time>2015-03-25T17:19:42Z</time>
      </trkpt>
      <trkpt lat="37.390157" lon="-122.122702">
        <ele>41.6</ele>
        <time>2015-03-25T17:19:43Z</time>
      </trkpt>
      <trkpt lat="37.390196" lon="-122.122636">
        <ele>41.4</ele>
        <time>2015-03-25T17:19:44Z</time>
      </trkpt>
      <trkpt lat="37.390232" lon="-122.122576">
        <ele>41.3</ele>
        <time>2015-03-25T17:19:45Z</time>
      </trkpt>
      <trkpt lat="37.390271" lon="-122.122501">
        <ele>41.1</ele>
        <time>2015-03-25T17:19:46Z</time>
      </trkpt>
      <trkpt lat="37.390306" lon="-122.122446">
        <ele>41.1</ele>
        <time>2015-03-25T17:19:47Z</time>
      </trkpt>
      <trkpt lat="37.390318" lon="-122.122406">
        <ele>41</ele>
        <time>2015-03-25T17:19:48Z</time>
      </trkpt>
      <trkpt lat="37.390356" lon="-122.122347">
        <ele>40.9</ele>
        <time>2015-03-25T17:19:49Z</time>
      </trkpt>
      <trkpt lat="37.390393" lon="-122.122282">
        <ele>40.8</ele>
        <time>2015-03-25T17:19:50Z</time>
      </trkpt>
      <trkpt lat="37.390418" lon="-122.122211">
        <ele>40.6</ele>
        <time>2015-03-25T17:19:51Z</time>
      </trkpt>
      <trkpt lat="37.390447" lon="-122.122057">
        <ele>40.3</ele>
        <time>2015-03-25T17:19:53Z</time>
      </trkpt>
      <trkpt lat="37.390451" lon="-122.121994">
        <ele>40.2</ele>
        <time>2015-03-25T17:19:54Z</time>
      </trkpt>
      <trkpt lat="37.390457" lon="-122.121904">
        <ele>40.1</ele>
        <time>2015-03-25T17:19:55Z</time>
      </trkpt>
      <trkpt lat="37.390462" lon="-122.121819">
        <ele>40.2</ele>
        <time>2015-03-25T17:19:56Z</time>
      </trkpt>
      <trkpt lat="37.390471" lon="-122.121503">
        <ele>40.2</ele>
        <time>2015-03-25T17:20:00Z</time>
      </trkpt>
      <trkpt lat="37.390473" lon="-122.121435">
        <ele>40.2</ele>
        <time>2015-03-25T17:20:01Z</time>
      </trkpt>
      <trkpt lat="37.390476" lon="-122.121357">
        <ele>40.2</ele>
        <time>2015-03-25T17:20:02Z</time>
      </trkpt>
      <trkpt lat="37.390477" lon="-122.121292">
        <ele>40.2</ele>
        <time>2015-03-25T17:20:03Z</time>
      </trkpt>
      <trkpt lat="37.390479" lon="-122.121221">
        <ele>40.2</ele>
        <time>2015-03-25T17:20:04Z</time>
      </trkpt>
      <trkpt lat="37.390481" lon="-122.121151">
        <ele>40.2</ele>
        <time>2015-03-25T17:20:05Z</time>
      </trkpt>
      <trkpt lat="37.390483" lon="-122.121079">
        <ele>40.2</ele>
        <time>2015-03-25T17:20:06Z</time>
      </trkpt>
      <trkpt lat="37.390485" lon="-122.121023">
        <ele>40.2</ele>
        <time>2015-03-25T17:20:07Z</time>
      </trkpt>
      <trkpt lat="37.390487" lon="-122.120962">
        <ele>40.1</ele>
        <time>2015-03-25T17:20:08Z</time>
      </trkpt>
      <trkpt lat="37.390488" lon="-122.120924">
        <ele>40.1</ele>
        <time>2015-03-25T17:20:09Z</time>
      </trkpt>
      <trkpt lat="37.39034" lon="-122.120788">
        <ele>40.3</ele>
        <time>2015-03-25T17:20:11Z</time>
      </trkpt>
      <trkpt lat="37.390289" lon="-122.120788">
        <ele>40.4</ele>
        <time>2015-03-25T17:20:13Z</time>
      </trkpt>
      <trkpt lat="37.390193" lon="-122.120788">
        <ele>40.6</ele>
        <time>2015-03-25T17:20:14Z</time>
      </trkpt>
      <trkpt lat="37.390141" lon="-122.120788">
        <ele>40.7</ele>
        <time>2015-03-25T17:20:15Z</time>
      </trkpt>
      <trkpt lat="37.390097" lon="-122.120788">
        <ele>40.7</ele>
        <time>2015-03-25T17:20:16Z</time>
      </trkpt>
      <trkpt lat="37.390047" lon="-122.120788">
        <ele>40.8</ele>
        <time>2015-03-25T17:20:17Z</time>
      </trkpt>
      <trkpt lat="37.389995" lon="-122.120788">
        <ele>40.8</ele>
        <time>2015-03-25T17:20:18Z</time>
      </trkpt>
      <trkpt lat="37.389943" lon="-122.120788">
        <ele>40.9</ele>
        <time>2015-03-25T17:20:19Z</time>
      </trkpt>
      <trkpt lat="37.389886" lon="-122.120788">
        <ele>41</ele>
        <time>2015-03-25T17:20:20Z</time>
      </trkpt>
      <trkpt lat="37.389834" lon="-122.120788">
        <ele>41</ele>
        <time>2015-03-25T17:20:21Z</time>
      </trkpt>
      <trkpt lat="37.389784" lon="-122.120788">
        <ele>41</ele>
        <time>2015-03-25T17:20:22Z</time>
      </trkpt>
      <trkpt lat="37.389724" lon="-122.120788">
        <ele>41</ele>
        <time>2015-03-25T17:20:23Z</time>
      </trkpt>
      <trkpt lat="37.389672" lon="-122.120788">
        <ele>41.1</ele>
        <time>2015-03-25T17:20:24Z</time>
      </trkpt>
      <trkpt lat="37.389617" lon="-122.120788">
        <ele>41.1</ele>
        <time>2015-03-25T17:20:25Z</time>
      </trkpt>
      <trkpt lat="37.389561" lon="-122.120788">
        <ele>41.2</ele>
        <time>2015-03-25T17:20:26Z</time>
      </trkpt>
      <trkpt lat="37.389492" lon="-122.120788">
        <ele>41.3</ele>
        <time>2015-03-25T17:20:27Z</time>
      </trkpt>
      <trkpt lat="37.389439" lon="-122.120788">
        <ele>41.4</ele>
        <time>2015-03-25T17:20:28Z</time>
      </trkpt>
      <trkpt lat="37.389384" lon="-122.120788">
        <ele>41.4</ele>
        <time>2015-03-25T17:20:29Z</time>
      </trkpt>
      <trkpt lat="37.389171" lon="-122.120791">
        <ele>41.6</ele>
        <time>2015-03-25T17:20:33Z</time>
      </trkpt>
      <trkpt lat="37.389114" lon="-122.120792">
        <ele>41.7</ele>
        <time>2015-03-25T17:20:34Z</time>
      </trkpt>
      <trkpt lat="37.389069" lon="-122.120793">
        <ele>41.7</ele>
        <time>2015-03-25T17:20:35Z</time>
      </trkpt>
      <trkpt lat="37.389011" lon="-122.120794">
        <ele>41.7</ele>
        <time>2015-03-25T17:20:37Z</time>
      </trkpt>
      <trkpt lat="37.388882" lon="-122.120795">
        <ele>41.9</ele>
        <time>2015-03-25T17:20:38Z</time>
      </trkpt>
      <trkpt lat="37.388825" lon="-122.120796">
        <ele>42</ele>
        <time>2015-03-25T17:20:39Z</time>
      </trkpt>
      <trkpt lat="37.388771" lon="-122.120797">
        <ele>42</ele>
        <time>2015-03-25T17:20:40Z</time>
      </trkpt>
      <trkpt lat="37.388725" lon="-122.120671">
        <ele>42</ele>
        <time>2015-03-25T17:20:41Z</time>
      </trkpt>
      <trkpt lat="37.388688" lon="-122.120671">
        <ele>41.9</ele>
        <time>2015-03-25T17:20:42Z</time>
      </trkpt>
      <trkpt lat="37.388656" lon="-122.120666">
        <ele>41.9</ele>
        <time>2015-03-25T17:20:43Z</time>
      </trkpt>
      <trkpt lat="37.388621" lon="-122.120663">
        <ele>41.9</ele>
        <time>2015-03-25T17:20:44Z</time>
      </trkpt>
      <trkpt lat="37.38859" lon="-122.120678">
        <ele>42</ele>
        <time>2015-03-25T17:20:45Z</time>
      </trkpt>
      <trkpt lat="37.388549" lon="-122.120678">
        <ele>42</ele>
        <time>2015-03-25T17:20:46Z</time>
      </trkpt>
      <trkpt lat="37.388515" lon="-122.12067">
        <ele>42</ele>
        <time>2015-03-25T17:20:47Z</time>
      </trkpt>
      <trkpt lat="37.388465" lon="-122.120665">
        <ele>42.1</ele>
        <time>2015-03-25T17:20:48Z</time>
      </trkpt>
      <trkpt lat="37.388413" lon="-122.120657">
        <ele>42.3</ele>
        <time>2015-03-25T17:20:49Z</time>
      </trkpt>
      <trkpt lat="37.388366" lon="-122.120656">
        <ele>42.3</ele>
        <time>2015-03-25T17:20:50Z</time>
      </trkpt>
      <trkpt lat="37.388308" lon="-122.120648">
        <ele>42.4</ele>
        <time>2015-03-25T17:20:51Z</time>
      </trkpt>
      <trkpt lat="37.388253" lon="-122.120655">
        <ele>42.4</ele>
        <time>2015-03-25T17:20:52Z</time>
      </trkpt>
      <trkpt lat="37.388203" lon="-122.120799">
        <ele>42.6</ele>
        <time>2015-03-25T17:20:53Z</time>
      </trkpt>
      <trkpt lat="37.388149" lon="-122.120799">
        <ele>42.7</ele>
        <time>2015-03-25T17:20:54Z</time>
      </trkpt>
      <trkpt lat="37.388086" lon="-122.120799">
        <ele>42.8</ele>
        <time>2015-03-25T17:20:55Z</time>
      </trkpt>
      <trkpt lat="37.388047" lon="-122.120799">
        <ele>42.8</ele>
        <time>2015-03-25T17:20:56Z</time>
      </trkpt>
      <trkpt lat="37.387988" lon="-122.120799">
        <ele>42.9</ele>
        <time>2015-03-25T17:20:57Z</time>
      </trkpt>
      <trkpt lat="37.387926" lon="-122.120799">
        <ele>43</ele>
        <time>2015-03-25T17:20:58Z</time>
      </trkpt>
      <trkpt lat="37.387693" lon="-122.120802">
        <ele>43.3</ele>
        <time>2015-03-25T17:21:02Z</time>
      </trkpt>
      <trkpt lat="37.387521" lon="-122.120804">
        <ele>43.5</ele>
        <time>2015-03-25T17:21:05Z</time>
      </trkpt>
      <trkpt lat="37.387461" lon="-122.120804">
        <ele>43.5</ele>
        <time>2015-03-25T17:21:06Z</time>
      </trkpt>
      <trkpt lat="37.387408" lon="-122.120805">
        <ele>43.6</ele>
        <time>2015-03-25T17:21:07Z</time>
      </trkpt>
      <trkpt lat="37.387353" lon="-122.120805">
        <ele>43.7</ele>
        <time>2015-03-25T17:21:08Z</time>
      </trkpt>
      <trkpt lat="37.387297" lon="-122.120805">
        <ele>43.8</ele>
        <time>2015-03-25T17:21:09Z</time>
      </trkpt>
      <trkpt lat="37.387241" lon="-122.120806">
        <ele>43.8</ele>
        <time>2015-03-25T17:21:10Z</time>
      </trkpt>
      <trkpt lat="37.387181" lon="-122.120806">
        <ele>43.9</ele>
        <time>2015-03-25T17:21:11Z</time>
      </trkpt>
      <trkpt lat="37.387127" lon="-122.120807">
        <ele>43.9</ele>
        <time>2015-03-25T17:21:12Z</time>
      </trkpt>
      <trkpt lat="37.387067" lon="-122.120807">
        <ele>43.9</ele>
        <time>2015-03-25T17:21:13Z</time>
      </trkpt>
      <trkpt lat="37.387011" lon="-122.120807">
        <ele>43.9</ele>
        <time>2015-03-25T17:21:14Z</time>
      </trkpt>
      <trkpt lat="37.386957" lon="-122.120808">
        <ele>44</ele>
        <time>2015-03-25T17:21:15Z</time>
      </trkpt>
      <trkpt lat="37.386891" lon="-122.120808">
        <ele>44</ele>
        <time>2015-03-25T17:21:16Z</time>
      </trkpt>
      <trkpt lat="37.386651" lon="-122.120808">
        <ele>44.3</ele>
        <time>2015-03-25T17:21:20Z</time>
      </trkpt>
      <trkpt lat="37.386592" lon="-122.120808">
        <ele>44.4</ele>
        <time>2015-03-25T17:21:21Z</time>
      </trkpt>
      <trkpt lat="37.386537" lon="-122.120808">
        <ele>44.5</ele>
        <time>2015-03-25T17:21:22Z</time>
      </trkpt>
      <trkpt lat="37.386474" lon="-122.120808">
        <ele>44.6</ele>
        <time>2015-03-25T17:21:23Z</time>
      </trkpt>
      <trkpt lat="37.386414" lon="-122.120807">
        <ele>44.7</ele>
        <time>2015-03-25T17:21:24Z</time>
      </trkpt>
      <trkpt lat="37.386353" lon="-122.120807">
        <ele>44.8</ele>
        <time>2015-03-25T17:21:25Z</time>
      </trkpt>
      <trkpt lat="37.386267" lon="-122.120807">
        <ele>45</ele>
        <time>2015-03-25T17:21:26Z</time>
      </trkpt>
      <trkpt lat="37.386211" lon="-122.120807">
        <ele>45.1</ele>
        <time>2015-03-25T17:21:27Z</time>
      </trkpt>
      <trkpt lat="37.386155" lon="-122.120808">
        <ele>45.2</ele>
        <time>2015-03-25T17:21:28Z</time>
      </trkpt>
      <trkpt lat="37.386112" lon="-122.12081">
        <ele>45.2</ele>
        <time>2015-03-25T17:21:29Z</time>
      </trkpt>
      <trkpt lat="37.385893" lon="-122.12081">
        <ele>45.6</ele>
        <time>2015-03-25T17:21:33Z</time>
      </trkpt>
      <trkpt lat="37.385676" lon="-122.120806">
        <ele>46</ele>
        <time>2015-03-25T17:21:36Z</time>
      </trkpt>
      <trkpt lat="37.38562" lon="-122.120805">
        <ele>46.1</ele>
        <time>2015-03-25T17:21:37Z</time>
      </trkpt>
      <trkpt lat="37.385571" lon="-122.120804">
        <ele>46.2</ele>
        <time>2015-03-25T17:21:38Z</time>
      </trkpt>
      <trkpt lat="37.385515" lon="-122.120804">
        <ele>46.4</ele>
        <time>2015-03-25T17:21:39Z</time>
      </trkpt>
      <trkpt lat="37.385474" lon="-122.120803">
        <ele>46.4</ele>
        <time>2015-03-25T17:21:40Z</time>
      </trkpt>
      <trkpt lat="37.38541" lon="-122.120802">
        <ele>46.7</ele>
        <time>2015-03-25T17:21:41Z</time>
      </trkpt>
      <trkpt lat="37.385364" lon="-122.120801">
        <ele>46.7</ele>
        <time>2015-03-25T17:21:42Z</time>
      </trkpt>
      <trkpt lat="37.385316" lon="-122.1208">
        <ele>46.9</ele>
        <time>2015-03-25T17:21:43Z</time>
      </trkpt>
      <trkpt lat="37.385258" lon="-122.120799">
        <ele>47</ele>
        <time>2015-03-25T17:21:44Z</time>
      </trkpt>
      <trkpt lat="37.385047" lon="-122.120798">
        <ele>47.7</ele>
        <time>2015-03-25T17:21:48Z</time>
      </trkpt>
      <trkpt lat="37.384989" lon="-122.120798">
        <ele>47.9</ele>
        <time>2015-03-25T17:21:49Z</time>
      </trkpt>
      <trkpt lat="37.384928" lon="-122.120798">
        <ele>48.1</ele>
        <time>2015-03-25T17:21:50Z</time>
      </trkpt>
      <trkpt lat="37.384714" lon="-122.120798">
        <ele>48.6</ele>
        <time>2015-03-25T17:21:55Z</time>
      </trkpt>
      <trkpt lat="37.384608" lon="-122.120798">
        <ele>48.9</ele>
        <time>2015-03-25T17:21:56Z</time>
      </trkpt>
      <trkpt lat="37.384568" lon="-122.120798">
        <ele>49</ele>
        <time>2015-03-25T17:21:57Z</time>
      </trkpt>
      <trkpt lat="37.38438" lon="-122.120797">
        <ele>49.6</ele>
        <time>2015-03-25T17:22:00Z</time>
      </trkpt>
      <trkpt lat="37.384329" lon="-122.120797">
        <ele>49.8</ele>
        <time>2015-03-25T17:22:01Z</time>
      </trkpt>
      <trkpt lat="37.384271" lon="-122.120797">
        <ele>49.9</ele>
        <time>2015-03-25T17:22:02Z</time>
      </trkpt>
      <trkpt lat="37.384218" lon="-122.120797">
        <ele>50.1</ele>
        <time>2015-03-25T17:22:03Z</time>
      </trkpt>
      <trkpt lat="37.38417" lon="-122.120797">
        <ele>50.2</ele>
        <time>2015-03-25T17:22:04Z</time>
      </trkpt>
      <trkpt lat="37.384119" lon="-122.120797">
        <ele>50.3</ele>
        <time>2015-03-25T17:22:05Z</time>
      </trkpt>
      <trkpt lat="37.38407" lon="-122.120797">
        <ele>50.4</ele>
        <time>2015-03-25T17:22:06Z</time>
      </trkpt>
      <trkpt lat="37.384029" lon="-122.120797">
        <ele>50.5</ele>
        <time>2015-03-25T17:22:07Z</time>
      </trkpt>
      <trkpt lat="37.383991" lon="-122.120796">
        <ele>50.6</ele>
        <time>2015-03-25T17:22:08Z</time>
      </trkpt>
      <trkpt lat="37.383927" lon="-122.120796">
        <ele>50.8</ele>
        <time>2015-03-25T17:22:09Z</time>
      </trkpt>
      <trkpt lat="37.38388" lon="-122.120796">
        <ele>50.9</ele>
        <time>2015-03-25T17:22:10Z</time>
      </trkpt>
      <trkpt lat="37.383832" lon="-122.120796">
        <ele>50.9</ele>
        <time>2015-03-25T17:22:11Z</time>
      </trkpt>
      <trkpt lat="37.383771" lon="-122.120796">
        <ele>51.1</ele>
        <time>2015-03-25T17:22:12Z</time>
      </trkpt>
      <trkpt lat="37.38373" lon="-122.120796">
        <ele>51.2</ele>
        <time>2015-03-25T17:22:13Z</time>
      </trkpt>
      <trkpt lat="37.383677" lon="-122.120796">
        <ele>51.3</ele>
        <time>2015-03-25T17:22:14Z</time>
      </trkpt>
      <trkpt lat="37.383619" lon="-122.120796">
        <ele>51.5</ele>
        <time>2015-03-25T17:22:15Z</time>
      </trkpt>
      <trkpt lat="37.383565" lon="-122.120796">
        <ele>51.6</ele>
        <time>2015-03-25T17:22:16Z</time>
      </trkpt>
      <trkpt lat="37.383517" lon="-122.120795">
        <ele>51.8</ele>
        <time>2015-03-25T17:22:17Z</time>
      </trkpt>
      <trkpt lat="37.383456" lon="-122.120795">
        <ele>51.9</ele>
        <time>2015-03-25T17:22:18Z</time>
      </trkpt>
      <trkpt lat="37.38339" lon="-122.120795">
        <ele>52.1</ele>
        <time>2015-03-25T17:22:19Z</time>
      </trkpt>
      <trkpt lat="37.383335" lon="-122.120795">
        <ele>52.2</ele>
        <time>2015-03-25T17:22:20Z</time>
      </trkpt>
      <trkpt lat="37.383288" lon="-122.120795">
        <ele>52.3</ele>
        <time>2015-03-25T17:22:21Z</time>
      </trkpt>
      <trkpt lat="37.383054" lon="-122.120793">
        <ele>52.9</ele>
        <time>2015-03-25T17:22:25Z</time>
      </trkpt>
      <trkpt lat="37.383006" lon="-122.120793">
        <ele>53</ele>
        <time>2015-03-25T17:22:26Z</time>
      </trkpt>
      <trkpt lat="37.382957" lon="-122.120793">
        <ele>53.2</ele>
        <time>2015-03-25T17:22:27Z</time>
      </trkpt>
      <trkpt lat="37.382919" lon="-122.120793">
        <ele>53.3</ele>
        <time>2015-03-25T17:22:28Z</time>
      </trkpt>
      <trkpt lat="37.382865" lon="-122.120792">
        <ele>53.4</ele>
        <time>2015-03-25T17:22:29Z</time>
      </trkpt>
      <trkpt lat="37.382791" lon="-122.120792">
        <ele>53.6</ele>
        <time>2015-03-25T17:22:30Z</time>
      </trkpt>
      <trkpt lat="37.382739" lon="-122.120791">
        <ele>53.7</ele>
        <time>2015-03-25T17:22:31Z</time>
      </trkpt>
      <trkpt lat="37.382688" lon="-122.120791">
        <ele>53.8</ele>
        <time>2015-03-25T17:22:32Z</time>
      </trkpt>
      <trkpt lat="37.382628" lon="-122.120791">
        <ele>53.9</ele>
        <time>2015-03-25T17:22:33Z</time>
      </trkpt>
      <trkpt lat="37.382573" lon="-122.12079">
        <ele>53.9</ele>
        <time>2015-03-25T17:22:34Z</time>
      </trkpt>
      <trkpt lat="37.382513" lon="-122.12079">
        <ele>54.1</ele>
        <time>2015-03-25T17:22:35Z</time>
      </trkpt>
      <trkpt lat="37.382484" lon="-122.12079">
        <ele>54.1</ele>
        <time>2015-03-25T17:22:36Z</time>
      </trkpt>
      <trkpt lat="37.382234" lon="-122.120785">
        <ele>54.7</ele>
        <time>2015-03-25T17:22:40Z</time>
      </trkpt>
      <trkpt lat="37.382184" lon="-122.120784">
        <ele>54.9</ele>
        <time>2015-03-25T17:22:41Z</time>
      </trkpt>
      <trkpt lat="37.38213" lon="-122.120783">
        <ele>55</ele>
        <time>2015-03-25T17:22:42Z</time>
      </trkpt>
      <trkpt lat="37.382078" lon="-122.120781">
        <ele>55.2</ele>
        <time>2015-03-25T17:22:43Z</time>
      </trkpt>
      <trkpt lat="37.382021" lon="-122.12078">
        <ele>55.4</ele>
        <time>2015-03-25T17:22:44Z</time>
      </trkpt>
      <trkpt lat="37.38197" lon="-122.120777">
        <ele>55.4</ele>
        <time>2015-03-25T17:22:45Z</time>
      </trkpt>
      <trkpt lat="37.381924" lon="-122.120772">
        <ele>55.5</ele>
        <time>2015-03-25T17:22:46Z</time>
      </trkpt>
      <trkpt lat="37.381843" lon="-122.120751">
        <ele>55.7</ele>
        <time>2015-03-25T17:22:48Z</time>
      </trkpt>
      <trkpt lat="37.381777" lon="-122.120728">
        <ele>55.9</ele>
        <time>2015-03-25T17:22:49Z</time>
      </trkpt>
      <trkpt lat="37.381726" lon="-122.120709">
        <ele>56</ele>
        <time>2015-03-25T17:22:50Z</time>
      </trkpt>
      <trkpt lat="37.381675" lon="-122.120686">
        <ele>56.1</ele>
        <time>2015-03-25T17:22:51Z</time>
      </trkpt>
      <trkpt lat="37.381433" lon="-122.120537">
        <ele>56.8</ele>
        <time>2015-03-25T17:22:55Z</time>
      </trkpt>
      <trkpt lat="37.381399" lon="-122.120516">
        <ele>56.9</ele>
        <time>2015-03-25T17:22:56Z</time>
      </trkpt>
      <trkpt lat="37.381357" lon="-122.120591">
        <ele>57</ele>
        <time>2015-03-25T17:22:57Z</time>
      </trkpt>
      <trkpt lat="37.381355" lon="-122.120642">
        <ele>57</ele>
        <time>2015-03-25T17:22:59Z</time>
      </trkpt>
      <trkpt lat="37.38135" lon="-122.120754">
        <ele>57</ele>
        <time>2015-03-25T17:23:00Z</time>
      </trkpt>
      <trkpt lat="37.381347" lon="-122.120805">
        <ele>57</ele>
        <time>2015-03-25T17:23:01Z</time>
      </trkpt>
      <trkpt lat="37.381345" lon="-122.120843">
        <ele>57.1</ele>
        <time>2015-03-25T17:23:02Z</time>
      </trkpt>
      <trkpt lat="37.381344" lon="-122.120887">
        <ele>57.1</ele>
        <time>2015-03-25T17:23:04Z</time>
      </trkpt>
      <trkpt lat="37.38134" lon="-122.120991">
        <ele>57.1</ele>
        <time>2015-03-25T17:23:06Z</time>
      </trkpt>
      <trkpt lat="37.381373" lon="-122.121017">
        <ele>57</ele>
        <time>2015-03-25T17:23:08Z</time>
      </trkpt>
      <trkpt lat="37.381363" lon="-122.12104">
        <ele>57.1</ele>
        <time>2015-03-25T17:23:12Z</time>
      </trkpt>
      <trkpt lat="37.381388" lon="-122.121042">
        <ele>57</ele>
        <time>2015-03-25T17:23:13Z</time>
      </trkpt>
      <trkpt lat="37.381338" lon="-122.121039">
        <ele>57.1</ele>
        <time>2015-03-25T17:23:17Z</time>
      </trkpt>
      <trkpt lat="37.381335" lon="-122.121126">
        <ele>57.3</ele>
        <time>2015-03-25T17:24:23Z</time>
      </trkpt>
      <trkpt lat="37.381333" lon="-122.121164">
        <ele>57.3</ele>
        <time>2015-03-25T17:24:24Z</time>
      </trkpt>
      <trkpt lat="37.38133" lon="-122.121224">
        <ele>57.4</ele>
        <time>2015-03-25T17:24:25Z</time>
      </trkpt>
      <trkpt lat="37.381328" lon="-122.121261">
        <ele>57.5</ele>
        <time>2015-03-25T17:24:26Z</time>
      </trkpt>
      <trkpt lat="37.381325" lon="-122.121302">
        <ele>57.4</ele>
        <time>2015-03-25T17:24:27Z</time>
      </trkpt>
      <trkpt lat="37.381323" lon="-122.121338">
        <ele>57.3</ele>
        <time>2015-03-25T17:24:28Z</time>
      </trkpt>
      <trkpt lat="37.381322" lon="-122.121404">
        <ele>57.2</ele>
        <time>2015-03-25T17:24:29Z</time>
      </trkpt>
      <trkpt lat="37.38132" lon="-122.121496">
        <ele>57.2</ele>
        <time>2015-03-25T17:24:30Z</time>
      </trkpt>
      <trkpt lat="37.381318" lon="-122.12157">
        <ele>57.3</ele>
        <time>2015-03-25T17:24:31Z</time>
      </trkpt>
      <trkpt lat="37.381318" lon="-122.121643">
        <ele>57.3</ele>
        <time>2015-03-25T17:24:32Z</time>
      </trkpt>
      <trkpt lat="37.381318" lon="-122.121702">
        <ele>57.3</ele>
        <time>2015-03-25T17:24:33Z</time>
      </trkpt>
      <trkpt lat="37.381322" lon="-122.12186">
        <ele>57.4</ele>
        <time>2015-03-25T17:24:36Z</time>
      </trkpt>
      <trkpt lat="37.381322" lon="-122.122009">
        <ele>57.4</ele>
        <time>2015-03-25T17:24:37Z</time>
      </trkpt>
      <trkpt lat="37.381323" lon="-122.122084">
        <ele>57.3</ele>
        <time>2015-03-25T17:24:38Z</time>
      </trkpt>
      <trkpt lat="37.381323" lon="-122.122166">
        <ele>57.1</ele>
        <time>2015-03-25T17:24:39Z</time>
      </trkpt>
      <trkpt lat="37.381323" lon="-122.122247">
        <ele>57</ele>
        <time>2015-03-25T17:24:40Z</time>
      </trkpt>
      <trkpt lat="37.381323" lon="-122.122312">
        <ele>57</ele>
        <time>2015-03-25T17:24:41Z</time>
      </trkpt>
      <trkpt lat="37.381323" lon="-122.122399">
        <ele>56.8</ele>
        <time>2015-03-25T17:24:42Z</time>
      </trkpt>
      <trkpt lat="37.381323" lon="-122.122484">
        <ele>56.6</ele>
        <time>2015-03-25T17:24:43Z</time>
      </trkpt>
      <trkpt lat="37.381323" lon="-122.122572">
        <ele>56.5</ele>
        <time>2015-03-25T17:24:44Z</time>
      </trkpt>
      <trkpt lat="37.381324" lon="-122.122653">
        <ele>56.3</ele>
        <time>2015-03-25T17:24:45Z</time>
      </trkpt>
      <trkpt lat="37.381324" lon="-122.122738">
        <ele>56</ele>
        <time>2015-03-25T17:24:46Z</time>
      </trkpt>
      <trkpt lat="37.381324" lon="-122.122827">
        <ele>55.8</ele>
        <time>2015-03-25T17:24:47Z</time>
      </trkpt>
      <trkpt lat="37.381324" lon="-122.122939">
        <ele>55.5</ele>
        <time>2015-03-25T17:24:48Z</time>
      </trkpt>
      <trkpt lat="37.381324" lon="-122.122983">
        <ele>55.3</ele>
        <time>2015-03-25T17:24:49Z</time>
      </trkpt>
      <trkpt lat="37.381324" lon="-122.123097">
        <ele>55</ele>
        <time>2015-03-25T17:24:50Z</time>
      </trkpt>
      <trkpt lat="37.381314" lon="-122.123168">
        <ele>54.8</ele>
        <time>2015-03-25T17:24:51Z</time>
      </trkpt>
      <trkpt lat="37.381301" lon="-122.123258">
        <ele>54.6</ele>
        <time>2015-03-25T17:24:52Z</time>
      </trkpt>
      <trkpt lat="37.381277" lon="-122.123333">
        <ele>54.5</ele>
        <time>2015-03-25T17:24:53Z</time>
      </trkpt>
      <trkpt lat="37.381243" lon="-122.123409">
        <ele>54.4</ele>
        <time>2015-03-25T17:24:54Z</time>
      </trkpt>
      <trkpt lat="37.381202" lon="-122.123487">
        <ele>54.3</ele>
        <time>2015-03-25T17:24:55Z</time>
      </trkpt>
      <trkpt lat="37.381151" lon="-122.123567">
        <ele>54.1</ele>
        <time>2015-03-25T17:24:56Z</time>
      </trkpt>
      <trkpt lat="37.381088" lon="-122.123664">
        <ele>53.8</ele>
        <time>2015-03-25T17:24:57Z</time>
      </trkpt>
      <trkpt lat="37.381028" lon="-122.123758">
        <ele>53.4</ele>
        <time>2015-03-25T17:24:58Z</time>
      </trkpt>
      <trkpt lat="37.380977" lon="-122.12383">
        <ele>53.3</ele>
        <time>2015-03-25T17:24:59Z</time>
      </trkpt>
      <trkpt lat="37.380923" lon="-122.123908">
        <ele>53.4</ele>
        <time>2015-03-25T17:25:00Z</time>
      </trkpt>
      <trkpt lat="37.380868" lon="-122.123982">
        <ele>53.5</ele>
        <time>2015-03-25T17:25:01Z</time>
      </trkpt>
      <trkpt lat="37.380824" lon="-122.124044">
        <ele>53.4</ele>
        <time>2015-03-25T17:25:02Z</time>
      </trkpt>
      <trkpt lat="37.380777" lon="-122.124109">
        <ele>53.4</ele>
        <time>2015-03-25T17:25:03Z</time>
      </trkpt>
      <trkpt lat="37.380712" lon="-122.124199">
        <ele>53.5</ele>
        <time>2015-03-25T17:25:04Z</time>
      </trkpt>
      <trkpt lat="37.380665" lon="-122.124266">
        <ele>53.6</ele>
        <time>2015-03-25T17:25:05Z</time>
      </trkpt>
      <trkpt lat="37.380624" lon="-122.124322">
        <ele>53.7</ele>
        <time>2015-03-25T17:25:06Z</time>
      </trkpt>
      <trkpt lat="37.380588" lon="-122.124372">
        <ele>53.9</ele>
        <time>2015-03-25T17:25:07Z</time>
      </trkpt>
      <trkpt lat="37.380551" lon="-122.124424">
        <ele>54.1</ele>
        <time>2015-03-25T17:25:08Z</time>
      </trkpt>
      <trkpt lat="37.380515" lon="-122.124474">
        <ele>54.2</ele>
        <time>2015-03-25T17:25:09Z</time>
      </trkpt>
      <trkpt lat="37.380401" lon="-122.124498">
        <ele>54.5</ele>
        <time>2015-03-25T17:25:10Z</time>
      </trkpt>
      <trkpt lat="37.380378" lon="-122.124456">
        <ele>54.5</ele>
        <time>2015-03-25T17:25:11Z</time>
      </trkpt>
      <trkpt lat="37.380349" lon="-122.1244">
        <ele>54.4</ele>
        <time>2015-03-25T17:25:12Z</time>
      </trkpt>
      <trkpt lat="37.380319" lon="-122.124339">
        <ele>54.3</ele>
        <time>2015-03-25T17:25:13Z</time>
      </trkpt>
      <trkpt lat="37.380282" lon="-122.12427">
        <ele>54.1</ele>
        <time>2015-03-25T17:25:14Z</time>
      </trkpt>
      <trkpt lat="37.380259" lon="-122.124226">
        <ele>54</ele>
        <time>2015-03-25T17:25:15Z</time>
      </trkpt>
      <trkpt lat="37.380225" lon="-122.124184">
        <ele>54</ele>
        <time>2015-03-25T17:25:16Z</time>
      </trkpt>
      <trkpt lat="37.380045" lon="-122.124329">
        <ele>54.5</ele>
        <time>2015-03-25T17:25:18Z</time>
      </trkpt>
      <trkpt lat="37.38001" lon="-122.124388">
        <ele>54.8</ele>
        <time>2015-03-25T17:25:19Z</time>
      </trkpt>
      <trkpt lat="37.379976" lon="-122.124448">
        <ele>55</ele>
        <time>2015-03-25T17:25:20Z</time>
      </trkpt>
      <trkpt lat="37.379939" lon="-122.124516">
        <ele>55.3</ele>
        <time>2015-03-25T17:25:21Z</time>
      </trkpt>
      <trkpt lat="37.379909" lon="-122.124568">
        <ele>55.4</ele>
        <time>2015-03-25T17:25:22Z</time>
      </trkpt>
      <trkpt lat="37.379876" lon="-122.124628">
        <ele>55.5</ele>
        <time>2015-03-25T17:25:23Z</time>
      </trkpt>
      <trkpt lat="37.37984" lon="-122.124692">
        <ele>55.6</ele>
        <time>2015-03-25T17:25:24Z</time>
      </trkpt>
      <trkpt lat="37.379807" lon="-122.124752">
        <ele>55.7</ele>
        <time>2015-03-25T17:25:25Z</time>
      </trkpt>
      <trkpt lat="37.379775" lon="-122.124811">
        <ele>55.9</ele>
        <time>2015-03-25T17:25:26Z</time>
      </trkpt>
      <trkpt lat="37.379744" lon="-122.124868">
        <ele>56</ele>
        <time>2015-03-25T17:25:27Z</time>
      </trkpt>
      <trkpt lat="37.379707" lon="-122.124939">
        <ele>56</ele>
        <time>2015-03-25T17:25:28Z</time>
      </trkpt>
      <trkpt lat="37.379672" lon="-122.125005">
        <ele>56</ele>
        <time>2015-03-25T17:25:29Z</time>
      </trkpt>
      <trkpt lat="37.379636" lon="-122.125074">
        <ele>56.1</ele>
        <time>2015-03-25T17:25:30Z</time>
      </trkpt>
      <trkpt lat="37.379604" lon="-122.125134">
        <ele>56.2</ele>
        <time>2015-03-25T17:25:31Z</time>
      </trkpt>
      <trkpt lat="37.379572" lon="-122.125195">
        <ele>56.2</ele>
        <time>2015-03-25T17:25:32Z</time>
      </trkpt>
      <trkpt lat="37.379541" lon="-122.125256">
        <ele>56.3</ele>
        <time>2015-03-25T17:25:33Z</time>
      </trkpt>
      <trkpt lat="37.379505" lon="-122.125328">
        <ele>56.3</ele>
        <time>2015-03-25T17:25:34Z</time>
      </trkpt>
      <trkpt lat="37.379471" lon="-122.125395">
        <ele>56.2</ele>
        <time>2015-03-25T17:25:35Z</time>
      </trkpt>
      <trkpt lat="37.379439" lon="-122.125458">
        <ele>56.3</ele>
        <time>2015-03-25T17:25:36Z</time>
      </trkpt>
      <trkpt lat="37.379404" lon="-122.125528">
        <ele>56.3</ele>
        <time>2015-03-25T17:25:37Z</time>
      </trkpt>
      <trkpt lat="37.379362" lon="-122.12561">
        <ele>56.4</ele>
        <time>2015-03-25T17:25:38Z</time>
      </trkpt>
      <trkpt lat="37.379328" lon="-122.125677">
        <ele>56.5</ele>
        <time>2015-03-25T17:25:39Z</time>
      </trkpt>
      <trkpt lat="37.379321" lon="-122.125766">
        <ele>56</ele>
        <time>2015-03-25T17:25:40Z</time>
      </trkpt>
      <trkpt lat="37.379284" lon="-122.125832">
        <ele>56.1</ele>
        <time>2015-03-25T17:25:41Z</time>
      </trkpt>
      <trkpt lat="37.379253" lon="-122.125897">
        <ele>56.7</ele>
        <time>2015-03-25T17:25:42Z</time>
      </trkpt>
      <trkpt lat="37.379212" lon="-122.125959">
        <ele>57.1</ele>
        <time>2015-03-25T17:25:43Z</time>
      </trkpt>
      <trkpt lat="37.379179" lon="-122.12602">
        <ele>57.7</ele>
        <time>2015-03-25T17:25:44Z</time>
      </trkpt>
      <trkpt lat="37.379143" lon="-122.126078">
        <ele>57.6</ele>
        <time>2015-03-25T17:25:45Z</time>
      </trkpt>
      <trkpt lat="37.379104" lon="-122.126143">
        <ele>57.5</ele>
        <time>2015-03-25T17:25:46Z</time>
      </trkpt>
      <trkpt lat="37.37907" lon="-122.126199">
        <ele>57.6</ele>
        <time>2015-03-25T17:25:47Z</time>
      </trkpt>
      <trkpt lat="37.379035" lon="-122.12626">
        <ele>57.9</ele>
        <time>2015-03-25T17:25:48Z</time>
      </trkpt>
      <trkpt lat="37.378998" lon="-122.126316">
        <ele>58.1</ele>
        <time>2015-03-25T17:25:49Z</time>
      </trkpt>
      <trkpt lat="37.378958" lon="-122.126375">
        <ele>58.1</ele>
        <time>2015-03-25T17:25:50Z</time>
      </trkpt>
      <trkpt lat="37.378917" lon="-122.126417">
        <ele>58.3</ele>
        <time>2015-03-25T17:25:51Z</time>
      </trkpt>
      <trkpt lat="37.378871" lon="-122.126453">
        <ele>58.4</ele>
        <time>2015-03-25T17:25:52Z</time>
      </trkpt>
      <trkpt lat="37.378819" lon="-122.126482">
        <ele>58.5</ele>
        <time>2015-03-25T17:25:53Z</time>
      </trkpt>
      <trkpt lat="37.378763" lon="-122.126516">
        <ele>58.6</ele>
        <time>2015-03-25T17:25:54Z</time>
      </trkpt>
      <trkpt lat="37.378711" lon="-122.126543">
        <ele>58.7</ele>
        <time>2015-03-25T17:25:55Z</time>
      </trkpt>
      <trkpt lat="37.378659" lon="-122.126575">
        <ele>58.8</ele>
        <time>2015-03-25T17:25:56Z</time>
      </trkpt>
      <trkpt lat="37.378601" lon="-122.1266">
        <ele>59</ele>
        <time>2015-03-25T17:25:57Z</time>
      </trkpt>
      <trkpt lat="37.378544" lon="-122.12662">
        <ele>59.1</ele>
        <time>2015-03-25T17:25:58Z</time>
      </trkpt>
      <trkpt lat="37.378483" lon="-122.126624">
        <ele>59.4</ele>
        <time>2015-03-25T17:25:59Z</time>
      </trkpt>
      <trkpt lat="37.378423" lon="-122.126625">
        <ele>59.4</ele>
        <time>2015-03-25T17:26:00Z</time>
      </trkpt>
      <trkpt lat="37.378365" lon="-122.12662">
        <ele>59.3</ele>
        <time>2015-03-25T17:26:01Z</time>
      </trkpt>
      <trkpt lat="37.378305" lon="-122.126612">
        <ele>59.4</ele>
        <time>2015-03-25T17:26:02Z</time>
      </trkpt>
      <trkpt lat="37.378243" lon="-122.126609">
        <ele>59.6</ele>
        <time>2015-03-25T17:26:03Z</time>
      </trkpt>
      <trkpt lat="37.378189" lon="-122.126602">
        <ele>59.8</ele>
        <time>2015-03-25T17:26:04Z</time>
      </trkpt>
      <trkpt lat="37.378125" lon="-122.126585">
        <ele>59.9</ele>
        <time>2015-03-25T17:26:05Z</time>
      </trkpt>
      <trkpt lat="37.378064" lon="-122.126586">
        <ele>60</ele>
        <time>2015-03-25T17:26:06Z</time>
      </trkpt>
      <trkpt lat="37.377997" lon="-122.126564">
        <ele>60</ele>
        <time>2015-03-25T17:26:07Z</time>
      </trkpt>
      <trkpt lat="37.377928" lon="-122.12657">
        <ele>59.6</ele>
        <time>2015-03-25T17:26:08Z</time>
      </trkpt>
      <trkpt lat="37.377862" lon="-122.126531">
        <ele>60.3</ele>
        <time>2015-03-25T17:26:09Z</time>
      </trkpt>
      <trkpt lat="37.377798" lon="-122.126536">
        <ele>60.5</ele>
        <time>2015-03-25T17:26:10Z</time>
      </trkpt>
      <trkpt lat="37.377551" lon="-122.126552">
        <ele>61</ele>
        <time>2015-03-25T17:26:14Z</time>
      </trkpt>
      <trkpt lat="37.377491" lon="-122.126555">
        <ele>61.1</ele>
        <time>2015-03-25T17:26:15Z</time>
      </trkpt>
      <trkpt lat="37.377426" lon="-122.126558">
        <ele>61.2</ele>
        <time>2015-03-25T17:26:16Z</time>
      </trkpt>
      <trkpt lat="37.37736" lon="-122.126562">
        <ele>61.4</ele>
        <time>2015-03-25T17:26:17Z</time>
      </trkpt>
      <trkpt lat="37.377301" lon="-122.126564">
        <ele>61.6</ele>
        <time>2015-03-25T17:26:18Z</time>
      </trkpt>
      <trkpt lat="37.377238" lon="-122.126566">
        <ele>61.7</ele>
        <time>2015-03-25T17:26:19Z</time>
      </trkpt>
      <trkpt lat="37.377175" lon="-122.126569">
        <ele>61.8</ele>
        <time>2015-03-25T17:26:20Z</time>
      </trkpt>
      <trkpt lat="37.377109" lon="-122.126569">
        <ele>61.9</ele>
        <time>2015-03-25T17:26:21Z</time>
      </trkpt>
      <trkpt lat="37.377049" lon="-122.12657">
        <ele>62</ele>
        <time>2015-03-25T17:26:22Z</time>
      </trkpt>
      <trkpt lat="37.376982" lon="-122.12657">
        <ele>62.1</ele>
        <time>2015-03-25T17:26:23Z</time>
      </trkpt>
      <trkpt lat="37.376924" lon="-122.12657">
        <ele>62.3</ele>
        <time>2015-03-25T17:26:24Z</time>
      </trkpt>
      <trkpt lat="37.376867" lon="-122.12657">
        <ele>62.4</ele>
        <time>2015-03-25T17:26:25Z</time>
      </trkpt>
      <trkpt lat="37.376804" lon="-122.12657">
        <ele>62.5</ele>
        <time>2015-03-25T17:26:26Z</time>
      </trkpt>
      <trkpt lat="37.376751" lon="-122.126569">
        <ele>62.5</ele>
        <time>2015-03-25T17:26:27Z</time>
      </trkpt>
      <trkpt lat="37.376696" lon="-122.126568">
        <ele>62.7</ele>
        <time>2015-03-25T17:26:28Z</time>
      </trkpt>
      <trkpt lat="37.37666" lon="-122.126568">
        <ele>62.8</ele>
        <time>2015-03-25T17:26:29Z</time>
      </trkpt>
      <trkpt lat="37.376451" lon="-122.126593">
        <ele>63.2</ele>
        <time>2015-03-25T17:26:32Z</time>
      </trkpt>
      <trkpt lat="37.376394" lon="-122.126607">
        <ele>63.4</ele>
        <time>2015-03-25T17:26:33Z</time>
      </trkpt>
      <trkpt lat="37.376328" lon="-122.126623">
        <ele>63.6</ele>
        <time>2015-03-25T17:26:34Z</time>
      </trkpt>
      <trkpt lat="37.376269" lon="-122.126638">
        <ele>63.7</ele>
        <time>2015-03-25T17:26:35Z</time>
      </trkpt>
      <trkpt lat="37.376207" lon="-122.126653">
        <ele>63.8</ele>
        <time>2015-03-25T17:26:36Z</time>
      </trkpt>
      <trkpt lat="37.376147" lon="-122.126668">
        <ele>64</ele>
        <time>2015-03-25T17:26:37Z</time>
      </trkpt>
      <trkpt lat="37.375921" lon="-122.12674">
        <ele>64.6</ele>
        <time>2015-03-25T17:26:41Z</time>
      </trkpt>
      <trkpt lat="37.375862" lon="-122.126762">
        <ele>64.7</ele>
        <time>2015-03-25T17:26:42Z</time>
      </trkpt>
      <trkpt lat="37.375803" lon="-122.126783">
        <ele>64.9</ele>
        <time>2015-03-25T17:26:44Z</time>
      </trkpt>
      <trkpt lat="37.375694" lon="-122.126824">
        <ele>65.1</ele>
        <time>2015-03-25T17:26:45Z</time>
      </trkpt>
      <trkpt lat="37.375639" lon="-122.126846">
        <ele>65.3</ele>
        <time>2015-03-25T17:26:46Z</time>
      </trkpt>
      <trkpt lat="37.375595" lon="-122.126862">
        <ele>65.4</ele>
        <time>2015-03-25T17:26:47Z</time>
      </trkpt>
      <trkpt lat="37.375539" lon="-122.126879">
        <ele>65.5</ele>
        <time>2015-03-25T17:26:48Z</time>
      </trkpt>
      <trkpt lat="37.375482" lon="-122.126895">
        <ele>65.7</ele>
        <time>2015-03-25T17:26:49Z</time>
      </trkpt>
      <trkpt lat="37.375423" lon="-122.12691">
        <ele>65.8</ele>
        <time>2015-03-25T17:26:50Z</time>
      </trkpt>
      <trkpt lat="37.375352" lon="-122.126914">
        <ele>66</ele>
        <time>2015-03-25T17:26:51Z</time>
      </trkpt>
      <trkpt lat="37.375291" lon="-122.126912">
        <ele>66.1</ele>
        <time>2015-03-25T17:26:52Z</time>
      </trkpt>
      <trkpt lat="37.375242" lon="-122.126907">
        <ele>66.3</ele>
        <time>2015-03-25T17:26:53Z</time>
      </trkpt>
      <trkpt lat="37.374971" lon="-122.126859">
        <ele>66.8</ele>
        <time>2015-03-25T17:26:57Z</time>
      </trkpt>
      <trkpt lat="37.374909" lon="-122.126848">
        <ele>66.9</ele>
        <time>2015-03-25T17:26:58Z</time>
      </trkpt>
      <trkpt lat="37.374848" lon="-122.126838">
        <ele>67</ele>
        <time>2015-03-25T17:26:59Z</time>
      </trkpt>
      <trkpt lat="37.374791" lon="-122.126829">
        <ele>67.1</ele>
        <time>2015-03-25T17:27:00Z</time>
      </trkpt>
      <trkpt lat="37.374733" lon="-122.126819">
        <ele>67.4</ele>
        <time>2015-03-25T17:27:01Z</time>
      </trkpt>
      <trkpt lat="37.374704" lon="-122.126815">
        <ele>67.5</ele>
        <time>2015-03-25T17:27:02Z</time>
      </trkpt>
      <trkpt lat="37.374645" lon="-122.126805">
        <ele>67.7</ele>
        <time>2015-03-25T17:27:03Z</time>
      </trkpt>
      <trkpt lat="37.37459" lon="-122.126796">
        <ele>67.8</ele>
        <time>2015-03-25T17:27:04Z</time>
      </trkpt>
      <trkpt lat="37.374516" lon="-122.126784">
        <ele>68</ele>
        <time>2015-03-25T17:27:05Z</time>
      </trkpt>
      <trkpt lat="37.374465" lon="-122.126776">
        <ele>68.2</ele>
        <time>2015-03-25T17:27:07Z</time>
      </trkpt>
      <trkpt lat="37.3744" lon="-122.126769">
        <ele>68.4</ele>
        <time>2015-03-25T17:27:08Z</time>
      </trkpt>
      <trkpt lat="37.374355" lon="-122.126764">
        <ele>68.6</ele>
        <time>2015-03-25T17:27:09Z</time>
      </trkpt>
      <trkpt lat="37.374308" lon="-122.126759">
        <ele>68.7</ele>
        <time>2015-03-25T17:27:10Z</time>
      </trkpt>
      <trkpt lat="37.374259" lon="-122.126753">
        <ele>69.1</ele>
        <time>2015-03-25T17:27:11Z</time>
      </trkpt>
      <trkpt lat="37.374212" lon="-122.126749">
        <ele>69.4</ele>
        <time>2015-03-25T17:27:12Z</time>
      </trkpt>
      <trkpt lat="37.374174" lon="-122.126747">
        <ele>69.6</ele>
        <time>2015-03-25T17:27:13Z</time>
      </trkpt>
      <trkpt lat="37.374126" lon="-122.126746">
        <ele>70</ele>
        <time>2015-03-25T17:27:14Z</time>
      </trkpt>
      <trkpt lat="37.374098" lon="-122.126747">
        <ele>70.4</ele>
        <time>2015-03-25T17:27:15Z</time>
      </trkpt>
      <trkpt lat="37.374061" lon="-122.12675">
        <ele>70.5</ele>
        <time>2015-03-25T17:27:16Z</time>
      </trkpt>
      <trkpt lat="37.374009" lon="-122.126755">
        <ele>70.9</ele>
        <time>2015-03-25T17:27:17Z</time>
      </trkpt>
      <trkpt lat="37.373974" lon="-122.126761">
        <ele>71.2</ele>
        <time>2015-03-25T17:27:18Z</time>
      </trkpt>
      <trkpt lat="37.373926" lon="-122.12677">
        <ele>71.6</ele>
        <time>2015-03-25T17:27:19Z</time>
      </trkpt>
      <trkpt lat="37.373887" lon="-122.126777">
        <ele>72</ele>
        <time>2015-03-25T17:27:20Z</time>
      </trkpt>
      <trkpt lat="37.373855" lon="-122.126783">
        <ele>72.1</ele>
        <time>2015-03-25T17:27:21Z</time>
      </trkpt>
      <trkpt lat="37.373817" lon="-122.12679">
        <ele>72.2</ele>
        <time>2015-03-25T17:27:22Z</time>
      </trkpt>
      <trkpt lat="37.373778" lon="-122.126797">
        <ele>72.6</ele>
        <time>2015-03-25T17:27:23Z</time>
      </trkpt>
      <trkpt lat="37.37374" lon="-122.126804">
        <ele>73</ele>
        <time>2015-03-25T17:27:24Z</time>
      </trkpt>
      <trkpt lat="37.373704" lon="-122.126811">
        <ele>73</ele>
        <time>2015-03-25T17:27:25Z</time>
      </trkpt>
      <trkpt lat="37.373668" lon="-122.126817">
        <ele>73.1</ele>
        <time>2015-03-25T17:27:26Z</time>
      </trkpt>
      <trkpt lat="37.37363" lon="-122.126824">
        <ele>73.3</ele>
        <time>2015-03-25T17:27:27Z</time>
      </trkpt>
      <trkpt lat="37.373592" lon="-122.126831">
        <ele>73.4</ele>
        <time>2015-03-25T17:27:28Z</time>
      </trkpt>
      <trkpt lat="37.373552" lon="-122.126836">
        <ele>73.5</ele>
        <time>2015-03-25T17:27:29Z</time>
      </trkpt>
      <trkpt lat="37.37352" lon="-122.126841">
        <ele>73.5</ele>
        <time>2015-03-25T17:27:30Z</time>
      </trkpt>
      <trkpt lat="37.373483" lon="-122.126846">
        <ele>73.6</ele>
        <time>2015-03-25T17:27:31Z</time>
      </trkpt>
      <trkpt lat="37.373443" lon="-122.126852">
        <ele>73.6</ele>
        <time>2015-03-25T17:27:32Z</time>
      </trkpt>
      <trkpt lat="37.373403" lon="-122.126857">
        <ele>73.5</ele>
        <time>2015-03-25T17:27:33Z</time>
      </trkpt>
      <trkpt lat="37.373359" lon="-122.126863">
        <ele>73.4</ele>
        <time>2015-03-25T17:27:34Z</time>
      </trkpt>
      <trkpt lat="37.373315" lon="-122.126869">
        <ele>73.3</ele>
        <time>2015-03-25T17:27:35Z</time>
      </trkpt>
      <trkpt lat="37.373261" lon="-122.126885">
        <ele>73.1</ele>
        <time>2015-03-25T17:27:36Z</time>
      </trkpt>
      <trkpt lat="37.373187" lon="-122.126926">
        <ele>72.8</ele>
        <time>2015-03-25T17:27:38Z</time>
      </trkpt>
      <trkpt lat="37.373133" lon="-122.126973">
        <ele>72.9</ele>
        <time>2015-03-25T17:27:40Z</time>
      </trkpt>
      <trkpt lat="37.373071" lon="-122.127051">
        <ele>73.1</ele>
        <time>2015-03-25T17:27:41Z</time>
      </trkpt>
      <trkpt lat="37.37303" lon="-122.127103">
        <ele>73.5</ele>
        <time>2015-03-25T17:27:42Z</time>
      </trkpt>
      <trkpt lat="37.373005" lon="-122.127134">
        <ele>73.7</ele>
        <time>2015-03-25T17:27:43Z</time>
      </trkpt>
      <trkpt lat="37.372966" lon="-122.127183">
        <ele>73.9</ele>
        <time>2015-03-25T17:27:44Z</time>
      </trkpt>
      <trkpt lat="37.372934" lon="-122.127223">
        <ele>74.2</ele>
        <time>2015-03-25T17:27:45Z</time>
      </trkpt>
      <trkpt lat="37.372894" lon="-122.127272">
        <ele>74.3</ele>
        <time>2015-03-25T17:27:46Z</time>
      </trkpt>
      <trkpt lat="37.37286" lon="-122.12731">
        <ele>74.5</ele>
        <time>2015-03-25T17:27:47Z</time>
      </trkpt>
      <trkpt lat="37.372824" lon="-122.127353">
        <ele>74.8</ele>
        <time>2015-03-25T17:27:48Z</time>
      </trkpt>
      <trkpt lat="37.372795" lon="-122.127386">
        <ele>75.1</ele>
        <time>2015-03-25T17:27:49Z</time>
      </trkpt>
      <trkpt lat="37.372761" lon="-122.127424">
        <ele>75.6</ele>
        <time>2015-03-25T17:27:50Z</time>
      </trkpt>
      <trkpt lat="37.372714" lon="-122.127477">
        <ele>75.9</ele>
        <time>2015-03-25T17:27:52Z</time>
      </trkpt>
      <trkpt lat="37.372654" lon="-122.127526">
        <ele>75.8</ele>
        <time>2015-03-25T17:27:54Z</time>
      </trkpt>
      <trkpt lat="37.372624" lon="-122.127547">
        <ele>76.1</ele>
        <time>2015-03-25T17:27:55Z</time>
      </trkpt>
      <trkpt lat="37.372589" lon="-122.127566">
        <ele>76.6</ele>
        <time>2015-03-25T17:27:56Z</time>
      </trkpt>
      <trkpt lat="37.372551" lon="-122.127583">
        <ele>77.5</ele>
        <time>2015-03-25T17:27:58Z</time>
      </trkpt>
      <trkpt lat="37.372499" lon="-122.127599">
        <ele>78.1</ele>
        <time>2015-03-25T17:27:59Z</time>
      </trkpt>
      <trkpt lat="37.372447" lon="-122.12761">
        <ele>78.3</ele>
        <time>2015-03-25T17:28:01Z</time>
      </trkpt>
      <trkpt lat="37.372412" lon="-122.127613">
        <ele>78.6</ele>
        <time>2015-03-25T17:28:02Z</time>
      </trkpt>
      <trkpt lat="37.37236" lon="-122.127615">
        <ele>79.3</ele>
        <time>2015-03-25T17:28:04Z</time>
      </trkpt>
      <trkpt lat="37.372333" lon="-122.127615">
        <ele>79</ele>
        <time>2015-03-25T17:28:05Z</time>
      </trkpt>
      <trkpt lat="37.37228" lon="-122.127613">
        <ele>78.8</ele>
        <time>2015-03-25T17:28:07Z</time>
      </trkpt>
      <trkpt lat="37.372247" lon="-122.127611">
        <ele>78.7</ele>
        <time>2015-03-25T17:28:08Z</time>
      </trkpt>
      <trkpt lat="37.372211" lon="-122.12761">
        <ele>78.4</ele>
        <time>2015-03-25T17:28:09Z</time>
      </trkpt>
      <trkpt lat="37.372171" lon="-122.127608">
        <ele>78.3</ele>
        <time>2015-03-25T17:28:10Z</time>
      </trkpt>
      <trkpt lat="37.371907" lon="-122.127648">
        <ele>77.7</ele>
        <time>2015-03-25T17:28:15Z</time>
      </trkpt>
      <trkpt lat="37.371857" lon="-122.127671">
        <ele>77.4</ele>
        <time>2015-03-25T17:28:16Z</time>
      </trkpt>
      <trkpt lat="37.37181" lon="-122.127704">
        <ele>77.8</ele>
        <time>2015-03-25T17:28:17Z</time>
      </trkpt>
      <trkpt lat="37.371757" lon="-122.12775">
        <ele>77.7</ele>
        <time>2015-03-25T17:28:18Z</time>
      </trkpt>
      <trkpt lat="37.371708" lon="-122.127802">
        <ele>78.1</ele>
        <time>2015-03-25T17:28:19Z</time>
      </trkpt>
      <trkpt lat="37.371685" lon="-122.127829">
        <ele>78.1</ele>
        <time>2015-03-25T17:28:20Z</time>
      </trkpt>
      <trkpt lat="37.371656" lon="-122.127875">
        <ele>78.2</ele>
        <time>2015-03-25T17:28:21Z</time>
      </trkpt>
      <trkpt lat="37.37154" lon="-122.12814">
        <ele>79.1</ele>
        <time>2015-03-25T17:28:25Z</time>
      </trkpt>
      <trkpt lat="37.371518" lon="-122.128184">
        <ele>79.4</ele>
        <time>2015-03-25T17:28:26Z</time>
      </trkpt>
      <trkpt lat="37.371497" lon="-122.128223">
        <ele>79.7</ele>
        <time>2015-03-25T17:28:27Z</time>
      </trkpt>
      <trkpt lat="37.371477" lon="-122.128254">
        <ele>80</ele>
        <time>2015-03-25T17:28:28Z</time>
      </trkpt>
      <trkpt lat="37.371432" lon="-122.12831">
        <ele>80.7</ele>
        <time>2015-03-25T17:28:29Z</time>
      </trkpt>
      <trkpt lat="37.371403" lon="-122.128347">
        <ele>80.9</ele>
        <time>2015-03-25T17:28:30Z</time>
      </trkpt>
      <trkpt lat="37.371368" lon="-122.128384">
        <ele>81.4</ele>
        <time>2015-03-25T17:28:32Z</time>
      </trkpt>
      <trkpt lat="37.371331" lon="-122.128423">
        <ele>82</ele>
        <time>2015-03-25T17:28:34Z</time>
      </trkpt>
      <trkpt lat="37.371308" lon="-122.128446">
        <ele>82.3</ele>
        <time>2015-03-25T17:28:35Z</time>
      </trkpt>
      <trkpt lat="37.371265" lon="-122.128488">
        <ele>82.7</ele>
        <time>2015-03-25T17:28:37Z</time>
      </trkpt>
      <trkpt lat="37.371242" lon="-122.128509">
        <ele>82.9</ele>
        <time>2015-03-25T17:28:38Z</time>
      </trkpt>
      <trkpt lat="37.371217" lon="-122.128531">
        <ele>83.3</ele>
        <time>2015-03-25T17:28:39Z</time>
      </trkpt>
      <trkpt lat="37.371195" lon="-122.12855">
        <ele>83.5</ele>
        <time>2015-03-25T17:28:40Z</time>
      </trkpt>
      <trkpt lat="37.37117" lon="-122.128572">
        <ele>83.8</ele>
        <time>2015-03-25T17:28:41Z</time>
      </trkpt>
      <trkpt lat="37.371146" lon="-122.12859">
        <ele>84.1</ele>
        <time>2015-03-25T17:28:42Z</time>
      </trkpt>
      <trkpt lat="37.371105" lon="-122.128619">
        <ele>84.5</ele>
        <time>2015-03-25T17:28:44Z</time>
      </trkpt>
      <trkpt lat="37.371079" lon="-122.128636">
        <ele>84.7</ele>
        <time>2015-03-25T17:28:45Z</time>
      </trkpt>
      <trkpt lat="37.371052" lon="-122.128653">
        <ele>85</ele>
        <time>2015-03-25T17:28:46Z</time>
      </trkpt>
      <trkpt lat="37.371027" lon="-122.128668">
        <ele>85.2</ele>
        <time>2015-03-25T17:28:47Z</time>
      </trkpt>
      <trkpt lat="37.370999" lon="-122.128684">
        <ele>85.4</ele>
        <time>2015-03-25T17:28:48Z</time>
      </trkpt>
      <trkpt lat="37.37097" lon="-122.1287">
        <ele>85.7</ele>
        <time>2015-03-25T17:28:49Z</time>
      </trkpt>
      <trkpt lat="37.370912" lon="-122.128731">
        <ele>86.1</ele>
        <time>2015-03-25T17:28:51Z</time>
      </trkpt>
      <trkpt lat="37.37085" lon="-122.12876">
        <ele>86.6</ele>
        <time>2015-03-25T17:28:53Z</time>
      </trkpt>
      <trkpt lat="37.370828" lon="-122.128794">
        <ele>86.6</ele>
        <time>2015-03-25T17:28:54Z</time>
      </trkpt>
      <trkpt lat="37.370797" lon="-122.128801">
        <ele>87.1</ele>
        <time>2015-03-25T17:28:55Z</time>
      </trkpt>
      <trkpt lat="37.370768" lon="-122.12881">
        <ele>87.5</ele>
        <time>2015-03-25T17:28:56Z</time>
      </trkpt>
      <trkpt lat="37.37074" lon="-122.128816">
        <ele>87.7</ele>
        <time>2015-03-25T17:28:57Z</time>
      </trkpt>
      <trkpt lat="37.37069" lon="-122.128825">
        <ele>88.3</ele>
        <time>2015-03-25T17:28:59Z</time>
      </trkpt>
      <trkpt lat="37.370639" lon="-122.128832">
        <ele>88.7</ele>
        <time>2015-03-25T17:29:01Z</time>
      </trkpt>
      <trkpt lat="37.370593" lon="-122.128842">
        <ele>89</ele>
        <time>2015-03-25T17:29:03Z</time>
      </trkpt>
      <trkpt lat="37.370544" lon="-122.128851">
        <ele>89.3</ele>
        <time>2015-03-25T17:29:05Z</time>
      </trkpt>
      <trkpt lat="37.370517" lon="-122.128854">
        <ele>89.4</ele>
        <time>2015-03-25T17:29:06Z</time>
      </trkpt>
      <trkpt lat="37.370488" lon="-122.128859">
        <ele>89.6</ele>
        <time>2015-03-25T17:29:07Z</time>
      </trkpt>
      <trkpt lat="37.370459" lon="-122.128864">
        <ele>89.7</ele>
        <time>2015-03-25T17:29:08Z</time>
      </trkpt>
      <trkpt lat="37.370428" lon="-122.128869">
        <ele>89.8</ele>
        <time>2015-03-25T17:29:09Z</time>
      </trkpt>
      <trkpt lat="37.370398" lon="-122.128873">
        <ele>90</ele>
        <time>2015-03-25T17:29:10Z</time>
      </trkpt>
      <trkpt lat="37.370368" lon="-122.128876">
        <ele>90</ele>
        <time>2015-03-25T17:29:11Z</time>
      </trkpt>
      <trkpt lat="37.370337" lon="-122.128882">
        <ele>90.1</ele>
        <time>2015-03-25T17:29:12Z</time>
      </trkpt>
      <trkpt lat="37.370306" lon="-122.12889">
        <ele>90.2</ele>
        <time>2015-03-25T17:29:13Z</time>
      </trkpt>
      <trkpt lat="37.370271" lon="-122.128895">
        <ele>90.3</ele>
        <time>2015-03-25T17:29:14Z</time>
      </trkpt>
      <trkpt lat="37.370236" lon="-122.1289">
        <ele>90.5</ele>
        <time>2015-03-25T17:29:15Z</time>
      </trkpt>
      <trkpt lat="37.370201" lon="-122.128908">
        <ele>90.6</ele>
        <time>2015-03-25T17:29:16Z</time>
      </trkpt>
      <trkpt lat="37.370169" lon="-122.128917">
        <ele>90.8</ele>
        <time>2015-03-25T17:29:17Z</time>
      </trkpt>
      <trkpt lat="37.370139" lon="-122.128928">
        <ele>91</ele>
        <time>2015-03-25T17:29:18Z</time>
      </trkpt>
      <trkpt lat="37.370107" lon="-122.128939">
        <ele>91.1</ele>
        <time>2015-03-25T17:29:19Z</time>
      </trkpt>
      <trkpt lat="37.370073" lon="-122.128949">
        <ele>91.4</ele>
        <time>2015-03-25T17:29:20Z</time>
      </trkpt>
      <trkpt lat="37.370037" lon="-122.128958">
        <ele>91.6</ele>
        <time>2015-03-25T17:29:21Z</time>
      </trkpt>
      <trkpt lat="37.370004" lon="-122.128966">
        <ele>91.8</ele>
        <time>2015-03-25T17:29:22Z</time>
      </trkpt>
      <trkpt lat="37.369968" lon="-122.128971">
        <ele>92.1</ele>
        <time>2015-03-25T17:29:23Z</time>
      </trkpt>
      <trkpt lat="37.369932" lon="-122.128978">
        <ele>92.2</ele>
        <time>2015-03-25T17:29:24Z</time>
      </trkpt>
      <trkpt lat="37.369899" lon="-122.128991">
        <ele>92.4</ele>
        <time>2015-03-25T17:29:25Z</time>
      </trkpt>
      <trkpt lat="37.369869" lon="-122.129008">
        <ele>92.5</ele>
        <time>2015-03-25T17:29:26Z</time>
      </trkpt>
      <trkpt lat="37.369824" lon="-122.12904">
        <ele>92.7</ele>
        <time>2015-03-25T17:29:28Z</time>
      </trkpt>
      <trkpt lat="37.369796" lon="-122.129061">
        <ele>92.8</ele>
        <time>2015-03-25T17:29:29Z</time>
      </trkpt>
      <trkpt lat="37.369765" lon="-122.129089">
        <ele>92.8</ele>
        <time>2015-03-25T17:29:30Z</time>
      </trkpt>
      <trkpt lat="37.369735" lon="-122.129122">
        <ele>92.7</ele>
        <time>2015-03-25T17:29:31Z</time>
      </trkpt>
      <trkpt lat="37.369707" lon="-122.129154">
        <ele>92.5</ele>
        <time>2015-03-25T17:29:32Z</time>
      </trkpt>
      <trkpt lat="37.369675" lon="-122.12919">
        <ele>92.4</ele>
        <time>2015-03-25T17:29:33Z</time>
      </trkpt>
      <trkpt lat="37.369642" lon="-122.129226">
        <ele>92.7</ele>
        <time>2015-03-25T17:29:34Z</time>
      </trkpt>
      <trkpt lat="37.369609" lon="-122.129258">
        <ele>93.1</ele>
        <time>2015-03-25T17:29:35Z</time>
      </trkpt>
      <trkpt lat="37.369576" lon="-122.129292">
        <ele>93.2</ele>
        <time>2015-03-25T17:29:36Z</time>
      </trkpt>
      <trkpt lat="37.369542" lon="-122.129323">
        <ele>93.5</ele>
        <time>2015-03-25T17:29:37Z</time>
      </trkpt>
      <trkpt lat="37.369507" lon="-122.129354">
        <ele>93.9</ele>
        <time>2015-03-25T17:29:38Z</time>
      </trkpt>
      <trkpt lat="37.369473" lon="-122.129385">
        <ele>94</ele>
        <time>2015-03-25T17:29:39Z</time>
      </trkpt>
      <trkpt lat="37.369443" lon="-122.129415">
        <ele>94.1</ele>
        <time>2015-03-25T17:29:40Z</time>
      </trkpt>
      <trkpt lat="37.369408" lon="-122.129447">
        <ele>94.4</ele>
        <time>2015-03-25T17:29:41Z</time>
      </trkpt>
      <trkpt lat="37.369372" lon="-122.129479">
        <ele>94.5</ele>
        <time>2015-03-25T17:29:42Z</time>
      </trkpt>
      <trkpt lat="37.369331" lon="-122.12949">
        <ele>94.7</ele>
        <time>2015-03-25T17:29:43Z</time>
      </trkpt>
      <trkpt lat="37.369291" lon="-122.12952">
        <ele>94.8</ele>
        <time>2015-03-25T17:29:44Z</time>
      </trkpt>
      <trkpt lat="37.369253" lon="-122.129549">
        <ele>94.9</ele>
        <time>2015-03-25T17:29:45Z</time>
      </trkpt>
      <trkpt lat="37.369205" lon="-122.129586">
        <ele>95.1</ele>
        <time>2015-03-25T17:29:46Z</time>
      </trkpt>
      <trkpt lat="37.36918" lon="-122.129603">
        <ele>95.1</ele>
        <time>2015-03-25T17:29:47Z</time>
      </trkpt>
      <trkpt lat="37.369146" lon="-122.129626">
        <ele>95.3</ele>
        <time>2015-03-25T17:29:48Z</time>
      </trkpt>
      <trkpt lat="37.369113" lon="-122.129646">
        <ele>95.3</ele>
        <time>2015-03-25T17:29:50Z</time>
      </trkpt>
      <trkpt lat="37.369039" lon="-122.129686">
        <ele>95.4</ele>
        <time>2015-03-25T17:29:51Z</time>
      </trkpt>
      <trkpt lat="37.368999" lon="-122.129708">
        <ele>95.5</ele>
        <time>2015-03-25T17:29:52Z</time>
      </trkpt>
      <trkpt lat="37.36896" lon="-122.12973">
        <ele>95.5</ele>
        <time>2015-03-25T17:29:53Z</time>
      </trkpt>
      <trkpt lat="37.368922" lon="-122.129751">
        <ele>95.5</ele>
        <time>2015-03-25T17:29:54Z</time>
      </trkpt>
      <trkpt lat="37.368874" lon="-122.129777">
        <ele>95.6</ele>
        <time>2015-03-25T17:29:55Z</time>
      </trkpt>
      <trkpt lat="37.368837" lon="-122.129797">
        <ele>95.6</ele>
        <time>2015-03-25T17:29:56Z</time>
      </trkpt>
      <trkpt lat="37.368798" lon="-122.129819">
        <ele>95.6</ele>
        <time>2015-03-25T17:29:57Z</time>
      </trkpt>
      <trkpt lat="37.368759" lon="-122.129841">
        <ele>95.6</ele>
        <time>2015-03-25T17:29:58Z</time>
      </trkpt>
      <trkpt lat="37.368719" lon="-122.129863">
        <ele>95.7</ele>
        <time>2015-03-25T17:29:59Z</time>
      </trkpt>
      <trkpt lat="37.368661" lon="-122.129895">
        <ele>95.7</ele>
        <time>2015-03-25T17:30:00Z</time>
      </trkpt>
      <trkpt lat="37.368621" lon="-122.129917">
        <ele>95.6</ele>
        <time>2015-03-25T17:30:01Z</time>
      </trkpt>
      <trkpt lat="37.368555" lon="-122.129953">
        <ele>95.6</ele>
        <time>2015-03-25T17:30:02Z</time>
      </trkpt>
      <trkpt lat="37.368505" lon="-122.129981">
        <ele>95.5</ele>
        <time>2015-03-25T17:30:03Z</time>
      </trkpt>
      <trkpt lat="37.368323" lon="-122.13011">
        <ele>95.2</ele>
        <time>2015-03-25T17:30:07Z</time>
      </trkpt>
      <trkpt lat="37.368266" lon="-122.130156">
        <ele>95.1</ele>
        <time>2015-03-25T17:30:09Z</time>
      </trkpt>
      <trkpt lat="37.36818" lon="-122.130227">
        <ele>95</ele>
        <time>2015-03-25T17:30:10Z</time>
      </trkpt>
      <trkpt lat="37.368023" lon="-122.130413">
        <ele>94.5</ele>
        <time>2015-03-25T17:30:14Z</time>
      </trkpt>
      <trkpt lat="37.367974" lon="-122.130506">
        <ele>94.1</ele>
        <time>2015-03-25T17:30:16Z</time>
      </trkpt>
      <trkpt lat="37.367943" lon="-122.130584">
        <ele>93.8</ele>
        <time>2015-03-25T17:30:17Z</time>
      </trkpt>
      <trkpt lat="37.36791" lon="-122.130673">
        <ele>93.7</ele>
        <time>2015-03-25T17:30:18Z</time>
      </trkpt>
      <trkpt lat="37.367889" lon="-122.130743">
        <ele>93.8</ele>
        <time>2015-03-25T17:30:19Z</time>
      </trkpt>
      <trkpt lat="37.367867" lon="-122.130818">
        <ele>94.3</ele>
        <time>2015-03-25T17:30:20Z</time>
      </trkpt>
      <trkpt lat="37.367846" lon="-122.13089">
        <ele>94.7</ele>
        <time>2015-03-25T17:30:21Z</time>
      </trkpt>
      <trkpt lat="37.367826" lon="-122.130956">
        <ele>95</ele>
        <time>2015-03-25T17:30:22Z</time>
      </trkpt>
      <trkpt lat="37.367808" lon="-122.131018">
        <ele>95.3</ele>
        <time>2015-03-25T17:30:23Z</time>
      </trkpt>
      <trkpt lat="37.367793" lon="-122.131067">
        <ele>95.5</ele>
        <time>2015-03-25T17:30:24Z</time>
      </trkpt>
      <trkpt lat="37.367773" lon="-122.131135">
        <ele>95.7</ele>
        <time>2015-03-25T17:30:25Z</time>
      </trkpt>
      <trkpt lat="37.367757" lon="-122.131194">
        <ele>96</ele>
        <time>2015-03-25T17:30:26Z</time>
      </trkpt>
      <trkpt lat="37.367746" lon="-122.131246">
        <ele>96.2</ele>
        <time>2015-03-25T17:30:27Z</time>
      </trkpt>
      <trkpt lat="37.367736" lon="-122.131324">
        <ele>96.5</ele>
        <time>2015-03-25T17:30:28Z</time>
      </trkpt>
      <trkpt lat="37.367733" lon="-122.131427">
        <ele>97.2</ele>
        <time>2015-03-25T17:30:30Z</time>
      </trkpt>
      <trkpt lat="37.367737" lon="-122.1315">
        <ele>98</ele>
        <time>2015-03-25T17:30:31Z</time>
      </trkpt>
      <trkpt lat="37.36774" lon="-122.131552">
        <ele>98.4</ele>
        <time>2015-03-25T17:30:32Z</time>
      </trkpt>
      <trkpt lat="37.367744" lon="-122.13161">
        <ele>98.7</ele>
        <time>2015-03-25T17:30:33Z</time>
      </trkpt>
      <trkpt lat="37.367754" lon="-122.131707">
        <ele>99.2</ele>
        <time>2015-03-25T17:30:35Z</time>
      </trkpt>
      <trkpt lat="37.367762" lon="-122.131777">
        <ele>99.7</ele>
        <time>2015-03-25T17:30:36Z</time>
      </trkpt>
      <trkpt lat="37.367769" lon="-122.131814">
        <ele>100</ele>
        <time>2015-03-25T17:30:38Z</time>
      </trkpt>
      <trkpt lat="37.367782" lon="-122.131884">
        <ele>100.4</ele>
        <time>2015-03-25T17:30:40Z</time>
      </trkpt>
      <trkpt lat="37.367791" lon="-122.131933">
        <ele>100.6</ele>
        <time>2015-03-25T17:30:41Z</time>
      </trkpt>
      <trkpt lat="37.367798" lon="-122.131971">
        <ele>100.8</ele>
        <time>2015-03-25T17:30:42Z</time>
      </trkpt>
      <trkpt lat="37.367806" lon="-122.132013">
        <ele>101</ele>
        <time>2015-03-25T17:30:43Z</time>
      </trkpt>
      <trkpt lat="37.367813" lon="-122.132052">
        <ele>101.1</ele>
        <time>2015-03-25T17:30:44Z</time>
      </trkpt>
      <trkpt lat="37.367822" lon="-122.132094">
        <ele>101.4</ele>
        <time>2015-03-25T17:30:45Z</time>
      </trkpt>
      <trkpt lat="37.367831" lon="-122.132136">
        <ele>101.6</ele>
        <time>2015-03-25T17:30:46Z</time>
      </trkpt>
      <trkpt lat="37.367889" lon="-122.13241">
        <ele>103</ele>
        <time>2015-03-25T17:30:52Z</time>
      </trkpt>
      <trkpt lat="37.367899" lon="-122.132456">
        <ele>103.1</ele>
        <time>2015-03-25T17:30:53Z</time>
      </trkpt>
      <trkpt lat="37.367909" lon="-122.132502">
        <ele>103.2</ele>
        <time>2015-03-25T17:30:54Z</time>
      </trkpt>
      <trkpt lat="37.367918" lon="-122.132544">
        <ele>103.4</ele>
        <time>2015-03-25T17:30:55Z</time>
      </trkpt>
      <trkpt lat="37.367928" lon="-122.13259">
        <ele>103.7</ele>
        <time>2015-03-25T17:30:56Z</time>
      </trkpt>
      <trkpt lat="37.367938" lon="-122.132636">
        <ele>103.8</ele>
        <time>2015-03-25T17:30:57Z</time>
      </trkpt>
      <trkpt lat="37.367948" lon="-122.132684">
        <ele>104</ele>
        <time>2015-03-25T17:30:58Z</time>
      </trkpt>
      <trkpt lat="37.367956" lon="-122.132728">
        <ele>104.2</ele>
        <time>2015-03-25T17:30:59Z</time>
      </trkpt>
      <trkpt lat="37.367961" lon="-122.132762">
        <ele>104.4</ele>
        <time>2015-03-25T17:31:00Z</time>
      </trkpt>
      <trkpt lat="37.367965" lon="-122.132807">
        <ele>104.6</ele>
        <time>2015-03-25T17:31:01Z</time>
      </trkpt>
      <trkpt lat="37.367969" lon="-122.132877">
        <ele>104.8</ele>
        <time>2015-03-25T17:31:03Z</time>
      </trkpt>
      <trkpt lat="37.367966" lon="-122.132923">
        <ele>104.9</ele>
        <time>2015-03-25T17:31:04Z</time>
      </trkpt>
      <trkpt lat="37.367956" lon="-122.133008">
        <ele>105.2</ele>
        <time>2015-03-25T17:31:07Z</time>
      </trkpt>
      <trkpt lat="37.367946" lon="-122.133053">
        <ele>105.3</ele>
        <time>2015-03-25T17:31:08Z</time>
      </trkpt>
      <trkpt lat="37.367926" lon="-122.133124">
        <ele>105.6</ele>
        <time>2015-03-25T17:31:09Z</time>
      </trkpt>
      <trkpt lat="37.367912" lon="-122.133159">
        <ele>105.7</ele>
        <time>2015-03-25T17:31:10Z</time>
      </trkpt>
      <trkpt lat="37.367873" lon="-122.133233">
        <ele>106.1</ele>
        <time>2015-03-25T17:31:12Z</time>
      </trkpt>
      <trkpt lat="37.367854" lon="-122.133262">
        <ele>106.2</ele>
        <time>2015-03-25T17:31:13Z</time>
      </trkpt>
      <trkpt lat="37.367827" lon="-122.133301">
        <ele>106.5</ele>
        <time>2015-03-25T17:31:14Z</time>
      </trkpt>
      <trkpt lat="37.3678" lon="-122.13334">
        <ele>106.7</ele>
        <time>2015-03-25T17:31:15Z</time>
      </trkpt>
      <trkpt lat="37.367778" lon="-122.13337">
        <ele>106.8</ele>
        <time>2015-03-25T17:31:16Z</time>
      </trkpt>
      <trkpt lat="37.367753" lon="-122.133405">
        <ele>107</ele>
        <time>2015-03-25T17:31:17Z</time>
      </trkpt>
      <trkpt lat="37.367729" lon="-122.13344">
        <ele>107</ele>
        <time>2015-03-25T17:31:18Z</time>
      </trkpt>
      <trkpt lat="37.367704" lon="-122.133475">
        <ele>107.2</ele>
        <time>2015-03-25T17:31:19Z</time>
      </trkpt>
      <trkpt lat="37.367681" lon="-122.133508">
        <ele>107.3</ele>
        <time>2015-03-25T17:31:20Z</time>
      </trkpt>
      <trkpt lat="37.367656" lon="-122.133544">
        <ele>107.4</ele>
        <time>2015-03-25T17:31:21Z</time>
      </trkpt>
      <trkpt lat="37.367629" lon="-122.133581">
        <ele>107.4</ele>
        <time>2015-03-25T17:31:22Z</time>
      </trkpt>
      <trkpt lat="37.367469" lon="-122.133808">
        <ele>108.3</ele>
        <time>2015-03-25T17:31:28Z</time>
      </trkpt>
      <trkpt lat="37.367443" lon="-122.133845">
        <ele>108.4</ele>
        <time>2015-03-25T17:31:29Z</time>
      </trkpt>
      <trkpt lat="37.367412" lon="-122.133889">
        <ele>108.6</ele>
        <time>2015-03-25T17:31:30Z</time>
      </trkpt>
      <trkpt lat="37.36737" lon="-122.133948">
        <ele>109</ele>
        <time>2015-03-25T17:31:31Z</time>
      </trkpt>
      <trkpt lat="37.367343" lon="-122.133986">
        <ele>109.2</ele>
        <time>2015-03-25T17:31:32Z</time>
      </trkpt>
      <trkpt lat="37.36732" lon="-122.134019">
        <ele>109.4</ele>
        <time>2015-03-25T17:31:33Z</time>
      </trkpt>
      <trkpt lat="37.367294" lon="-122.134055">
        <ele>109.5</ele>
        <time>2015-03-25T17:31:34Z</time>
      </trkpt>
      <trkpt lat="37.367232" lon="-122.134143">
        <ele>109.9</ele>
        <time>2015-03-25T17:31:37Z</time>
      </trkpt>
      <trkpt lat="37.367208" lon="-122.134178">
        <ele>110</ele>
        <time>2015-03-25T17:31:38Z</time>
      </trkpt>
      <trkpt lat="37.367182" lon="-122.134214">
        <ele>110.1</ele>
        <time>2015-03-25T17:31:39Z</time>
      </trkpt>
      <trkpt lat="37.367157" lon="-122.13425">
        <ele>110.2</ele>
        <time>2015-03-25T17:31:40Z</time>
      </trkpt>
      <trkpt lat="37.367131" lon="-122.134287">
        <ele>110.4</ele>
        <time>2015-03-25T17:31:41Z</time>
      </trkpt>
      <trkpt lat="37.367106" lon="-122.134322">
        <ele>110.4</ele>
        <time>2015-03-25T17:31:42Z</time>
      </trkpt>
      <trkpt lat="37.367081" lon="-122.134357">
        <ele>110.5</ele>
        <time>2015-03-25T17:31:43Z</time>
      </trkpt>
      <trkpt lat="37.367081" lon="-122.1344">
        <ele>110.8</ele>
        <time>2015-03-25T17:31:44Z</time>
      </trkpt>
      <trkpt lat="37.367057" lon="-122.134439">
        <ele>111</ele>
        <time>2015-03-25T17:31:45Z</time>
      </trkpt>
      <trkpt lat="37.367036" lon="-122.134476">
        <ele>111</ele>
        <time>2015-03-25T17:31:46Z</time>
      </trkpt>
      <trkpt lat="37.367012" lon="-122.134516">
        <ele>111.2</ele>
        <time>2015-03-25T17:31:47Z</time>
      </trkpt>
      <trkpt lat="37.366982" lon="-122.134551">
        <ele>111</ele>
        <time>2015-03-25T17:31:48Z</time>
      </trkpt>
      <trkpt lat="37.366964" lon="-122.134587">
        <ele>111.1</ele>
        <time>2015-03-25T17:31:49Z</time>
      </trkpt>
      <trkpt lat="37.366946" lon="-122.13463">
        <ele>111.5</ele>
        <time>2015-03-25T17:31:50Z</time>
      </trkpt>
      <trkpt lat="37.366912" lon="-122.13468">
        <ele>111.7</ele>
        <time>2015-03-25T17:31:51Z</time>
      </trkpt>
      <trkpt lat="37.366894" lon="-122.134725">
        <ele>111.7</ele>
        <time>2015-03-25T17:31:52Z</time>
      </trkpt>
      <trkpt lat="37.366863" lon="-122.134767">
        <ele>111.8</ele>
        <time>2015-03-25T17:31:53Z</time>
      </trkpt>
      <trkpt lat="37.366847" lon="-122.134816">
        <ele>111.9</ele>
        <time>2015-03-25T17:31:54Z</time>
      </trkpt>
      <trkpt lat="37.366812" lon="-122.134861">
        <ele>112.1</ele>
        <time>2015-03-25T17:31:55Z</time>
      </trkpt>
      <trkpt lat="37.36678" lon="-122.134897">
        <ele>111.9</ele>
        <time>2015-03-25T17:31:56Z</time>
      </trkpt>
      <trkpt lat="37.366766" lon="-122.134945">
        <ele>111.8</ele>
        <time>2015-03-25T17:31:57Z</time>
      </trkpt>
      <trkpt lat="37.366754" lon="-122.13498">
        <ele>111.8</ele>
        <time>2015-03-25T17:31:58Z</time>
      </trkpt>
      <trkpt lat="37.366729" lon="-122.134999">
        <ele>111.8</ele>
        <time>2015-03-25T17:31:59Z</time>
      </trkpt>
      <trkpt lat="37.366717" lon="-122.135047">
        <ele>112</ele>
        <time>2015-03-25T17:32:00Z</time>
      </trkpt>
      <trkpt lat="37.366677" lon="-122.135102">
        <ele>112</ele>
        <time>2015-03-25T17:32:01Z</time>
      </trkpt>
      <trkpt lat="37.366661" lon="-122.13515">
        <ele>112.2</ele>
        <time>2015-03-25T17:32:02Z</time>
      </trkpt>
      <trkpt lat="37.366638" lon="-122.13519">
        <ele>112.4</ele>
        <time>2015-03-25T17:32:03Z</time>
      </trkpt>
      <trkpt lat="37.36663" lon="-122.135237">
        <ele>112.9</ele>
        <time>2015-03-25T17:32:04Z</time>
      </trkpt>
      <trkpt lat="37.366606" lon="-122.13527">
        <ele>114.4</ele>
        <time>2015-03-25T17:32:05Z</time>
      </trkpt>
      <trkpt lat="37.366599" lon="-122.135307">
        <ele>115.9</ele>
        <time>2015-03-25T17:32:06Z</time>
      </trkpt>
      <trkpt lat="37.366568" lon="-122.135484">
        <ele>119.3</ele>
        <time>2015-03-25T17:32:11Z</time>
      </trkpt>
      <trkpt lat="37.366552" lon="-122.135521">
        <ele>119.5</ele>
        <time>2015-03-25T17:32:12Z</time>
      </trkpt>
      <trkpt lat="37.366532" lon="-122.135569">
        <ele>119.7</ele>
        <time>2015-03-25T17:32:15Z</time>
      </trkpt>
      <trkpt lat="37.366502" lon="-122.135609">
        <ele>119.8</ele>
        <time>2015-03-25T17:32:16Z</time>
      </trkpt>
      <trkpt lat="37.366513" lon="-122.135646">
        <ele>119.9</ele>
        <time>2015-03-25T17:32:17Z</time>
      </trkpt>
      <trkpt lat="37.366442" lon="-122.135728">
        <ele>120.4</ele>
        <time>2015-03-25T17:32:20Z</time>
      </trkpt>
      <trkpt lat="37.366227" lon="-122.135878">
        <ele>120.7</ele>
        <time>2015-03-25T17:32:23Z</time>
      </trkpt>
      <trkpt lat="37.36618" lon="-122.135915">
        <ele>118</ele>
        <time>2015-03-25T17:32:24Z</time>
      </trkpt>
      <trkpt lat="37.366141" lon="-122.135949">
        <ele>116</ele>
        <time>2015-03-25T17:32:25Z</time>
      </trkpt>
      <trkpt lat="37.366103" lon="-122.135982">
        <ele>115.9</ele>
        <time>2015-03-25T17:32:26Z</time>
      </trkpt>
      <trkpt lat="37.366068" lon="-122.136015">
        <ele>116.5</ele>
        <time>2015-03-25T17:32:27Z</time>
      </trkpt>
      <trkpt lat="37.366037" lon="-122.136046">
        <ele>117</ele>
        <time>2015-03-25T17:32:28Z</time>
      </trkpt>
      <trkpt lat="37.36601" lon="-122.136077">
        <ele>117.5</ele>
        <time>2015-03-25T17:32:29Z</time>
      </trkpt>
      <trkpt lat="37.365987" lon="-122.136103">
        <ele>117.9</ele>
        <time>2015-03-25T17:32:30Z</time>
      </trkpt>
      <trkpt lat="37.365965" lon="-122.136128">
        <ele>118.2</ele>
        <time>2015-03-25T17:32:31Z</time>
      </trkpt>
      <trkpt lat="37.365942" lon="-122.136153">
        <ele>118.4</ele>
        <time>2015-03-25T17:32:32Z</time>
      </trkpt>
      <trkpt lat="37.365921" lon="-122.136178">
        <ele>118.6</ele>
        <time>2015-03-25T17:32:33Z</time>
      </trkpt>
      <trkpt lat="37.365901" lon="-122.136203">
        <ele>118.9</ele>
        <time>2015-03-25T17:32:34Z</time>
      </trkpt>
      <trkpt lat="37.36588" lon="-122.13623">
        <ele>119.3</ele>
        <time>2015-03-25T17:32:35Z</time>
      </trkpt>
      <trkpt lat="37.365858" lon="-122.136257">
        <ele>119.5</ele>
        <time>2015-03-25T17:32:36Z</time>
      </trkpt>
      <trkpt lat="37.365836" lon="-122.136286">
        <ele>119.6</ele>
        <time>2015-03-25T17:32:37Z</time>
      </trkpt>
      <trkpt lat="37.365812" lon="-122.136315">
        <ele>119.7</ele>
        <time>2015-03-25T17:32:38Z</time>
      </trkpt>
      <trkpt lat="37.365789" lon="-122.136345">
        <ele>119.9</ele>
        <time>2015-03-25T17:32:39Z</time>
      </trkpt>
      <trkpt lat="37.365765" lon="-122.136376">
        <ele>120</ele>
        <time>2015-03-25T17:32:40Z</time>
      </trkpt>
      <trkpt lat="37.365742" lon="-122.136408">
        <ele>120.1</ele>
        <time>2015-03-25T17:32:41Z</time>
      </trkpt>
      <trkpt lat="37.365718" lon="-122.136439">
        <ele>120.2</ele>
        <time>2015-03-25T17:32:42Z</time>
      </trkpt>
      <trkpt lat="37.365691" lon="-122.136473">
        <ele>120.4</ele>
        <time>2015-03-25T17:32:43Z</time>
      </trkpt>
      <trkpt lat="37.365665" lon="-122.136505">
        <ele>120.4</ele>
        <time>2015-03-25T17:32:44Z</time>
      </trkpt>
      <trkpt lat="37.365632" lon="-122.136534">
        <ele>120.5</ele>
        <time>2015-03-25T17:32:45Z</time>
      </trkpt>
      <trkpt lat="37.365608" lon="-122.136561">
        <ele>120.7</ele>
        <time>2015-03-25T17:32:46Z</time>
      </trkpt>
      <trkpt lat="37.36559" lon="-122.136626">
        <ele>120.7</ele>
        <time>2015-03-25T17:32:48Z</time>
      </trkpt>
      <trkpt lat="37.365554" lon="-122.136658">
        <ele>120.9</ele>
        <time>2015-03-25T17:32:49Z</time>
      </trkpt>
      <trkpt lat="37.36553" lon="-122.136694">
        <ele>121.1</ele>
        <time>2015-03-25T17:32:50Z</time>
      </trkpt>
      <trkpt lat="37.365479" lon="-122.136686">
        <ele>121.1</ele>
        <time>2015-03-25T17:32:51Z</time>
      </trkpt>
      <trkpt lat="37.365459" lon="-122.136716">
        <ele>121.2</ele>
        <time>2015-03-25T17:32:52Z</time>
      </trkpt>
      <trkpt lat="37.365435" lon="-122.13675">
        <ele>121.4</ele>
        <time>2015-03-25T17:32:53Z</time>
      </trkpt>
      <trkpt lat="37.365416" lon="-122.136779">
        <ele>121.6</ele>
        <time>2015-03-25T17:32:54Z</time>
      </trkpt>
      <trkpt lat="37.365392" lon="-122.136813">
        <ele>121.8</ele>
        <time>2015-03-25T17:32:55Z</time>
      </trkpt>
      <trkpt lat="37.365371" lon="-122.136845">
        <ele>122</ele>
        <time>2015-03-25T17:32:56Z</time>
      </trkpt>
      <trkpt lat="37.365344" lon="-122.136885">
        <ele>122.3</ele>
        <time>2015-03-25T17:32:57Z</time>
      </trkpt>
      <trkpt lat="37.365318" lon="-122.136923">
        <ele>122.5</ele>
        <time>2015-03-25T17:32:58Z</time>
      </trkpt>
      <trkpt lat="37.365295" lon="-122.136956">
        <ele>122.6</ele>
        <time>2015-03-25T17:32:59Z</time>
      </trkpt>
      <trkpt lat="37.365269" lon="-122.136994">
        <ele>122.9</ele>
        <time>2015-03-25T17:33:00Z</time>
      </trkpt>
      <trkpt lat="37.365247" lon="-122.137026">
        <ele>123.1</ele>
        <time>2015-03-25T17:33:01Z</time>
      </trkpt>
      <trkpt lat="37.365225" lon="-122.137058">
        <ele>123.4</ele>
        <time>2015-03-25T17:33:02Z</time>
      </trkpt>
      <trkpt lat="37.365205" lon="-122.137088">
        <ele>123.6</ele>
        <time>2015-03-25T17:33:03Z</time>
      </trkpt>
      <trkpt lat="37.365184" lon="-122.137118">
        <ele>123.9</ele>
        <time>2015-03-25T17:33:04Z</time>
      </trkpt>
      <trkpt lat="37.365167" lon="-122.137144">
        <ele>124</ele>
        <time>2015-03-25T17:33:05Z</time>
      </trkpt>
      <trkpt lat="37.365146" lon="-122.137174">
        <ele>124.2</ele>
        <time>2015-03-25T17:33:06Z</time>
      </trkpt>
      <trkpt lat="37.365125" lon="-122.137205">
        <ele>124.4</ele>
        <time>2015-03-25T17:33:07Z</time>
      </trkpt>
      <trkpt lat="37.365106" lon="-122.137232">
        <ele>124.6</ele>
        <time>2015-03-25T17:33:08Z</time>
      </trkpt>
      <trkpt lat="37.365088" lon="-122.137259">
        <ele>124.7</ele>
        <time>2015-03-25T17:33:09Z</time>
      </trkpt>
      <trkpt lat="37.365069" lon="-122.137287">
        <ele>124.9</ele>
        <time>2015-03-25T17:33:10Z</time>
      </trkpt>
      <trkpt lat="37.365052" lon="-122.137313">
        <ele>125.1</ele>
        <time>2015-03-25T17:33:11Z</time>
      </trkpt>
      <trkpt lat="37.36502" lon="-122.13736">
        <ele>125.4</ele>
        <time>2015-03-25T17:33:13Z</time>
      </trkpt>
      <trkpt lat="37.364987" lon="-122.137408">
        <ele>125.6</ele>
        <time>2015-03-25T17:33:15Z</time>
      </trkpt>
      <trkpt lat="37.364969" lon="-122.137436">
        <ele>125.7</ele>
        <time>2015-03-25T17:33:16Z</time>
      </trkpt>
      <trkpt lat="37.36495" lon="-122.137464">
        <ele>125.7</ele>
        <time>2015-03-25T17:33:17Z</time>
      </trkpt>
      <trkpt lat="37.36493" lon="-122.137494">
        <ele>125.7</ele>
        <time>2015-03-25T17:33:18Z</time>
      </trkpt>
      <trkpt lat="37.364731" lon="-122.137483">
        <ele>124</ele>
        <time>2015-03-25T17:33:22Z</time>
      </trkpt>
      <trkpt lat="37.364694" lon="-122.137482">
        <ele>123.6</ele>
        <time>2015-03-25T17:33:23Z</time>
      </trkpt>
      <trkpt lat="37.364635" lon="-122.13748">
        <ele>123.1</ele>
        <time>2015-03-25T17:33:24Z</time>
      </trkpt>
      <trkpt lat="37.364583" lon="-122.137478">
        <ele>122.5</ele>
        <time>2015-03-25T17:33:25Z</time>
      </trkpt>
      <trkpt lat="37.364519" lon="-122.137473">
        <ele>121.8</ele>
        <time>2015-03-25T17:33:26Z</time>
      </trkpt>
      <trkpt lat="37.364448" lon="-122.137466">
        <ele>121.1</ele>
        <time>2015-03-25T17:33:27Z</time>
      </trkpt>
      <trkpt lat="37.364389" lon="-122.137452">
        <ele>120.5</ele>
        <time>2015-03-25T17:33:28Z</time>
      </trkpt>
      <trkpt lat="37.364336" lon="-122.137436">
        <ele>120</ele>
        <time>2015-03-25T17:33:29Z</time>
      </trkpt>
      <trkpt lat="37.364258" lon="-122.137393">
        <ele>119.2</ele>
        <time>2015-03-25T17:33:30Z</time>
      </trkpt>
      <trkpt lat="37.364195" lon="-122.137343">
        <ele>118.5</ele>
        <time>2015-03-25T17:33:31Z</time>
      </trkpt>
      <trkpt lat="37.36413" lon="-122.137269">
        <ele>117.8</ele>
        <time>2015-03-25T17:33:32Z</time>
      </trkpt>
      <trkpt lat="37.364095" lon="-122.137217">
        <ele>117.3</ele>
        <time>2015-03-25T17:33:33Z</time>
      </trkpt>
      <trkpt lat="37.364033" lon="-122.137093">
        <ele>116.3</ele>
        <time>2015-03-25T17:33:34Z</time>
      </trkpt>
      <trkpt lat="37.363988" lon="-122.136995">
        <ele>115.2</ele>
        <time>2015-03-25T17:33:35Z</time>
      </trkpt>
      <trkpt lat="37.363941" lon="-122.136894">
        <ele>114.3</ele>
        <time>2015-03-25T17:33:36Z</time>
      </trkpt>
      <trkpt lat="37.363878" lon="-122.136775">
        <ele>113.4</ele>
        <time>2015-03-25T17:33:37Z</time>
      </trkpt>
      <trkpt lat="37.363806" lon="-122.136656">
        <ele>112.6</ele>
        <time>2015-03-25T17:33:38Z</time>
      </trkpt>
      <trkpt lat="37.363733" lon="-122.13656">
        <ele>112.2</ele>
        <time>2015-03-25T17:33:39Z</time>
      </trkpt>
      <trkpt lat="37.363644" lon="-122.13647">
        <ele>111.4</ele>
        <time>2015-03-25T17:33:40Z</time>
      </trkpt>
      <trkpt lat="37.363581" lon="-122.136417">
        <ele>110.8</ele>
        <time>2015-03-25T17:33:41Z</time>
      </trkpt>
      <trkpt lat="37.36348" lon="-122.136349">
        <ele>109.9</ele>
        <time>2015-03-25T17:33:42Z</time>
      </trkpt>
      <trkpt lat="37.363299" lon="-122.13625">
        <ele>109.1</ele>
        <time>2015-03-25T17:33:43Z</time>
      </trkpt>
      <trkpt lat="37.36324" lon="-122.136247">
        <ele>109.1</ele>
        <time>2015-03-25T17:33:44Z</time>
      </trkpt>
      <trkpt lat="37.363112" lon="-122.136277">
        <ele>109</ele>
        <time>2015-03-25T17:33:45Z</time>
      </trkpt>
      <trkpt lat="37.363009" lon="-122.136305">
        <ele>109.1</ele>
        <time>2015-03-25T17:33:46Z</time>
      </trkpt>
      <trkpt lat="37.362907" lon="-122.136329">
        <ele>109.3</ele>
        <time>2015-03-25T17:33:48Z</time>
      </trkpt>
      <trkpt lat="37.362809" lon="-122.136351">
        <ele>109.7</ele>
        <time>2015-03-25T17:33:49Z</time>
      </trkpt>
      <trkpt lat="37.362627" lon="-122.13639">
        <ele>110.6</ele>
        <time>2015-03-25T17:33:50Z</time>
      </trkpt>
      <trkpt lat="37.362547" lon="-122.136409">
        <ele>110.9</ele>
        <time>2015-03-25T17:33:51Z</time>
      </trkpt>
      <trkpt lat="37.362464" lon="-122.13643">
        <ele>111.5</ele>
        <time>2015-03-25T17:33:52Z</time>
      </trkpt>
      <trkpt lat="37.362395" lon="-122.136447">
        <ele>111.9</ele>
        <time>2015-03-25T17:33:53Z</time>
      </trkpt>
      <trkpt lat="37.362322" lon="-122.136464">
        <ele>112.2</ele>
        <time>2015-03-25T17:33:55Z</time>
      </trkpt>
      <trkpt lat="37.362255" lon="-122.136478">
        <ele>112.6</ele>
        <time>2015-03-25T17:33:56Z</time>
      </trkpt>
      <trkpt lat="37.362182" lon="-122.13649">
        <ele>113.1</ele>
        <time>2015-03-25T17:33:57Z</time>
      </trkpt>
      <trkpt lat="37.362051" lon="-122.136508">
        <ele>113.7</ele>
        <time>2015-03-25T17:33:58Z</time>
      </trkpt>
      <trkpt lat="37.361995" lon="-122.136515">
        <ele>114</ele>
        <time>2015-03-25T17:34:00Z</time>
      </trkpt>
      <trkpt lat="37.361947" lon="-122.136521">
        <ele>114.2</ele>
        <time>2015-03-25T17:34:01Z</time>
      </trkpt>
      <trkpt lat="37.361855" lon="-122.136531">
        <ele>114.7</ele>
        <time>2015-03-25T17:34:02Z</time>
      </trkpt>
      <trkpt lat="37.36181" lon="-122.136536">
        <ele>114.9</ele>
        <time>2015-03-25T17:34:03Z</time>
      </trkpt>
      <trkpt lat="37.361765" lon="-122.136542">
        <ele>115.2</ele>
        <time>2015-03-25T17:34:04Z</time>
      </trkpt>
      <trkpt lat="37.361727" lon="-122.136547">
        <ele>115.4</ele>
        <time>2015-03-25T17:34:05Z</time>
      </trkpt>
      <trkpt lat="37.361681" lon="-122.136553">
        <ele>115.7</ele>
        <time>2015-03-25T17:34:06Z</time>
      </trkpt>
      <trkpt lat="37.361625" lon="-122.136562">
        <ele>116</ele>
        <time>2015-03-25T17:34:07Z</time>
      </trkpt>
      <trkpt lat="37.361585" lon="-122.13657">
        <ele>116.2</ele>
        <time>2015-03-25T17:34:08Z</time>
      </trkpt>
      <trkpt lat="37.361555" lon="-122.136576">
        <ele>116.5</ele>
        <time>2015-03-25T17:34:09Z</time>
      </trkpt>
      <trkpt lat="37.361515" lon="-122.136585">
        <ele>116.7</ele>
        <time>2015-03-25T17:34:11Z</time>
      </trkpt>
      <trkpt lat="37.361447" lon="-122.13661">
        <ele>117.1</ele>
        <time>2015-03-25T17:34:12Z</time>
      </trkpt>
      <trkpt lat="37.361407" lon="-122.136626">
        <ele>117.3</ele>
        <time>2015-03-25T17:34:13Z</time>
      </trkpt>
      <trkpt lat="37.361359" lon="-122.136647">
        <ele>117.5</ele>
        <time>2015-03-25T17:34:15Z</time>
      </trkpt>
      <trkpt lat="37.361293" lon="-122.136687">
        <ele>118.1</ele>
        <time>2015-03-25T17:34:16Z</time>
      </trkpt>
      <trkpt lat="37.361258" lon="-122.136708">
        <ele>118.4</ele>
        <time>2015-03-25T17:34:17Z</time>
      </trkpt>
      <trkpt lat="37.361228" lon="-122.136728">
        <ele>118.6</ele>
        <time>2015-03-25T17:34:18Z</time>
      </trkpt>
      <trkpt lat="37.361199" lon="-122.136747">
        <ele>119</ele>
        <time>2015-03-25T17:34:19Z</time>
      </trkpt>
      <trkpt lat="37.361168" lon="-122.136768">
        <ele>119.5</ele>
        <time>2015-03-25T17:34:20Z</time>
      </trkpt>
      <trkpt lat="37.361142" lon="-122.136785">
        <ele>119.6</ele>
        <time>2015-03-25T17:34:21Z</time>
      </trkpt>
      <trkpt lat="37.361117" lon="-122.136802">
        <ele>119.7</ele>
        <time>2015-03-25T17:34:22Z</time>
      </trkpt>
      <trkpt lat="37.361092" lon="-122.136818">
        <ele>119.9</ele>
        <time>2015-03-25T17:34:23Z</time>
      </trkpt>
      <trkpt lat="37.361041" lon="-122.136844">
        <ele>120.3</ele>
        <time>2015-03-25T17:34:25Z</time>
      </trkpt>
      <trkpt lat="37.36099" lon="-122.136858">
        <ele>120.7</ele>
        <time>2015-03-25T17:34:27Z</time>
      </trkpt>
      <trkpt lat="37.360936" lon="-122.136861">
        <ele>121</ele>
        <time>2015-03-25T17:34:29Z</time>
      </trkpt>
      <trkpt lat="37.360907" lon="-122.136859">
        <ele>121.2</ele>
        <time>2015-03-25T17:34:30Z</time>
      </trkpt>
      <trkpt lat="37.36085" lon="-122.136846">
        <ele>121.7</ele>
        <time>2015-03-25T17:34:32Z</time>
      </trkpt>
      <trkpt lat="37.3608" lon="-122.136822">
        <ele>122.1</ele>
        <time>2015-03-25T17:34:34Z</time>
      </trkpt>
      <trkpt lat="37.360648" lon="-122.13662">
        <ele>123.5</ele>
        <time>2015-03-25T17:34:42Z</time>
      </trkpt>
      <trkpt lat="37.360633" lon="-122.136582">
        <ele>123.8</ele>
        <time>2015-03-25T17:34:43Z</time>
      </trkpt>
      <trkpt lat="37.360611" lon="-122.136522">
        <ele>124.1</ele>
        <time>2015-03-25T17:34:45Z</time>
      </trkpt>
      <trkpt lat="37.360589" lon="-122.136457">
        <ele>124.5</ele>
        <time>2015-03-25T17:34:47Z</time>
      </trkpt>
      <trkpt lat="37.360575" lon="-122.136416">
        <ele>124.9</ele>
        <time>2015-03-25T17:34:48Z</time>
      </trkpt>
      <trkpt lat="37.360561" lon="-122.136377">
        <ele>125.2</ele>
        <time>2015-03-25T17:34:49Z</time>
      </trkpt>
      <trkpt lat="37.36055" lon="-122.136344">
        <ele>125.4</ele>
        <time>2015-03-25T17:34:50Z</time>
      </trkpt>
      <trkpt lat="37.360536" lon="-122.136303">
        <ele>125.6</ele>
        <time>2015-03-25T17:34:51Z</time>
      </trkpt>
      <trkpt lat="37.360525" lon="-122.13627">
        <ele>125.9</ele>
        <time>2015-03-25T17:34:52Z</time>
      </trkpt>
      <trkpt lat="37.360512" lon="-122.136234">
        <ele>126.2</ele>
        <time>2015-03-25T17:34:53Z</time>
      </trkpt>
      <trkpt lat="37.360501" lon="-122.1362">
        <ele>126.3</ele>
        <time>2015-03-25T17:34:54Z</time>
      </trkpt>
      <trkpt lat="37.36049" lon="-122.136167">
        <ele>126.6</ele>
        <time>2015-03-25T17:34:55Z</time>
      </trkpt>
      <trkpt lat="37.360478" lon="-122.136132">
        <ele>126.8</ele>
        <time>2015-03-25T17:34:56Z</time>
      </trkpt>
      <trkpt lat="37.360467" lon="-122.136099">
        <ele>127.1</ele>
        <time>2015-03-25T17:34:57Z</time>
      </trkpt>
      <trkpt lat="37.360447" lon="-122.13604">
        <ele>127.5</ele>
        <time>2015-03-25T17:34:59Z</time>
      </trkpt>
      <trkpt lat="37.360424" lon="-122.135974">
        <ele>127.8</ele>
        <time>2015-03-25T17:35:01Z</time>
      </trkpt>
      <trkpt lat="37.36041" lon="-122.135933">
        <ele>128.1</ele>
        <time>2015-03-25T17:35:02Z</time>
      </trkpt>
      <trkpt lat="37.360397" lon="-122.135892">
        <ele>128.2</ele>
        <time>2015-03-25T17:35:03Z</time>
      </trkpt>
      <trkpt lat="37.360384" lon="-122.135856">
        <ele>128.3</ele>
        <time>2015-03-25T17:35:04Z</time>
      </trkpt>
      <trkpt lat="37.360371" lon="-122.13582">
        <ele>128.4</ele>
        <time>2015-03-25T17:35:05Z</time>
      </trkpt>
      <trkpt lat="37.360357" lon="-122.135779">
        <ele>128.5</ele>
        <time>2015-03-25T17:35:06Z</time>
      </trkpt>
      <trkpt lat="37.360342" lon="-122.135737">
        <ele>128.5</ele>
        <time>2015-03-25T17:35:07Z</time>
      </trkpt>
      <trkpt lat="37.360322" lon="-122.135682">
        <ele>128.6</ele>
        <time>2015-03-25T17:35:08Z</time>
      </trkpt>
      <trkpt lat="37.360305" lon="-122.135636">
        <ele>128.5</ele>
        <time>2015-03-25T17:35:09Z</time>
      </trkpt>
      <trkpt lat="37.360287" lon="-122.135592">
        <ele>128.4</ele>
        <time>2015-03-25T17:35:10Z</time>
      </trkpt>
      <trkpt lat="37.360269" lon="-122.135547">
        <ele>128.4</ele>
        <time>2015-03-25T17:35:11Z</time>
      </trkpt>
      <trkpt lat="37.360248" lon="-122.135502">
        <ele>128.3</ele>
        <time>2015-03-25T17:35:12Z</time>
      </trkpt>
      <trkpt lat="37.360222" lon="-122.135458">
        <ele>128.1</ele>
        <time>2015-03-25T17:35:13Z</time>
      </trkpt>
      <trkpt lat="37.360185" lon="-122.135395">
        <ele>127.8</ele>
        <time>2015-03-25T17:35:14Z</time>
      </trkpt>
      <trkpt lat="37.360144" lon="-122.135328">
        <ele>127.5</ele>
        <time>2015-03-25T17:35:15Z</time>
      </trkpt>
      <trkpt lat="37.360117" lon="-122.135285">
        <ele>127.4</ele>
        <time>2015-03-25T17:35:16Z</time>
      </trkpt>
      <trkpt lat="37.360073" lon="-122.135212">
        <ele>127.1</ele>
        <time>2015-03-25T17:35:17Z</time>
      </trkpt>
      <trkpt lat="37.360036" lon="-122.135153">
        <ele>126.7</ele>
        <time>2015-03-25T17:35:18Z</time>
      </trkpt>
      <trkpt lat="37.360004" lon="-122.135104">
        <ele>126.5</ele>
        <time>2015-03-25T17:35:19Z</time>
      </trkpt>
      <trkpt lat="37.359961" lon="-122.135037">
        <ele>126.1</ele>
        <time>2015-03-25T17:35:20Z</time>
      </trkpt>
      <trkpt lat="37.359926" lon="-122.134981">
        <ele>125.8</ele>
        <time>2015-03-25T17:35:21Z</time>
      </trkpt>
      <trkpt lat="37.359893" lon="-122.134927">
        <ele>125.6</ele>
        <time>2015-03-25T17:35:22Z</time>
      </trkpt>
      <trkpt lat="37.359859" lon="-122.134872">
        <ele>125.3</ele>
        <time>2015-03-25T17:35:23Z</time>
      </trkpt>
      <trkpt lat="37.359815" lon="-122.1348">
        <ele>125</ele>
        <time>2015-03-25T17:35:24Z</time>
      </trkpt>
      <trkpt lat="37.359771" lon="-122.134729">
        <ele>124.6</ele>
        <time>2015-03-25T17:35:25Z</time>
      </trkpt>
      <trkpt lat="37.359731" lon="-122.134663">
        <ele>124.3</ele>
        <time>2015-03-25T17:35:26Z</time>
      </trkpt>
      <trkpt lat="37.359662" lon="-122.134555">
        <ele>123.8</ele>
        <time>2015-03-25T17:35:27Z</time>
      </trkpt>
      <trkpt lat="37.359616" lon="-122.134482">
        <ele>123.5</ele>
        <time>2015-03-25T17:35:28Z</time>
      </trkpt>
      <trkpt lat="37.359482" lon="-122.134263">
        <ele>122.4</ele>
        <time>2015-03-25T17:35:31Z</time>
      </trkpt>
      <trkpt lat="37.359437" lon="-122.134189">
        <ele>122.2</ele>
        <time>2015-03-25T17:35:32Z</time>
      </trkpt>
      <trkpt lat="37.359391" lon="-122.134114">
        <ele>121.9</ele>
        <time>2015-03-25T17:35:33Z</time>
      </trkpt>
      <trkpt lat="37.359341" lon="-122.134032">
        <ele>121.7</ele>
        <time>2015-03-25T17:35:34Z</time>
      </trkpt>
      <trkpt lat="37.359293" lon="-122.13395">
        <ele>121.3</ele>
        <time>2015-03-25T17:35:35Z</time>
      </trkpt>
      <trkpt lat="37.359247" lon="-122.133867">
        <ele>121</ele>
        <time>2015-03-25T17:35:36Z</time>
      </trkpt>
      <trkpt lat="37.359203" lon="-122.13377">
        <ele>120.3</ele>
        <time>2015-03-25T17:35:37Z</time>
      </trkpt>
      <trkpt lat="37.359178" lon="-122.133692">
        <ele>119.8</ele>
        <time>2015-03-25T17:35:38Z</time>
      </trkpt>
      <trkpt lat="37.359166" lon="-122.133611">
        <ele>119.2</ele>
        <time>2015-03-25T17:35:39Z</time>
      </trkpt>
      <trkpt lat="37.359158" lon="-122.133527">
        <ele>118.5</ele>
        <time>2015-03-25T17:35:40Z</time>
      </trkpt>
      <trkpt lat="37.359152" lon="-122.133426">
        <ele>117.6</ele>
        <time>2015-03-25T17:35:41Z</time>
      </trkpt>
      <trkpt lat="37.359146" lon="-122.133283">
        <ele>116.4</ele>
        <time>2015-03-25T17:35:43Z</time>
      </trkpt>
      <trkpt lat="37.359124" lon="-122.133036">
        <ele>114.7</ele>
        <time>2015-03-25T17:35:44Z</time>
      </trkpt>
      <trkpt lat="37.359107" lon="-122.132922">
        <ele>114.2</ele>
        <time>2015-03-25T17:35:45Z</time>
      </trkpt>
      <trkpt lat="37.359082" lon="-122.132778">
        <ele>113.8</ele>
        <time>2015-03-25T17:35:46Z</time>
      </trkpt>
      <trkpt lat="37.359062" lon="-122.13267">
        <ele>113.6</ele>
        <time>2015-03-25T17:35:47Z</time>
      </trkpt>
      <trkpt lat="37.35903" lon="-122.132512">
        <ele>113.1</ele>
        <time>2015-03-25T17:35:48Z</time>
      </trkpt>
      <trkpt lat="37.359007" lon="-122.1324">
        <ele>112.7</ele>
        <time>2015-03-25T17:35:49Z</time>
      </trkpt>
      <trkpt lat="37.358983" lon="-122.132282">
        <ele>112.3</ele>
        <time>2015-03-25T17:35:50Z</time>
      </trkpt>
      <trkpt lat="37.358958" lon="-122.132168">
        <ele>111.7</ele>
        <time>2015-03-25T17:35:51Z</time>
      </trkpt>
      <trkpt lat="37.35893" lon="-122.132038">
        <ele>110.9</ele>
        <time>2015-03-25T17:35:52Z</time>
      </trkpt>
      <trkpt lat="37.358903" lon="-122.131915">
        <ele>110.3</ele>
        <time>2015-03-25T17:35:53Z</time>
      </trkpt>
      <trkpt lat="37.358871" lon="-122.13176">
        <ele>109.7</ele>
        <time>2015-03-25T17:35:54Z</time>
      </trkpt>
      <trkpt lat="37.358846" lon="-122.131642">
        <ele>109.2</ele>
        <time>2015-03-25T17:35:55Z</time>
      </trkpt>
      <trkpt lat="37.35882" lon="-122.131518">
        <ele>108.7</ele>
        <time>2015-03-25T17:35:56Z</time>
      </trkpt>
      <trkpt lat="37.358794" lon="-122.131394">
        <ele>108.3</ele>
        <time>2015-03-25T17:35:57Z</time>
      </trkpt>
      <trkpt lat="37.358766" lon="-122.131265">
        <ele>107.8</ele>
        <time>2015-03-25T17:35:58Z</time>
      </trkpt>
      <trkpt lat="37.358739" lon="-122.13114">
        <ele>107.4</ele>
        <time>2015-03-25T17:35:59Z</time>
      </trkpt>
      <trkpt lat="37.358713" lon="-122.131024">
        <ele>107.1</ele>
        <time>2015-03-25T17:36:00Z</time>
      </trkpt>
      <trkpt lat="37.358686" lon="-122.130906">
        <ele>106.9</ele>
        <time>2015-03-25T17:36:01Z</time>
      </trkpt>
      <trkpt lat="37.358657" lon="-122.13078">
        <ele>106.6</ele>
        <time>2015-03-25T17:36:02Z</time>
      </trkpt>
      <trkpt lat="37.358633" lon="-122.130676">
        <ele>106.5</ele>
        <time>2015-03-25T17:36:03Z</time>
      </trkpt>
      <trkpt lat="37.35861" lon="-122.130572">
        <ele>106.1</ele>
        <time>2015-03-25T17:36:04Z</time>
      </trkpt>
      <trkpt lat="37.358592" lon="-122.130479">
        <ele>105.9</ele>
        <time>2015-03-25T17:36:05Z</time>
      </trkpt>
      <trkpt lat="37.358573" lon="-122.130367">
        <ele>105.5</ele>
        <time>2015-03-25T17:36:06Z</time>
      </trkpt>
      <trkpt lat="37.358559" lon="-122.130259">
        <ele>104.8</ele>
        <time>2015-03-25T17:36:07Z</time>
      </trkpt>
      <trkpt lat="37.358548" lon="-122.130172">
        <ele>104.2</ele>
        <time>2015-03-25T17:36:08Z</time>
      </trkpt>
      <trkpt lat="37.358537" lon="-122.130061">
        <ele>103.5</ele>
        <time>2015-03-25T17:36:09Z</time>
      </trkpt>
      <trkpt lat="37.35853" lon="-122.12997">
        <ele>103.1</ele>
        <time>2015-03-25T17:36:10Z</time>
      </trkpt>
      <trkpt lat="37.358525" lon="-122.129899">
        <ele>102.8</ele>
        <time>2015-03-25T17:36:11Z</time>
      </trkpt>
      <trkpt lat="37.358438" lon="-122.129851">
        <ele>102.5</ele>
        <time>2015-03-25T17:36:12Z</time>
      </trkpt>
      <trkpt lat="37.358351" lon="-122.129812">
        <ele>103.2</ele>
        <time>2015-03-25T17:36:13Z</time>
      </trkpt>
      <trkpt lat="37.358324" lon="-122.129802">
        <ele>103.1</ele>
        <time>2015-03-25T17:36:14Z</time>
      </trkpt>
      <trkpt lat="37.358279" lon="-122.129858">
        <ele>104.1</ele>
        <time>2015-03-25T17:36:15Z</time>
      </trkpt>
      <trkpt lat="37.358248" lon="-122.129899">
        <ele>104.9</ele>
        <time>2015-03-25T17:36:16Z</time>
      </trkpt>
      <trkpt lat="37.358213" lon="-122.129948">
        <ele>105</ele>
        <time>2015-03-25T17:36:17Z</time>
      </trkpt>
      <trkpt lat="37.358185" lon="-122.129992">
        <ele>105.2</ele>
        <time>2015-03-25T17:36:18Z</time>
      </trkpt>
      <trkpt lat="37.358158" lon="-122.130035">
        <ele>105.2</ele>
        <time>2015-03-25T17:36:19Z</time>
      </trkpt>
      <trkpt lat="37.358142" lon="-122.130065">
        <ele>105.2</ele>
        <time>2015-03-25T17:36:20Z</time>
      </trkpt>
      <trkpt lat="37.358116" lon="-122.130119">
        <ele>105.4</ele>
        <time>2015-03-25T17:36:22Z</time>
      </trkpt>
      <trkpt lat="37.358092" lon="-122.130172">
        <ele>105.6</ele>
        <time>2015-03-25T17:36:23Z</time>
      </trkpt>
      <trkpt lat="37.358056" lon="-122.130255">
        <ele>106.1</ele>
        <time>2015-03-25T17:36:24Z</time>
      </trkpt>
      <trkpt lat="37.358032" lon="-122.130343">
        <ele>106.4</ele>
        <time>2015-03-25T17:36:26Z</time>
      </trkpt>
      <trkpt lat="37.358022" lon="-122.130394">
        <ele>106.4</ele>
        <time>2015-03-25T17:36:27Z</time>
      </trkpt>
      <trkpt lat="37.358015" lon="-122.130444">
        <ele>106.5</ele>
        <time>2015-03-25T17:36:28Z</time>
      </trkpt>
      <trkpt lat="37.358009" lon="-122.130495">
        <ele>106.5</ele>
        <time>2015-03-25T17:36:29Z</time>
      </trkpt>
      <trkpt lat="37.358001" lon="-122.130579">
        <ele>106.8</ele>
        <time>2015-03-25T17:36:31Z</time>
      </trkpt>
      <trkpt lat="37.357998" lon="-122.130658">
        <ele>107</ele>
        <time>2015-03-25T17:36:33Z</time>
      </trkpt>
      <trkpt lat="37.357998" lon="-122.130714">
        <ele>107.2</ele>
        <time>2015-03-25T17:36:34Z</time>
      </trkpt>
      <trkpt lat="37.357999" lon="-122.130766">
        <ele>107.4</ele>
        <time>2015-03-25T17:36:35Z</time>
      </trkpt>
      <trkpt lat="37.357999" lon="-122.13081">
        <ele>107.5</ele>
        <time>2015-03-25T17:36:36Z</time>
      </trkpt>
      <trkpt lat="37.357999" lon="-122.130862">
        <ele>107.6</ele>
        <time>2015-03-25T17:36:37Z</time>
      </trkpt>
      <trkpt lat="37.358" lon="-122.130909">
        <ele>107.7</ele>
        <time>2015-03-25T17:36:38Z</time>
      </trkpt>
      <trkpt lat="37.358" lon="-122.130957">
        <ele>107.9</ele>
        <time>2015-03-25T17:36:39Z</time>
      </trkpt>
      <trkpt lat="37.358" lon="-122.130999">
        <ele>108</ele>
        <time>2015-03-25T17:36:40Z</time>
      </trkpt>
      <trkpt lat="37.357999" lon="-122.131039">
        <ele>108.1</ele>
        <time>2015-03-25T17:36:41Z</time>
      </trkpt>
      <trkpt lat="37.357997" lon="-122.131094">
        <ele>108.1</ele>
        <time>2015-03-25T17:36:42Z</time>
      </trkpt>
      <trkpt lat="37.357996" lon="-122.131136">
        <ele>108.2</ele>
        <time>2015-03-25T17:36:43Z</time>
      </trkpt>
      <trkpt lat="37.357995" lon="-122.131174">
        <ele>108.2</ele>
        <time>2015-03-25T17:36:44Z</time>
      </trkpt>
      <trkpt lat="37.357994" lon="-122.131214">
        <ele>108.4</ele>
        <time>2015-03-25T17:36:45Z</time>
      </trkpt>
      <trkpt lat="37.357992" lon="-122.131263">
        <ele>108.5</ele>
        <time>2015-03-25T17:36:46Z</time>
      </trkpt>
      <trkpt lat="37.35799" lon="-122.131322">
        <ele>108.5</ele>
        <time>2015-03-25T17:36:47Z</time>
      </trkpt>
      <trkpt lat="37.357987" lon="-122.13138">
        <ele>108.6</ele>
        <time>2015-03-25T17:36:48Z</time>
      </trkpt>
      <trkpt lat="37.357983" lon="-122.131435">
        <ele>108.4</ele>
        <time>2015-03-25T17:36:49Z</time>
      </trkpt>
      <trkpt lat="37.357978" lon="-122.131518">
        <ele>108.5</ele>
        <time>2015-03-25T17:36:50Z</time>
      </trkpt>
      <trkpt lat="37.357974" lon="-122.131561">
        <ele>108.5</ele>
        <time>2015-03-25T17:36:51Z</time>
      </trkpt>
      <trkpt lat="37.357969" lon="-122.131614">
        <ele>108.4</ele>
        <time>2015-03-25T17:36:52Z</time>
      </trkpt>
      <trkpt lat="37.357965" lon="-122.131663">
        <ele>108.5</ele>
        <time>2015-03-25T17:36:53Z</time>
      </trkpt>
      <trkpt lat="37.357958" lon="-122.131721">
        <ele>108.6</ele>
        <time>2015-03-25T17:36:54Z</time>
      </trkpt>
      <trkpt lat="37.35795" lon="-122.131782">
        <ele>108.6</ele>
        <time>2015-03-25T17:36:55Z</time>
      </trkpt>
      <trkpt lat="37.357944" lon="-122.131835">
        <ele>108.6</ele>
        <time>2015-03-25T17:36:56Z</time>
      </trkpt>
      <trkpt lat="37.357935" lon="-122.131893">
        <ele>108.8</ele>
        <time>2015-03-25T17:36:57Z</time>
      </trkpt>
      <trkpt lat="37.357926" lon="-122.131953">
        <ele>109.2</ele>
        <time>2015-03-25T17:36:58Z</time>
      </trkpt>
      <trkpt lat="37.357915" lon="-122.132017">
        <ele>109.2</ele>
        <time>2015-03-25T17:36:59Z</time>
      </trkpt>
      <trkpt lat="37.357904" lon="-122.132082">
        <ele>109.7</ele>
        <time>2015-03-25T17:37:00Z</time>
      </trkpt>
      <trkpt lat="37.357892" lon="-122.132149">
        <ele>109.5</ele>
        <time>2015-03-25T17:37:01Z</time>
      </trkpt>
      <trkpt lat="37.357883" lon="-122.132197">
        <ele>109.2</ele>
        <time>2015-03-25T17:37:02Z</time>
      </trkpt>
      <trkpt lat="37.357872" lon="-122.132254">
        <ele>109.5</ele>
        <time>2015-03-25T17:37:03Z</time>
      </trkpt>
      <trkpt lat="37.357865" lon="-122.132291">
        <ele>109.9</ele>
        <time>2015-03-25T17:37:04Z</time>
      </trkpt>
      <trkpt lat="37.357857" lon="-122.132335">
        <ele>109.5</ele>
        <time>2015-03-25T17:37:05Z</time>
      </trkpt>
      <trkpt lat="37.357835" lon="-122.132472">
        <ele>109.2</ele>
        <time>2015-03-25T17:37:07Z</time>
      </trkpt>
      <trkpt lat="37.357826" lon="-122.132536">
        <ele>108.8</ele>
        <time>2015-03-25T17:37:08Z</time>
      </trkpt>
      <trkpt lat="37.357818" lon="-122.132587">
        <ele>108.7</ele>
        <time>2015-03-25T17:37:09Z</time>
      </trkpt>
      <trkpt lat="37.357808" lon="-122.132651">
        <ele>108.6</ele>
        <time>2015-03-25T17:37:10Z</time>
      </trkpt>
      <trkpt lat="37.357804" lon="-122.132696">
        <ele>108.5</ele>
        <time>2015-03-25T17:37:11Z</time>
      </trkpt>
      <trkpt lat="37.357799" lon="-122.132743">
        <ele>108.5</ele>
        <time>2015-03-25T17:37:12Z</time>
      </trkpt>
      <trkpt lat="37.357786" lon="-122.132873">
        <ele>108.3</ele>
        <time>2015-03-25T17:37:13Z</time>
      </trkpt>
      <trkpt lat="37.357782" lon="-122.132939">
        <ele>108</ele>
        <time>2015-03-25T17:37:14Z</time>
      </trkpt>
      <trkpt lat="37.357776" lon="-122.133039">
        <ele>107.9</ele>
        <time>2015-03-25T17:37:15Z</time>
      </trkpt>
      <trkpt lat="37.357771" lon="-122.133128">
        <ele>107.9</ele>
        <time>2015-03-25T17:37:16Z</time>
      </trkpt>
      <trkpt lat="37.357767" lon="-122.133202">
        <ele>107.9</ele>
        <time>2015-03-25T17:37:17Z</time>
      </trkpt>
      <trkpt lat="37.357763" lon="-122.133278">
        <ele>107.9</ele>
        <time>2015-03-25T17:37:18Z</time>
      </trkpt>
      <trkpt lat="37.357759" lon="-122.133361">
        <ele>107.9</ele>
        <time>2015-03-25T17:37:19Z</time>
      </trkpt>
      <trkpt lat="37.357756" lon="-122.133441">
        <ele>107.9</ele>
        <time>2015-03-25T17:37:20Z</time>
      </trkpt>
      <trkpt lat="37.357752" lon="-122.133518">
        <ele>108</ele>
        <time>2015-03-25T17:37:21Z</time>
      </trkpt>
      <trkpt lat="37.357749" lon="-122.133592">
        <ele>108.2</ele>
        <time>2015-03-25T17:37:22Z</time>
      </trkpt>
      <trkpt lat="37.357744" lon="-122.133677">
        <ele>108.3</ele>
        <time>2015-03-25T17:37:23Z</time>
      </trkpt>
      <trkpt lat="37.357739" lon="-122.133747">
        <ele>108.3</ele>
        <time>2015-03-25T17:37:24Z</time>
      </trkpt>
      <trkpt lat="37.357735" lon="-122.133813">
        <ele>108.5</ele>
        <time>2015-03-25T17:37:25Z</time>
      </trkpt>
      <trkpt lat="37.357731" lon="-122.133868">
        <ele>108.6</ele>
        <time>2015-03-25T17:37:26Z</time>
      </trkpt>
      <trkpt lat="37.357727" lon="-122.133934">
        <ele>108.6</ele>
        <time>2015-03-25T17:37:27Z</time>
      </trkpt>
      <trkpt lat="37.357722" lon="-122.134006">
        <ele>108.6</ele>
        <time>2015-03-25T17:37:28Z</time>
      </trkpt>
      <trkpt lat="37.357715" lon="-122.134084">
        <ele>108.6</ele>
        <time>2015-03-25T17:37:29Z</time>
      </trkpt>
      <trkpt lat="37.357708" lon="-122.134158">
        <ele>108.8</ele>
        <time>2015-03-25T17:37:30Z</time>
      </trkpt>
      <trkpt lat="37.357701" lon="-122.134226">
        <ele>109</ele>
        <time>2015-03-25T17:37:31Z</time>
      </trkpt>
      <trkpt lat="37.357693" lon="-122.134297">
        <ele>109.1</ele>
        <time>2015-03-25T17:37:32Z</time>
      </trkpt>
      <trkpt lat="37.357549" lon="-122.134452">
        <ele>109.2</ele>
        <time>2015-03-25T17:37:36Z</time>
      </trkpt>
      <trkpt lat="37.357511" lon="-122.134497">
        <ele>109.2</ele>
        <time>2015-03-25T17:37:37Z</time>
      </trkpt>
      <trkpt lat="37.35748" lon="-122.134533">
        <ele>109.3</ele>
        <time>2015-03-25T17:37:38Z</time>
      </trkpt>
      <trkpt lat="37.357448" lon="-122.134571">
        <ele>109.3</ele>
        <time>2015-03-25T17:37:39Z</time>
      </trkpt>
      <trkpt lat="37.357418" lon="-122.134606">
        <ele>109.3</ele>
        <time>2015-03-25T17:37:40Z</time>
      </trkpt>
      <trkpt lat="37.357385" lon="-122.134645">
        <ele>109.5</ele>
        <time>2015-03-25T17:37:41Z</time>
      </trkpt>
      <trkpt lat="37.357354" lon="-122.134681">
        <ele>109.5</ele>
        <time>2015-03-25T17:37:42Z</time>
      </trkpt>
      <trkpt lat="37.357321" lon="-122.13472">
        <ele>109.6</ele>
        <time>2015-03-25T17:37:43Z</time>
      </trkpt>
      <trkpt lat="37.357278" lon="-122.13477">
        <ele>109.7</ele>
        <time>2015-03-25T17:37:44Z</time>
      </trkpt>
      <trkpt lat="37.357117" lon="-122.134959">
        <ele>110.2</ele>
        <time>2015-03-25T17:37:49Z</time>
      </trkpt>
      <trkpt lat="37.357084" lon="-122.134997">
        <ele>110.5</ele>
        <time>2015-03-25T17:37:50Z</time>
      </trkpt>
      <trkpt lat="37.357055" lon="-122.135033">
        <ele>110.7</ele>
        <time>2015-03-25T17:37:51Z</time>
      </trkpt>
      <trkpt lat="37.357019" lon="-122.135076">
        <ele>111</ele>
        <time>2015-03-25T17:37:52Z</time>
      </trkpt>
      <trkpt lat="37.356993" lon="-122.135109">
        <ele>111</ele>
        <time>2015-03-25T17:37:53Z</time>
      </trkpt>
      <trkpt lat="37.356965" lon="-122.135142">
        <ele>111.4</ele>
        <time>2015-03-25T17:37:54Z</time>
      </trkpt>
      <trkpt lat="37.356939" lon="-122.135172">
        <ele>111.5</ele>
        <time>2015-03-25T17:37:55Z</time>
      </trkpt>
      <trkpt lat="37.356909" lon="-122.135206">
        <ele>111.6</ele>
        <time>2015-03-25T17:37:56Z</time>
      </trkpt>
      <trkpt lat="37.356853" lon="-122.13527">
        <ele>111.8</ele>
        <time>2015-03-25T17:37:58Z</time>
      </trkpt>
      <trkpt lat="37.356815" lon="-122.135315">
        <ele>112</ele>
        <time>2015-03-25T17:37:59Z</time>
      </trkpt>
      <trkpt lat="37.356777" lon="-122.135359">
        <ele>112.2</ele>
        <time>2015-03-25T17:38:00Z</time>
      </trkpt>
      <trkpt lat="37.356743" lon="-122.135398">
        <ele>112.3</ele>
        <time>2015-03-25T17:38:01Z</time>
      </trkpt>
      <trkpt lat="37.356715" lon="-122.135429">
        <ele>112.3</ele>
        <time>2015-03-25T17:38:02Z</time>
      </trkpt>
      <trkpt lat="37.356686" lon="-122.135462">
        <ele>112.5</ele>
        <time>2015-03-25T17:38:03Z</time>
      </trkpt>
      <trkpt lat="37.356657" lon="-122.135496">
        <ele>112.6</ele>
        <time>2015-03-25T17:38:04Z</time>
      </trkpt>
      <trkpt lat="37.356613" lon="-122.135544">
        <ele>112.6</ele>
        <time>2015-03-25T17:38:05Z</time>
      </trkpt>
      <trkpt lat="37.356568" lon="-122.135593">
        <ele>112.7</ele>
        <time>2015-03-25T17:38:06Z</time>
      </trkpt>
      <trkpt lat="37.356531" lon="-122.135634">
        <ele>112.8</ele>
        <time>2015-03-25T17:38:07Z</time>
      </trkpt>
      <trkpt lat="37.356501" lon="-122.135666">
        <ele>112.9</ele>
        <time>2015-03-25T17:38:08Z</time>
      </trkpt>
      <trkpt lat="37.35647" lon="-122.135699">
        <ele>112.9</ele>
        <time>2015-03-25T17:38:09Z</time>
      </trkpt>
      <trkpt lat="37.35644" lon="-122.135732">
        <ele>112.9</ele>
        <time>2015-03-25T17:38:10Z</time>
      </trkpt>
      <trkpt lat="37.356409" lon="-122.135765">
        <ele>113</ele>
        <time>2015-03-25T17:38:11Z</time>
      </trkpt>
      <trkpt lat="37.356374" lon="-122.135801">
        <ele>113.1</ele>
        <time>2015-03-25T17:38:12Z</time>
      </trkpt>
      <trkpt lat="37.35634" lon="-122.135836">
        <ele>113</ele>
        <time>2015-03-25T17:38:13Z</time>
      </trkpt>
      <trkpt lat="37.356296" lon="-122.13588">
        <ele>113.1</ele>
        <time>2015-03-25T17:38:14Z</time>
      </trkpt>
      <trkpt lat="37.35626" lon="-122.135916">
        <ele>113.2</ele>
        <time>2015-03-25T17:38:15Z</time>
      </trkpt>
      <trkpt lat="37.356227" lon="-122.13595">
        <ele>113.2</ele>
        <time>2015-03-25T17:38:16Z</time>
      </trkpt>
      <trkpt lat="37.356189" lon="-122.135988">
        <ele>113.4</ele>
        <time>2015-03-25T17:38:17Z</time>
      </trkpt>
      <trkpt lat="37.35615" lon="-122.136028">
        <ele>113.5</ele>
        <time>2015-03-25T17:38:18Z</time>
      </trkpt>
      <trkpt lat="37.355995" lon="-122.136194">
        <ele>114.6</ele>
        <time>2015-03-25T17:38:23Z</time>
      </trkpt>
      <trkpt lat="37.355974" lon="-122.136218">
        <ele>114.8</ele>
        <time>2015-03-25T17:38:24Z</time>
      </trkpt>
      <trkpt lat="37.355941" lon="-122.136256">
        <ele>115.1</ele>
        <time>2015-03-25T17:38:25Z</time>
      </trkpt>
      <trkpt lat="37.355912" lon="-122.136291">
        <ele>115.2</ele>
        <time>2015-03-25T17:38:26Z</time>
      </trkpt>
      <trkpt lat="37.355887" lon="-122.136321">
        <ele>115.4</ele>
        <time>2015-03-25T17:38:27Z</time>
      </trkpt>
      <trkpt lat="37.355858" lon="-122.136355">
        <ele>115.5</ele>
        <time>2015-03-25T17:38:28Z</time>
      </trkpt>
      <trkpt lat="37.355828" lon="-122.136392">
        <ele>115.6</ele>
        <time>2015-03-25T17:38:29Z</time>
      </trkpt>
      <trkpt lat="37.355799" lon="-122.136429">
        <ele>115.8</ele>
        <time>2015-03-25T17:38:30Z</time>
      </trkpt>
      <trkpt lat="37.355772" lon="-122.136465">
        <ele>115.8</ele>
        <time>2015-03-25T17:38:31Z</time>
      </trkpt>
      <trkpt lat="37.355745" lon="-122.136499">
        <ele>115.7</ele>
        <time>2015-03-25T17:38:32Z</time>
      </trkpt>
      <trkpt lat="37.355711" lon="-122.136543">
        <ele>115.8</ele>
        <time>2015-03-25T17:38:33Z</time>
      </trkpt>
      <trkpt lat="37.355687" lon="-122.136577">
        <ele>115.8</ele>
        <time>2015-03-25T17:38:34Z</time>
      </trkpt>
      <trkpt lat="37.355659" lon="-122.136616">
        <ele>115.9</ele>
        <time>2015-03-25T17:38:35Z</time>
      </trkpt>
      <trkpt lat="37.355628" lon="-122.13666">
        <ele>116</ele>
        <time>2015-03-25T17:38:36Z</time>
      </trkpt>
      <trkpt lat="37.3556" lon="-122.136699">
        <ele>116.1</ele>
        <time>2015-03-25T17:38:37Z</time>
      </trkpt>
      <trkpt lat="37.355569" lon="-122.136742">
        <ele>116.3</ele>
        <time>2015-03-25T17:38:38Z</time>
      </trkpt>
      <trkpt lat="37.355436" lon="-122.136954">
        <ele>117.5</ele>
        <time>2015-03-25T17:38:43Z</time>
      </trkpt>
      <trkpt lat="37.355413" lon="-122.13699">
        <ele>117.6</ele>
        <time>2015-03-25T17:38:44Z</time>
      </trkpt>
      <trkpt lat="37.355389" lon="-122.137027">
        <ele>117.8</ele>
        <time>2015-03-25T17:38:45Z</time>
      </trkpt>
      <trkpt lat="37.355364" lon="-122.137065">
        <ele>118.1</ele>
        <time>2015-03-25T17:38:46Z</time>
      </trkpt>
      <trkpt lat="37.355341" lon="-122.137101">
        <ele>118.4</ele>
        <time>2015-03-25T17:38:47Z</time>
      </trkpt>
      <trkpt lat="37.355319" lon="-122.137134">
        <ele>118.5</ele>
        <time>2015-03-25T17:38:48Z</time>
      </trkpt>
      <trkpt lat="37.355294" lon="-122.137171">
        <ele>118.7</ele>
        <time>2015-03-25T17:38:49Z</time>
      </trkpt>
      <trkpt lat="37.35527" lon="-122.137207">
        <ele>119</ele>
        <time>2015-03-25T17:38:50Z</time>
      </trkpt>
      <trkpt lat="37.355247" lon="-122.13724">
        <ele>119.1</ele>
        <time>2015-03-25T17:38:51Z</time>
      </trkpt>
      <trkpt lat="37.355223" lon="-122.137276">
        <ele>119.1</ele>
        <time>2015-03-25T17:38:52Z</time>
      </trkpt>
      <trkpt lat="37.355202" lon="-122.137307">
        <ele>119.3</ele>
        <time>2015-03-25T17:38:53Z</time>
      </trkpt>
      <trkpt lat="37.355181" lon="-122.137338">
        <ele>119.4</ele>
        <time>2015-03-25T17:38:54Z</time>
      </trkpt>
      <trkpt lat="37.355147" lon="-122.137389">
        <ele>119.3</ele>
        <time>2015-03-25T17:38:55Z</time>
      </trkpt>
      <trkpt lat="37.355103" lon="-122.137462">
        <ele>119.4</ele>
        <time>2015-03-25T17:38:57Z</time>
      </trkpt>
      <trkpt lat="37.355082" lon="-122.137505">
        <ele>119.6</ele>
        <time>2015-03-25T17:38:58Z</time>
      </trkpt>
      <trkpt lat="37.355062" lon="-122.137547">
        <ele>119.8</ele>
        <time>2015-03-25T17:38:59Z</time>
      </trkpt>
      <trkpt lat="37.355031" lon="-122.137632">
        <ele>120</ele>
        <time>2015-03-25T17:39:01Z</time>
      </trkpt>
      <trkpt lat="37.355" lon="-122.137738">
        <ele>120.2</ele>
        <time>2015-03-25T17:39:03Z</time>
      </trkpt>
      <trkpt lat="37.354991" lon="-122.137774">
        <ele>120.3</ele>
        <time>2015-03-25T17:39:04Z</time>
      </trkpt>
      <trkpt lat="37.35498" lon="-122.137816">
        <ele>120.4</ele>
        <time>2015-03-25T17:39:05Z</time>
      </trkpt>
      <trkpt lat="37.354971" lon="-122.137857">
        <ele>120.5</ele>
        <time>2015-03-25T17:39:06Z</time>
      </trkpt>
      <trkpt lat="37.354961" lon="-122.137905">
        <ele>120.5</ele>
        <time>2015-03-25T17:39:07Z</time>
      </trkpt>
      <trkpt lat="37.354949" lon="-122.13797">
        <ele>120.7</ele>
        <time>2015-03-25T17:39:08Z</time>
      </trkpt>
      <trkpt lat="37.354939" lon="-122.138026">
        <ele>120.8</ele>
        <time>2015-03-25T17:39:09Z</time>
      </trkpt>
      <trkpt lat="37.354928" lon="-122.138083">
        <ele>121</ele>
        <time>2015-03-25T17:39:10Z</time>
      </trkpt>
      <trkpt lat="37.354917" lon="-122.138144">
        <ele>121.2</ele>
        <time>2015-03-25T17:39:11Z</time>
      </trkpt>
      <trkpt lat="37.354911" lon="-122.138179">
        <ele>121.3</ele>
        <time>2015-03-25T17:39:12Z</time>
      </trkpt>
      <trkpt lat="37.354856" lon="-122.138455">
        <ele>122.6</ele>
        <time>2015-03-25T17:39:17Z</time>
      </trkpt>
      <trkpt lat="37.35485" lon="-122.138505">
        <ele>122.8</ele>
        <time>2015-03-25T17:39:18Z</time>
      </trkpt>
      <trkpt lat="37.354844" lon="-122.138553">
        <ele>123</ele>
        <time>2015-03-25T17:39:19Z</time>
      </trkpt>
      <trkpt lat="37.354838" lon="-122.138599">
        <ele>123.1</ele>
        <time>2015-03-25T17:39:20Z</time>
      </trkpt>
      <trkpt lat="37.354834" lon="-122.138643">
        <ele>123.1</ele>
        <time>2015-03-25T17:39:21Z</time>
      </trkpt>
      <trkpt lat="37.35483" lon="-122.13869">
        <ele>123.2</ele>
        <time>2015-03-25T17:39:22Z</time>
      </trkpt>
      <trkpt lat="37.354825" lon="-122.13874">
        <ele>123.4</ele>
        <time>2015-03-25T17:39:23Z</time>
      </trkpt>
      <trkpt lat="37.354818" lon="-122.138784">
        <ele>123.4</ele>
        <time>2015-03-25T17:39:24Z</time>
      </trkpt>
      <trkpt lat="37.35481" lon="-122.138833">
        <ele>123.5</ele>
        <time>2015-03-25T17:39:25Z</time>
      </trkpt>
      <trkpt lat="37.3548" lon="-122.138881">
        <ele>123.6</ele>
        <time>2015-03-25T17:39:26Z</time>
      </trkpt>
      <trkpt lat="37.354792" lon="-122.138915">
        <ele>123.6</ele>
        <time>2015-03-25T17:39:27Z</time>
      </trkpt>
      <trkpt lat="37.354772" lon="-122.138974">
        <ele>123.8</ele>
        <time>2015-03-25T17:39:28Z</time>
      </trkpt>
      <trkpt lat="37.354754" lon="-122.139016">
        <ele>123.9</ele>
        <time>2015-03-25T17:39:29Z</time>
      </trkpt>
      <trkpt lat="37.354736" lon="-122.139052">
        <ele>124</ele>
        <time>2015-03-25T17:39:30Z</time>
      </trkpt>
      <trkpt lat="37.354695" lon="-122.139125">
        <ele>124.3</ele>
        <time>2015-03-25T17:39:32Z</time>
      </trkpt>
      <trkpt lat="37.354671" lon="-122.139159">
        <ele>124.4</ele>
        <time>2015-03-25T17:39:33Z</time>
      </trkpt>
      <trkpt lat="37.354646" lon="-122.139191">
        <ele>124.5</ele>
        <time>2015-03-25T17:39:34Z</time>
      </trkpt>
      <trkpt lat="37.354621" lon="-122.139222">
        <ele>124.7</ele>
        <time>2015-03-25T17:39:35Z</time>
      </trkpt>
      <trkpt lat="37.35457" lon="-122.139269">
        <ele>125</ele>
        <time>2015-03-25T17:39:37Z</time>
      </trkpt>
      <trkpt lat="37.354544" lon="-122.13929">
        <ele>125.1</ele>
        <time>2015-03-25T17:39:38Z</time>
      </trkpt>
      <trkpt lat="37.354491" lon="-122.13933">
        <ele>125.4</ele>
        <time>2015-03-25T17:39:40Z</time>
      </trkpt>
      <trkpt lat="37.35446" lon="-122.139351">
        <ele>125.5</ele>
        <time>2015-03-25T17:39:41Z</time>
      </trkpt>
      <trkpt lat="37.354431" lon="-122.139373">
        <ele>125.7</ele>
        <time>2015-03-25T17:39:42Z</time>
      </trkpt>
      <trkpt lat="37.354401" lon="-122.139395">
        <ele>125.9</ele>
        <time>2015-03-25T17:39:43Z</time>
      </trkpt>
      <trkpt lat="37.354373" lon="-122.139416">
        <ele>126.1</ele>
        <time>2015-03-25T17:39:44Z</time>
      </trkpt>
      <trkpt lat="37.354339" lon="-122.139442">
        <ele>126.3</ele>
        <time>2015-03-25T17:39:45Z</time>
      </trkpt>
      <trkpt lat="37.35431" lon="-122.13947">
        <ele>126.5</ele>
        <time>2015-03-25T17:39:46Z</time>
      </trkpt>
      <trkpt lat="37.354279" lon="-122.139499">
        <ele>126.6</ele>
        <time>2015-03-25T17:39:47Z</time>
      </trkpt>
      <trkpt lat="37.354242" lon="-122.139533">
        <ele>126.7</ele>
        <time>2015-03-25T17:39:48Z</time>
      </trkpt>
      <trkpt lat="37.354047" lon="-122.139737">
        <ele>126.8</ele>
        <time>2015-03-25T17:39:53Z</time>
      </trkpt>
      <trkpt lat="37.354014" lon="-122.139773">
        <ele>127.1</ele>
        <time>2015-03-25T17:39:54Z</time>
      </trkpt>
      <trkpt lat="37.353982" lon="-122.139808">
        <ele>127.2</ele>
        <time>2015-03-25T17:39:55Z</time>
      </trkpt>
      <trkpt lat="37.353952" lon="-122.139841">
        <ele>127.3</ele>
        <time>2015-03-25T17:39:56Z</time>
      </trkpt>
      <trkpt lat="37.353923" lon="-122.139875">
        <ele>127.6</ele>
        <time>2015-03-25T17:39:57Z</time>
      </trkpt>
      <trkpt lat="37.353892" lon="-122.139912">
        <ele>127.7</ele>
        <time>2015-03-25T17:39:58Z</time>
      </trkpt>
      <trkpt lat="37.353867" lon="-122.139941">
        <ele>127.9</ele>
        <time>2015-03-25T17:39:59Z</time>
      </trkpt>
      <trkpt lat="37.353839" lon="-122.139975">
        <ele>128</ele>
        <time>2015-03-25T17:40:00Z</time>
      </trkpt>
      <trkpt lat="37.353811" lon="-122.140012">
        <ele>128.1</ele>
        <time>2015-03-25T17:40:01Z</time>
      </trkpt>
      <trkpt lat="37.353785" lon="-122.140047">
        <ele>128.2</ele>
        <time>2015-03-25T17:40:02Z</time>
      </trkpt>
      <trkpt lat="37.353756" lon="-122.140087">
        <ele>128.3</ele>
        <time>2015-03-25T17:40:03Z</time>
      </trkpt>
      <trkpt lat="37.353729" lon="-122.140126">
        <ele>128.4</ele>
        <time>2015-03-25T17:40:04Z</time>
      </trkpt>
      <trkpt lat="37.353701" lon="-122.140166">
        <ele>128.4</ele>
        <time>2015-03-25T17:40:05Z</time>
      </trkpt>
      <trkpt lat="37.353676" lon="-122.140201">
        <ele>128.6</ele>
        <time>2015-03-25T17:40:06Z</time>
      </trkpt>
      <trkpt lat="37.353645" lon="-122.140247">
        <ele>128.7</ele>
        <time>2015-03-25T17:40:07Z</time>
      </trkpt>
      <trkpt lat="37.353621" lon="-122.140286">
        <ele>128.8</ele>
        <time>2015-03-25T17:40:08Z</time>
      </trkpt>
      <trkpt lat="37.353596" lon="-122.140327">
        <ele>129</ele>
        <time>2015-03-25T17:40:09Z</time>
      </trkpt>
      <trkpt lat="37.35357" lon="-122.14037">
        <ele>129</ele>
        <time>2015-03-25T17:40:10Z</time>
      </trkpt>
      <trkpt lat="37.353545" lon="-122.140417">
        <ele>129</ele>
        <time>2015-03-25T17:40:11Z</time>
      </trkpt>
      <trkpt lat="37.353523" lon="-122.14046">
        <ele>129.1</ele>
        <time>2015-03-25T17:40:12Z</time>
      </trkpt>
      <trkpt lat="37.353498" lon="-122.14052">
        <ele>129.2</ele>
        <time>2015-03-25T17:40:13Z</time>
      </trkpt>
      <trkpt lat="37.35348" lon="-122.140565">
        <ele>129.2</ele>
        <time>2015-03-25T17:40:14Z</time>
      </trkpt>
      <trkpt lat="37.353458" lon="-122.140612">
        <ele>129.2</ele>
        <time>2015-03-25T17:40:15Z</time>
      </trkpt>
      <trkpt lat="37.353399" lon="-122.14073">
        <ele>129.4</ele>
        <time>2015-03-25T17:40:17Z</time>
      </trkpt>
      <trkpt lat="37.353366" lon="-122.140809">
        <ele>129.5</ele>
        <time>2015-03-25T17:40:19Z</time>
      </trkpt>
      <trkpt lat="37.353348" lon="-122.140899">
        <ele>129.5</ele>
        <time>2015-03-25T17:40:21Z</time>
      </trkpt>
      <trkpt lat="37.35334" lon="-122.140971">
        <ele>129.7</ele>
        <time>2015-03-25T17:40:22Z</time>
      </trkpt>
      <trkpt lat="37.353336" lon="-122.14102">
        <ele>129.7</ele>
        <time>2015-03-25T17:40:23Z</time>
      </trkpt>
      <trkpt lat="37.353334" lon="-122.141088">
        <ele>130.4</ele>
        <time>2015-03-25T17:40:24Z</time>
      </trkpt>
      <trkpt lat="37.353332" lon="-122.14114">
        <ele>130.3</ele>
        <time>2015-03-25T17:40:25Z</time>
      </trkpt>
      <trkpt lat="37.353329" lon="-122.14121">
        <ele>130.8</ele>
        <time>2015-03-25T17:40:26Z</time>
      </trkpt>
      <trkpt lat="37.353302" lon="-122.14148">
        <ele>131.6</ele>
        <time>2015-03-25T17:40:31Z</time>
      </trkpt>
      <trkpt lat="37.353294" lon="-122.141564">
        <ele>131.4</ele>
        <time>2015-03-25T17:40:32Z</time>
      </trkpt>
      <trkpt lat="37.353292" lon="-122.141645">
        <ele>131.7</ele>
        <time>2015-03-25T17:40:34Z</time>
      </trkpt>
      <trkpt lat="37.353292" lon="-122.141694">
        <ele>131.9</ele>
        <time>2015-03-25T17:40:35Z</time>
      </trkpt>
      <trkpt lat="37.353292" lon="-122.141739">
        <ele>132.2</ele>
        <time>2015-03-25T17:40:36Z</time>
      </trkpt>
      <trkpt lat="37.353292" lon="-122.141796">
        <ele>132.4</ele>
        <time>2015-03-25T17:40:37Z</time>
      </trkpt>
      <trkpt lat="37.353293" lon="-122.141859">
        <ele>132.5</ele>
        <time>2015-03-25T17:40:38Z</time>
      </trkpt>
      <trkpt lat="37.353296" lon="-122.141896">
        <ele>132.7</ele>
        <time>2015-03-25T17:40:39Z</time>
      </trkpt>
      <trkpt lat="37.353301" lon="-122.141944">
        <ele>132.8</ele>
        <time>2015-03-25T17:40:40Z</time>
      </trkpt>
      <trkpt lat="37.353305" lon="-122.14199">
        <ele>132.8</ele>
        <time>2015-03-25T17:40:41Z</time>
      </trkpt>
      <trkpt lat="37.353308" lon="-122.142025">
        <ele>132.7</ele>
        <time>2015-03-25T17:40:42Z</time>
      </trkpt>
      <trkpt lat="37.353313" lon="-122.142087">
        <ele>132.7</ele>
        <time>2015-03-25T17:40:44Z</time>
      </trkpt>
      <trkpt lat="37.353317" lon="-122.142134">
        <ele>132.8</ele>
        <time>2015-03-25T17:40:45Z</time>
      </trkpt>
      <trkpt lat="37.35332" lon="-122.14219">
        <ele>133</ele>
        <time>2015-03-25T17:40:46Z</time>
      </trkpt>
      <trkpt lat="37.353324" lon="-122.142245">
        <ele>133.2</ele>
        <time>2015-03-25T17:40:47Z</time>
      </trkpt>
      <trkpt lat="37.353326" lon="-122.142292">
        <ele>133.2</ele>
        <time>2015-03-25T17:40:49Z</time>
      </trkpt>
      <trkpt lat="37.35333" lon="-122.142381">
        <ele>133.4</ele>
        <time>2015-03-25T17:40:50Z</time>
      </trkpt>
      <trkpt lat="37.353331" lon="-122.142448">
        <ele>133.2</ele>
        <time>2015-03-25T17:40:51Z</time>
      </trkpt>
      <trkpt lat="37.353332" lon="-122.142558">
        <ele>133.2</ele>
        <time>2015-03-25T17:40:52Z</time>
      </trkpt>
      <trkpt lat="37.353332" lon="-122.142634">
        <ele>133.3</ele>
        <time>2015-03-25T17:40:53Z</time>
      </trkpt>
      <trkpt lat="37.353332" lon="-122.142713">
        <ele>133.5</ele>
        <time>2015-03-25T17:40:54Z</time>
      </trkpt>
      <trkpt lat="37.353331" lon="-122.142788">
        <ele>133.7</ele>
        <time>2015-03-25T17:40:55Z</time>
      </trkpt>
      <trkpt lat="37.353328" lon="-122.142882">
        <ele>134</ele>
        <time>2015-03-25T17:40:57Z</time>
      </trkpt>
      <trkpt lat="37.353324" lon="-122.142937">
        <ele>134.1</ele>
        <time>2015-03-25T17:40:58Z</time>
      </trkpt>
      <trkpt lat="37.353321" lon="-122.142978">
        <ele>134.1</ele>
        <time>2015-03-25T17:40:59Z</time>
      </trkpt>
      <trkpt lat="37.353317" lon="-122.143022">
        <ele>134</ele>
        <time>2015-03-25T17:41:00Z</time>
      </trkpt>
      <trkpt lat="37.353308" lon="-122.14309">
        <ele>134.1</ele>
        <time>2015-03-25T17:41:01Z</time>
      </trkpt>
      <trkpt lat="37.353302" lon="-122.143138">
        <ele>134.4</ele>
        <time>2015-03-25T17:41:02Z</time>
      </trkpt>
      <trkpt lat="37.353292" lon="-122.143197">
        <ele>134.6</ele>
        <time>2015-03-25T17:41:03Z</time>
      </trkpt>
      <trkpt lat="37.353284" lon="-122.143252">
        <ele>134.6</ele>
        <time>2015-03-25T17:41:04Z</time>
      </trkpt>
      <trkpt lat="37.353275" lon="-122.143314">
        <ele>134.9</ele>
        <time>2015-03-25T17:41:05Z</time>
      </trkpt>
      <trkpt lat="37.35327" lon="-122.143353">
        <ele>135</ele>
        <time>2015-03-25T17:41:06Z</time>
      </trkpt>
      <trkpt lat="37.353262" lon="-122.143406">
        <ele>135</ele>
        <time>2015-03-25T17:41:07Z</time>
      </trkpt>
      <trkpt lat="37.353256" lon="-122.14345">
        <ele>135.1</ele>
        <time>2015-03-25T17:41:08Z</time>
      </trkpt>
      <trkpt lat="37.353248" lon="-122.143504">
        <ele>135.3</ele>
        <time>2015-03-25T17:41:09Z</time>
      </trkpt>
      <trkpt lat="37.353229" lon="-122.143745">
        <ele>137.1</ele>
        <time>2015-03-25T17:41:13Z</time>
      </trkpt>
      <trkpt lat="37.35322" lon="-122.143795">
        <ele>137.1</ele>
        <time>2015-03-25T17:41:14Z</time>
      </trkpt>
      <trkpt lat="37.353212" lon="-122.143841">
        <ele>137.6</ele>
        <time>2015-03-25T17:41:15Z</time>
      </trkpt>
      <trkpt lat="37.353201" lon="-122.14388">
        <ele>137.9</ele>
        <time>2015-03-25T17:41:16Z</time>
      </trkpt>
      <trkpt lat="37.353194" lon="-122.143964">
        <ele>138.3</ele>
        <time>2015-03-25T17:41:18Z</time>
      </trkpt>
      <trkpt lat="37.35319" lon="-122.144017">
        <ele>138.4</ele>
        <time>2015-03-25T17:41:19Z</time>
      </trkpt>
      <trkpt lat="37.353131" lon="-122.144032">
        <ele>136.2</ele>
        <time>2015-03-25T17:41:20Z</time>
      </trkpt>
      <trkpt lat="37.35315" lon="-122.144269">
        <ele>138.2</ele>
        <time>2015-03-25T17:41:23Z</time>
      </trkpt>
      <trkpt lat="37.353138" lon="-122.144335">
        <ele>138</ele>
        <time>2015-03-25T17:41:24Z</time>
      </trkpt>
      <trkpt lat="37.353134" lon="-122.144391">
        <ele>138</ele>
        <time>2015-03-25T17:41:25Z</time>
      </trkpt>
      <trkpt lat="37.353073" lon="-122.144445">
        <ele>136.4</ele>
        <time>2015-03-25T17:41:26Z</time>
      </trkpt>
      <trkpt lat="37.353065" lon="-122.144503">
        <ele>136.4</ele>
        <time>2015-03-25T17:41:27Z</time>
      </trkpt>
      <trkpt lat="37.353056" lon="-122.144562">
        <ele>136.4</ele>
        <time>2015-03-25T17:41:28Z</time>
      </trkpt>
      <trkpt lat="37.353047" lon="-122.144632">
        <ele>136.5</ele>
        <time>2015-03-25T17:41:29Z</time>
      </trkpt>
      <trkpt lat="37.353037" lon="-122.144703">
        <ele>136.5</ele>
        <time>2015-03-25T17:41:30Z</time>
      </trkpt>
      <trkpt lat="37.353026" lon="-122.144779">
        <ele>136.6</ele>
        <time>2015-03-25T17:41:31Z</time>
      </trkpt>
      <trkpt lat="37.353017" lon="-122.144839">
        <ele>136.6</ele>
        <time>2015-03-25T17:41:32Z</time>
      </trkpt>
      <trkpt lat="37.353008" lon="-122.144904">
        <ele>136.8</ele>
        <time>2015-03-25T17:41:33Z</time>
      </trkpt>
      <trkpt lat="37.353" lon="-122.144964">
        <ele>136.9</ele>
        <time>2015-03-25T17:41:35Z</time>
      </trkpt>
      <trkpt lat="37.352982" lon="-122.145087">
        <ele>137.2</ele>
        <time>2015-03-25T17:41:36Z</time>
      </trkpt>
      <trkpt lat="37.352974" lon="-122.145143">
        <ele>137.4</ele>
        <time>2015-03-25T17:41:37Z</time>
      </trkpt>
      <trkpt lat="37.352966" lon="-122.145199">
        <ele>137.7</ele>
        <time>2015-03-25T17:41:38Z</time>
      </trkpt>
      <trkpt lat="37.352958" lon="-122.145255">
        <ele>137.8</ele>
        <time>2015-03-25T17:41:39Z</time>
      </trkpt>
      <trkpt lat="37.35295" lon="-122.145308">
        <ele>137.9</ele>
        <time>2015-03-25T17:41:40Z</time>
      </trkpt>
      <trkpt lat="37.352943" lon="-122.145361">
        <ele>138</ele>
        <time>2015-03-25T17:41:41Z</time>
      </trkpt>
      <trkpt lat="37.352937" lon="-122.145408">
        <ele>138</ele>
        <time>2015-03-25T17:41:42Z</time>
      </trkpt>
      <trkpt lat="37.352929" lon="-122.145472">
        <ele>138</ele>
        <time>2015-03-25T17:41:43Z</time>
      </trkpt>
      <trkpt lat="37.352922" lon="-122.145529">
        <ele>138</ele>
        <time>2015-03-25T17:41:44Z</time>
      </trkpt>
      <trkpt lat="37.35291" lon="-122.145632">
        <ele>137.8</ele>
        <time>2015-03-25T17:41:46Z</time>
      </trkpt>
      <trkpt lat="37.3529" lon="-122.145725">
        <ele>137.7</ele>
        <time>2015-03-25T17:41:48Z</time>
      </trkpt>
      <trkpt lat="37.352887" lon="-122.145856">
        <ele>137.7</ele>
        <time>2015-03-25T17:41:49Z</time>
      </trkpt>
      <trkpt lat="37.352879" lon="-122.145926">
        <ele>137.8</ele>
        <time>2015-03-25T17:41:50Z</time>
      </trkpt>
      <trkpt lat="37.352873" lon="-122.145999">
        <ele>137.7</ele>
        <time>2015-03-25T17:41:51Z</time>
      </trkpt>
      <trkpt lat="37.352867" lon="-122.146068">
        <ele>137.8</ele>
        <time>2015-03-25T17:41:52Z</time>
      </trkpt>
      <trkpt lat="37.352861" lon="-122.146134">
        <ele>137.8</ele>
        <time>2015-03-25T17:41:53Z</time>
      </trkpt>
      <trkpt lat="37.352856" lon="-122.146193">
        <ele>137.6</ele>
        <time>2015-03-25T17:41:54Z</time>
      </trkpt>
      <trkpt lat="37.352849" lon="-122.146265">
        <ele>137.6</ele>
        <time>2015-03-25T17:41:55Z</time>
      </trkpt>
      <trkpt lat="37.352842" lon="-122.146346">
        <ele>137.6</ele>
        <time>2015-03-25T17:41:56Z</time>
      </trkpt>
      <trkpt lat="37.352835" lon="-122.146406">
        <ele>137.8</ele>
        <time>2015-03-25T17:41:57Z</time>
      </trkpt>
      <trkpt lat="37.352825" lon="-122.146476">
        <ele>137.8</ele>
        <time>2015-03-25T17:41:58Z</time>
      </trkpt>
      <trkpt lat="37.352819" lon="-122.146524">
        <ele>137.9</ele>
        <time>2015-03-25T17:41:59Z</time>
      </trkpt>
      <trkpt lat="37.352814" lon="-122.14656">
        <ele>137.9</ele>
        <time>2015-03-25T17:42:00Z</time>
      </trkpt>
      <trkpt lat="37.352806" lon="-122.146608">
        <ele>138.1</ele>
        <time>2015-03-25T17:42:01Z</time>
      </trkpt>
      <trkpt lat="37.352799" lon="-122.146646">
        <ele>138.2</ele>
        <time>2015-03-25T17:42:02Z</time>
      </trkpt>
      <trkpt lat="37.352784" lon="-122.146722">
        <ele>138.3</ele>
        <time>2015-03-25T17:42:03Z</time>
      </trkpt>
      <trkpt lat="37.352774" lon="-122.14677">
        <ele>138.5</ele>
        <time>2015-03-25T17:42:04Z</time>
      </trkpt>
      <trkpt lat="37.352757" lon="-122.146848">
        <ele>138.7</ele>
        <time>2015-03-25T17:42:05Z</time>
      </trkpt>
      <trkpt lat="37.352741" lon="-122.146911">
        <ele>139.1</ele>
        <time>2015-03-25T17:42:06Z</time>
      </trkpt>
      <trkpt lat="37.352725" lon="-122.146973">
        <ele>139.2</ele>
        <time>2015-03-25T17:42:07Z</time>
      </trkpt>
      <trkpt lat="37.352713" lon="-122.147022">
        <ele>139.5</ele>
        <time>2015-03-25T17:42:08Z</time>
      </trkpt>
      <trkpt lat="37.352697" lon="-122.147086">
        <ele>139.7</ele>
        <time>2015-03-25T17:42:09Z</time>
      </trkpt>
      <trkpt lat="37.352685" lon="-122.147138">
        <ele>140</ele>
        <time>2015-03-25T17:42:10Z</time>
      </trkpt>
      <trkpt lat="37.352676" lon="-122.147183">
        <ele>140.1</ele>
        <time>2015-03-25T17:42:11Z</time>
      </trkpt>
      <trkpt lat="37.352661" lon="-122.147253">
        <ele>140.4</ele>
        <time>2015-03-25T17:42:12Z</time>
      </trkpt>
      <trkpt lat="37.352654" lon="-122.147296">
        <ele>140.5</ele>
        <time>2015-03-25T17:42:13Z</time>
      </trkpt>
      <trkpt lat="37.352644" lon="-122.147353">
        <ele>140.6</ele>
        <time>2015-03-25T17:42:14Z</time>
      </trkpt>
      <trkpt lat="37.352636" lon="-122.147403">
        <ele>140.7</ele>
        <time>2015-03-25T17:42:15Z</time>
      </trkpt>
      <trkpt lat="37.352631" lon="-122.14745">
        <ele>140.9</ele>
        <time>2015-03-25T17:42:16Z</time>
      </trkpt>
      <trkpt lat="37.352625" lon="-122.147495">
        <ele>141</ele>
        <time>2015-03-25T17:42:17Z</time>
      </trkpt>
      <trkpt lat="37.352618" lon="-122.147561">
        <ele>141.1</ele>
        <time>2015-03-25T17:42:18Z</time>
      </trkpt>
      <trkpt lat="37.35261" lon="-122.147638">
        <ele>141.1</ele>
        <time>2015-03-25T17:42:20Z</time>
      </trkpt>
      <trkpt lat="37.352606" lon="-122.147687">
        <ele>141.2</ele>
        <time>2015-03-25T17:42:21Z</time>
      </trkpt>
      <trkpt lat="37.3526" lon="-122.147746">
        <ele>141.1</ele>
        <time>2015-03-25T17:42:22Z</time>
      </trkpt>
      <trkpt lat="37.352595" lon="-122.147803">
        <ele>141.1</ele>
        <time>2015-03-25T17:42:23Z</time>
      </trkpt>
      <trkpt lat="37.35259" lon="-122.147856">
        <ele>141.1</ele>
        <time>2015-03-25T17:42:24Z</time>
      </trkpt>
      <trkpt lat="37.352585" lon="-122.147913">
        <ele>141.2</ele>
        <time>2015-03-25T17:42:25Z</time>
      </trkpt>
      <trkpt lat="37.35258" lon="-122.14797">
        <ele>141.1</ele>
        <time>2015-03-25T17:42:26Z</time>
      </trkpt>
      <trkpt lat="37.352574" lon="-122.148033">
        <ele>141.1</ele>
        <time>2015-03-25T17:42:27Z</time>
      </trkpt>
      <trkpt lat="37.352569" lon="-122.148085">
        <ele>141.1</ele>
        <time>2015-03-25T17:42:28Z</time>
      </trkpt>
      <trkpt lat="37.352565" lon="-122.148133">
        <ele>141.1</ele>
        <time>2015-03-25T17:42:29Z</time>
      </trkpt>
      <trkpt lat="37.352559" lon="-122.148197">
        <ele>141.2</ele>
        <time>2015-03-25T17:42:30Z</time>
      </trkpt>
      <trkpt lat="37.352553" lon="-122.148259">
        <ele>141.2</ele>
        <time>2015-03-25T17:42:31Z</time>
      </trkpt>
      <trkpt lat="37.352545" lon="-122.148311">
        <ele>141.2</ele>
        <time>2015-03-25T17:42:32Z</time>
      </trkpt>
      <trkpt lat="37.352532" lon="-122.148368">
        <ele>141.6</ele>
        <time>2015-03-25T17:42:33Z</time>
      </trkpt>
      <trkpt lat="37.352525" lon="-122.148401">
        <ele>141.7</ele>
        <time>2015-03-25T17:42:34Z</time>
      </trkpt>
      <trkpt lat="37.352506" lon="-122.14847">
        <ele>142</ele>
        <time>2015-03-25T17:42:35Z</time>
      </trkpt>
      <trkpt lat="37.352488" lon="-122.148539">
        <ele>142.1</ele>
        <time>2015-03-25T17:42:36Z</time>
      </trkpt>
      <trkpt lat="37.352475" lon="-122.148586">
        <ele>142.2</ele>
        <time>2015-03-25T17:42:37Z</time>
      </trkpt>
      <trkpt lat="37.352451" lon="-122.148664">
        <ele>142.3</ele>
        <time>2015-03-25T17:42:38Z</time>
      </trkpt>
      <trkpt lat="37.352426" lon="-122.148725">
        <ele>142.9</ele>
        <time>2015-03-25T17:42:40Z</time>
      </trkpt>
      <trkpt lat="37.352402" lon="-122.148779">
        <ele>143.1</ele>
        <time>2015-03-25T17:42:41Z</time>
      </trkpt>
      <trkpt lat="37.352388" lon="-122.148809">
        <ele>142.9</ele>
        <time>2015-03-25T17:42:42Z</time>
      </trkpt>
      <trkpt lat="37.352369" lon="-122.148848">
        <ele>143.1</ele>
        <time>2015-03-25T17:42:43Z</time>
      </trkpt>
      <trkpt lat="37.352343" lon="-122.1489">
        <ele>143.4</ele>
        <time>2015-03-25T17:42:44Z</time>
      </trkpt>
      <trkpt lat="37.352326" lon="-122.148936">
        <ele>143.6</ele>
        <time>2015-03-25T17:42:45Z</time>
      </trkpt>
      <trkpt lat="37.352305" lon="-122.148981">
        <ele>143.7</ele>
        <time>2015-03-25T17:42:46Z</time>
      </trkpt>
      <trkpt lat="37.352285" lon="-122.149023">
        <ele>143.7</ele>
        <time>2015-03-25T17:42:47Z</time>
      </trkpt>
      <trkpt lat="37.352261" lon="-122.149073">
        <ele>143.8</ele>
        <time>2015-03-25T17:42:48Z</time>
      </trkpt>
      <trkpt lat="37.352241" lon="-122.149115">
        <ele>144</ele>
        <time>2015-03-25T17:42:49Z</time>
      </trkpt>
      <trkpt lat="37.352222" lon="-122.149159">
        <ele>144.1</ele>
        <time>2015-03-25T17:42:51Z</time>
      </trkpt>
      <trkpt lat="37.35219" lon="-122.149239">
        <ele>144.4</ele>
        <time>2015-03-25T17:42:52Z</time>
      </trkpt>
      <trkpt lat="37.352169" lon="-122.149296">
        <ele>144.2</ele>
        <time>2015-03-25T17:42:53Z</time>
      </trkpt>
      <trkpt lat="37.352156" lon="-122.149347">
        <ele>144.4</ele>
        <time>2015-03-25T17:42:54Z</time>
      </trkpt>
      <trkpt lat="37.352129" lon="-122.149481">
        <ele>144.2</ele>
        <time>2015-03-25T17:42:55Z</time>
      </trkpt>
      <trkpt lat="37.352124" lon="-122.149536">
        <ele>144.1</ele>
        <time>2015-03-25T17:42:56Z</time>
      </trkpt>
      <trkpt lat="37.352138" lon="-122.14981">
        <ele>144.6</ele>
        <time>2015-03-25T17:43:00Z</time>
      </trkpt>
      <trkpt lat="37.352146" lon="-122.149863">
        <ele>144.8</ele>
        <time>2015-03-25T17:43:01Z</time>
      </trkpt>
      <trkpt lat="37.352157" lon="-122.149922">
        <ele>144.5</ele>
        <time>2015-03-25T17:43:02Z</time>
      </trkpt>
      <trkpt lat="37.35217" lon="-122.149981">
        <ele>144.7</ele>
        <time>2015-03-25T17:43:03Z</time>
      </trkpt>
      <trkpt lat="37.352188" lon="-122.150055">
        <ele>145.4</ele>
        <time>2015-03-25T17:43:04Z</time>
      </trkpt>
      <trkpt lat="37.3522" lon="-122.150104">
        <ele>145.8</ele>
        <time>2015-03-25T17:43:05Z</time>
      </trkpt>
      <trkpt lat="37.352212" lon="-122.150148">
        <ele>145.9</ele>
        <time>2015-03-25T17:43:06Z</time>
      </trkpt>
      <trkpt lat="37.352229" lon="-122.150211">
        <ele>146.2</ele>
        <time>2015-03-25T17:43:07Z</time>
      </trkpt>
      <trkpt lat="37.352242" lon="-122.150257">
        <ele>146.6</ele>
        <time>2015-03-25T17:43:08Z</time>
      </trkpt>
      <trkpt lat="37.352256" lon="-122.150306">
        <ele>146.7</ele>
        <time>2015-03-25T17:43:09Z</time>
      </trkpt>
      <trkpt lat="37.352271" lon="-122.150355">
        <ele>146.9</ele>
        <time>2015-03-25T17:43:10Z</time>
      </trkpt>
      <trkpt lat="37.352283" lon="-122.150397">
        <ele>146.9</ele>
        <time>2015-03-25T17:43:11Z</time>
      </trkpt>
      <trkpt lat="37.352298" lon="-122.150446">
        <ele>147</ele>
        <time>2015-03-25T17:43:12Z</time>
      </trkpt>
      <trkpt lat="37.352313" lon="-122.150495">
        <ele>146.9</ele>
        <time>2015-03-25T17:43:13Z</time>
      </trkpt>
      <trkpt lat="37.352328" lon="-122.150545">
        <ele>147</ele>
        <time>2015-03-25T17:43:14Z</time>
      </trkpt>
      <trkpt lat="37.352345" lon="-122.150595">
        <ele>147</ele>
        <time>2015-03-25T17:43:15Z</time>
      </trkpt>
      <trkpt lat="37.352361" lon="-122.150641">
        <ele>147.1</ele>
        <time>2015-03-25T17:43:16Z</time>
      </trkpt>
      <trkpt lat="37.352378" lon="-122.150692">
        <ele>147.2</ele>
        <time>2015-03-25T17:43:17Z</time>
      </trkpt>
      <trkpt lat="37.352394" lon="-122.150739">
        <ele>147.3</ele>
        <time>2015-03-25T17:43:18Z</time>
      </trkpt>
      <trkpt lat="37.352412" lon="-122.150788">
        <ele>147.4</ele>
        <time>2015-03-25T17:43:19Z</time>
      </trkpt>
      <trkpt lat="37.35243" lon="-122.150832">
        <ele>147.5</ele>
        <time>2015-03-25T17:43:20Z</time>
      </trkpt>
      <trkpt lat="37.352462" lon="-122.150905">
        <ele>147.6</ele>
        <time>2015-03-25T17:43:21Z</time>
      </trkpt>
      <trkpt lat="37.352501" lon="-122.150981">
        <ele>147.8</ele>
        <time>2015-03-25T17:43:23Z</time>
      </trkpt>
      <trkpt lat="37.352538" lon="-122.151049">
        <ele>148</ele>
        <time>2015-03-25T17:43:24Z</time>
      </trkpt>
      <trkpt lat="37.352565" lon="-122.151092">
        <ele>148.1</ele>
        <time>2015-03-25T17:43:25Z</time>
      </trkpt>
      <trkpt lat="37.352592" lon="-122.151137">
        <ele>148.1</ele>
        <time>2015-03-25T17:43:26Z</time>
      </trkpt>
      <trkpt lat="37.352624" lon="-122.151186">
        <ele>148.2</ele>
        <time>2015-03-25T17:43:27Z</time>
      </trkpt>
      <trkpt lat="37.352644" lon="-122.151215">
        <ele>148.2</ele>
        <time>2015-03-25T17:43:28Z</time>
      </trkpt>
      <trkpt lat="37.35267" lon="-122.151253">
        <ele>148.2</ele>
        <time>2015-03-25T17:43:29Z</time>
      </trkpt>
      <trkpt lat="37.352699" lon="-122.151294">
        <ele>148.2</ele>
        <time>2015-03-25T17:43:30Z</time>
      </trkpt>
      <trkpt lat="37.352731" lon="-122.151338">
        <ele>148.2</ele>
        <time>2015-03-25T17:43:31Z</time>
      </trkpt>
      <trkpt lat="37.35276" lon="-122.151379">
        <ele>148.3</ele>
        <time>2015-03-25T17:43:32Z</time>
      </trkpt>
      <trkpt lat="37.352795" lon="-122.151429">
        <ele>148.3</ele>
        <time>2015-03-25T17:43:33Z</time>
      </trkpt>
      <trkpt lat="37.352821" lon="-122.151466">
        <ele>148.3</ele>
        <time>2015-03-25T17:43:34Z</time>
      </trkpt>
      <trkpt lat="37.35285" lon="-122.151507">
        <ele>148.3</ele>
        <time>2015-03-25T17:43:35Z</time>
      </trkpt>
      <trkpt lat="37.352882" lon="-122.15155">
        <ele>148.3</ele>
        <time>2015-03-25T17:43:36Z</time>
      </trkpt>
      <trkpt lat="37.352904" lon="-122.151579">
        <ele>148.3</ele>
        <time>2015-03-25T17:43:37Z</time>
      </trkpt>
      <trkpt lat="37.352931" lon="-122.151615">
        <ele>148.3</ele>
        <time>2015-03-25T17:43:38Z</time>
      </trkpt>
      <trkpt lat="37.352961" lon="-122.151656">
        <ele>148.3</ele>
        <time>2015-03-25T17:43:39Z</time>
      </trkpt>
      <trkpt lat="37.352986" lon="-122.151691">
        <ele>148.4</ele>
        <time>2015-03-25T17:43:40Z</time>
      </trkpt>
      <trkpt lat="37.353013" lon="-122.151732">
        <ele>148.5</ele>
        <time>2015-03-25T17:43:41Z</time>
      </trkpt>
      <trkpt lat="37.353035" lon="-122.151766">
        <ele>148.5</ele>
        <time>2015-03-25T17:43:42Z</time>
      </trkpt>
      <trkpt lat="37.353061" lon="-122.151807">
        <ele>148.7</ele>
        <time>2015-03-25T17:43:43Z</time>
      </trkpt>
      <trkpt lat="37.353096" lon="-122.151862">
        <ele>148.9</ele>
        <time>2015-03-25T17:43:44Z</time>
      </trkpt>
      <trkpt lat="37.353127" lon="-122.151913">
        <ele>148.8</ele>
        <time>2015-03-25T17:43:45Z</time>
      </trkpt>
      <trkpt lat="37.353163" lon="-122.151972">
        <ele>148.9</ele>
        <time>2015-03-25T17:43:46Z</time>
      </trkpt>
      <trkpt lat="37.35319" lon="-122.152016">
        <ele>148.9</ele>
        <time>2015-03-25T17:43:47Z</time>
      </trkpt>
      <trkpt lat="37.353213" lon="-122.152054">
        <ele>149</ele>
        <time>2015-03-25T17:43:48Z</time>
      </trkpt>
      <trkpt lat="37.353346" lon="-122.152263">
        <ele>149.3</ele>
        <time>2015-03-25T17:43:53Z</time>
      </trkpt>
      <trkpt lat="37.35338" lon="-122.152317">
        <ele>149.5</ele>
        <time>2015-03-25T17:43:54Z</time>
      </trkpt>
      <trkpt lat="37.3534" lon="-122.152349">
        <ele>149.5</ele>
        <time>2015-03-25T17:43:55Z</time>
      </trkpt>
      <trkpt lat="37.353435" lon="-122.152403">
        <ele>149.7</ele>
        <time>2015-03-25T17:43:57Z</time>
      </trkpt>
      <trkpt lat="37.35346" lon="-122.152443">
        <ele>149.8</ele>
        <time>2015-03-25T17:43:58Z</time>
      </trkpt>
      <trkpt lat="37.353483" lon="-122.152479">
        <ele>150</ele>
        <time>2015-03-25T17:43:59Z</time>
      </trkpt>
      <trkpt lat="37.353519" lon="-122.152536">
        <ele>150.1</ele>
        <time>2015-03-25T17:44:00Z</time>
      </trkpt>
      <trkpt lat="37.353548" lon="-122.152581">
        <ele>150.2</ele>
        <time>2015-03-25T17:44:01Z</time>
      </trkpt>
      <trkpt lat="37.353588" lon="-122.152644">
        <ele>150.5</ele>
        <time>2015-03-25T17:44:02Z</time>
      </trkpt>
      <trkpt lat="37.353618" lon="-122.152691">
        <ele>150.6</ele>
        <time>2015-03-25T17:44:03Z</time>
      </trkpt>
      <trkpt lat="37.353651" lon="-122.152743">
        <ele>150.8</ele>
        <time>2015-03-25T17:44:04Z</time>
      </trkpt>
      <trkpt lat="37.35368" lon="-122.152791">
        <ele>150.9</ele>
        <time>2015-03-25T17:44:05Z</time>
      </trkpt>
      <trkpt lat="37.353708" lon="-122.152837">
        <ele>150.9</ele>
        <time>2015-03-25T17:44:06Z</time>
      </trkpt>
      <trkpt lat="37.353736" lon="-122.152883">
        <ele>151</ele>
        <time>2015-03-25T17:44:08Z</time>
      </trkpt>
      <trkpt lat="37.35379" lon="-122.152973">
        <ele>151.2</ele>
        <time>2015-03-25T17:44:09Z</time>
      </trkpt>
      <trkpt lat="37.353814" lon="-122.153013">
        <ele>151.1</ele>
        <time>2015-03-25T17:44:10Z</time>
      </trkpt>
      <trkpt lat="37.353856" lon="-122.153083">
        <ele>151.2</ele>
        <time>2015-03-25T17:44:11Z</time>
      </trkpt>
      <trkpt lat="37.353892" lon="-122.153143">
        <ele>151.3</ele>
        <time>2015-03-25T17:44:12Z</time>
      </trkpt>
      <trkpt lat="37.353921" lon="-122.153192">
        <ele>151.3</ele>
        <time>2015-03-25T17:44:13Z</time>
      </trkpt>
      <trkpt lat="37.353948" lon="-122.153237">
        <ele>151.4</ele>
        <time>2015-03-25T17:44:14Z</time>
      </trkpt>
      <trkpt lat="37.353971" lon="-122.153275">
        <ele>151.4</ele>
        <time>2015-03-25T17:44:15Z</time>
      </trkpt>
      <trkpt lat="37.353995" lon="-122.153316">
        <ele>151.4</ele>
        <time>2015-03-25T17:44:16Z</time>
      </trkpt>
      <trkpt lat="37.354022" lon="-122.153359">
        <ele>151.5</ele>
        <time>2015-03-25T17:44:17Z</time>
      </trkpt>
      <trkpt lat="37.354047" lon="-122.153401">
        <ele>151.7</ele>
        <time>2015-03-25T17:44:18Z</time>
      </trkpt>
      <trkpt lat="37.354064" lon="-122.153431">
        <ele>151.8</ele>
        <time>2015-03-25T17:44:19Z</time>
      </trkpt>
      <trkpt lat="37.354087" lon="-122.153468">
        <ele>151.9</ele>
        <time>2015-03-25T17:44:20Z</time>
      </trkpt>
      <trkpt lat="37.354115" lon="-122.153515">
        <ele>152</ele>
        <time>2015-03-25T17:44:21Z</time>
      </trkpt>
      <trkpt lat="37.354139" lon="-122.153557">
        <ele>152.1</ele>
        <time>2015-03-25T17:44:22Z</time>
      </trkpt>
      <trkpt lat="37.354162" lon="-122.153596">
        <ele>152.1</ele>
        <time>2015-03-25T17:44:23Z</time>
      </trkpt>
      <trkpt lat="37.354187" lon="-122.153639">
        <ele>152.2</ele>
        <time>2015-03-25T17:44:24Z</time>
      </trkpt>
      <trkpt lat="37.354208" lon="-122.153674">
        <ele>152.2</ele>
        <time>2015-03-25T17:44:25Z</time>
      </trkpt>
      <trkpt lat="37.354259" lon="-122.153767">
        <ele>152.2</ele>
        <time>2015-03-25T17:44:27Z</time>
      </trkpt>
      <trkpt lat="37.354283" lon="-122.153811">
        <ele>152.3</ele>
        <time>2015-03-25T17:44:28Z</time>
      </trkpt>
      <trkpt lat="37.354323" lon="-122.153889">
        <ele>152.2</ele>
        <time>2015-03-25T17:44:29Z</time>
      </trkpt>
      <trkpt lat="37.354344" lon="-122.153931">
        <ele>152.2</ele>
        <time>2015-03-25T17:44:30Z</time>
      </trkpt>
      <trkpt lat="37.354363" lon="-122.153975">
        <ele>152.1</ele>
        <time>2015-03-25T17:44:31Z</time>
      </trkpt>
      <trkpt lat="37.354387" lon="-122.154031">
        <ele>152.2</ele>
        <time>2015-03-25T17:44:32Z</time>
      </trkpt>
      <trkpt lat="37.354416" lon="-122.154111">
        <ele>152.1</ele>
        <time>2015-03-25T17:44:33Z</time>
      </trkpt>
      <trkpt lat="37.354428" lon="-122.154158">
        <ele>152.1</ele>
        <time>2015-03-25T17:44:34Z</time>
      </trkpt>
      <trkpt lat="37.354443" lon="-122.154236">
        <ele>152.2</ele>
        <time>2015-03-25T17:44:35Z</time>
      </trkpt>
      <trkpt lat="37.354447" lon="-122.154279">
        <ele>152.2</ele>
        <time>2015-03-25T17:44:36Z</time>
      </trkpt>
      <trkpt lat="37.354449" lon="-122.154338">
        <ele>152.3</ele>
        <time>2015-03-25T17:44:37Z</time>
      </trkpt>
      <trkpt lat="37.354446" lon="-122.154423">
        <ele>152.4</ele>
        <time>2015-03-25T17:44:38Z</time>
      </trkpt>
      <trkpt lat="37.354442" lon="-122.154457">
        <ele>152.5</ele>
        <time>2015-03-25T17:44:39Z</time>
      </trkpt>
      <trkpt lat="37.354436" lon="-122.154521">
        <ele>152.5</ele>
        <time>2015-03-25T17:44:40Z</time>
      </trkpt>
      <trkpt lat="37.354431" lon="-122.154575">
        <ele>152.6</ele>
        <time>2015-03-25T17:44:41Z</time>
      </trkpt>
      <trkpt lat="37.354422" lon="-122.154644">
        <ele>152.5</ele>
        <time>2015-03-25T17:44:42Z</time>
      </trkpt>
      <trkpt lat="37.354414" lon="-122.154702">
        <ele>152.6</ele>
        <time>2015-03-25T17:44:43Z</time>
      </trkpt>
      <trkpt lat="37.354407" lon="-122.154752">
        <ele>152.6</ele>
        <time>2015-03-25T17:44:44Z</time>
      </trkpt>
      <trkpt lat="37.354398" lon="-122.154812">
        <ele>152.7</ele>
        <time>2015-03-25T17:44:45Z</time>
      </trkpt>
      <trkpt lat="37.354387" lon="-122.154887">
        <ele>152.9</ele>
        <time>2015-03-25T17:44:47Z</time>
      </trkpt>
      <trkpt lat="37.35438" lon="-122.154935">
        <ele>153</ele>
        <time>2015-03-25T17:44:48Z</time>
      </trkpt>
      <trkpt lat="37.354351" lon="-122.155181">
        <ele>153.8</ele>
        <time>2015-03-25T17:44:53Z</time>
      </trkpt>
      <trkpt lat="37.354346" lon="-122.155256">
        <ele>154.1</ele>
        <time>2015-03-25T17:44:54Z</time>
      </trkpt>
      <trkpt lat="37.354342" lon="-122.155301">
        <ele>154.3</ele>
        <time>2015-03-25T17:44:55Z</time>
      </trkpt>
      <trkpt lat="37.35434" lon="-122.155348">
        <ele>154.4</ele>
        <time>2015-03-25T17:44:56Z</time>
      </trkpt>
      <trkpt lat="37.354338" lon="-122.155402">
        <ele>154.6</ele>
        <time>2015-03-25T17:44:57Z</time>
      </trkpt>
      <trkpt lat="37.354338" lon="-122.155452">
        <ele>154.8</ele>
        <time>2015-03-25T17:44:58Z</time>
      </trkpt>
      <trkpt lat="37.354337" lon="-122.155505">
        <ele>154.8</ele>
        <time>2015-03-25T17:44:59Z</time>
      </trkpt>
      <trkpt lat="37.354337" lon="-122.155565">
        <ele>155</ele>
        <time>2015-03-25T17:45:00Z</time>
      </trkpt>
      <trkpt lat="37.354336" lon="-122.155626">
        <ele>155.1</ele>
        <time>2015-03-25T17:45:01Z</time>
      </trkpt>
      <trkpt lat="37.354336" lon="-122.155689">
        <ele>155.2</ele>
        <time>2015-03-25T17:45:02Z</time>
      </trkpt>
      <trkpt lat="37.354337" lon="-122.155745">
        <ele>155.3</ele>
        <time>2015-03-25T17:45:03Z</time>
      </trkpt>
      <trkpt lat="37.354337" lon="-122.155795">
        <ele>155.4</ele>
        <time>2015-03-25T17:45:04Z</time>
      </trkpt>
      <trkpt lat="37.354339" lon="-122.155849">
        <ele>155.5</ele>
        <time>2015-03-25T17:45:05Z</time>
      </trkpt>
      <trkpt lat="37.35434" lon="-122.155904">
        <ele>155.7</ele>
        <time>2015-03-25T17:45:06Z</time>
      </trkpt>
      <trkpt lat="37.354342" lon="-122.155957">
        <ele>155.9</ele>
        <time>2015-03-25T17:45:07Z</time>
      </trkpt>
      <trkpt lat="37.354344" lon="-122.156009">
        <ele>156</ele>
        <time>2015-03-25T17:45:08Z</time>
      </trkpt>
      <trkpt lat="37.354346" lon="-122.156053">
        <ele>156.1</ele>
        <time>2015-03-25T17:45:09Z</time>
      </trkpt>
      <trkpt lat="37.354347" lon="-122.156104">
        <ele>156.3</ele>
        <time>2015-03-25T17:45:10Z</time>
      </trkpt>
      <trkpt lat="37.35435" lon="-122.156156">
        <ele>156.5</ele>
        <time>2015-03-25T17:45:11Z</time>
      </trkpt>
      <trkpt lat="37.354352" lon="-122.156201">
        <ele>156.7</ele>
        <time>2015-03-25T17:45:12Z</time>
      </trkpt>
      <trkpt lat="37.354355" lon="-122.156248">
        <ele>156.7</ele>
        <time>2015-03-25T17:45:13Z</time>
      </trkpt>
      <trkpt lat="37.354357" lon="-122.156296">
        <ele>156.8</ele>
        <time>2015-03-25T17:45:14Z</time>
      </trkpt>
      <trkpt lat="37.354361" lon="-122.15635">
        <ele>156.9</ele>
        <time>2015-03-25T17:45:15Z</time>
      </trkpt>
      <trkpt lat="37.354365" lon="-122.156403">
        <ele>157</ele>
        <time>2015-03-25T17:45:16Z</time>
      </trkpt>
      <trkpt lat="37.354369" lon="-122.156468">
        <ele>157.1</ele>
        <time>2015-03-25T17:45:17Z</time>
      </trkpt>
      <trkpt lat="37.354374" lon="-122.156525">
        <ele>157.2</ele>
        <time>2015-03-25T17:45:18Z</time>
      </trkpt>
      <trkpt lat="37.354378" lon="-122.156582">
        <ele>157.3</ele>
        <time>2015-03-25T17:45:19Z</time>
      </trkpt>
      <trkpt lat="37.354382" lon="-122.156635">
        <ele>157.4</ele>
        <time>2015-03-25T17:45:20Z</time>
      </trkpt>
      <trkpt lat="37.354385" lon="-122.156671">
        <ele>157.5</ele>
        <time>2015-03-25T17:45:21Z</time>
      </trkpt>
      <trkpt lat="37.354387" lon="-122.156744">
        <ele>157.6</ele>
        <time>2015-03-25T17:45:22Z</time>
      </trkpt>
      <trkpt lat="37.354388" lon="-122.156804">
        <ele>157.7</ele>
        <time>2015-03-25T17:45:23Z</time>
      </trkpt>
      <trkpt lat="37.354388" lon="-122.156865">
        <ele>157.8</ele>
        <time>2015-03-25T17:45:24Z</time>
      </trkpt>
      <trkpt lat="37.354381" lon="-122.156967">
        <ele>157.9</ele>
        <time>2015-03-25T17:45:26Z</time>
      </trkpt>
      <trkpt lat="37.354371" lon="-122.15704">
        <ele>158.1</ele>
        <time>2015-03-25T17:45:27Z</time>
      </trkpt>
      <trkpt lat="37.354362" lon="-122.157088">
        <ele>158.1</ele>
        <time>2015-03-25T17:45:28Z</time>
      </trkpt>
      <trkpt lat="37.354352" lon="-122.157138">
        <ele>158.3</ele>
        <time>2015-03-25T17:45:29Z</time>
      </trkpt>
      <trkpt lat="37.354343" lon="-122.157185">
        <ele>158.4</ele>
        <time>2015-03-25T17:45:30Z</time>
      </trkpt>
      <trkpt lat="37.354332" lon="-122.157241">
        <ele>158.5</ele>
        <time>2015-03-25T17:45:31Z</time>
      </trkpt>
      <trkpt lat="37.354321" lon="-122.157301">
        <ele>158.9</ele>
        <time>2015-03-25T17:45:32Z</time>
      </trkpt>
      <trkpt lat="37.354311" lon="-122.157359">
        <ele>159.2</ele>
        <time>2015-03-25T17:45:33Z</time>
      </trkpt>
      <trkpt lat="37.354299" lon="-122.157425">
        <ele>159</ele>
        <time>2015-03-25T17:45:34Z</time>
      </trkpt>
      <trkpt lat="37.354288" lon="-122.157494">
        <ele>159.2</ele>
        <time>2015-03-25T17:45:35Z</time>
      </trkpt>
      <trkpt lat="37.354281" lon="-122.157541">
        <ele>159.1</ele>
        <time>2015-03-25T17:45:36Z</time>
      </trkpt>
      <trkpt lat="37.354274" lon="-122.157591">
        <ele>158.8</ele>
        <time>2015-03-25T17:45:37Z</time>
      </trkpt>
      <trkpt lat="37.35427" lon="-122.157649">
        <ele>159.1</ele>
        <time>2015-03-25T17:45:38Z</time>
      </trkpt>
      <trkpt lat="37.354266" lon="-122.157721">
        <ele>158.9</ele>
        <time>2015-03-25T17:45:39Z</time>
      </trkpt>
      <trkpt lat="37.354264" lon="-122.157774">
        <ele>159</ele>
        <time>2015-03-25T17:45:40Z</time>
      </trkpt>
      <trkpt lat="37.354264" lon="-122.157842">
        <ele>159.2</ele>
        <time>2015-03-25T17:45:41Z</time>
      </trkpt>
      <trkpt lat="37.354264" lon="-122.157909">
        <ele>159.2</ele>
        <time>2015-03-25T17:45:42Z</time>
      </trkpt>
      <trkpt lat="37.354265" lon="-122.157975">
        <ele>159.2</ele>
        <time>2015-03-25T17:45:43Z</time>
      </trkpt>
      <trkpt lat="37.354267" lon="-122.158015">
        <ele>159.2</ele>
        <time>2015-03-25T17:45:44Z</time>
      </trkpt>
      <trkpt lat="37.35427" lon="-122.158096">
        <ele>159.2</ele>
        <time>2015-03-25T17:45:45Z</time>
      </trkpt>
      <trkpt lat="37.354271" lon="-122.158138">
        <ele>159.2</ele>
        <time>2015-03-25T17:45:46Z</time>
      </trkpt>
      <trkpt lat="37.354273" lon="-122.158189">
        <ele>159.3</ele>
        <time>2015-03-25T17:45:47Z</time>
      </trkpt>
      <trkpt lat="37.354275" lon="-122.158246">
        <ele>159.4</ele>
        <time>2015-03-25T17:45:48Z</time>
      </trkpt>
      <trkpt lat="37.354278" lon="-122.158305">
        <ele>159.5</ele>
        <time>2015-03-25T17:45:49Z</time>
      </trkpt>
      <trkpt lat="37.35428" lon="-122.158354">
        <ele>159.7</ele>
        <time>2015-03-25T17:45:50Z</time>
      </trkpt>
      <trkpt lat="37.354282" lon="-122.158394">
        <ele>159.8</ele>
        <time>2015-03-25T17:45:51Z</time>
      </trkpt>
      <trkpt lat="37.354285" lon="-122.158442">
        <ele>160.1</ele>
        <time>2015-03-25T17:45:52Z</time>
      </trkpt>
      <trkpt lat="37.354288" lon="-122.158502">
        <ele>160.9</ele>
        <time>2015-03-25T17:45:53Z</time>
      </trkpt>
      <trkpt lat="37.35429" lon="-122.158553">
        <ele>161.4</ele>
        <time>2015-03-25T17:45:54Z</time>
      </trkpt>
      <trkpt lat="37.354293" lon="-122.15861">
        <ele>161.1</ele>
        <time>2015-03-25T17:45:55Z</time>
      </trkpt>
      <trkpt lat="37.354296" lon="-122.158657">
        <ele>161</ele>
        <time>2015-03-25T17:45:56Z</time>
      </trkpt>
      <trkpt lat="37.354299" lon="-122.158703">
        <ele>161.3</ele>
        <time>2015-03-25T17:45:57Z</time>
      </trkpt>
      <trkpt lat="37.354302" lon="-122.158755">
        <ele>161.7</ele>
        <time>2015-03-25T17:45:58Z</time>
      </trkpt>
      <trkpt lat="37.354305" lon="-122.158805">
        <ele>162.1</ele>
        <time>2015-03-25T17:45:59Z</time>
      </trkpt>
      <trkpt lat="37.354308" lon="-122.158852">
        <ele>162.4</ele>
        <time>2015-03-25T17:46:00Z</time>
      </trkpt>
      <trkpt lat="37.35431" lon="-122.158887">
        <ele>162.7</ele>
        <time>2015-03-25T17:46:01Z</time>
      </trkpt>
      <trkpt lat="37.35431" lon="-122.158938">
        <ele>162.9</ele>
        <time>2015-03-25T17:46:02Z</time>
      </trkpt>
      <trkpt lat="37.354306" lon="-122.158997">
        <ele>163.2</ele>
        <time>2015-03-25T17:46:04Z</time>
      </trkpt>
      <trkpt lat="37.354299" lon="-122.159037">
        <ele>163.4</ele>
        <time>2015-03-25T17:46:05Z</time>
      </trkpt>
      <trkpt lat="37.354291" lon="-122.159085">
        <ele>163.6</ele>
        <time>2015-03-25T17:46:06Z</time>
      </trkpt>
      <trkpt lat="37.35428" lon="-122.159131">
        <ele>163.7</ele>
        <time>2015-03-25T17:46:07Z</time>
      </trkpt>
      <trkpt lat="37.354266" lon="-122.15918">
        <ele>163.8</ele>
        <time>2015-03-25T17:46:08Z</time>
      </trkpt>
      <trkpt lat="37.354251" lon="-122.159232">
        <ele>164.3</ele>
        <time>2015-03-25T17:46:09Z</time>
      </trkpt>
      <trkpt lat="37.354238" lon="-122.159278">
        <ele>164.5</ele>
        <time>2015-03-25T17:46:10Z</time>
      </trkpt>
      <trkpt lat="37.354226" lon="-122.159316">
        <ele>164.7</ele>
        <time>2015-03-25T17:46:11Z</time>
      </trkpt>
      <trkpt lat="37.35421" lon="-122.159378">
        <ele>164.6</ele>
        <time>2015-03-25T17:46:12Z</time>
      </trkpt>
      <trkpt lat="37.354197" lon="-122.159434">
        <ele>164.8</ele>
        <time>2015-03-25T17:46:13Z</time>
      </trkpt>
      <trkpt lat="37.354185" lon="-122.159489">
        <ele>164.6</ele>
        <time>2015-03-25T17:46:14Z</time>
      </trkpt>
      <trkpt lat="37.354173" lon="-122.159564">
        <ele>164</ele>
        <time>2015-03-25T17:46:15Z</time>
      </trkpt>
      <trkpt lat="37.35417" lon="-122.15963">
        <ele>163.6</ele>
        <time>2015-03-25T17:46:16Z</time>
      </trkpt>
      <trkpt lat="37.354171" lon="-122.159725">
        <ele>163.3</ele>
        <time>2015-03-25T17:46:17Z</time>
      </trkpt>
      <trkpt lat="37.354176" lon="-122.159767">
        <ele>163.4</ele>
        <time>2015-03-25T17:46:18Z</time>
      </trkpt>
      <trkpt lat="37.354194" lon="-122.159854">
        <ele>163</ele>
        <time>2015-03-25T17:46:19Z</time>
      </trkpt>
      <trkpt lat="37.354222" lon="-122.159928">
        <ele>163</ele>
        <time>2015-03-25T17:46:20Z</time>
      </trkpt>
      <trkpt lat="37.354254" lon="-122.159992">
        <ele>163.2</ele>
        <time>2015-03-25T17:46:21Z</time>
      </trkpt>
      <trkpt lat="37.354288" lon="-122.160045">
        <ele>163.3</ele>
        <time>2015-03-25T17:46:22Z</time>
      </trkpt>
      <trkpt lat="37.354327" lon="-122.160095">
        <ele>163.4</ele>
        <time>2015-03-25T17:46:23Z</time>
      </trkpt>
      <trkpt lat="37.354383" lon="-122.160153">
        <ele>163.5</ele>
        <time>2015-03-25T17:46:24Z</time>
      </trkpt>
      <trkpt lat="37.354424" lon="-122.16019">
        <ele>163.7</ele>
        <time>2015-03-25T17:46:25Z</time>
      </trkpt>
      <trkpt lat="37.354465" lon="-122.160227">
        <ele>163.8</ele>
        <time>2015-03-25T17:46:26Z</time>
      </trkpt>
      <trkpt lat="37.354499" lon="-122.160255">
        <ele>164.1</ele>
        <time>2015-03-25T17:46:27Z</time>
      </trkpt>
      <trkpt lat="37.354542" lon="-122.160289">
        <ele>164.5</ele>
        <time>2015-03-25T17:46:28Z</time>
      </trkpt>
      <trkpt lat="37.354584" lon="-122.160319">
        <ele>164.6</ele>
        <time>2015-03-25T17:46:29Z</time>
      </trkpt>
      <trkpt lat="37.354626" lon="-122.160348">
        <ele>164.6</ele>
        <time>2015-03-25T17:46:30Z</time>
      </trkpt>
      <trkpt lat="37.354683" lon="-122.160387">
        <ele>165.1</ele>
        <time>2015-03-25T17:46:32Z</time>
      </trkpt>
      <trkpt lat="37.354716" lon="-122.160409">
        <ele>165.2</ele>
        <time>2015-03-25T17:46:34Z</time>
      </trkpt>
      <trkpt lat="37.354762" lon="-122.16044">
        <ele>165.4</ele>
        <time>2015-03-25T17:46:35Z</time>
      </trkpt>
      <trkpt lat="37.354807" lon="-122.160471">
        <ele>165.7</ele>
        <time>2015-03-25T17:46:37Z</time>
      </trkpt>
      <trkpt lat="37.354836" lon="-122.160491">
        <ele>165.8</ele>
        <time>2015-03-25T17:46:38Z</time>
      </trkpt>
      <trkpt lat="37.354866" lon="-122.160512">
        <ele>166</ele>
        <time>2015-03-25T17:46:39Z</time>
      </trkpt>
      <trkpt lat="37.354894" lon="-122.160532">
        <ele>166.1</ele>
        <time>2015-03-25T17:46:40Z</time>
      </trkpt>
      <trkpt lat="37.35493" lon="-122.16056">
        <ele>166.3</ele>
        <time>2015-03-25T17:46:42Z</time>
      </trkpt>
      <trkpt lat="37.354965" lon="-122.160593">
        <ele>166.5</ele>
        <time>2015-03-25T17:46:43Z</time>
      </trkpt>
      <trkpt lat="37.354989" lon="-122.160621">
        <ele>166.5</ele>
        <time>2015-03-25T17:46:44Z</time>
      </trkpt>
      <trkpt lat="37.355016" lon="-122.160652">
        <ele>166.7</ele>
        <time>2015-03-25T17:46:45Z</time>
      </trkpt>
      <trkpt lat="37.355066" lon="-122.160713">
        <ele>167</ele>
        <time>2015-03-25T17:46:47Z</time>
      </trkpt>
      <trkpt lat="37.35509" lon="-122.160745">
        <ele>167.2</ele>
        <time>2015-03-25T17:46:48Z</time>
      </trkpt>
      <trkpt lat="37.355112" lon="-122.160777">
        <ele>167.3</ele>
        <time>2015-03-25T17:46:49Z</time>
      </trkpt>
      <trkpt lat="37.355137" lon="-122.160814">
        <ele>167.5</ele>
        <time>2015-03-25T17:46:50Z</time>
      </trkpt>
      <trkpt lat="37.355162" lon="-122.160854">
        <ele>167.6</ele>
        <time>2015-03-25T17:46:51Z</time>
      </trkpt>
      <trkpt lat="37.355185" lon="-122.160891">
        <ele>167.8</ele>
        <time>2015-03-25T17:46:52Z</time>
      </trkpt>
      <trkpt lat="37.355222" lon="-122.160962">
        <ele>168.2</ele>
        <time>2015-03-25T17:46:54Z</time>
      </trkpt>
      <trkpt lat="37.355241" lon="-122.160998">
        <ele>168.2</ele>
        <time>2015-03-25T17:46:55Z</time>
      </trkpt>
      <trkpt lat="37.35526" lon="-122.161036">
        <ele>168.3</ele>
        <time>2015-03-25T17:46:56Z</time>
      </trkpt>
      <trkpt lat="37.355279" lon="-122.161075">
        <ele>168.4</ele>
        <time>2015-03-25T17:46:57Z</time>
      </trkpt>
      <trkpt lat="37.355301" lon="-122.16112">
        <ele>168.5</ele>
        <time>2015-03-25T17:46:58Z</time>
      </trkpt>
      <trkpt lat="37.355326" lon="-122.161168">
        <ele>168.6</ele>
        <time>2015-03-25T17:46:59Z</time>
      </trkpt>
      <trkpt lat="37.355349" lon="-122.161211">
        <ele>168.7</ele>
        <time>2015-03-25T17:47:00Z</time>
      </trkpt>
      <trkpt lat="37.355375" lon="-122.161258">
        <ele>168.8</ele>
        <time>2015-03-25T17:47:01Z</time>
      </trkpt>
      <trkpt lat="37.355398" lon="-122.1613">
        <ele>168.8</ele>
        <time>2015-03-25T17:47:02Z</time>
      </trkpt>
      <trkpt lat="37.355423" lon="-122.161345">
        <ele>168.9</ele>
        <time>2015-03-25T17:47:03Z</time>
      </trkpt>
      <trkpt lat="37.355451" lon="-122.16139">
        <ele>169</ele>
        <time>2015-03-25T17:47:04Z</time>
      </trkpt>
      <trkpt lat="37.355484" lon="-122.16144">
        <ele>169.2</ele>
        <time>2015-03-25T17:47:05Z</time>
      </trkpt>
      <trkpt lat="37.355511" lon="-122.16148">
        <ele>169.2</ele>
        <time>2015-03-25T17:47:06Z</time>
      </trkpt>
      <trkpt lat="37.355531" lon="-122.161511">
        <ele>169.3</ele>
        <time>2015-03-25T17:47:07Z</time>
      </trkpt>
      <trkpt lat="37.355563" lon="-122.161551">
        <ele>169.4</ele>
        <time>2015-03-25T17:47:08Z</time>
      </trkpt>
      <trkpt lat="37.355584" lon="-122.161578">
        <ele>169.5</ele>
        <time>2015-03-25T17:47:09Z</time>
      </trkpt>
      <trkpt lat="37.355607" lon="-122.161608">
        <ele>169.6</ele>
        <time>2015-03-25T17:47:10Z</time>
      </trkpt>
      <trkpt lat="37.355629" lon="-122.161636">
        <ele>169.6</ele>
        <time>2015-03-25T17:47:11Z</time>
      </trkpt>
      <trkpt lat="37.355661" lon="-122.161678">
        <ele>169.8</ele>
        <time>2015-03-25T17:47:12Z</time>
      </trkpt>
      <trkpt lat="37.355694" lon="-122.161719">
        <ele>170</ele>
        <time>2015-03-25T17:47:13Z</time>
      </trkpt>
      <trkpt lat="37.35572" lon="-122.161751">
        <ele>170.2</ele>
        <time>2015-03-25T17:47:14Z</time>
      </trkpt>
      <trkpt lat="37.355748" lon="-122.161786">
        <ele>170.3</ele>
        <time>2015-03-25T17:47:15Z</time>
      </trkpt>
      <trkpt lat="37.355789" lon="-122.161847">
        <ele>170.6</ele>
        <time>2015-03-25T17:47:17Z</time>
      </trkpt>
      <trkpt lat="37.355825" lon="-122.161909">
        <ele>171</ele>
        <time>2015-03-25T17:47:19Z</time>
      </trkpt>
      <trkpt lat="37.355841" lon="-122.16194">
        <ele>171.1</ele>
        <time>2015-03-25T17:47:20Z</time>
      </trkpt>
      <trkpt lat="37.355858" lon="-122.161975">
        <ele>171.2</ele>
        <time>2015-03-25T17:47:21Z</time>
      </trkpt>
      <trkpt lat="37.355878" lon="-122.162022">
        <ele>171.5</ele>
        <time>2015-03-25T17:47:22Z</time>
      </trkpt>
      <trkpt lat="37.355905" lon="-122.162091">
        <ele>171.9</ele>
        <time>2015-03-25T17:47:24Z</time>
      </trkpt>
      <trkpt lat="37.35592" lon="-122.16213">
        <ele>172</ele>
        <time>2015-03-25T17:47:25Z</time>
      </trkpt>
      <trkpt lat="37.355934" lon="-122.162173">
        <ele>172.3</ele>
        <time>2015-03-25T17:47:26Z</time>
      </trkpt>
      <trkpt lat="37.35595" lon="-122.162221">
        <ele>172.4</ele>
        <time>2015-03-25T17:47:27Z</time>
      </trkpt>
      <trkpt lat="37.355964" lon="-122.162265">
        <ele>172.6</ele>
        <time>2015-03-25T17:47:28Z</time>
      </trkpt>
      <trkpt lat="37.355979" lon="-122.162311">
        <ele>172.7</ele>
        <time>2015-03-25T17:47:29Z</time>
      </trkpt>
      <trkpt lat="37.35599" lon="-122.162346">
        <ele>173</ele>
        <time>2015-03-25T17:47:30Z</time>
      </trkpt>
      <trkpt lat="37.356003" lon="-122.162388">
        <ele>173.2</ele>
        <time>2015-03-25T17:47:31Z</time>
      </trkpt>
      <trkpt lat="37.356016" lon="-122.162429">
        <ele>173.5</ele>
        <time>2015-03-25T17:47:32Z</time>
      </trkpt>
      <trkpt lat="37.356028" lon="-122.162468">
        <ele>173.6</ele>
        <time>2015-03-25T17:47:33Z</time>
      </trkpt>
      <trkpt lat="37.356039" lon="-122.162505">
        <ele>173.7</ele>
        <time>2015-03-25T17:47:34Z</time>
      </trkpt>
      <trkpt lat="37.35605" lon="-122.162542">
        <ele>173.9</ele>
        <time>2015-03-25T17:47:35Z</time>
      </trkpt>
      <trkpt lat="37.35606" lon="-122.162579">
        <ele>174.1</ele>
        <time>2015-03-25T17:47:36Z</time>
      </trkpt>
      <trkpt lat="37.35607" lon="-122.162613">
        <ele>174.3</ele>
        <time>2015-03-25T17:47:37Z</time>
      </trkpt>
      <trkpt lat="37.356081" lon="-122.162654">
        <ele>174.6</ele>
        <time>2015-03-25T17:47:38Z</time>
      </trkpt>
      <trkpt lat="37.356092" lon="-122.162692">
        <ele>174.8</ele>
        <time>2015-03-25T17:47:39Z</time>
      </trkpt>
      <trkpt lat="37.356101" lon="-122.162727">
        <ele>175.1</ele>
        <time>2015-03-25T17:47:40Z</time>
      </trkpt>
      <trkpt lat="37.35611" lon="-122.16276">
        <ele>175.5</ele>
        <time>2015-03-25T17:47:41Z</time>
      </trkpt>
      <trkpt lat="37.356119" lon="-122.162793">
        <ele>175.8</ele>
        <time>2015-03-25T17:47:42Z</time>
      </trkpt>
      <trkpt lat="37.35613" lon="-122.162834">
        <ele>175.9</ele>
        <time>2015-03-25T17:47:43Z</time>
      </trkpt>
      <trkpt lat="37.356146" lon="-122.162893">
        <ele>176.5</ele>
        <time>2015-03-25T17:47:45Z</time>
      </trkpt>
      <trkpt lat="37.356163" lon="-122.162955">
        <ele>177</ele>
        <time>2015-03-25T17:47:47Z</time>
      </trkpt>
      <trkpt lat="37.35618" lon="-122.163018">
        <ele>177.4</ele>
        <time>2015-03-25T17:47:49Z</time>
      </trkpt>
      <trkpt lat="37.356199" lon="-122.163088">
        <ele>177.8</ele>
        <time>2015-03-25T17:47:51Z</time>
      </trkpt>
      <trkpt lat="37.356217" lon="-122.163143">
        <ele>178.2</ele>
        <time>2015-03-25T17:47:53Z</time>
      </trkpt>
      <trkpt lat="37.356229" lon="-122.163183">
        <ele>178.3</ele>
        <time>2015-03-25T17:47:54Z</time>
      </trkpt>
      <trkpt lat="37.356257" lon="-122.163258">
        <ele>178.5</ele>
        <time>2015-03-25T17:47:56Z</time>
      </trkpt>
      <trkpt lat="37.35629" lon="-122.163331">
        <ele>178.6</ele>
        <time>2015-03-25T17:47:58Z</time>
      </trkpt>
      <trkpt lat="37.35631" lon="-122.163368">
        <ele>178.7</ele>
        <time>2015-03-25T17:47:59Z</time>
      </trkpt>
      <trkpt lat="37.356326" lon="-122.163397">
        <ele>178.8</ele>
        <time>2015-03-25T17:48:00Z</time>
      </trkpt>
      <trkpt lat="37.356346" lon="-122.163436">
        <ele>179</ele>
        <time>2015-03-25T17:48:01Z</time>
      </trkpt>
      <trkpt lat="37.356369" lon="-122.163474">
        <ele>179.2</ele>
        <time>2015-03-25T17:48:02Z</time>
      </trkpt>
      <trkpt lat="37.356393" lon="-122.163514">
        <ele>179.3</ele>
        <time>2015-03-25T17:48:03Z</time>
      </trkpt>
      <trkpt lat="37.356417" lon="-122.163549">
        <ele>179.5</ele>
        <time>2015-03-25T17:48:04Z</time>
      </trkpt>
      <trkpt lat="37.356435" lon="-122.163575">
        <ele>179.7</ele>
        <time>2015-03-25T17:48:05Z</time>
      </trkpt>
      <trkpt lat="37.356469" lon="-122.163617">
        <ele>180</ele>
        <time>2015-03-25T17:48:06Z</time>
      </trkpt>
      <trkpt lat="37.35649" lon="-122.163642">
        <ele>180.3</ele>
        <time>2015-03-25T17:48:07Z</time>
      </trkpt>
      <trkpt lat="37.356511" lon="-122.163667">
        <ele>180.5</ele>
        <time>2015-03-25T17:48:08Z</time>
      </trkpt>
      <trkpt lat="37.356548" lon="-122.163709">
        <ele>180.8</ele>
        <time>2015-03-25T17:48:10Z</time>
      </trkpt>
      <trkpt lat="37.356583" lon="-122.163749">
        <ele>181.3</ele>
        <time>2015-03-25T17:48:12Z</time>
      </trkpt>
      <trkpt lat="37.356615" lon="-122.163787">
        <ele>181.6</ele>
        <time>2015-03-25T17:48:14Z</time>
      </trkpt>
      <trkpt lat="37.356649" lon="-122.163826">
        <ele>182</ele>
        <time>2015-03-25T17:48:16Z</time>
      </trkpt>
      <trkpt lat="37.356686" lon="-122.163869">
        <ele>182.2</ele>
        <time>2015-03-25T17:48:18Z</time>
      </trkpt>
      <trkpt lat="37.356726" lon="-122.163917">
        <ele>182.8</ele>
        <time>2015-03-25T17:48:20Z</time>
      </trkpt>
      <trkpt lat="37.356762" lon="-122.163961">
        <ele>183</ele>
        <time>2015-03-25T17:48:22Z</time>
      </trkpt>
      <trkpt lat="37.356782" lon="-122.163986">
        <ele>183</ele>
        <time>2015-03-25T17:48:23Z</time>
      </trkpt>
      <trkpt lat="37.356818" lon="-122.164032">
        <ele>183.2</ele>
        <time>2015-03-25T17:48:25Z</time>
      </trkpt>
      <trkpt lat="37.356854" lon="-122.164077">
        <ele>183.5</ele>
        <time>2015-03-25T17:48:27Z</time>
      </trkpt>
      <trkpt lat="37.356888" lon="-122.164121">
        <ele>183.8</ele>
        <time>2015-03-25T17:48:29Z</time>
      </trkpt>
      <trkpt lat="37.356918" lon="-122.164159">
        <ele>184</ele>
        <time>2015-03-25T17:48:31Z</time>
      </trkpt>
      <trkpt lat="37.356951" lon="-122.1642">
        <ele>184.3</ele>
        <time>2015-03-25T17:48:33Z</time>
      </trkpt>
      <trkpt lat="37.35697" lon="-122.164225">
        <ele>184.5</ele>
        <time>2015-03-25T17:48:34Z</time>
      </trkpt>
      <trkpt lat="37.356992" lon="-122.164255">
        <ele>184.7</ele>
        <time>2015-03-25T17:48:36Z</time>
      </trkpt>
      <trkpt lat="37.357022" lon="-122.164296">
        <ele>184.9</ele>
        <time>2015-03-25T17:48:38Z</time>
      </trkpt>
      <trkpt lat="37.357042" lon="-122.164322">
        <ele>185.1</ele>
        <time>2015-03-25T17:48:39Z</time>
      </trkpt>
      <trkpt lat="37.357072" lon="-122.164363">
        <ele>185.3</ele>
        <time>2015-03-25T17:48:41Z</time>
      </trkpt>
      <trkpt lat="37.357106" lon="-122.164409">
        <ele>185.6</ele>
        <time>2015-03-25T17:48:43Z</time>
      </trkpt>
      <trkpt lat="37.357139" lon="-122.164452">
        <ele>186</ele>
        <time>2015-03-25T17:48:45Z</time>
      </trkpt>
      <trkpt lat="37.357159" lon="-122.164479">
        <ele>186.1</ele>
        <time>2015-03-25T17:48:46Z</time>
      </trkpt>
      <trkpt lat="37.357192" lon="-122.164522">
        <ele>186.5</ele>
        <time>2015-03-25T17:48:48Z</time>
      </trkpt>
      <trkpt lat="37.357222" lon="-122.164562">
        <ele>186.7</ele>
        <time>2015-03-25T17:48:50Z</time>
      </trkpt>
      <trkpt lat="37.357255" lon="-122.164604">
        <ele>187.1</ele>
        <time>2015-03-25T17:48:52Z</time>
      </trkpt>
      <trkpt lat="37.357283" lon="-122.164642">
        <ele>187.3</ele>
        <time>2015-03-25T17:48:54Z</time>
      </trkpt>
      <trkpt lat="37.35731" lon="-122.16468">
        <ele>187.5</ele>
        <time>2015-03-25T17:48:56Z</time>
      </trkpt>
      <trkpt lat="37.357345" lon="-122.164728">
        <ele>187.7</ele>
        <time>2015-03-25T17:48:58Z</time>
      </trkpt>
      <trkpt lat="37.35738" lon="-122.164777">
        <ele>188</ele>
        <time>2015-03-25T17:49:00Z</time>
      </trkpt>
      <trkpt lat="37.357443" lon="-122.164745">
        <ele>188.2</ele>
        <time>2015-03-25T17:49:01Z</time>
      </trkpt>
      <trkpt lat="37.35746" lon="-122.164774">
        <ele>188.3</ele>
        <time>2015-03-25T17:49:02Z</time>
      </trkpt>
      <trkpt lat="37.357477" lon="-122.164807">
        <ele>188.4</ele>
        <time>2015-03-25T17:49:03Z</time>
      </trkpt>
      <trkpt lat="37.357493" lon="-122.164837">
        <ele>188.5</ele>
        <time>2015-03-25T17:49:04Z</time>
      </trkpt>
      <trkpt lat="37.357512" lon="-122.164863">
        <ele>188.8</ele>
        <time>2015-03-25T17:49:05Z</time>
      </trkpt>
      <trkpt lat="37.357546" lon="-122.164871">
        <ele>189.2</ele>
        <time>2015-03-25T17:49:06Z</time>
      </trkpt>
      <trkpt lat="37.357561" lon="-122.164902">
        <ele>189.8</ele>
        <time>2015-03-25T17:49:07Z</time>
      </trkpt>
      <trkpt lat="37.357575" lon="-122.164933">
        <ele>190.2</ele>
        <time>2015-03-25T17:49:08Z</time>
      </trkpt>
      <trkpt lat="37.357586" lon="-122.164966">
        <ele>190.2</ele>
        <time>2015-03-25T17:49:09Z</time>
      </trkpt>
      <trkpt lat="37.3576" lon="-122.164996">
        <ele>190.4</ele>
        <time>2015-03-25T17:49:10Z</time>
      </trkpt>
      <trkpt lat="37.357615" lon="-122.165025">
        <ele>190.5</ele>
        <time>2015-03-25T17:49:11Z</time>
      </trkpt>
      <trkpt lat="37.357629" lon="-122.165055">
        <ele>190.7</ele>
        <time>2015-03-25T17:49:12Z</time>
      </trkpt>
      <trkpt lat="37.357657" lon="-122.165111">
        <ele>190.8</ele>
        <time>2015-03-25T17:49:14Z</time>
      </trkpt>
      <trkpt lat="37.357685" lon="-122.165167">
        <ele>191</ele>
        <time>2015-03-25T17:49:16Z</time>
      </trkpt>
      <trkpt lat="37.35771" lon="-122.165224">
        <ele>191.4</ele>
        <time>2015-03-25T17:49:18Z</time>
      </trkpt>
      <trkpt lat="37.357732" lon="-122.165285">
        <ele>191.7</ele>
        <time>2015-03-25T17:49:20Z</time>
      </trkpt>
      <trkpt lat="37.357742" lon="-122.165318">
        <ele>191.8</ele>
        <time>2015-03-25T17:49:21Z</time>
      </trkpt>
      <trkpt lat="37.357752" lon="-122.165351">
        <ele>191.9</ele>
        <time>2015-03-25T17:49:22Z</time>
      </trkpt>
      <trkpt lat="37.357763" lon="-122.165384">
        <ele>191.8</ele>
        <time>2015-03-25T17:49:23Z</time>
      </trkpt>
      <trkpt lat="37.357776" lon="-122.165418">
        <ele>191.9</ele>
        <time>2015-03-25T17:49:24Z</time>
      </trkpt>
      <trkpt lat="37.357788" lon="-122.165451">
        <ele>191.8</ele>
        <time>2015-03-25T17:49:25Z</time>
      </trkpt>
      <trkpt lat="37.3578" lon="-122.165486">
        <ele>191.9</ele>
        <time>2015-03-25T17:49:26Z</time>
      </trkpt>
      <trkpt lat="37.357795" lon="-122.165559">
        <ele>192.1</ele>
        <time>2015-03-25T17:49:28Z</time>
      </trkpt>
      <trkpt lat="37.357777" lon="-122.165603">
        <ele>192.2</ele>
        <time>2015-03-25T17:49:29Z</time>
      </trkpt>
      <trkpt lat="37.357788" lon="-122.165638">
        <ele>192.4</ele>
        <time>2015-03-25T17:49:30Z</time>
      </trkpt>
      <trkpt lat="37.357797" lon="-122.165671">
        <ele>192.6</ele>
        <time>2015-03-25T17:49:31Z</time>
      </trkpt>
      <trkpt lat="37.357807" lon="-122.165704">
        <ele>192.8</ele>
        <time>2015-03-25T17:49:32Z</time>
      </trkpt>
      <trkpt lat="37.357818" lon="-122.16574">
        <ele>193</ele>
        <time>2015-03-25T17:49:33Z</time>
      </trkpt>
      <trkpt lat="37.357828" lon="-122.165775">
        <ele>193.3</ele>
        <time>2015-03-25T17:49:34Z</time>
      </trkpt>
      <trkpt lat="37.357838" lon="-122.165807">
        <ele>193.5</ele>
        <time>2015-03-25T17:49:35Z</time>
      </trkpt>
      <trkpt lat="37.357847" lon="-122.165839">
        <ele>193.8</ele>
        <time>2015-03-25T17:49:36Z</time>
      </trkpt>
      <trkpt lat="37.357859" lon="-122.165874">
        <ele>194.1</ele>
        <time>2015-03-25T17:49:37Z</time>
      </trkpt>
      <trkpt lat="37.35787" lon="-122.165909">
        <ele>194.5</ele>
        <time>2015-03-25T17:49:38Z</time>
      </trkpt>
      <trkpt lat="37.357881" lon="-122.165942">
        <ele>194.8</ele>
        <time>2015-03-25T17:49:39Z</time>
      </trkpt>
      <trkpt lat="37.357892" lon="-122.165974">
        <ele>195.1</ele>
        <time>2015-03-25T17:49:40Z</time>
      </trkpt>
      <trkpt lat="37.357917" lon="-122.16605">
        <ele>195.8</ele>
        <time>2015-03-25T17:49:42Z</time>
      </trkpt>
      <trkpt lat="37.357937" lon="-122.166102">
        <ele>196.4</ele>
        <time>2015-03-25T17:49:44Z</time>
      </trkpt>
      <trkpt lat="37.357953" lon="-122.166138">
        <ele>196.8</ele>
        <time>2015-03-25T17:49:45Z</time>
      </trkpt>
      <trkpt lat="37.358002" lon="-122.166188">
        <ele>197.2</ele>
        <time>2015-03-25T17:49:46Z</time>
      </trkpt>
      <trkpt lat="37.358035" lon="-122.1662">
        <ele>197.3</ele>
        <time>2015-03-25T17:49:47Z</time>
      </trkpt>
      <trkpt lat="37.358092" lon="-122.16614">
        <ele>197.3</ele>
        <time>2015-03-25T17:49:51Z</time>
      </trkpt>
      <trkpt lat="37.358122" lon="-122.166092">
        <ele>197.6</ele>
        <time>2015-03-25T17:49:52Z</time>
      </trkpt>
      <trkpt lat="37.358118" lon="-122.166031">
        <ele>197.8</ele>
        <time>2015-03-25T17:49:53Z</time>
      </trkpt>
      <trkpt lat="37.358101" lon="-122.165959">
        <ele>198</ele>
        <time>2015-03-25T17:49:54Z</time>
      </trkpt>
      <trkpt lat="37.358091" lon="-122.165917">
        <ele>198.1</ele>
        <time>2015-03-25T17:49:55Z</time>
      </trkpt>
      <trkpt lat="37.35808" lon="-122.165872">
        <ele>198.4</ele>
        <time>2015-03-25T17:49:56Z</time>
      </trkpt>
      <trkpt lat="37.358066" lon="-122.165798">
        <ele>198.9</ele>
        <time>2015-03-25T17:49:58Z</time>
      </trkpt>
      <trkpt lat="37.35806" lon="-122.165755">
        <ele>199.3</ele>
        <time>2015-03-25T17:49:59Z</time>
      </trkpt>
      <trkpt lat="37.358055" lon="-122.165689">
        <ele>200.1</ele>
        <time>2015-03-25T17:50:01Z</time>
      </trkpt>
      <trkpt lat="37.358053" lon="-122.165633">
        <ele>200.6</ele>
        <time>2015-03-25T17:50:03Z</time>
      </trkpt>
      <trkpt lat="37.358054" lon="-122.165596">
        <ele>200.9</ele>
        <time>2015-03-25T17:50:04Z</time>
      </trkpt>
      <trkpt lat="37.358059" lon="-122.16554">
        <ele>201.4</ele>
        <time>2015-03-25T17:50:06Z</time>
      </trkpt>
      <trkpt lat="37.358068" lon="-122.16548">
        <ele>201.9</ele>
        <time>2015-03-25T17:50:08Z</time>
      </trkpt>
      <trkpt lat="37.358079" lon="-122.165431">
        <ele>202.7</ele>
        <time>2015-03-25T17:50:10Z</time>
      </trkpt>
      <trkpt lat="37.358088" lon="-122.165394">
        <ele>203.4</ele>
        <time>2015-03-25T17:50:11Z</time>
      </trkpt>
      <trkpt lat="37.358104" lon="-122.165333">
        <ele>204.2</ele>
        <time>2015-03-25T17:50:13Z</time>
      </trkpt>
      <trkpt lat="37.358112" lon="-122.1653">
        <ele>204.3</ele>
        <time>2015-03-25T17:50:14Z</time>
      </trkpt>
      <trkpt lat="37.358126" lon="-122.165227">
        <ele>204.9</ele>
        <time>2015-03-25T17:50:16Z</time>
      </trkpt>
      <trkpt lat="37.358127" lon="-122.165157">
        <ele>205.6</ele>
        <time>2015-03-25T17:50:18Z</time>
      </trkpt>
      <trkpt lat="37.358116" lon="-122.165109">
        <ele>206.1</ele>
        <time>2015-03-25T17:50:20Z</time>
      </trkpt>
      <trkpt lat="37.358096" lon="-122.165064">
        <ele>206.7</ele>
        <time>2015-03-25T17:50:22Z</time>
      </trkpt>
      <trkpt lat="37.358081" lon="-122.165036">
        <ele>207.1</ele>
        <time>2015-03-25T17:50:23Z</time>
      </trkpt>
      <trkpt lat="37.358038" lon="-122.165003">
        <ele>207.7</ele>
        <time>2015-03-25T17:50:25Z</time>
      </trkpt>
      <trkpt lat="37.358009" lon="-122.164958">
        <ele>208.4</ele>
        <time>2015-03-25T17:50:27Z</time>
      </trkpt>
      <trkpt lat="37.357981" lon="-122.164911">
        <ele>208.9</ele>
        <time>2015-03-25T17:50:29Z</time>
      </trkpt>
      <trkpt lat="37.357956" lon="-122.164858">
        <ele>209.5</ele>
        <time>2015-03-25T17:50:31Z</time>
      </trkpt>
      <trkpt lat="37.357944" lon="-122.164812">
        <ele>209.9</ele>
        <time>2015-03-25T17:50:34Z</time>
      </trkpt>
      <trkpt lat="37.357937" lon="-122.164755">
        <ele>210.4</ele>
        <time>2015-03-25T17:50:36Z</time>
      </trkpt>
      <trkpt lat="37.357937" lon="-122.164699">
        <ele>210.8</ele>
        <time>2015-03-25T17:50:37Z</time>
      </trkpt>
      <trkpt lat="37.357945" lon="-122.164636">
        <ele>211.6</ele>
        <time>2015-03-25T17:50:39Z</time>
      </trkpt>
      <trkpt lat="37.357953" lon="-122.164575">
        <ele>212</ele>
        <time>2015-03-25T17:50:41Z</time>
      </trkpt>
      <trkpt lat="37.357967" lon="-122.164543">
        <ele>212.3</ele>
        <time>2015-03-25T17:50:42Z</time>
      </trkpt>
      <trkpt lat="37.357987" lon="-122.164516">
        <ele>212.8</ele>
        <time>2015-03-25T17:50:43Z</time>
      </trkpt>
      <trkpt lat="37.358012" lon="-122.164495">
        <ele>213.2</ele>
        <time>2015-03-25T17:50:44Z</time>
      </trkpt>
      <trkpt lat="37.358039" lon="-122.164478">
        <ele>213.5</ele>
        <time>2015-03-25T17:50:45Z</time>
      </trkpt>
      <trkpt lat="37.358087" lon="-122.16446">
        <ele>213.9</ele>
        <time>2015-03-25T17:50:47Z</time>
      </trkpt>
      <trkpt lat="37.358115" lon="-122.164457">
        <ele>214.1</ele>
        <time>2015-03-25T17:50:48Z</time>
      </trkpt>
      <trkpt lat="37.358145" lon="-122.16446">
        <ele>214.3</ele>
        <time>2015-03-25T17:50:49Z</time>
      </trkpt>
      <trkpt lat="37.358174" lon="-122.164466">
        <ele>214.4</ele>
        <time>2015-03-25T17:50:50Z</time>
      </trkpt>
      <trkpt lat="37.3582" lon="-122.164479">
        <ele>214.6</ele>
        <time>2015-03-25T17:50:51Z</time>
      </trkpt>
      <trkpt lat="37.358246" lon="-122.16451">
        <ele>215.1</ele>
        <time>2015-03-25T17:50:53Z</time>
      </trkpt>
      <trkpt lat="37.358268" lon="-122.16453">
        <ele>215.5</ele>
        <time>2015-03-25T17:50:54Z</time>
      </trkpt>
      <trkpt lat="37.35829" lon="-122.164552">
        <ele>215.8</ele>
        <time>2015-03-25T17:50:55Z</time>
      </trkpt>
      <trkpt lat="37.358312" lon="-122.164574">
        <ele>216.1</ele>
        <time>2015-03-25T17:50:56Z</time>
      </trkpt>
      <trkpt lat="37.358333" lon="-122.164596">
        <ele>216.3</ele>
        <time>2015-03-25T17:50:57Z</time>
      </trkpt>
      <trkpt lat="37.358353" lon="-122.164619">
        <ele>216.6</ele>
        <time>2015-03-25T17:50:58Z</time>
      </trkpt>
      <trkpt lat="37.358374" lon="-122.164641">
        <ele>217</ele>
        <time>2015-03-25T17:50:59Z</time>
      </trkpt>
      <trkpt lat="37.358409" lon="-122.164681">
        <ele>217.5</ele>
        <time>2015-03-25T17:51:01Z</time>
      </trkpt>
      <trkpt lat="37.358445" lon="-122.16472">
        <ele>218.2</ele>
        <time>2015-03-25T17:51:03Z</time>
      </trkpt>
      <trkpt lat="37.358481" lon="-122.164758">
        <ele>218.9</ele>
        <time>2015-03-25T17:51:05Z</time>
      </trkpt>
      <trkpt lat="37.358506" lon="-122.164798">
        <ele>219.4</ele>
        <time>2015-03-25T17:51:07Z</time>
      </trkpt>
      <trkpt lat="37.358523" lon="-122.164843">
        <ele>219.9</ele>
        <time>2015-03-25T17:51:09Z</time>
      </trkpt>
      <trkpt lat="37.358541" lon="-122.164869">
        <ele>220.4</ele>
        <time>2015-03-25T17:51:10Z</time>
      </trkpt>
      <trkpt lat="37.358564" lon="-122.164915">
        <ele>222.3</ele>
        <time>2015-03-25T17:51:12Z</time>
      </trkpt>
      <trkpt lat="37.358567" lon="-122.164965">
        <ele>224.7</ele>
        <time>2015-03-25T17:51:14Z</time>
      </trkpt>
      <trkpt lat="37.358549" lon="-122.165025">
        <ele>225.7</ele>
        <time>2015-03-25T17:51:16Z</time>
      </trkpt>
      <trkpt lat="37.358528" lon="-122.165084">
        <ele>226</ele>
        <time>2015-03-25T17:51:18Z</time>
      </trkpt>
      <trkpt lat="37.358516" lon="-122.16515">
        <ele>227.1</ele>
        <time>2015-03-25T17:51:20Z</time>
      </trkpt>
      <trkpt lat="37.358516" lon="-122.165216">
        <ele>228.9</ele>
        <time>2015-03-25T17:51:22Z</time>
      </trkpt>
      <trkpt lat="37.358521" lon="-122.165274">
        <ele>231.6</ele>
        <time>2015-03-25T17:51:24Z</time>
      </trkpt>
      <trkpt lat="37.358514" lon="-122.165324">
        <ele>231.5</ele>
        <time>2015-03-25T17:51:26Z</time>
      </trkpt>
      <trkpt lat="37.358504" lon="-122.16538">
        <ele>231.5</ele>
        <time>2015-03-25T17:51:28Z</time>
      </trkpt>
      <trkpt lat="37.358505" lon="-122.165437">
        <ele>230.5</ele>
        <time>2015-03-25T17:51:30Z</time>
      </trkpt>
      <trkpt lat="37.358514" lon="-122.165492">
        <ele>229.6</ele>
        <time>2015-03-25T17:51:32Z</time>
      </trkpt>
      <trkpt lat="37.358531" lon="-122.165534">
        <ele>227.8</ele>
        <time>2015-03-25T17:51:34Z</time>
      </trkpt>
      <trkpt lat="37.358557" lon="-122.165577">
        <ele>227.9</ele>
        <time>2015-03-25T17:51:36Z</time>
      </trkpt>
      <trkpt lat="37.358593" lon="-122.165612">
        <ele>227.7</ele>
        <time>2015-03-25T17:51:38Z</time>
      </trkpt>
      <trkpt lat="37.358636" lon="-122.165627">
        <ele>227.7</ele>
        <time>2015-03-25T17:51:40Z</time>
      </trkpt>
      <trkpt lat="37.358679" lon="-122.165626">
        <ele>228.1</ele>
        <time>2015-03-25T17:51:42Z</time>
      </trkpt>
      <trkpt lat="37.358713" lon="-122.165605">
        <ele>228.9</ele>
        <time>2015-03-25T17:51:44Z</time>
      </trkpt>
      <trkpt lat="37.358747" lon="-122.165569">
        <ele>229.6</ele>
        <time>2015-03-25T17:51:46Z</time>
      </trkpt>
      <trkpt lat="37.358776" lon="-122.165531">
        <ele>230.3</ele>
        <time>2015-03-25T17:51:48Z</time>
      </trkpt>
      <trkpt lat="37.358798" lon="-122.165493">
        <ele>230.9</ele>
        <time>2015-03-25T17:51:50Z</time>
      </trkpt>
      <trkpt lat="37.358832" lon="-122.165458">
        <ele>231.5</ele>
        <time>2015-03-25T17:51:52Z</time>
      </trkpt>
      <trkpt lat="37.358868" lon="-122.165431">
        <ele>232.1</ele>
        <time>2015-03-25T17:51:54Z</time>
      </trkpt>
      <trkpt lat="37.358905" lon="-122.165416">
        <ele>232.6</ele>
        <time>2015-03-25T17:51:56Z</time>
      </trkpt>
      <trkpt lat="37.358941" lon="-122.165412">
        <ele>233</ele>
        <time>2015-03-25T17:51:58Z</time>
      </trkpt>
      <trkpt lat="37.358987" lon="-122.165413">
        <ele>233.7</ele>
        <time>2015-03-25T17:52:00Z</time>
      </trkpt>
      <trkpt lat="37.359029" lon="-122.16542">
        <ele>235</ele>
        <time>2015-03-25T17:52:02Z</time>
      </trkpt>
      <trkpt lat="37.359063" lon="-122.165441">
        <ele>236.3</ele>
        <time>2015-03-25T17:52:04Z</time>
      </trkpt>
      <trkpt lat="37.359089" lon="-122.165471">
        <ele>236.5</ele>
        <time>2015-03-25T17:52:06Z</time>
      </trkpt>
      <trkpt lat="37.359112" lon="-122.165504">
        <ele>236.8</ele>
        <time>2015-03-25T17:52:08Z</time>
      </trkpt>
      <trkpt lat="37.359134" lon="-122.165537">
        <ele>236.2</ele>
        <time>2015-03-25T17:52:10Z</time>
      </trkpt>
      <trkpt lat="37.359158" lon="-122.165571">
        <ele>236.3</ele>
        <time>2015-03-25T17:52:12Z</time>
      </trkpt>
      <trkpt lat="37.359186" lon="-122.165608">
        <ele>236.9</ele>
        <time>2015-03-25T17:52:14Z</time>
      </trkpt>
      <trkpt lat="37.359214" lon="-122.165648">
        <ele>237.5</ele>
        <time>2015-03-25T17:52:16Z</time>
      </trkpt>
      <trkpt lat="37.35924" lon="-122.165679">
        <ele>238.5</ele>
        <time>2015-03-25T17:52:18Z</time>
      </trkpt>
      <trkpt lat="37.35927" lon="-122.165713">
        <ele>239.8</ele>
        <time>2015-03-25T17:52:20Z</time>
      </trkpt>
      <trkpt lat="37.359293" lon="-122.165757">
        <ele>239.9</ele>
        <time>2015-03-25T17:52:22Z</time>
      </trkpt>
      <trkpt lat="37.359307" lon="-122.165806">
        <ele>239.6</ele>
        <time>2015-03-25T17:52:24Z</time>
      </trkpt>
      <trkpt lat="37.359314" lon="-122.165857">
        <ele>240</ele>
        <time>2015-03-25T17:52:26Z</time>
      </trkpt>
      <trkpt lat="37.359321" lon="-122.165904">
        <ele>240.4</ele>
        <time>2015-03-25T17:52:28Z</time>
      </trkpt>
      <trkpt lat="37.359322" lon="-122.165952">
        <ele>240.9</ele>
        <time>2015-03-25T17:52:30Z</time>
      </trkpt>
      <trkpt lat="37.359315" lon="-122.166003">
        <ele>241.5</ele>
        <time>2015-03-25T17:52:32Z</time>
      </trkpt>
      <trkpt lat="37.359303" lon="-122.166046">
        <ele>241.9</ele>
        <time>2015-03-25T17:52:34Z</time>
      </trkpt>
      <trkpt lat="37.359295" lon="-122.166092">
        <ele>242.5</ele>
        <time>2015-03-25T17:52:37Z</time>
      </trkpt>
      <trkpt lat="37.359283" lon="-122.166135">
        <ele>243.1</ele>
        <time>2015-03-25T17:52:38Z</time>
      </trkpt>
      <trkpt lat="37.359276" lon="-122.166188">
        <ele>243.5</ele>
        <time>2015-03-25T17:52:41Z</time>
      </trkpt>
      <trkpt lat="37.359287" lon="-122.166283">
        <ele>244.6</ele>
        <time>2015-03-25T17:52:43Z</time>
      </trkpt>
      <trkpt lat="37.359294" lon="-122.166312">
        <ele>245</ele>
        <time>2015-03-25T17:52:44Z</time>
      </trkpt>
      <trkpt lat="37.359307" lon="-122.166365">
        <ele>245.3</ele>
        <time>2015-03-25T17:52:47Z</time>
      </trkpt>
      <trkpt lat="37.359323" lon="-122.166407">
        <ele>246.1</ele>
        <time>2015-03-25T17:52:48Z</time>
      </trkpt>
      <trkpt lat="37.359344" lon="-122.166457">
        <ele>246.8</ele>
        <time>2015-03-25T17:52:50Z</time>
      </trkpt>
      <trkpt lat="37.359361" lon="-122.166513">
        <ele>247.1</ele>
        <time>2015-03-25T17:52:52Z</time>
      </trkpt>
      <trkpt lat="37.359384" lon="-122.166551">
        <ele>247.6</ele>
        <time>2015-03-25T17:52:54Z</time>
      </trkpt>
      <trkpt lat="37.35941" lon="-122.16659">
        <ele>248.2</ele>
        <time>2015-03-25T17:52:56Z</time>
      </trkpt>
      <trkpt lat="37.359436" lon="-122.166625">
        <ele>248.7</ele>
        <time>2015-03-25T17:52:58Z</time>
      </trkpt>
      <trkpt lat="37.359451" lon="-122.16667">
        <ele>249.1</ele>
        <time>2015-03-25T17:53:01Z</time>
      </trkpt>
      <trkpt lat="37.359461" lon="-122.166706">
        <ele>248.9</ele>
        <time>2015-03-25T17:53:03Z</time>
      </trkpt>
      <trkpt lat="37.359484" lon="-122.166728">
        <ele>249.1</ele>
        <time>2015-03-25T17:53:05Z</time>
      </trkpt>
      <trkpt lat="37.35952" lon="-122.166735">
        <ele>249.7</ele>
        <time>2015-03-25T17:53:07Z</time>
      </trkpt>
      <trkpt lat="37.35956" lon="-122.166741">
        <ele>250.4</ele>
        <time>2015-03-25T17:53:09Z</time>
      </trkpt>
      <trkpt lat="37.359608" lon="-122.16675">
        <ele>251.1</ele>
        <time>2015-03-25T17:53:11Z</time>
      </trkpt>
      <trkpt lat="37.359643" lon="-122.166767">
        <ele>251.8</ele>
        <time>2015-03-25T17:53:13Z</time>
      </trkpt>
      <trkpt lat="37.35967" lon="-122.166794">
        <ele>252.3</ele>
        <time>2015-03-25T17:53:15Z</time>
      </trkpt>
      <trkpt lat="37.359691" lon="-122.166824">
        <ele>252.8</ele>
        <time>2015-03-25T17:53:17Z</time>
      </trkpt>
      <trkpt lat="37.359696" lon="-122.166862">
        <ele>253.2</ele>
        <time>2015-03-25T17:53:19Z</time>
      </trkpt>
      <trkpt lat="37.359696" lon="-122.1669">
        <ele>253.6</ele>
        <time>2015-03-25T17:53:21Z</time>
      </trkpt>
      <trkpt lat="37.359694" lon="-122.16694">
        <ele>254</ele>
        <time>2015-03-25T17:53:23Z</time>
      </trkpt>
      <trkpt lat="37.359687" lon="-122.166982">
        <ele>254.5</ele>
        <time>2015-03-25T17:53:25Z</time>
      </trkpt>
      <trkpt lat="37.359682" lon="-122.167033">
        <ele>255.1</ele>
        <time>2015-03-25T17:53:27Z</time>
      </trkpt>
      <trkpt lat="37.359682" lon="-122.167087">
        <ele>255.7</ele>
        <time>2015-03-25T17:53:29Z</time>
      </trkpt>
      <trkpt lat="37.359686" lon="-122.167122">
        <ele>256</ele>
        <time>2015-03-25T17:53:30Z</time>
      </trkpt>
      <trkpt lat="37.359696" lon="-122.167184">
        <ele>256.6</ele>
        <time>2015-03-25T17:53:32Z</time>
      </trkpt>
      <trkpt lat="37.359706" lon="-122.167234">
        <ele>257</ele>
        <time>2015-03-25T17:53:34Z</time>
      </trkpt>
      <trkpt lat="37.35972" lon="-122.167276">
        <ele>257.2</ele>
        <time>2015-03-25T17:53:36Z</time>
      </trkpt>
      <trkpt lat="37.359734" lon="-122.167305">
        <ele>257</ele>
        <time>2015-03-25T17:53:38Z</time>
      </trkpt>
      <trkpt lat="37.359755" lon="-122.167333">
        <ele>256.8</ele>
        <time>2015-03-25T17:53:40Z</time>
      </trkpt>
      <trkpt lat="37.359783" lon="-122.167355">
        <ele>256.9</ele>
        <time>2015-03-25T17:53:42Z</time>
      </trkpt>
      <trkpt lat="37.359815" lon="-122.167377">
        <ele>257.5</ele>
        <time>2015-03-25T17:53:44Z</time>
      </trkpt>
      <trkpt lat="37.359844" lon="-122.167397">
        <ele>258.4</ele>
        <time>2015-03-25T17:53:46Z</time>
      </trkpt>
      <trkpt lat="37.359869" lon="-122.167426">
        <ele>259.3</ele>
        <time>2015-03-25T17:53:48Z</time>
      </trkpt>
      <trkpt lat="37.359892" lon="-122.167463">
        <ele>260</ele>
        <time>2015-03-25T17:53:50Z</time>
      </trkpt>
      <trkpt lat="37.359912" lon="-122.167504">
        <ele>260.6</ele>
        <time>2015-03-25T17:53:52Z</time>
      </trkpt>
      <trkpt lat="37.359932" lon="-122.167546">
        <ele>261.2</ele>
        <time>2015-03-25T17:53:55Z</time>
      </trkpt>
      <trkpt lat="37.359946" lon="-122.167585">
        <ele>261.7</ele>
        <time>2015-03-25T17:53:56Z</time>
      </trkpt>
      <trkpt lat="37.359951" lon="-122.167626">
        <ele>262.1</ele>
        <time>2015-03-25T17:53:59Z</time>
      </trkpt>
      <trkpt lat="37.359949" lon="-122.167669">
        <ele>262.5</ele>
        <time>2015-03-25T17:54:00Z</time>
      </trkpt>
      <trkpt lat="37.359953" lon="-122.16774">
        <ele>263.5</ele>
        <time>2015-03-25T17:54:04Z</time>
      </trkpt>
      <trkpt lat="37.359956" lon="-122.167761">
        <ele>264</ele>
        <time>2015-03-25T17:54:05Z</time>
      </trkpt>
      <trkpt lat="37.359961" lon="-122.167811">
        <ele>264.8</ele>
        <time>2015-03-25T17:54:07Z</time>
      </trkpt>
      <trkpt lat="37.359966" lon="-122.167853">
        <ele>265.4</ele>
        <time>2015-03-25T17:54:09Z</time>
      </trkpt>
      <trkpt lat="37.359961" lon="-122.167895">
        <ele>265.2</ele>
        <time>2015-03-25T17:54:11Z</time>
      </trkpt>
      <trkpt lat="37.359966" lon="-122.167966">
        <ele>265.7</ele>
        <time>2015-03-25T17:54:13Z</time>
      </trkpt>
      <trkpt lat="37.359974" lon="-122.168002">
        <ele>266.1</ele>
        <time>2015-03-25T17:54:14Z</time>
      </trkpt>
      <trkpt lat="37.359995" lon="-122.16806">
        <ele>266.7</ele>
        <time>2015-03-25T17:54:16Z</time>
      </trkpt>
      <trkpt lat="37.360014" lon="-122.168115">
        <ele>267.2</ele>
        <time>2015-03-25T17:54:18Z</time>
      </trkpt>
      <trkpt lat="37.360034" lon="-122.168163">
        <ele>267.5</ele>
        <time>2015-03-25T17:54:20Z</time>
      </trkpt>
      <trkpt lat="37.360057" lon="-122.168201">
        <ele>267.5</ele>
        <time>2015-03-25T17:54:22Z</time>
      </trkpt>
      <trkpt lat="37.36009" lon="-122.168245">
        <ele>267.8</ele>
        <time>2015-03-25T17:54:24Z</time>
      </trkpt>
      <trkpt lat="37.360127" lon="-122.168281">
        <ele>268.6</ele>
        <time>2015-03-25T17:54:26Z</time>
      </trkpt>
      <trkpt lat="37.360164" lon="-122.168317">
        <ele>268.9</ele>
        <time>2015-03-25T17:54:28Z</time>
      </trkpt>
      <trkpt lat="37.360193" lon="-122.16834">
        <ele>269.3</ele>
        <time>2015-03-25T17:54:30Z</time>
      </trkpt>
      <trkpt lat="37.360216" lon="-122.168358">
        <ele>269.5</ele>
        <time>2015-03-25T17:54:32Z</time>
      </trkpt>
      <trkpt lat="37.360249" lon="-122.168382">
        <ele>269.7</ele>
        <time>2015-03-25T17:54:34Z</time>
      </trkpt>
      <trkpt lat="37.360292" lon="-122.168393">
        <ele>270.4</ele>
        <time>2015-03-25T17:54:36Z</time>
      </trkpt>
      <trkpt lat="37.360323" lon="-122.168397">
        <ele>270.9</ele>
        <time>2015-03-25T17:54:38Z</time>
      </trkpt>
      <trkpt lat="37.360359" lon="-122.168393">
        <ele>271.4</ele>
        <time>2015-03-25T17:54:41Z</time>
      </trkpt>
      <trkpt lat="37.360388" lon="-122.168382">
        <ele>272.3</ele>
        <time>2015-03-25T17:54:44Z</time>
      </trkpt>
      <trkpt lat="37.360426" lon="-122.16839">
        <ele>273</ele>
        <time>2015-03-25T17:54:47Z</time>
      </trkpt>
      <trkpt lat="37.360461" lon="-122.168422">
        <ele>273.7</ele>
        <time>2015-03-25T17:54:50Z</time>
      </trkpt>
      <trkpt lat="37.360486" lon="-122.16845">
        <ele>274.3</ele>
        <time>2015-03-25T17:54:52Z</time>
      </trkpt>
      <trkpt lat="37.360506" lon="-122.168481">
        <ele>274.8</ele>
        <time>2015-03-25T17:54:54Z</time>
      </trkpt>
      <trkpt lat="37.360522" lon="-122.168516">
        <ele>275.6</ele>
        <time>2015-03-25T17:54:57Z</time>
      </trkpt>
      <trkpt lat="37.360552" lon="-122.168553">
        <ele>277.3</ele>
        <time>2015-03-25T17:55:00Z</time>
      </trkpt>
      <trkpt lat="37.360564" lon="-122.168589">
        <ele>278</ele>
        <time>2015-03-25T17:55:02Z</time>
      </trkpt>
      <trkpt lat="37.360575" lon="-122.168636">
        <ele>278.6</ele>
        <time>2015-03-25T17:55:04Z</time>
      </trkpt>
      <trkpt lat="37.360587" lon="-122.168681">
        <ele>278.9</ele>
        <time>2015-03-25T17:55:06Z</time>
      </trkpt>
      <trkpt lat="37.360599" lon="-122.16873">
        <ele>279.3</ele>
        <time>2015-03-25T17:55:08Z</time>
      </trkpt>
      <trkpt lat="37.360612" lon="-122.168789">
        <ele>279.3</ele>
        <time>2015-03-25T17:55:10Z</time>
      </trkpt>
      <trkpt lat="37.360619" lon="-122.168852">
        <ele>279.4</ele>
        <time>2015-03-25T17:55:12Z</time>
      </trkpt>
      <trkpt lat="37.360613" lon="-122.16892">
        <ele>279.3</ele>
        <time>2015-03-25T17:55:14Z</time>
      </trkpt>
      <trkpt lat="37.360607" lon="-122.168955">
        <ele>279.2</ele>
        <time>2015-03-25T17:55:15Z</time>
      </trkpt>
      <trkpt lat="37.360597" lon="-122.16899">
        <ele>279.3</ele>
        <time>2015-03-25T17:55:16Z</time>
      </trkpt>
      <trkpt lat="37.360587" lon="-122.169024">
        <ele>279.8</ele>
        <time>2015-03-25T17:55:17Z</time>
      </trkpt>
      <trkpt lat="37.360577" lon="-122.169057">
        <ele>280.1</ele>
        <time>2015-03-25T17:55:18Z</time>
      </trkpt>
      <trkpt lat="37.360552" lon="-122.169116">
        <ele>280.8</ele>
        <time>2015-03-25T17:55:20Z</time>
      </trkpt>
      <trkpt lat="37.360529" lon="-122.169163">
        <ele>281.3</ele>
        <time>2015-03-25T17:55:22Z</time>
      </trkpt>
      <trkpt lat="37.360512" lon="-122.169206">
        <ele>282</ele>
        <time>2015-03-25T17:55:24Z</time>
      </trkpt>
      <trkpt lat="37.360503" lon="-122.169247">
        <ele>282.4</ele>
        <time>2015-03-25T17:55:26Z</time>
      </trkpt>
      <trkpt lat="37.360499" lon="-122.16929">
        <ele>283</ele>
        <time>2015-03-25T17:55:28Z</time>
      </trkpt>
      <trkpt lat="37.360502" lon="-122.169341">
        <ele>283.6</ele>
        <time>2015-03-25T17:55:30Z</time>
      </trkpt>
      <trkpt lat="37.360516" lon="-122.169397">
        <ele>284.4</ele>
        <time>2015-03-25T17:55:32Z</time>
      </trkpt>
      <trkpt lat="37.360535" lon="-122.169456">
        <ele>285.1</ele>
        <time>2015-03-25T17:55:34Z</time>
      </trkpt>
      <trkpt lat="37.360557" lon="-122.169509">
        <ele>285.8</ele>
        <time>2015-03-25T17:55:36Z</time>
      </trkpt>
      <trkpt lat="37.360583" lon="-122.169556">
        <ele>286.4</ele>
        <time>2015-03-25T17:55:38Z</time>
      </trkpt>
      <trkpt lat="37.360611" lon="-122.169603">
        <ele>286.9</ele>
        <time>2015-03-25T17:55:40Z</time>
      </trkpt>
      <trkpt lat="37.360639" lon="-122.169646">
        <ele>287.4</ele>
        <time>2015-03-25T17:55:42Z</time>
      </trkpt>
      <trkpt lat="37.360668" lon="-122.169685">
        <ele>287.9</ele>
        <time>2015-03-25T17:55:44Z</time>
      </trkpt>
      <trkpt lat="37.360687" lon="-122.169711">
        <ele>288.5</ele>
        <time>2015-03-25T17:55:45Z</time>
      </trkpt>
      <trkpt lat="37.360706" lon="-122.169735">
        <ele>289.1</ele>
        <time>2015-03-25T17:55:46Z</time>
      </trkpt>
      <trkpt lat="37.360729" lon="-122.169775">
        <ele>289.9</ele>
        <time>2015-03-25T17:55:48Z</time>
      </trkpt>
      <trkpt lat="37.360745" lon="-122.169832">
        <ele>290.7</ele>
        <time>2015-03-25T17:55:50Z</time>
      </trkpt>
      <trkpt lat="37.360747" lon="-122.169877">
        <ele>291.1</ele>
        <time>2015-03-25T17:55:52Z</time>
      </trkpt>
      <trkpt lat="37.360747" lon="-122.169931">
        <ele>291.4</ele>
        <time>2015-03-25T17:55:54Z</time>
      </trkpt>
      <trkpt lat="37.360759" lon="-122.169976">
        <ele>291.7</ele>
        <time>2015-03-25T17:55:56Z</time>
      </trkpt>
      <trkpt lat="37.360775" lon="-122.170005">
        <ele>291.8</ele>
        <time>2015-03-25T17:55:58Z</time>
      </trkpt>
      <trkpt lat="37.360803" lon="-122.169952">
        <ele>291.4</ele>
        <time>2015-03-25T17:56:01Z</time>
      </trkpt>
      <trkpt lat="37.360809" lon="-122.169902">
        <ele>291.3</ele>
        <time>2015-03-25T17:56:03Z</time>
      </trkpt>
      <trkpt lat="37.360817" lon="-122.169858">
        <ele>291.2</ele>
        <time>2015-03-25T17:56:05Z</time>
      </trkpt>
      <trkpt lat="37.360828" lon="-122.169825">
        <ele>291.5</ele>
        <time>2015-03-25T17:56:07Z</time>
      </trkpt>
      <trkpt lat="37.360832" lon="-122.169779">
        <ele>291.6</ele>
        <time>2015-03-25T17:56:10Z</time>
      </trkpt>
      <trkpt lat="37.360823" lon="-122.169732">
        <ele>291.7</ele>
        <time>2015-03-25T17:56:13Z</time>
      </trkpt>
      <trkpt lat="37.36083" lon="-122.169688">
        <ele>291.8</ele>
        <time>2015-03-25T17:56:16Z</time>
      </trkpt>
      <trkpt lat="37.360828" lon="-122.16965">
        <ele>291.9</ele>
        <time>2015-03-25T17:56:18Z</time>
      </trkpt>
      <trkpt lat="37.360819" lon="-122.169617">
        <ele>292</ele>
        <time>2015-03-25T17:56:21Z</time>
      </trkpt>
      <trkpt lat="37.360814" lon="-122.169579">
        <ele>292</ele>
        <time>2015-03-25T17:56:22Z</time>
      </trkpt>
      <trkpt lat="37.360803" lon="-122.169538">
        <ele>292.1</ele>
        <time>2015-03-25T17:56:26Z</time>
      </trkpt>
      <trkpt lat="37.3608" lon="-122.169502">
        <ele>292.1</ele>
        <time>2015-03-25T17:56:28Z</time>
      </trkpt>
      <trkpt lat="37.360842" lon="-122.169457">
        <ele>292.5</ele>
        <time>2015-03-25T17:56:30Z</time>
      </trkpt>
      <trkpt lat="37.360846" lon="-122.169423">
        <ele>292.3</ele>
        <time>2015-03-25T17:56:33Z</time>
      </trkpt>
      <trkpt lat="37.360854" lon="-122.16946">
        <ele>292.7</ele>
        <time>2015-03-25T17:56:35Z</time>
      </trkpt>
      <trkpt lat="37.360836" lon="-122.169505">
        <ele>292.5</ele>
        <time>2015-03-25T17:56:37Z</time>
      </trkpt>
      <trkpt lat="37.360827" lon="-122.16955">
        <ele>292.2</ele>
        <time>2015-03-25T17:56:40Z</time>
      </trkpt>
      <trkpt lat="37.360829" lon="-122.169594">
        <ele>292.1</ele>
        <time>2015-03-25T17:56:42Z</time>
      </trkpt>
      <trkpt lat="37.36083" lon="-122.169638">
        <ele>292</ele>
        <time>2015-03-25T17:56:44Z</time>
      </trkpt>
      <trkpt lat="37.360836" lon="-122.169705">
        <ele>291.7</ele>
        <time>2015-03-25T17:56:46Z</time>
      </trkpt>
      <trkpt lat="37.360821" lon="-122.169765">
        <ele>291.6</ele>
        <time>2015-03-25T17:56:48Z</time>
      </trkpt>
      <trkpt lat="37.360822" lon="-122.169818">
        <ele>291.4</ele>
        <time>2015-03-25T17:56:50Z</time>
      </trkpt>
      <trkpt lat="37.360867" lon="-122.169883">
        <ele>290.7</ele>
        <time>2015-03-25T17:56:53Z</time>
      </trkpt>
      <trkpt lat="37.360909" lon="-122.169891">
        <ele>289.9</ele>
        <time>2015-03-25T17:56:59Z</time>
      </trkpt>
      <trkpt lat="37.360952" lon="-122.169898">
        <ele>289.2</ele>
        <time>2015-03-25T17:57:00Z</time>
      </trkpt>
      <trkpt lat="37.360977" lon="-122.169878">
        <ele>288.6</ele>
        <time>2015-03-25T17:57:01Z</time>
      </trkpt>
      <trkpt lat="37.361043" lon="-122.169828">
        <ele>287.2</ele>
        <time>2015-03-25T17:57:03Z</time>
      </trkpt>
      <trkpt lat="37.361085" lon="-122.169808">
        <ele>286.3</ele>
        <time>2015-03-25T17:57:04Z</time>
      </trkpt>
      <trkpt lat="37.361127" lon="-122.169794">
        <ele>285.7</ele>
        <time>2015-03-25T17:57:05Z</time>
      </trkpt>
      <trkpt lat="37.361212" lon="-122.169768">
        <ele>284.5</ele>
        <time>2015-03-25T17:57:07Z</time>
      </trkpt>
      <trkpt lat="37.361286" lon="-122.169739">
        <ele>283.9</ele>
        <time>2015-03-25T17:57:10Z</time>
      </trkpt>
      <trkpt lat="37.361639" lon="-122.169839">
        <ele>277.7</ele>
        <time>2015-03-25T17:57:17Z</time>
      </trkpt>
      <trkpt lat="37.361682" lon="-122.169841">
        <ele>277.6</ele>
        <time>2015-03-25T17:57:18Z</time>
      </trkpt>
      <trkpt lat="37.361721" lon="-122.169843">
        <ele>277.9</ele>
        <time>2015-03-25T17:57:19Z</time>
      </trkpt>
      <trkpt lat="37.361802" lon="-122.169851">
        <ele>278.1</ele>
        <time>2015-03-25T17:57:20Z</time>
      </trkpt>
      <trkpt lat="37.361858" lon="-122.16986">
        <ele>277.1</ele>
        <time>2015-03-25T17:57:21Z</time>
      </trkpt>
      <trkpt lat="37.361925" lon="-122.169898">
        <ele>276.1</ele>
        <time>2015-03-25T17:57:22Z</time>
      </trkpt>
      <trkpt lat="37.361994" lon="-122.16995">
        <ele>276</ele>
        <time>2015-03-25T17:57:24Z</time>
      </trkpt>
      <trkpt lat="37.362047" lon="-122.16998">
        <ele>276</ele>
        <time>2015-03-25T17:57:25Z</time>
      </trkpt>
      <trkpt lat="37.362088" lon="-122.170019">
        <ele>275.8</ele>
        <time>2015-03-25T17:57:26Z</time>
      </trkpt>
      <trkpt lat="37.362139" lon="-122.170066">
        <ele>275.2</ele>
        <time>2015-03-25T17:57:27Z</time>
      </trkpt>
      <trkpt lat="37.362185" lon="-122.170114">
        <ele>274.4</ele>
        <time>2015-03-25T17:57:28Z</time>
      </trkpt>
      <trkpt lat="37.362216" lon="-122.170183">
        <ele>273.6</ele>
        <time>2015-03-25T17:57:29Z</time>
      </trkpt>
      <trkpt lat="37.362237" lon="-122.170263">
        <ele>273</ele>
        <time>2015-03-25T17:57:30Z</time>
      </trkpt>
      <trkpt lat="37.362261" lon="-122.170363">
        <ele>271.9</ele>
        <time>2015-03-25T17:57:31Z</time>
      </trkpt>
      <trkpt lat="37.362269" lon="-122.170413">
        <ele>271.4</ele>
        <time>2015-03-25T17:57:32Z</time>
      </trkpt>
      <trkpt lat="37.362299" lon="-122.17052">
        <ele>269</ele>
        <time>2015-03-25T17:57:33Z</time>
      </trkpt>
      <trkpt lat="37.362306" lon="-122.170558">
        <ele>268.2</ele>
        <time>2015-03-25T17:57:34Z</time>
      </trkpt>
      <trkpt lat="37.36233" lon="-122.170665">
        <ele>268.3</ele>
        <time>2015-03-25T17:57:35Z</time>
      </trkpt>
      <trkpt lat="37.362345" lon="-122.17075">
        <ele>268.4</ele>
        <time>2015-03-25T17:57:36Z</time>
      </trkpt>
      <trkpt lat="37.362363" lon="-122.170822">
        <ele>267.9</ele>
        <time>2015-03-25T17:57:37Z</time>
      </trkpt>
      <trkpt lat="37.362382" lon="-122.170901">
        <ele>267.1</ele>
        <time>2015-03-25T17:57:38Z</time>
      </trkpt>
      <trkpt lat="37.362398" lon="-122.17098">
        <ele>266</ele>
        <time>2015-03-25T17:57:39Z</time>
      </trkpt>
      <trkpt lat="37.362418" lon="-122.1711">
        <ele>265.1</ele>
        <time>2015-03-25T17:57:40Z</time>
      </trkpt>
      <trkpt lat="37.362454" lon="-122.171218">
        <ele>262.8</ele>
        <time>2015-03-25T17:57:42Z</time>
      </trkpt>
      <trkpt lat="37.362499" lon="-122.171325">
        <ele>261.2</ele>
        <time>2015-03-25T17:57:44Z</time>
      </trkpt>
      <trkpt lat="37.362523" lon="-122.171346">
        <ele>259.9</ele>
        <time>2015-03-25T17:57:45Z</time>
      </trkpt>
      <trkpt lat="37.362697" lon="-122.171705">
        <ele>257.6</ele>
        <time>2015-03-25T17:57:47Z</time>
      </trkpt>
      <trkpt lat="37.362724" lon="-122.171728">
        <ele>257.4</ele>
        <time>2015-03-25T17:57:48Z</time>
      </trkpt>
      <trkpt lat="37.362765" lon="-122.171742">
        <ele>256.9</ele>
        <time>2015-03-25T17:57:50Z</time>
      </trkpt>
      <trkpt lat="37.362803" lon="-122.171746">
        <ele>256.5</ele>
        <time>2015-03-25T17:57:51Z</time>
      </trkpt>
      <trkpt lat="37.362843" lon="-122.171751">
        <ele>256.1</ele>
        <time>2015-03-25T17:57:52Z</time>
      </trkpt>
      <trkpt lat="37.362875" lon="-122.171717">
        <ele>255.7</ele>
        <time>2015-03-25T17:57:53Z</time>
      </trkpt>
      <trkpt lat="37.362894" lon="-122.171659">
        <ele>255.3</ele>
        <time>2015-03-25T17:57:54Z</time>
      </trkpt>
      <trkpt lat="37.362912" lon="-122.171619">
        <ele>255</ele>
        <time>2015-03-25T17:57:56Z</time>
      </trkpt>
      <trkpt lat="37.362927" lon="-122.171524">
        <ele>254.6</ele>
        <time>2015-03-25T17:57:57Z</time>
      </trkpt>
      <trkpt lat="37.362965" lon="-122.171496">
        <ele>254.5</ele>
        <time>2015-03-25T17:57:58Z</time>
      </trkpt>
      <trkpt lat="37.362959" lon="-122.171412">
        <ele>254.2</ele>
        <time>2015-03-25T17:57:59Z</time>
      </trkpt>
      <trkpt lat="37.362957" lon="-122.171324">
        <ele>253.9</ele>
        <time>2015-03-25T17:58:00Z</time>
      </trkpt>
      <trkpt lat="37.362951" lon="-122.171237">
        <ele>253.6</ele>
        <time>2015-03-25T17:58:01Z</time>
      </trkpt>
      <trkpt lat="37.362932" lon="-122.17115">
        <ele>253.4</ele>
        <time>2015-03-25T17:58:02Z</time>
      </trkpt>
      <trkpt lat="37.362915" lon="-122.171053">
        <ele>253.1</ele>
        <time>2015-03-25T17:58:03Z</time>
      </trkpt>
      <trkpt lat="37.362901" lon="-122.170963">
        <ele>252.9</ele>
        <time>2015-03-25T17:58:04Z</time>
      </trkpt>
      <trkpt lat="37.362887" lon="-122.170867">
        <ele>252.6</ele>
        <time>2015-03-25T17:58:05Z</time>
      </trkpt>
      <trkpt lat="37.362875" lon="-122.170777">
        <ele>252.4</ele>
        <time>2015-03-25T17:58:06Z</time>
      </trkpt>
      <trkpt lat="37.362866" lon="-122.170696">
        <ele>252.3</ele>
        <time>2015-03-25T17:58:07Z</time>
      </trkpt>
      <trkpt lat="37.362855" lon="-122.170611">
        <ele>252.1</ele>
        <time>2015-03-25T17:58:08Z</time>
      </trkpt>
      <trkpt lat="37.362841" lon="-122.170535">
        <ele>252</ele>
        <time>2015-03-25T17:58:09Z</time>
      </trkpt>
      <trkpt lat="37.362826" lon="-122.17045">
        <ele>251.8</ele>
        <time>2015-03-25T17:58:10Z</time>
      </trkpt>
      <trkpt lat="37.362822" lon="-122.170369">
        <ele>251.6</ele>
        <time>2015-03-25T17:58:11Z</time>
      </trkpt>
      <trkpt lat="37.362813" lon="-122.170285">
        <ele>251.4</ele>
        <time>2015-03-25T17:58:12Z</time>
      </trkpt>
      <trkpt lat="37.36281" lon="-122.170197">
        <ele>251.3</ele>
        <time>2015-03-25T17:58:13Z</time>
      </trkpt>
      <trkpt lat="37.362801" lon="-122.1701">
        <ele>251.1</ele>
        <time>2015-03-25T17:58:14Z</time>
      </trkpt>
      <trkpt lat="37.362799" lon="-122.170016">
        <ele>250.9</ele>
        <time>2015-03-25T17:58:15Z</time>
      </trkpt>
      <trkpt lat="37.362795" lon="-122.169932">
        <ele>250.6</ele>
        <time>2015-03-25T17:58:16Z</time>
      </trkpt>
      <trkpt lat="37.362787" lon="-122.169843">
        <ele>250.3</ele>
        <time>2015-03-25T17:58:17Z</time>
      </trkpt>
      <trkpt lat="37.362789" lon="-122.169746">
        <ele>249.8</ele>
        <time>2015-03-25T17:58:18Z</time>
      </trkpt>
      <trkpt lat="37.362801" lon="-122.169659">
        <ele>249.3</ele>
        <time>2015-03-25T17:58:19Z</time>
      </trkpt>
      <trkpt lat="37.362807" lon="-122.169545">
        <ele>248.7</ele>
        <time>2015-03-25T17:58:20Z</time>
      </trkpt>
      <trkpt lat="37.362825" lon="-122.169481">
        <ele>248.1</ele>
        <time>2015-03-25T17:58:21Z</time>
      </trkpt>
      <trkpt lat="37.362848" lon="-122.169371">
        <ele>247.9</ele>
        <time>2015-03-25T17:58:22Z</time>
      </trkpt>
      <trkpt lat="37.36286" lon="-122.169259">
        <ele>246.2</ele>
        <time>2015-03-25T17:58:23Z</time>
      </trkpt>
      <trkpt lat="37.362897" lon="-122.169144">
        <ele>245.2</ele>
        <time>2015-03-25T17:58:25Z</time>
      </trkpt>
      <trkpt lat="37.362964" lon="-122.16904">
        <ele>244.4</ele>
        <time>2015-03-25T17:58:26Z</time>
      </trkpt>
      <trkpt lat="37.363055" lon="-122.168933">
        <ele>243.5</ele>
        <time>2015-03-25T17:58:27Z</time>
      </trkpt>
      <trkpt lat="37.36312" lon="-122.168873">
        <ele>242.9</ele>
        <time>2015-03-25T17:58:28Z</time>
      </trkpt>
      <trkpt lat="37.363173" lon="-122.168839">
        <ele>242.5</ele>
        <time>2015-03-25T17:58:30Z</time>
      </trkpt>
      <trkpt lat="37.363271" lon="-122.168821">
        <ele>242.2</ele>
        <time>2015-03-25T17:58:31Z</time>
      </trkpt>
      <trkpt lat="37.363324" lon="-122.168814">
        <ele>242</ele>
        <time>2015-03-25T17:58:32Z</time>
      </trkpt>
      <trkpt lat="37.363399" lon="-122.168819">
        <ele>241.4</ele>
        <time>2015-03-25T17:58:33Z</time>
      </trkpt>
      <trkpt lat="37.363472" lon="-122.168829">
        <ele>240.8</ele>
        <time>2015-03-25T17:58:34Z</time>
      </trkpt>
      <trkpt lat="37.363508" lon="-122.168828">
        <ele>240.4</ele>
        <time>2015-03-25T17:58:35Z</time>
      </trkpt>
      <trkpt lat="37.363543" lon="-122.168851">
        <ele>240.7</ele>
        <time>2015-03-25T17:58:36Z</time>
      </trkpt>
      <trkpt lat="37.3636" lon="-122.16888">
        <ele>240.8</ele>
        <time>2015-03-25T17:58:37Z</time>
      </trkpt>
      <trkpt lat="37.363655" lon="-122.16888">
        <ele>240.1</ele>
        <time>2015-03-25T17:58:38Z</time>
      </trkpt>
      <trkpt lat="37.363687" lon="-122.168873">
        <ele>239.6</ele>
        <time>2015-03-25T17:58:39Z</time>
      </trkpt>
      <trkpt lat="37.363765" lon="-122.168881">
        <ele>238.9</ele>
        <time>2015-03-25T17:58:40Z</time>
      </trkpt>
      <trkpt lat="37.363869" lon="-122.168865">
        <ele>237.8</ele>
        <time>2015-03-25T17:58:41Z</time>
      </trkpt>
      <trkpt lat="37.363899" lon="-122.168839">
        <ele>237.3</ele>
        <time>2015-03-25T17:58:42Z</time>
      </trkpt>
      <trkpt lat="37.363986" lon="-122.16877">
        <ele>236.4</ele>
        <time>2015-03-25T17:58:43Z</time>
      </trkpt>
      <trkpt lat="37.364035" lon="-122.168614">
        <ele>235.9</ele>
        <time>2015-03-25T17:58:45Z</time>
      </trkpt>
      <trkpt lat="37.364037" lon="-122.168556">
        <ele>235.9</ele>
        <time>2015-03-25T17:58:46Z</time>
      </trkpt>
      <trkpt lat="37.364067" lon="-122.168517">
        <ele>235.9</ele>
        <time>2015-03-25T17:58:47Z</time>
      </trkpt>
      <trkpt lat="37.36409" lon="-122.168358">
        <ele>235.8</ele>
        <time>2015-03-25T17:58:48Z</time>
      </trkpt>
      <trkpt lat="37.364135" lon="-122.16821">
        <ele>235.7</ele>
        <time>2015-03-25T17:58:49Z</time>
      </trkpt>
      <trkpt lat="37.364166" lon="-122.168103">
        <ele>235.7</ele>
        <time>2015-03-25T17:58:50Z</time>
      </trkpt>
      <trkpt lat="37.364194" lon="-122.168021">
        <ele>235.7</ele>
        <time>2015-03-25T17:58:51Z</time>
      </trkpt>
      <trkpt lat="37.364229" lon="-122.167952">
        <ele>235.9</ele>
        <time>2015-03-25T17:58:52Z</time>
      </trkpt>
      <trkpt lat="37.364259" lon="-122.167881">
        <ele>235.9</ele>
        <time>2015-03-25T17:58:53Z</time>
      </trkpt>
      <trkpt lat="37.36429" lon="-122.16783">
        <ele>236.1</ele>
        <time>2015-03-25T17:58:54Z</time>
      </trkpt>
      <trkpt lat="37.364336" lon="-122.167757">
        <ele>236.2</ele>
        <time>2015-03-25T17:58:55Z</time>
      </trkpt>
      <trkpt lat="37.364385" lon="-122.167677">
        <ele>236.3</ele>
        <time>2015-03-25T17:58:56Z</time>
      </trkpt>
      <trkpt lat="37.364419" lon="-122.167612">
        <ele>235.4</ele>
        <time>2015-03-25T17:58:57Z</time>
      </trkpt>
      <trkpt lat="37.364458" lon="-122.16755">
        <ele>234.6</ele>
        <time>2015-03-25T17:58:58Z</time>
      </trkpt>
      <trkpt lat="37.364501" lon="-122.167502">
        <ele>233.9</ele>
        <time>2015-03-25T17:58:59Z</time>
      </trkpt>
      <trkpt lat="37.364542" lon="-122.16747">
        <ele>233.5</ele>
        <time>2015-03-25T17:59:00Z</time>
      </trkpt>
      <trkpt lat="37.364676" lon="-122.16743">
        <ele>233</ele>
        <time>2015-03-25T17:59:01Z</time>
      </trkpt>
      <trkpt lat="37.364639" lon="-122.167436">
        <ele>233.1</ele>
        <time>2015-03-25T17:59:02Z</time>
      </trkpt>
      <trkpt lat="37.364697" lon="-122.16743">
        <ele>232.9</ele>
        <time>2015-03-25T17:59:03Z</time>
      </trkpt>
      <trkpt lat="37.364743" lon="-122.16742">
        <ele>232.4</ele>
        <time>2015-03-25T17:59:04Z</time>
      </trkpt>
      <trkpt lat="37.364791" lon="-122.167415">
        <ele>232.2</ele>
        <time>2015-03-25T17:59:05Z</time>
      </trkpt>
      <trkpt lat="37.364847" lon="-122.1674">
        <ele>232</ele>
        <time>2015-03-25T17:59:06Z</time>
      </trkpt>
      <trkpt lat="37.364906" lon="-122.167396">
        <ele>231.9</ele>
        <time>2015-03-25T17:59:07Z</time>
      </trkpt>
      <trkpt lat="37.364975" lon="-122.167387">
        <ele>231.7</ele>
        <time>2015-03-25T17:59:08Z</time>
      </trkpt>
      <trkpt lat="37.365024" lon="-122.167378">
        <ele>231.7</ele>
        <time>2015-03-25T17:59:09Z</time>
      </trkpt>
      <trkpt lat="37.365086" lon="-122.167376">
        <ele>231.7</ele>
        <time>2015-03-25T17:59:10Z</time>
      </trkpt>
      <trkpt lat="37.365141" lon="-122.167372">
        <ele>231.7</ele>
        <time>2015-03-25T17:59:11Z</time>
      </trkpt>
      <trkpt lat="37.365203" lon="-122.167368">
        <ele>231.5</ele>
        <time>2015-03-25T17:59:12Z</time>
      </trkpt>
      <trkpt lat="37.365248" lon="-122.167346">
        <ele>231.2</ele>
        <time>2015-03-25T17:59:13Z</time>
      </trkpt>
      <trkpt lat="37.365214" lon="-122.167355">
        <ele>231.4</ele>
        <time>2015-03-25T17:59:14Z</time>
      </trkpt>
      <trkpt lat="37.365275" lon="-122.167255">
        <ele>231.2</ele>
        <time>2015-03-25T17:59:15Z</time>
      </trkpt>
      <trkpt lat="37.365282" lon="-122.167202">
        <ele>231.3</ele>
        <time>2015-03-25T17:59:16Z</time>
      </trkpt>
      <trkpt lat="37.365287" lon="-122.167158">
        <ele>231.5</ele>
        <time>2015-03-25T17:59:17Z</time>
      </trkpt>
      <trkpt lat="37.365292" lon="-122.167119">
        <ele>231.5</ele>
        <time>2015-03-25T17:59:18Z</time>
      </trkpt>
      <trkpt lat="37.365299" lon="-122.167064">
        <ele>231.8</ele>
        <time>2015-03-25T17:59:19Z</time>
      </trkpt>
      <trkpt lat="37.365304" lon="-122.167026">
        <ele>232</ele>
        <time>2015-03-25T17:59:20Z</time>
      </trkpt>
      <trkpt lat="37.365309" lon="-122.166989">
        <ele>232.3</ele>
        <time>2015-03-25T17:59:21Z</time>
      </trkpt>
      <trkpt lat="37.365317" lon="-122.166926">
        <ele>232.7</ele>
        <time>2015-03-25T17:59:23Z</time>
      </trkpt>
      <trkpt lat="37.365325" lon="-122.166868">
        <ele>233</ele>
        <time>2015-03-25T17:59:25Z</time>
      </trkpt>
      <trkpt lat="37.365332" lon="-122.16681">
        <ele>233.4</ele>
        <time>2015-03-25T17:59:27Z</time>
      </trkpt>
      <trkpt lat="37.36534" lon="-122.166752">
        <ele>233.8</ele>
        <time>2015-03-25T17:59:29Z</time>
      </trkpt>
      <trkpt lat="37.365346" lon="-122.166701">
        <ele>234.1</ele>
        <time>2015-03-25T17:59:31Z</time>
      </trkpt>
      <trkpt lat="37.365354" lon="-122.166638">
        <ele>234.3</ele>
        <time>2015-03-25T17:59:33Z</time>
      </trkpt>
      <trkpt lat="37.365359" lon="-122.166599">
        <ele>234.5</ele>
        <time>2015-03-25T17:59:34Z</time>
      </trkpt>
      <trkpt lat="37.365364" lon="-122.16656">
        <ele>234.7</ele>
        <time>2015-03-25T17:59:35Z</time>
      </trkpt>
      <trkpt lat="37.365369" lon="-122.16652">
        <ele>234.7</ele>
        <time>2015-03-25T17:59:36Z</time>
      </trkpt>
      <trkpt lat="37.365374" lon="-122.166481">
        <ele>234.7</ele>
        <time>2015-03-25T17:59:37Z</time>
      </trkpt>
      <trkpt lat="37.36538" lon="-122.166437">
        <ele>234.7</ele>
        <time>2015-03-25T17:59:38Z</time>
      </trkpt>
      <trkpt lat="37.365385" lon="-122.166394">
        <ele>234.6</ele>
        <time>2015-03-25T17:59:39Z</time>
      </trkpt>
      <trkpt lat="37.36539" lon="-122.166349">
        <ele>234.5</ele>
        <time>2015-03-25T17:59:40Z</time>
      </trkpt>
      <trkpt lat="37.365396" lon="-122.166299">
        <ele>234.2</ele>
        <time>2015-03-25T17:59:41Z</time>
      </trkpt>
      <trkpt lat="37.365403" lon="-122.166247">
        <ele>233.9</ele>
        <time>2015-03-25T17:59:42Z</time>
      </trkpt>
      <trkpt lat="37.36541" lon="-122.166187">
        <ele>233.5</ele>
        <time>2015-03-25T17:59:43Z</time>
      </trkpt>
      <trkpt lat="37.365417" lon="-122.166126">
        <ele>232.9</ele>
        <time>2015-03-25T17:59:44Z</time>
      </trkpt>
      <trkpt lat="37.365424" lon="-122.16607">
        <ele>232.5</ele>
        <time>2015-03-25T17:59:45Z</time>
      </trkpt>
      <trkpt lat="37.365433" lon="-122.166003">
        <ele>232</ele>
        <time>2015-03-25T17:59:46Z</time>
      </trkpt>
      <trkpt lat="37.365443" lon="-122.165919">
        <ele>231.2</ele>
        <time>2015-03-25T17:59:47Z</time>
      </trkpt>
      <trkpt lat="37.365475" lon="-122.165529">
        <ele>227.9</ele>
        <time>2015-03-25T17:59:51Z</time>
      </trkpt>
      <trkpt lat="37.365484" lon="-122.16542">
        <ele>227.2</ele>
        <time>2015-03-25T17:59:52Z</time>
      </trkpt>
      <trkpt lat="37.365493" lon="-122.165312">
        <ele>226.6</ele>
        <time>2015-03-25T17:59:53Z</time>
      </trkpt>
      <trkpt lat="37.365502" lon="-122.165202">
        <ele>226.2</ele>
        <time>2015-03-25T17:59:54Z</time>
      </trkpt>
      <trkpt lat="37.365512" lon="-122.165062">
        <ele>225.8</ele>
        <time>2015-03-25T17:59:55Z</time>
      </trkpt>
      <trkpt lat="37.365506" lon="-122.164963">
        <ele>225.5</ele>
        <time>2015-03-25T17:59:56Z</time>
      </trkpt>
      <trkpt lat="37.365488" lon="-122.164873">
        <ele>225.4</ele>
        <time>2015-03-25T17:59:57Z</time>
      </trkpt>
      <trkpt lat="37.365449" lon="-122.164765">
        <ele>225.1</ele>
        <time>2015-03-25T17:59:58Z</time>
      </trkpt>
      <trkpt lat="37.3654" lon="-122.164655">
        <ele>224.9</ele>
        <time>2015-03-25T17:59:59Z</time>
      </trkpt>
      <trkpt lat="37.365357" lon="-122.16457">
        <ele>224.8</ele>
        <time>2015-03-25T18:00:00Z</time>
      </trkpt>
      <trkpt lat="37.365306" lon="-122.16447">
        <ele>224.5</ele>
        <time>2015-03-25T18:00:01Z</time>
      </trkpt>
      <trkpt lat="37.365263" lon="-122.164387">
        <ele>224.2</ele>
        <time>2015-03-25T18:00:02Z</time>
      </trkpt>
      <trkpt lat="37.365218" lon="-122.164294">
        <ele>223.7</ele>
        <time>2015-03-25T18:00:03Z</time>
      </trkpt>
      <trkpt lat="37.365179" lon="-122.164197">
        <ele>223.4</ele>
        <time>2015-03-25T18:00:04Z</time>
      </trkpt>
      <trkpt lat="37.365141" lon="-122.164071">
        <ele>222.8</ele>
        <time>2015-03-25T18:00:05Z</time>
      </trkpt>
      <trkpt lat="37.365117" lon="-122.163978">
        <ele>222.5</ele>
        <time>2015-03-25T18:00:06Z</time>
      </trkpt>
      <trkpt lat="37.365105" lon="-122.163852">
        <ele>221.9</ele>
        <time>2015-03-25T18:00:07Z</time>
      </trkpt>
      <trkpt lat="37.365103" lon="-122.163736">
        <ele>221.6</ele>
        <time>2015-03-25T18:00:08Z</time>
      </trkpt>
      <trkpt lat="37.365107" lon="-122.16363">
        <ele>221.3</ele>
        <time>2015-03-25T18:00:09Z</time>
      </trkpt>
      <trkpt lat="37.365119" lon="-122.163516">
        <ele>221.2</ele>
        <time>2015-03-25T18:00:10Z</time>
      </trkpt>
      <trkpt lat="37.365138" lon="-122.163402">
        <ele>220.9</ele>
        <time>2015-03-25T18:00:11Z</time>
      </trkpt>
      <trkpt lat="37.365164" lon="-122.163284">
        <ele>220.4</ele>
        <time>2015-03-25T18:00:12Z</time>
      </trkpt>
      <trkpt lat="37.365196" lon="-122.163178">
        <ele>220.1</ele>
        <time>2015-03-25T18:00:13Z</time>
      </trkpt>
      <trkpt lat="37.365233" lon="-122.163072">
        <ele>219.5</ele>
        <time>2015-03-25T18:00:14Z</time>
      </trkpt>
      <trkpt lat="37.365269" lon="-122.162965">
        <ele>219.6</ele>
        <time>2015-03-25T18:00:15Z</time>
      </trkpt>
      <trkpt lat="37.365302" lon="-122.162865">
        <ele>219.4</ele>
        <time>2015-03-25T18:00:16Z</time>
      </trkpt>
      <trkpt lat="37.365333" lon="-122.16277">
        <ele>219.2</ele>
        <time>2015-03-25T18:00:17Z</time>
      </trkpt>
      <trkpt lat="37.365365" lon="-122.162671">
        <ele>219</ele>
        <time>2015-03-25T18:00:18Z</time>
      </trkpt>
      <trkpt lat="37.365399" lon="-122.162566">
        <ele>218.9</ele>
        <time>2015-03-25T18:00:19Z</time>
      </trkpt>
      <trkpt lat="37.36543" lon="-122.162472">
        <ele>218.8</ele>
        <time>2015-03-25T18:00:20Z</time>
      </trkpt>
      <trkpt lat="37.36546" lon="-122.16238">
        <ele>218.6</ele>
        <time>2015-03-25T18:00:21Z</time>
      </trkpt>
      <trkpt lat="37.365488" lon="-122.162292">
        <ele>218.5</ele>
        <time>2015-03-25T18:00:22Z</time>
      </trkpt>
      <trkpt lat="37.365517" lon="-122.162205">
        <ele>218.3</ele>
        <time>2015-03-25T18:00:23Z</time>
      </trkpt>
      <trkpt lat="37.365546" lon="-122.162114">
        <ele>218</ele>
        <time>2015-03-25T18:00:24Z</time>
      </trkpt>
      <trkpt lat="37.365575" lon="-122.162022">
        <ele>217.5</ele>
        <time>2015-03-25T18:00:25Z</time>
      </trkpt>
      <trkpt lat="37.365603" lon="-122.161925">
        <ele>217</ele>
        <time>2015-03-25T18:00:26Z</time>
      </trkpt>
      <trkpt lat="37.365629" lon="-122.161826">
        <ele>216.7</ele>
        <time>2015-03-25T18:00:27Z</time>
      </trkpt>
      <trkpt lat="37.365651" lon="-122.161731">
        <ele>216.4</ele>
        <time>2015-03-25T18:00:28Z</time>
      </trkpt>
      <trkpt lat="37.365672" lon="-122.161625">
        <ele>216.2</ele>
        <time>2015-03-25T18:00:29Z</time>
      </trkpt>
      <trkpt lat="37.36569" lon="-122.161502">
        <ele>216</ele>
        <time>2015-03-25T18:00:30Z</time>
      </trkpt>
      <trkpt lat="37.365697" lon="-122.16141">
        <ele>215.8</ele>
        <time>2015-03-25T18:00:31Z</time>
      </trkpt>
      <trkpt lat="37.365704" lon="-122.161306">
        <ele>215.7</ele>
        <time>2015-03-25T18:00:32Z</time>
      </trkpt>
      <trkpt lat="37.365706" lon="-122.161201">
        <ele>215.7</ele>
        <time>2015-03-25T18:00:33Z</time>
      </trkpt>
      <trkpt lat="37.365707" lon="-122.161103">
        <ele>215.7</ele>
        <time>2015-03-25T18:00:34Z</time>
      </trkpt>
      <trkpt lat="37.365707" lon="-122.161016">
        <ele>215.8</ele>
        <time>2015-03-25T18:00:35Z</time>
      </trkpt>
      <trkpt lat="37.36571" lon="-122.160931">
        <ele>216.1</ele>
        <time>2015-03-25T18:00:36Z</time>
      </trkpt>
      <trkpt lat="37.365714" lon="-122.160816">
        <ele>216.4</ele>
        <time>2015-03-25T18:00:37Z</time>
      </trkpt>
      <trkpt lat="37.365717" lon="-122.160738">
        <ele>216.7</ele>
        <time>2015-03-25T18:00:38Z</time>
      </trkpt>
      <trkpt lat="37.36572" lon="-122.160654">
        <ele>216.9</ele>
        <time>2015-03-25T18:00:39Z</time>
      </trkpt>
      <trkpt lat="37.365722" lon="-122.160596">
        <ele>217.1</ele>
        <time>2015-03-25T18:00:40Z</time>
      </trkpt>
      <trkpt lat="37.365725" lon="-122.160523">
        <ele>217.1</ele>
        <time>2015-03-25T18:00:41Z</time>
      </trkpt>
      <trkpt lat="37.365728" lon="-122.160449">
        <ele>217</ele>
        <time>2015-03-25T18:00:42Z</time>
      </trkpt>
      <trkpt lat="37.365731" lon="-122.160375">
        <ele>216.8</ele>
        <time>2015-03-25T18:00:43Z</time>
      </trkpt>
      <trkpt lat="37.365735" lon="-122.160296">
        <ele>216.5</ele>
        <time>2015-03-25T18:00:44Z</time>
      </trkpt>
      <trkpt lat="37.365741" lon="-122.160228">
        <ele>216.1</ele>
        <time>2015-03-25T18:00:45Z</time>
      </trkpt>
      <trkpt lat="37.365751" lon="-122.160146">
        <ele>215.5</ele>
        <time>2015-03-25T18:00:46Z</time>
      </trkpt>
      <trkpt lat="37.365763" lon="-122.160064">
        <ele>215</ele>
        <time>2015-03-25T18:00:47Z</time>
      </trkpt>
      <trkpt lat="37.365777" lon="-122.159981">
        <ele>214.6</ele>
        <time>2015-03-25T18:00:48Z</time>
      </trkpt>
      <trkpt lat="37.365793" lon="-122.159898">
        <ele>214.3</ele>
        <time>2015-03-25T18:00:49Z</time>
      </trkpt>
      <trkpt lat="37.365811" lon="-122.159813">
        <ele>214</ele>
        <time>2015-03-25T18:00:50Z</time>
      </trkpt>
      <trkpt lat="37.365835" lon="-122.159716">
        <ele>213.7</ele>
        <time>2015-03-25T18:00:51Z</time>
      </trkpt>
      <trkpt lat="37.365861" lon="-122.159627">
        <ele>213.2</ele>
        <time>2015-03-25T18:00:52Z</time>
      </trkpt>
      <trkpt lat="37.365896" lon="-122.159524">
        <ele>212.8</ele>
        <time>2015-03-25T18:00:53Z</time>
      </trkpt>
      <trkpt lat="37.365926" lon="-122.159435">
        <ele>212.7</ele>
        <time>2015-03-25T18:00:54Z</time>
      </trkpt>
      <trkpt lat="37.36594" lon="-122.159395">
        <ele>212.7</ele>
        <time>2015-03-25T18:00:55Z</time>
      </trkpt>
      <trkpt lat="37.365993" lon="-122.159264">
        <ele>213</ele>
        <time>2015-03-25T18:00:56Z</time>
      </trkpt>
      <trkpt lat="37.366026" lon="-122.159185">
        <ele>213.2</ele>
        <time>2015-03-25T18:00:57Z</time>
      </trkpt>
      <trkpt lat="37.366053" lon="-122.159118">
        <ele>213.6</ele>
        <time>2015-03-25T18:00:58Z</time>
      </trkpt>
      <trkpt lat="37.366083" lon="-122.159046">
        <ele>213.7</ele>
        <time>2015-03-25T18:00:59Z</time>
      </trkpt>
      <trkpt lat="37.366102" lon="-122.159">
        <ele>213.8</ele>
        <time>2015-03-25T18:01:00Z</time>
      </trkpt>
      <trkpt lat="37.366128" lon="-122.158933">
        <ele>214</ele>
        <time>2015-03-25T18:01:01Z</time>
      </trkpt>
      <trkpt lat="37.366146" lon="-122.158884">
        <ele>214.2</ele>
        <time>2015-03-25T18:01:02Z</time>
      </trkpt>
      <trkpt lat="37.366164" lon="-122.158824">
        <ele>214.4</ele>
        <time>2015-03-25T18:01:03Z</time>
      </trkpt>
      <trkpt lat="37.366174" lon="-122.158789">
        <ele>214.5</ele>
        <time>2015-03-25T18:01:04Z</time>
      </trkpt>
      <trkpt lat="37.36625" lon="-122.15851">
        <ele>213.9</ele>
        <time>2015-03-25T18:01:08Z</time>
      </trkpt>
      <trkpt lat="37.366267" lon="-122.158443">
        <ele>213.6</ele>
        <time>2015-03-25T18:01:09Z</time>
      </trkpt>
      <trkpt lat="37.366283" lon="-122.158381">
        <ele>213.3</ele>
        <time>2015-03-25T18:01:10Z</time>
      </trkpt>
      <trkpt lat="37.3663" lon="-122.15831">
        <ele>213</ele>
        <time>2015-03-25T18:01:11Z</time>
      </trkpt>
      <trkpt lat="37.366315" lon="-122.158245">
        <ele>212.6</ele>
        <time>2015-03-25T18:01:12Z</time>
      </trkpt>
      <trkpt lat="37.366331" lon="-122.158166">
        <ele>212.3</ele>
        <time>2015-03-25T18:01:13Z</time>
      </trkpt>
      <trkpt lat="37.366336" lon="-122.158105">
        <ele>212</ele>
        <time>2015-03-25T18:01:14Z</time>
      </trkpt>
      <trkpt lat="37.36633" lon="-122.158032">
        <ele>211.6</ele>
        <time>2015-03-25T18:01:15Z</time>
      </trkpt>
      <trkpt lat="37.366321" lon="-122.157978">
        <ele>211.4</ele>
        <time>2015-03-25T18:01:16Z</time>
      </trkpt>
      <trkpt lat="37.366295" lon="-122.157885">
        <ele>210.8</ele>
        <time>2015-03-25T18:01:17Z</time>
      </trkpt>
      <trkpt lat="37.36627" lon="-122.157818">
        <ele>210.4</ele>
        <time>2015-03-25T18:01:18Z</time>
      </trkpt>
      <trkpt lat="37.366238" lon="-122.157741">
        <ele>210.1</ele>
        <time>2015-03-25T18:01:19Z</time>
      </trkpt>
      <trkpt lat="37.366206" lon="-122.157664">
        <ele>209.8</ele>
        <time>2015-03-25T18:01:20Z</time>
      </trkpt>
      <trkpt lat="37.36617" lon="-122.157311">
        <ele>210.9</ele>
        <time>2015-03-25T18:01:24Z</time>
      </trkpt>
      <trkpt lat="37.366116" lon="-122.157242">
        <ele>209.7</ele>
        <time>2015-03-25T18:01:25Z</time>
      </trkpt>
      <trkpt lat="37.366059" lon="-122.157174">
        <ele>208.3</ele>
        <time>2015-03-25T18:01:26Z</time>
      </trkpt>
      <trkpt lat="37.365988" lon="-122.157106">
        <ele>206.7</ele>
        <time>2015-03-25T18:01:27Z</time>
      </trkpt>
      <trkpt lat="37.365914" lon="-122.157022">
        <ele>205.8</ele>
        <time>2015-03-25T18:01:28Z</time>
      </trkpt>
      <trkpt lat="37.365843" lon="-122.156952">
        <ele>205.3</ele>
        <time>2015-03-25T18:01:29Z</time>
      </trkpt>
      <trkpt lat="37.365769" lon="-122.156887">
        <ele>204.9</ele>
        <time>2015-03-25T18:01:30Z</time>
      </trkpt>
      <trkpt lat="37.36569" lon="-122.156837">
        <ele>204.6</ele>
        <time>2015-03-25T18:01:31Z</time>
      </trkpt>
      <trkpt lat="37.365598" lon="-122.156804">
        <ele>204.5</ele>
        <time>2015-03-25T18:01:32Z</time>
      </trkpt>
      <trkpt lat="37.365513" lon="-122.156779">
        <ele>204.7</ele>
        <time>2015-03-25T18:01:33Z</time>
      </trkpt>
      <trkpt lat="37.365427" lon="-122.156766">
        <ele>205.3</ele>
        <time>2015-03-25T18:01:34Z</time>
      </trkpt>
      <trkpt lat="37.365384" lon="-122.156779">
        <ele>205.6</ele>
        <time>2015-03-25T18:01:35Z</time>
      </trkpt>
      <trkpt lat="37.36532" lon="-122.156744">
        <ele>206.1</ele>
        <time>2015-03-25T18:01:36Z</time>
      </trkpt>
      <trkpt lat="37.36527" lon="-122.156735">
        <ele>206.6</ele>
        <time>2015-03-25T18:01:37Z</time>
      </trkpt>
      <trkpt lat="37.365209" lon="-122.156736">
        <ele>207</ele>
        <time>2015-03-25T18:01:38Z</time>
      </trkpt>
      <trkpt lat="37.365168" lon="-122.156729">
        <ele>207.4</ele>
        <time>2015-03-25T18:01:39Z</time>
      </trkpt>
      <trkpt lat="37.36514" lon="-122.156721">
        <ele>207.6</ele>
        <time>2015-03-25T18:01:40Z</time>
      </trkpt>
      <trkpt lat="37.365103" lon="-122.156702">
        <ele>207.8</ele>
        <time>2015-03-25T18:01:41Z</time>
      </trkpt>
      <trkpt lat="37.365074" lon="-122.156685">
        <ele>208.1</ele>
        <time>2015-03-25T18:01:42Z</time>
      </trkpt>
      <trkpt lat="37.36504" lon="-122.156671">
        <ele>208.4</ele>
        <time>2015-03-25T18:01:43Z</time>
      </trkpt>
      <trkpt lat="37.364987" lon="-122.156659">
        <ele>208.8</ele>
        <time>2015-03-25T18:01:45Z</time>
      </trkpt>
      <trkpt lat="37.364958" lon="-122.156638">
        <ele>209</ele>
        <time>2015-03-25T18:01:46Z</time>
      </trkpt>
      <trkpt lat="37.364931" lon="-122.156626">
        <ele>209.2</ele>
        <time>2015-03-25T18:01:47Z</time>
      </trkpt>
      <trkpt lat="37.364901" lon="-122.156607">
        <ele>209.5</ele>
        <time>2015-03-25T18:01:48Z</time>
      </trkpt>
      <trkpt lat="37.364876" lon="-122.156587">
        <ele>209.7</ele>
        <time>2015-03-25T18:01:49Z</time>
      </trkpt>
      <trkpt lat="37.364851" lon="-122.156563">
        <ele>209.9</ele>
        <time>2015-03-25T18:01:50Z</time>
      </trkpt>
      <trkpt lat="37.364818" lon="-122.156542">
        <ele>210.1</ele>
        <time>2015-03-25T18:01:51Z</time>
      </trkpt>
      <trkpt lat="37.364795" lon="-122.156522">
        <ele>210.3</ele>
        <time>2015-03-25T18:01:52Z</time>
      </trkpt>
      <trkpt lat="37.364768" lon="-122.156502">
        <ele>210.5</ele>
        <time>2015-03-25T18:01:53Z</time>
      </trkpt>
      <trkpt lat="37.364748" lon="-122.156479">
        <ele>210.6</ele>
        <time>2015-03-25T18:01:54Z</time>
      </trkpt>
      <trkpt lat="37.364721" lon="-122.156467">
        <ele>210.8</ele>
        <time>2015-03-25T18:01:55Z</time>
      </trkpt>
      <trkpt lat="37.364695" lon="-122.156447">
        <ele>211</ele>
        <time>2015-03-25T18:01:56Z</time>
      </trkpt>
      <trkpt lat="37.364676" lon="-122.156419">
        <ele>211.1</ele>
        <time>2015-03-25T18:01:57Z</time>
      </trkpt>
      <trkpt lat="37.364638" lon="-122.156381">
        <ele>211.4</ele>
        <time>2015-03-25T18:01:59Z</time>
      </trkpt>
      <trkpt lat="37.364599" lon="-122.156352">
        <ele>211.7</ele>
        <time>2015-03-25T18:02:01Z</time>
      </trkpt>
      <trkpt lat="37.364573" lon="-122.156332">
        <ele>211.9</ele>
        <time>2015-03-25T18:02:03Z</time>
      </trkpt>
      <trkpt lat="37.364546" lon="-122.156313">
        <ele>212</ele>
        <time>2015-03-25T18:02:05Z</time>
      </trkpt>
      <trkpt lat="37.364504" lon="-122.156291">
        <ele>212.3</ele>
        <time>2015-03-25T18:02:07Z</time>
      </trkpt>
      <trkpt lat="37.364463" lon="-122.156269">
        <ele>212.6</ele>
        <time>2015-03-25T18:02:09Z</time>
      </trkpt>
      <trkpt lat="37.364424" lon="-122.156238">
        <ele>212.8</ele>
        <time>2015-03-25T18:02:11Z</time>
      </trkpt>
      <trkpt lat="37.364384" lon="-122.156209">
        <ele>213.1</ele>
        <time>2015-03-25T18:02:13Z</time>
      </trkpt>
      <trkpt lat="37.364344" lon="-122.15618">
        <ele>213.4</ele>
        <time>2015-03-25T18:02:15Z</time>
      </trkpt>
      <trkpt lat="37.364309" lon="-122.156155">
        <ele>213.6</ele>
        <time>2015-03-25T18:02:17Z</time>
      </trkpt>
      <trkpt lat="37.364271" lon="-122.15613">
        <ele>214</ele>
        <time>2015-03-25T18:02:19Z</time>
      </trkpt>
      <trkpt lat="37.364225" lon="-122.156099">
        <ele>214.5</ele>
        <time>2015-03-25T18:02:22Z</time>
      </trkpt>
      <trkpt lat="37.364215" lon="-122.156093">
        <ele>214.6</ele>
        <time>2015-03-25T18:02:23Z</time>
      </trkpt>
      <trkpt lat="37.364184" lon="-122.156079">
        <ele>214.8</ele>
        <time>2015-03-25T18:02:26Z</time>
      </trkpt>
      <trkpt lat="37.364158" lon="-122.156064">
        <ele>215.1</ele>
        <time>2015-03-25T18:02:30Z</time>
      </trkpt>
      <trkpt lat="37.364144" lon="-122.156096">
        <ele>215.3</ele>
        <time>2015-03-25T18:02:51Z</time>
      </trkpt>
      <trkpt lat="37.36413" lon="-122.156061">
        <ele>215.3</ele>
        <time>2015-03-25T18:02:58Z</time>
      </trkpt>
      <trkpt lat="37.364106" lon="-122.156034">
        <ele>215.4</ele>
        <time>2015-03-25T18:03:00Z</time>
      </trkpt>
      <trkpt lat="37.364065" lon="-122.155995">
        <ele>215.5</ele>
        <time>2015-03-25T18:03:02Z</time>
      </trkpt>
      <trkpt lat="37.364041" lon="-122.155973">
        <ele>215.5</ele>
        <time>2015-03-25T18:03:03Z</time>
      </trkpt>
      <trkpt lat="37.364015" lon="-122.15595">
        <ele>215.5</ele>
        <time>2015-03-25T18:03:04Z</time>
      </trkpt>
      <trkpt lat="37.363989" lon="-122.155925">
        <ele>215.5</ele>
        <time>2015-03-25T18:03:05Z</time>
      </trkpt>
      <trkpt lat="37.363963" lon="-122.155901">
        <ele>215.5</ele>
        <time>2015-03-25T18:03:07Z</time>
      </trkpt>
      <trkpt lat="37.363934" lon="-122.155876">
        <ele>215.5</ele>
        <time>2015-03-25T18:03:08Z</time>
      </trkpt>
      <trkpt lat="37.363872" lon="-122.155819">
        <ele>215.4</ele>
        <time>2015-03-25T18:03:09Z</time>
      </trkpt>
      <trkpt lat="37.363843" lon="-122.15579">
        <ele>215.4</ele>
        <time>2015-03-25T18:03:10Z</time>
      </trkpt>
      <trkpt lat="37.363814" lon="-122.15576">
        <ele>215.4</ele>
        <time>2015-03-25T18:03:12Z</time>
      </trkpt>
      <trkpt lat="37.363787" lon="-122.155731">
        <ele>215.4</ele>
        <time>2015-03-25T18:03:13Z</time>
      </trkpt>
      <trkpt lat="37.363726" lon="-122.155673">
        <ele>215.5</ele>
        <time>2015-03-25T18:03:15Z</time>
      </trkpt>
      <trkpt lat="37.363695" lon="-122.155643">
        <ele>215.5</ele>
        <time>2015-03-25T18:03:16Z</time>
      </trkpt>
      <trkpt lat="37.363665" lon="-122.155614">
        <ele>215.7</ele>
        <time>2015-03-25T18:03:17Z</time>
      </trkpt>
      <trkpt lat="37.363607" lon="-122.155559">
        <ele>215.8</ele>
        <time>2015-03-25T18:03:18Z</time>
      </trkpt>
      <trkpt lat="37.363577" lon="-122.155532">
        <ele>216</ele>
        <time>2015-03-25T18:03:20Z</time>
      </trkpt>
      <trkpt lat="37.36355" lon="-122.155504">
        <ele>216.1</ele>
        <time>2015-03-25T18:03:21Z</time>
      </trkpt>
      <trkpt lat="37.363503" lon="-122.155445">
        <ele>216.5</ele>
        <time>2015-03-25T18:03:22Z</time>
      </trkpt>
      <trkpt lat="37.363481" lon="-122.155415">
        <ele>216.6</ele>
        <time>2015-03-25T18:03:23Z</time>
      </trkpt>
      <trkpt lat="37.363461" lon="-122.155383">
        <ele>216.6</ele>
        <time>2015-03-25T18:03:24Z</time>
      </trkpt>
      <trkpt lat="37.363445" lon="-122.155354">
        <ele>216.7</ele>
        <time>2015-03-25T18:03:25Z</time>
      </trkpt>
      <trkpt lat="37.36343" lon="-122.155324">
        <ele>216.7</ele>
        <time>2015-03-25T18:03:27Z</time>
      </trkpt>
      <trkpt lat="37.363402" lon="-122.155266">
        <ele>217</ele>
        <time>2015-03-25T18:03:28Z</time>
      </trkpt>
      <trkpt lat="37.363385" lon="-122.155239">
        <ele>217.2</ele>
        <time>2015-03-25T18:03:29Z</time>
      </trkpt>
      <trkpt lat="37.363367" lon="-122.155213">
        <ele>217.5</ele>
        <time>2015-03-25T18:03:30Z</time>
      </trkpt>
      <trkpt lat="37.36335" lon="-122.155187">
        <ele>217.7</ele>
        <time>2015-03-25T18:03:31Z</time>
      </trkpt>
      <trkpt lat="37.363334" lon="-122.155159">
        <ele>218</ele>
        <time>2015-03-25T18:03:32Z</time>
      </trkpt>
      <trkpt lat="37.363308" lon="-122.155086">
        <ele>218.3</ele>
        <time>2015-03-25T18:03:34Z</time>
      </trkpt>
      <trkpt lat="37.363297" lon="-122.155045">
        <ele>218.6</ele>
        <time>2015-03-25T18:03:35Z</time>
      </trkpt>
      <trkpt lat="37.363288" lon="-122.155011">
        <ele>218.7</ele>
        <time>2015-03-25T18:03:36Z</time>
      </trkpt>
      <trkpt lat="37.363275" lon="-122.15498">
        <ele>219.1</ele>
        <time>2015-03-25T18:03:37Z</time>
      </trkpt>
      <trkpt lat="37.363251" lon="-122.154928">
        <ele>219.7</ele>
        <time>2015-03-25T18:03:39Z</time>
      </trkpt>
      <trkpt lat="37.363224" lon="-122.154876">
        <ele>220.2</ele>
        <time>2015-03-25T18:03:41Z</time>
      </trkpt>
      <trkpt lat="37.363211" lon="-122.154842">
        <ele>220.6</ele>
        <time>2015-03-25T18:03:42Z</time>
      </trkpt>
      <trkpt lat="37.363194" lon="-122.154806">
        <ele>220.9</ele>
        <time>2015-03-25T18:03:43Z</time>
      </trkpt>
      <trkpt lat="37.363177" lon="-122.15477">
        <ele>221.3</ele>
        <time>2015-03-25T18:03:44Z</time>
      </trkpt>
      <trkpt lat="37.363161" lon="-122.154738">
        <ele>221.7</ele>
        <time>2015-03-25T18:03:45Z</time>
      </trkpt>
      <trkpt lat="37.363145" lon="-122.154709">
        <ele>221.9</ele>
        <time>2015-03-25T18:03:46Z</time>
      </trkpt>
      <trkpt lat="37.363127" lon="-122.154682">
        <ele>222.2</ele>
        <time>2015-03-25T18:03:47Z</time>
      </trkpt>
      <trkpt lat="37.363107" lon="-122.154655">
        <ele>222.5</ele>
        <time>2015-03-25T18:03:48Z</time>
      </trkpt>
      <trkpt lat="37.363072" lon="-122.15461">
        <ele>222.9</ele>
        <time>2015-03-25T18:03:50Z</time>
      </trkpt>
      <trkpt lat="37.363035" lon="-122.154567">
        <ele>223.4</ele>
        <time>2015-03-25T18:03:52Z</time>
      </trkpt>
      <trkpt lat="37.363003" lon="-122.154526">
        <ele>223.7</ele>
        <time>2015-03-25T18:03:54Z</time>
      </trkpt>
      <trkpt lat="37.362975" lon="-122.154483">
        <ele>224</ele>
        <time>2015-03-25T18:03:56Z</time>
      </trkpt>
      <trkpt lat="37.362947" lon="-122.154443">
        <ele>224.4</ele>
        <time>2015-03-25T18:03:59Z</time>
      </trkpt>
      <trkpt lat="37.362917" lon="-122.1544">
        <ele>224.7</ele>
        <time>2015-03-25T18:04:00Z</time>
      </trkpt>
      <trkpt lat="37.362886" lon="-122.154357">
        <ele>224.9</ele>
        <time>2015-03-25T18:04:03Z</time>
      </trkpt>
      <trkpt lat="37.362849" lon="-122.154316">
        <ele>225.2</ele>
        <time>2015-03-25T18:04:04Z</time>
      </trkpt>
      <trkpt lat="37.362806" lon="-122.154283">
        <ele>225.4</ele>
        <time>2015-03-25T18:04:07Z</time>
      </trkpt>
      <trkpt lat="37.362764" lon="-122.154265">
        <ele>225.7</ele>
        <time>2015-03-25T18:04:08Z</time>
      </trkpt>
      <trkpt lat="37.362725" lon="-122.15424">
        <ele>225.9</ele>
        <time>2015-03-25T18:04:10Z</time>
      </trkpt>
      <trkpt lat="37.362665" lon="-122.154197">
        <ele>226.3</ele>
        <time>2015-03-25T18:04:13Z</time>
      </trkpt>
      <trkpt lat="37.362641" lon="-122.154182">
        <ele>226.5</ele>
        <time>2015-03-25T18:04:14Z</time>
      </trkpt>
      <trkpt lat="37.362617" lon="-122.154166">
        <ele>226.6</ele>
        <time>2015-03-25T18:04:15Z</time>
      </trkpt>
      <trkpt lat="37.362576" lon="-122.154128">
        <ele>226.7</ele>
        <time>2015-03-25T18:04:17Z</time>
      </trkpt>
      <trkpt lat="37.362535" lon="-122.154088">
        <ele>226.8</ele>
        <time>2015-03-25T18:04:19Z</time>
      </trkpt>
      <trkpt lat="37.362491" lon="-122.154056">
        <ele>227</ele>
        <time>2015-03-25T18:04:21Z</time>
      </trkpt>
      <trkpt lat="37.362465" lon="-122.15404">
        <ele>227.1</ele>
        <time>2015-03-25T18:04:22Z</time>
      </trkpt>
      <trkpt lat="37.362439" lon="-122.154024">
        <ele>227.1</ele>
        <time>2015-03-25T18:04:23Z</time>
      </trkpt>
      <trkpt lat="37.362394" lon="-122.153994">
        <ele>227.2</ele>
        <time>2015-03-25T18:04:25Z</time>
      </trkpt>
      <trkpt lat="37.362349" lon="-122.153957">
        <ele>227.3</ele>
        <time>2015-03-25T18:04:27Z</time>
      </trkpt>
      <trkpt lat="37.362324" lon="-122.153937">
        <ele>227.3</ele>
        <time>2015-03-25T18:04:28Z</time>
      </trkpt>
      <trkpt lat="37.362298" lon="-122.153914">
        <ele>227.3</ele>
        <time>2015-03-25T18:04:29Z</time>
      </trkpt>
      <trkpt lat="37.362243" lon="-122.153867">
        <ele>227.4</ele>
        <time>2015-03-25T18:04:31Z</time>
      </trkpt>
      <trkpt lat="37.362215" lon="-122.153843">
        <ele>227.4</ele>
        <time>2015-03-25T18:04:32Z</time>
      </trkpt>
      <trkpt lat="37.362186" lon="-122.153816">
        <ele>227.4</ele>
        <time>2015-03-25T18:04:33Z</time>
      </trkpt>
      <trkpt lat="37.362154" lon="-122.153787">
        <ele>227.4</ele>
        <time>2015-03-25T18:04:34Z</time>
      </trkpt>
      <trkpt lat="37.362122" lon="-122.153759">
        <ele>227.4</ele>
        <time>2015-03-25T18:04:35Z</time>
      </trkpt>
      <trkpt lat="37.36209" lon="-122.153731">
        <ele>227.5</ele>
        <time>2015-03-25T18:04:36Z</time>
      </trkpt>
      <trkpt lat="37.362059" lon="-122.153706">
        <ele>227.5</ele>
        <time>2015-03-25T18:04:37Z</time>
      </trkpt>
      <trkpt lat="37.362027" lon="-122.153682">
        <ele>227.5</ele>
        <time>2015-03-25T18:04:38Z</time>
      </trkpt>
      <trkpt lat="37.361995" lon="-122.153658">
        <ele>227.5</ele>
        <time>2015-03-25T18:04:39Z</time>
      </trkpt>
      <trkpt lat="37.361961" lon="-122.153635">
        <ele>227.5</ele>
        <time>2015-03-25T18:04:40Z</time>
      </trkpt>
      <trkpt lat="37.361927" lon="-122.153612">
        <ele>227.5</ele>
        <time>2015-03-25T18:04:41Z</time>
      </trkpt>
      <trkpt lat="37.361892" lon="-122.15359">
        <ele>227.5</ele>
        <time>2015-03-25T18:04:42Z</time>
      </trkpt>
      <trkpt lat="37.361859" lon="-122.153565">
        <ele>227.5</ele>
        <time>2015-03-25T18:04:43Z</time>
      </trkpt>
      <trkpt lat="37.361828" lon="-122.153542">
        <ele>227.5</ele>
        <time>2015-03-25T18:04:44Z</time>
      </trkpt>
      <trkpt lat="37.361795" lon="-122.153517">
        <ele>227.5</ele>
        <time>2015-03-25T18:04:45Z</time>
      </trkpt>
      <trkpt lat="37.361763" lon="-122.153486">
        <ele>227.4</ele>
        <time>2015-03-25T18:04:46Z</time>
      </trkpt>
      <trkpt lat="37.361733" lon="-122.153455">
        <ele>227.3</ele>
        <time>2015-03-25T18:04:47Z</time>
      </trkpt>
      <trkpt lat="37.361706" lon="-122.153429">
        <ele>227.2</ele>
        <time>2015-03-25T18:04:48Z</time>
      </trkpt>
      <trkpt lat="37.36168" lon="-122.153405">
        <ele>227.2</ele>
        <time>2015-03-25T18:04:49Z</time>
      </trkpt>
      <trkpt lat="37.361651" lon="-122.153371">
        <ele>227</ele>
        <time>2015-03-25T18:04:50Z</time>
      </trkpt>
      <trkpt lat="37.361621" lon="-122.15333">
        <ele>226.9</ele>
        <time>2015-03-25T18:04:51Z</time>
      </trkpt>
      <trkpt lat="37.361591" lon="-122.153286">
        <ele>226.7</ele>
        <time>2015-03-25T18:04:52Z</time>
      </trkpt>
      <trkpt lat="37.361563" lon="-122.153232">
        <ele>226.4</ele>
        <time>2015-03-25T18:04:53Z</time>
      </trkpt>
      <trkpt lat="37.36155" lon="-122.153179">
        <ele>226.1</ele>
        <time>2015-03-25T18:04:54Z</time>
      </trkpt>
      <trkpt lat="37.361526" lon="-122.153107">
        <ele>225.6</ele>
        <time>2015-03-25T18:04:55Z</time>
      </trkpt>
      <trkpt lat="37.361497" lon="-122.15304">
        <ele>225.2</ele>
        <time>2015-03-25T18:04:56Z</time>
      </trkpt>
      <trkpt lat="37.361469" lon="-122.152979">
        <ele>224.8</ele>
        <time>2015-03-25T18:04:57Z</time>
      </trkpt>
      <trkpt lat="37.361434" lon="-122.1529">
        <ele>224.3</ele>
        <time>2015-03-25T18:04:58Z</time>
      </trkpt>
      <trkpt lat="37.361402" lon="-122.152823">
        <ele>223.8</ele>
        <time>2015-03-25T18:04:59Z</time>
      </trkpt>
      <trkpt lat="37.36137" lon="-122.152749">
        <ele>223.4</ele>
        <time>2015-03-25T18:05:00Z</time>
      </trkpt>
      <trkpt lat="37.361326" lon="-122.152651">
        <ele>223</ele>
        <time>2015-03-25T18:05:01Z</time>
      </trkpt>
      <trkpt lat="37.36129" lon="-122.152571">
        <ele>222.8</ele>
        <time>2015-03-25T18:05:02Z</time>
      </trkpt>
      <trkpt lat="37.361264" lon="-122.152473">
        <ele>222.6</ele>
        <time>2015-03-25T18:05:03Z</time>
      </trkpt>
      <trkpt lat="37.361231" lon="-122.15239">
        <ele>222.5</ele>
        <time>2015-03-25T18:05:04Z</time>
      </trkpt>
      <trkpt lat="37.361212" lon="-122.152319">
        <ele>222.5</ele>
        <time>2015-03-25T18:05:05Z</time>
      </trkpt>
      <trkpt lat="37.361194" lon="-122.152244">
        <ele>222.4</ele>
        <time>2015-03-25T18:05:06Z</time>
      </trkpt>
      <trkpt lat="37.361192" lon="-122.152172">
        <ele>222.4</ele>
        <time>2015-03-25T18:05:07Z</time>
      </trkpt>
      <trkpt lat="37.361181" lon="-122.152113">
        <ele>222.4</ele>
        <time>2015-03-25T18:05:08Z</time>
      </trkpt>
      <trkpt lat="37.361182" lon="-122.152058">
        <ele>222.3</ele>
        <time>2015-03-25T18:05:09Z</time>
      </trkpt>
      <trkpt lat="37.361177" lon="-122.151996">
        <ele>222.2</ele>
        <time>2015-03-25T18:05:10Z</time>
      </trkpt>
      <trkpt lat="37.361176" lon="-122.151938">
        <ele>222.2</ele>
        <time>2015-03-25T18:05:11Z</time>
      </trkpt>
      <trkpt lat="37.361168" lon="-122.151875">
        <ele>222</ele>
        <time>2015-03-25T18:05:12Z</time>
      </trkpt>
      <trkpt lat="37.36118" lon="-122.151822">
        <ele>221.9</ele>
        <time>2015-03-25T18:05:13Z</time>
      </trkpt>
      <trkpt lat="37.361169" lon="-122.151769">
        <ele>221.9</ele>
        <time>2015-03-25T18:05:14Z</time>
      </trkpt>
      <trkpt lat="37.361173" lon="-122.151728">
        <ele>221.8</ele>
        <time>2015-03-25T18:05:15Z</time>
      </trkpt>
      <trkpt lat="37.361176" lon="-122.151665">
        <ele>221.7</ele>
        <time>2015-03-25T18:05:16Z</time>
      </trkpt>
      <trkpt lat="37.36117" lon="-122.151604">
        <ele>221.7</ele>
        <time>2015-03-25T18:05:17Z</time>
      </trkpt>
      <trkpt lat="37.361161" lon="-122.151541">
        <ele>221.8</ele>
        <time>2015-03-25T18:05:18Z</time>
      </trkpt>
      <trkpt lat="37.361159" lon="-122.151475">
        <ele>221.8</ele>
        <time>2015-03-25T18:05:19Z</time>
      </trkpt>
      <trkpt lat="37.361149" lon="-122.15142">
        <ele>222.2</ele>
        <time>2015-03-25T18:05:20Z</time>
      </trkpt>
      <trkpt lat="37.361136" lon="-122.151366">
        <ele>222.6</ele>
        <time>2015-03-25T18:05:21Z</time>
      </trkpt>
      <trkpt lat="37.361129" lon="-122.151305">
        <ele>223</ele>
        <time>2015-03-25T18:05:22Z</time>
      </trkpt>
      <trkpt lat="37.361122" lon="-122.151218">
        <ele>223.5</ele>
        <time>2015-03-25T18:05:24Z</time>
      </trkpt>
      <trkpt lat="37.361109" lon="-122.151156">
        <ele>223.7</ele>
        <time>2015-03-25T18:05:25Z</time>
      </trkpt>
      <trkpt lat="37.36106" lon="-122.151075">
        <ele>223.8</ele>
        <time>2015-03-25T18:05:26Z</time>
      </trkpt>
      <trkpt lat="37.361031" lon="-122.151034">
        <ele>224.1</ele>
        <time>2015-03-25T18:05:27Z</time>
      </trkpt>
      <trkpt lat="37.361004" lon="-122.150997">
        <ele>224.1</ele>
        <time>2015-03-25T18:05:29Z</time>
      </trkpt>
      <trkpt lat="37.360977" lon="-122.150966">
        <ele>224.1</ele>
        <time>2015-03-25T18:05:30Z</time>
      </trkpt>
      <trkpt lat="37.360918" lon="-122.150895">
        <ele>224.3</ele>
        <time>2015-03-25T18:05:31Z</time>
      </trkpt>
      <trkpt lat="37.360891" lon="-122.150863">
        <ele>224.4</ele>
        <time>2015-03-25T18:05:32Z</time>
      </trkpt>
      <trkpt lat="37.36086" lon="-122.150825">
        <ele>224.6</ele>
        <time>2015-03-25T18:05:33Z</time>
      </trkpt>
      <trkpt lat="37.360831" lon="-122.150791">
        <ele>224.7</ele>
        <time>2015-03-25T18:05:34Z</time>
      </trkpt>
      <trkpt lat="37.360802" lon="-122.150759">
        <ele>224.8</ele>
        <time>2015-03-25T18:05:35Z</time>
      </trkpt>
      <trkpt lat="37.360772" lon="-122.150723">
        <ele>225</ele>
        <time>2015-03-25T18:05:36Z</time>
      </trkpt>
      <trkpt lat="37.360743" lon="-122.15069">
        <ele>225.1</ele>
        <time>2015-03-25T18:05:37Z</time>
      </trkpt>
      <trkpt lat="37.360715" lon="-122.150662">
        <ele>225.2</ele>
        <time>2015-03-25T18:05:38Z</time>
      </trkpt>
      <trkpt lat="37.360676" lon="-122.150643">
        <ele>225.2</ele>
        <time>2015-03-25T18:05:39Z</time>
      </trkpt>
      <trkpt lat="37.360649" lon="-122.150609">
        <ele>225.2</ele>
        <time>2015-03-25T18:05:40Z</time>
      </trkpt>
      <trkpt lat="37.360618" lon="-122.15057">
        <ele>225.3</ele>
        <time>2015-03-25T18:05:41Z</time>
      </trkpt>
      <trkpt lat="37.36059" lon="-122.150534">
        <ele>225.2</ele>
        <time>2015-03-25T18:05:42Z</time>
      </trkpt>
      <trkpt lat="37.360558" lon="-122.150495">
        <ele>225.2</ele>
        <time>2015-03-25T18:05:43Z</time>
      </trkpt>
      <trkpt lat="37.360524" lon="-122.150453">
        <ele>225.1</ele>
        <time>2015-03-25T18:05:44Z</time>
      </trkpt>
      <trkpt lat="37.360488" lon="-122.150409">
        <ele>225</ele>
        <time>2015-03-25T18:05:45Z</time>
      </trkpt>
      <trkpt lat="37.360463" lon="-122.150378">
        <ele>224.9</ele>
        <time>2015-03-25T18:05:46Z</time>
      </trkpt>
      <trkpt lat="37.360427" lon="-122.150333">
        <ele>224.7</ele>
        <time>2015-03-25T18:05:47Z</time>
      </trkpt>
      <trkpt lat="37.360401" lon="-122.150302">
        <ele>224.4</ele>
        <time>2015-03-25T18:05:48Z</time>
      </trkpt>
      <trkpt lat="37.360347" lon="-122.150237">
        <ele>223.8</ele>
        <time>2015-03-25T18:05:49Z</time>
      </trkpt>
      <trkpt lat="37.360309" lon="-122.150193">
        <ele>223.3</ele>
        <time>2015-03-25T18:05:50Z</time>
      </trkpt>
      <trkpt lat="37.360246" lon="-122.150118">
        <ele>222.5</ele>
        <time>2015-03-25T18:05:51Z</time>
      </trkpt>
      <trkpt lat="37.360205" lon="-122.150068">
        <ele>221.9</ele>
        <time>2015-03-25T18:05:52Z</time>
      </trkpt>
      <trkpt lat="37.360158" lon="-122.150011">
        <ele>221.4</ele>
        <time>2015-03-25T18:05:53Z</time>
      </trkpt>
      <trkpt lat="37.36001" lon="-122.149836">
        <ele>219.5</ele>
        <time>2015-03-25T18:05:56Z</time>
      </trkpt>
      <trkpt lat="37.359958" lon="-122.14977">
        <ele>218.9</ele>
        <time>2015-03-25T18:05:57Z</time>
      </trkpt>
      <trkpt lat="37.359915" lon="-122.149712">
        <ele>218.3</ele>
        <time>2015-03-25T18:05:58Z</time>
      </trkpt>
      <trkpt lat="37.359877" lon="-122.149631">
        <ele>217.6</ele>
        <time>2015-03-25T18:06:01Z</time>
      </trkpt>
      <trkpt lat="37.359863" lon="-122.149526">
        <ele>216.4</ele>
        <time>2015-03-25T18:06:02Z</time>
      </trkpt>
      <trkpt lat="37.359957" lon="-122.149133">
        <ele>213.6</ele>
        <time>2015-03-25T18:06:06Z</time>
      </trkpt>
      <trkpt lat="37.36" lon="-122.149039">
        <ele>212.6</ele>
        <time>2015-03-25T18:06:07Z</time>
      </trkpt>
      <trkpt lat="37.360035" lon="-122.148969">
        <ele>212.3</ele>
        <time>2015-03-25T18:06:08Z</time>
      </trkpt>
      <trkpt lat="37.360081" lon="-122.148878">
        <ele>211.8</ele>
        <time>2015-03-25T18:06:09Z</time>
      </trkpt>
      <trkpt lat="37.360122" lon="-122.148802">
        <ele>211.5</ele>
        <time>2015-03-25T18:06:10Z</time>
      </trkpt>
      <trkpt lat="37.360187" lon="-122.148664">
        <ele>210.7</ele>
        <time>2015-03-25T18:06:11Z</time>
      </trkpt>
      <trkpt lat="37.360205" lon="-122.148607">
        <ele>210.4</ele>
        <time>2015-03-25T18:06:12Z</time>
      </trkpt>
      <trkpt lat="37.360221" lon="-122.148492">
        <ele>209.8</ele>
        <time>2015-03-25T18:06:13Z</time>
      </trkpt>
      <trkpt lat="37.360204" lon="-122.148319">
        <ele>208.8</ele>
        <time>2015-03-25T18:06:15Z</time>
      </trkpt>
      <trkpt lat="37.360183" lon="-122.148221">
        <ele>208.3</ele>
        <time>2015-03-25T18:06:16Z</time>
      </trkpt>
      <trkpt lat="37.360164" lon="-122.148135">
        <ele>207.7</ele>
        <time>2015-03-25T18:06:17Z</time>
      </trkpt>
      <trkpt lat="37.360141" lon="-122.148031">
        <ele>207.1</ele>
        <time>2015-03-25T18:06:19Z</time>
      </trkpt>
      <trkpt lat="37.360097" lon="-122.147858">
        <ele>206.3</ele>
        <time>2015-03-25T18:06:20Z</time>
      </trkpt>
      <trkpt lat="37.360072" lon="-122.147768">
        <ele>206</ele>
        <time>2015-03-25T18:06:21Z</time>
      </trkpt>
      <trkpt lat="37.360041" lon="-122.147673">
        <ele>205.8</ele>
        <time>2015-03-25T18:06:22Z</time>
      </trkpt>
      <trkpt lat="37.360001" lon="-122.147587">
        <ele>205.6</ele>
        <time>2015-03-25T18:06:23Z</time>
      </trkpt>
      <trkpt lat="37.359949" lon="-122.147501">
        <ele>205.3</ele>
        <time>2015-03-25T18:06:24Z</time>
      </trkpt>
      <trkpt lat="37.359891" lon="-122.147437">
        <ele>205.1</ele>
        <time>2015-03-25T18:06:25Z</time>
      </trkpt>
      <trkpt lat="37.359821" lon="-122.147372">
        <ele>205.1</ele>
        <time>2015-03-25T18:06:26Z</time>
      </trkpt>
      <trkpt lat="37.359779" lon="-122.147333">
        <ele>205</ele>
        <time>2015-03-25T18:06:27Z</time>
      </trkpt>
      <trkpt lat="37.359696" lon="-122.147238">
        <ele>205.1</ele>
        <time>2015-03-25T18:06:28Z</time>
      </trkpt>
      <trkpt lat="37.359644" lon="-122.147172">
        <ele>205.1</ele>
        <time>2015-03-25T18:06:29Z</time>
      </trkpt>
      <trkpt lat="37.359597" lon="-122.147106">
        <ele>205.2</ele>
        <time>2015-03-25T18:06:30Z</time>
      </trkpt>
      <trkpt lat="37.359548" lon="-122.147036">
        <ele>205.2</ele>
        <time>2015-03-25T18:06:31Z</time>
      </trkpt>
      <trkpt lat="37.359524" lon="-122.147002">
        <ele>205.2</ele>
        <time>2015-03-25T18:06:32Z</time>
      </trkpt>
      <trkpt lat="37.359462" lon="-122.146901">
        <ele>205.3</ele>
        <time>2015-03-25T18:06:33Z</time>
      </trkpt>
      <trkpt lat="37.359421" lon="-122.146839">
        <ele>205.2</ele>
        <time>2015-03-25T18:06:34Z</time>
      </trkpt>
      <trkpt lat="37.359383" lon="-122.146781">
        <ele>205.2</ele>
        <time>2015-03-25T18:06:35Z</time>
      </trkpt>
      <trkpt lat="37.359339" lon="-122.146714">
        <ele>205.1</ele>
        <time>2015-03-25T18:06:36Z</time>
      </trkpt>
      <trkpt lat="37.359294" lon="-122.146652">
        <ele>204.9</ele>
        <time>2015-03-25T18:06:37Z</time>
      </trkpt>
      <trkpt lat="37.359261" lon="-122.146607">
        <ele>204.7</ele>
        <time>2015-03-25T18:06:38Z</time>
      </trkpt>
      <trkpt lat="37.35921" lon="-122.146545">
        <ele>204.3</ele>
        <time>2015-03-25T18:06:39Z</time>
      </trkpt>
      <trkpt lat="37.359171" lon="-122.146507">
        <ele>203.9</ele>
        <time>2015-03-25T18:06:40Z</time>
      </trkpt>
      <trkpt lat="37.359099" lon="-122.146452">
        <ele>203.1</ele>
        <time>2015-03-25T18:06:41Z</time>
      </trkpt>
      <trkpt lat="37.359053" lon="-122.14642">
        <ele>202.5</ele>
        <time>2015-03-25T18:06:42Z</time>
      </trkpt>
      <trkpt lat="37.358992" lon="-122.146387">
        <ele>201.5</ele>
        <time>2015-03-25T18:06:43Z</time>
      </trkpt>
      <trkpt lat="37.358915" lon="-122.146361">
        <ele>200.4</ele>
        <time>2015-03-25T18:06:44Z</time>
      </trkpt>
      <trkpt lat="37.358838" lon="-122.146343">
        <ele>199.3</ele>
        <time>2015-03-25T18:06:45Z</time>
      </trkpt>
      <trkpt lat="37.35875" lon="-122.146345">
        <ele>198.2</ele>
        <time>2015-03-25T18:06:46Z</time>
      </trkpt>
      <trkpt lat="37.358659" lon="-122.14636">
        <ele>197.3</ele>
        <time>2015-03-25T18:06:47Z</time>
      </trkpt>
      <trkpt lat="37.358577" lon="-122.146382">
        <ele>197</ele>
        <time>2015-03-25T18:06:48Z</time>
      </trkpt>
      <trkpt lat="37.358496" lon="-122.146411">
        <ele>196.7</ele>
        <time>2015-03-25T18:06:49Z</time>
      </trkpt>
      <trkpt lat="37.358428" lon="-122.146423">
        <ele>196.4</ele>
        <time>2015-03-25T18:06:50Z</time>
      </trkpt>
      <trkpt lat="37.358345" lon="-122.146427">
        <ele>196</ele>
        <time>2015-03-25T18:06:51Z</time>
      </trkpt>
      <trkpt lat="37.358263" lon="-122.14642">
        <ele>195.6</ele>
        <time>2015-03-25T18:06:52Z</time>
      </trkpt>
      <trkpt lat="37.35819" lon="-122.146383">
        <ele>194.8</ele>
        <time>2015-03-25T18:06:53Z</time>
      </trkpt>
      <trkpt lat="37.358117" lon="-122.146357">
        <ele>194.1</ele>
        <time>2015-03-25T18:06:54Z</time>
      </trkpt>
      <trkpt lat="37.358033" lon="-122.146317">
        <ele>193</ele>
        <time>2015-03-25T18:06:55Z</time>
      </trkpt>
      <trkpt lat="37.357967" lon="-122.146278">
        <ele>191.9</ele>
        <time>2015-03-25T18:06:56Z</time>
      </trkpt>
      <trkpt lat="37.357894" lon="-122.146203">
        <ele>190.4</ele>
        <time>2015-03-25T18:06:57Z</time>
      </trkpt>
      <trkpt lat="37.357838" lon="-122.146085">
        <ele>188.6</ele>
        <time>2015-03-25T18:06:58Z</time>
      </trkpt>
      <trkpt lat="37.35782" lon="-122.146001">
        <ele>187.4</ele>
        <time>2015-03-25T18:06:59Z</time>
      </trkpt>
      <trkpt lat="37.3578" lon="-122.145854">
        <ele>185.7</ele>
        <time>2015-03-25T18:07:00Z</time>
      </trkpt>
      <trkpt lat="37.357789" lon="-122.145745">
        <ele>184.4</ele>
        <time>2015-03-25T18:07:01Z</time>
      </trkpt>
      <trkpt lat="37.357777" lon="-122.145632">
        <ele>182.9</ele>
        <time>2015-03-25T18:07:02Z</time>
      </trkpt>
      <trkpt lat="37.357769" lon="-122.145531">
        <ele>181.6</ele>
        <time>2015-03-25T18:07:03Z</time>
      </trkpt>
      <trkpt lat="37.357767" lon="-122.145424">
        <ele>180.2</ele>
        <time>2015-03-25T18:07:04Z</time>
      </trkpt>
      <trkpt lat="37.357769" lon="-122.145319">
        <ele>178.8</ele>
        <time>2015-03-25T18:07:05Z</time>
      </trkpt>
      <trkpt lat="37.357782" lon="-122.145246">
        <ele>177.8</ele>
        <time>2015-03-25T18:07:06Z</time>
      </trkpt>
      <trkpt lat="37.357822" lon="-122.145151">
        <ele>176.4</ele>
        <time>2015-03-25T18:07:07Z</time>
      </trkpt>
      <trkpt lat="37.357887" lon="-122.145082">
        <ele>175.1</ele>
        <time>2015-03-25T18:07:08Z</time>
      </trkpt>
      <trkpt lat="37.357955" lon="-122.145032">
        <ele>174.2</ele>
        <time>2015-03-25T18:07:09Z</time>
      </trkpt>
      <trkpt lat="37.358029" lon="-122.14499">
        <ele>172.6</ele>
        <time>2015-03-25T18:07:10Z</time>
      </trkpt>
      <trkpt lat="37.358102" lon="-122.144948">
        <ele>171</ele>
        <time>2015-03-25T18:07:11Z</time>
      </trkpt>
      <trkpt lat="37.358177" lon="-122.144883">
        <ele>169.9</ele>
        <time>2015-03-25T18:07:12Z</time>
      </trkpt>
      <trkpt lat="37.358253" lon="-122.144784">
        <ele>168.8</ele>
        <time>2015-03-25T18:07:13Z</time>
      </trkpt>
      <trkpt lat="37.3583" lon="-122.144693">
        <ele>168</ele>
        <time>2015-03-25T18:07:14Z</time>
      </trkpt>
      <trkpt lat="37.358338" lon="-122.144579">
        <ele>167</ele>
        <time>2015-03-25T18:07:15Z</time>
      </trkpt>
      <trkpt lat="37.358368" lon="-122.144471">
        <ele>166.2</ele>
        <time>2015-03-25T18:07:16Z</time>
      </trkpt>
      <trkpt lat="37.358392" lon="-122.144367">
        <ele>165.3</ele>
        <time>2015-03-25T18:07:17Z</time>
      </trkpt>
      <trkpt lat="37.358414" lon="-122.144254">
        <ele>164.4</ele>
        <time>2015-03-25T18:07:18Z</time>
      </trkpt>
      <trkpt lat="37.358419" lon="-122.144191">
        <ele>163.9</ele>
        <time>2015-03-25T18:07:19Z</time>
      </trkpt>
      <trkpt lat="37.358412" lon="-122.144059">
        <ele>162.7</ele>
        <time>2015-03-25T18:07:20Z</time>
      </trkpt>
      <trkpt lat="37.358396" lon="-122.143974">
        <ele>162</ele>
        <time>2015-03-25T18:07:21Z</time>
      </trkpt>
      <trkpt lat="37.358368" lon="-122.14388">
        <ele>161</ele>
        <time>2015-03-25T18:07:22Z</time>
      </trkpt>
      <trkpt lat="37.358324" lon="-122.143784">
        <ele>160.1</ele>
        <time>2015-03-25T18:07:24Z</time>
      </trkpt>
      <trkpt lat="37.358227" lon="-122.143579">
        <ele>158</ele>
        <time>2015-03-25T18:07:25Z</time>
      </trkpt>
      <trkpt lat="37.358175" lon="-122.143446">
        <ele>156.7</ele>
        <time>2015-03-25T18:07:26Z</time>
      </trkpt>
      <trkpt lat="37.358146" lon="-122.143336">
        <ele>155.8</ele>
        <time>2015-03-25T18:07:27Z</time>
      </trkpt>
      <trkpt lat="37.358133" lon="-122.143191">
        <ele>154.6</ele>
        <time>2015-03-25T18:07:28Z</time>
      </trkpt>
      <trkpt lat="37.358129" lon="-122.143049">
        <ele>153.3</ele>
        <time>2015-03-25T18:07:29Z</time>
      </trkpt>
      <trkpt lat="37.358128" lon="-122.142917">
        <ele>152.6</ele>
        <time>2015-03-25T18:07:30Z</time>
      </trkpt>
      <trkpt lat="37.358125" lon="-122.142808">
        <ele>151.8</ele>
        <time>2015-03-25T18:07:31Z</time>
      </trkpt>
      <trkpt lat="37.358116" lon="-122.142718">
        <ele>151.2</ele>
        <time>2015-03-25T18:07:32Z</time>
      </trkpt>
      <trkpt lat="37.358099" lon="-122.142588">
        <ele>150.3</ele>
        <time>2015-03-25T18:07:33Z</time>
      </trkpt>
      <trkpt lat="37.358078" lon="-122.142476">
        <ele>149.4</ele>
        <time>2015-03-25T18:07:34Z</time>
      </trkpt>
      <trkpt lat="37.358063" lon="-122.142405">
        <ele>148.8</ele>
        <time>2015-03-25T18:07:35Z</time>
      </trkpt>
      <trkpt lat="37.358022" lon="-122.142274">
        <ele>147.7</ele>
        <time>2015-03-25T18:07:36Z</time>
      </trkpt>
      <trkpt lat="37.357988" lon="-122.142169">
        <ele>146.8</ele>
        <time>2015-03-25T18:07:37Z</time>
      </trkpt>
      <trkpt lat="37.357954" lon="-122.142059">
        <ele>145.8</ele>
        <time>2015-03-25T18:07:38Z</time>
      </trkpt>
      <trkpt lat="37.357937" lon="-122.141993">
        <ele>145.2</ele>
        <time>2015-03-25T18:07:39Z</time>
      </trkpt>
      <trkpt lat="37.357904" lon="-122.141817">
        <ele>143.8</ele>
        <time>2015-03-25T18:07:40Z</time>
      </trkpt>
      <trkpt lat="37.357888" lon="-122.141711">
        <ele>143.1</ele>
        <time>2015-03-25T18:07:41Z</time>
      </trkpt>
      <trkpt lat="37.357875" lon="-122.141605">
        <ele>142.3</ele>
        <time>2015-03-25T18:07:42Z</time>
      </trkpt>
      <trkpt lat="37.357867" lon="-122.141499">
        <ele>141.7</ele>
        <time>2015-03-25T18:07:43Z</time>
      </trkpt>
      <trkpt lat="37.357862" lon="-122.141381">
        <ele>141.1</ele>
        <time>2015-03-25T18:07:44Z</time>
      </trkpt>
      <trkpt lat="37.35786" lon="-122.141276">
        <ele>140.4</ele>
        <time>2015-03-25T18:07:45Z</time>
      </trkpt>
      <trkpt lat="37.357856" lon="-122.141165">
        <ele>139.5</ele>
        <time>2015-03-25T18:07:46Z</time>
      </trkpt>
      <trkpt lat="37.357853" lon="-122.141041">
        <ele>138.4</ele>
        <time>2015-03-25T18:07:47Z</time>
      </trkpt>
      <trkpt lat="37.357851" lon="-122.140915">
        <ele>137.2</ele>
        <time>2015-03-25T18:07:48Z</time>
      </trkpt>
      <trkpt lat="37.357854" lon="-122.140807">
        <ele>136.2</ele>
        <time>2015-03-25T18:07:49Z</time>
      </trkpt>
      <trkpt lat="37.357858" lon="-122.140703">
        <ele>135.3</ele>
        <time>2015-03-25T18:07:50Z</time>
      </trkpt>
      <trkpt lat="37.357865" lon="-122.140601">
        <ele>134.4</ele>
        <time>2015-03-25T18:07:52Z</time>
      </trkpt>
      <trkpt lat="37.357891" lon="-122.140439">
        <ele>132.8</ele>
        <time>2015-03-25T18:07:53Z</time>
      </trkpt>
      <trkpt lat="37.357936" lon="-122.140304">
        <ele>131.8</ele>
        <time>2015-03-25T18:07:54Z</time>
      </trkpt>
      <trkpt lat="37.357972" lon="-122.14021">
        <ele>130.9</ele>
        <time>2015-03-25T18:07:55Z</time>
      </trkpt>
      <trkpt lat="37.35803" lon="-122.140068">
        <ele>130.2</ele>
        <time>2015-03-25T18:07:56Z</time>
      </trkpt>
      <trkpt lat="37.358066" lon="-122.139977">
        <ele>129.7</ele>
        <time>2015-03-25T18:07:57Z</time>
      </trkpt>
      <trkpt lat="37.358106" lon="-122.13987">
        <ele>129.1</ele>
        <time>2015-03-25T18:07:58Z</time>
      </trkpt>
      <trkpt lat="37.358153" lon="-122.139713">
        <ele>128.4</ele>
        <time>2015-03-25T18:07:59Z</time>
      </trkpt>
      <trkpt lat="37.358166" lon="-122.139627">
        <ele>128</ele>
        <time>2015-03-25T18:08:00Z</time>
      </trkpt>
      <trkpt lat="37.358179" lon="-122.13951">
        <ele>127.6</ele>
        <time>2015-03-25T18:08:01Z</time>
      </trkpt>
      <trkpt lat="37.35819" lon="-122.139389">
        <ele>127.1</ele>
        <time>2015-03-25T18:08:02Z</time>
      </trkpt>
      <trkpt lat="37.358193" lon="-122.139251">
        <ele>126.5</ele>
        <time>2015-03-25T18:08:03Z</time>
      </trkpt>
      <trkpt lat="37.358194" lon="-122.13919">
        <ele>126.2</ele>
        <time>2015-03-25T18:08:04Z</time>
      </trkpt>
      <trkpt lat="37.358201" lon="-122.138998">
        <ele>125.5</ele>
        <time>2015-03-25T18:08:05Z</time>
      </trkpt>
      <trkpt lat="37.358199" lon="-122.138927">
        <ele>125.1</ele>
        <time>2015-03-25T18:08:06Z</time>
      </trkpt>
      <trkpt lat="37.358199" lon="-122.138751">
        <ele>124.4</ele>
        <time>2015-03-25T18:08:07Z</time>
      </trkpt>
      <trkpt lat="37.358197" lon="-122.138633">
        <ele>123.9</ele>
        <time>2015-03-25T18:08:08Z</time>
      </trkpt>
      <trkpt lat="37.358185" lon="-122.138515">
        <ele>123.5</ele>
        <time>2015-03-25T18:08:10Z</time>
      </trkpt>
      <trkpt lat="37.358173" lon="-122.138392">
        <ele>123</ele>
        <time>2015-03-25T18:08:11Z</time>
      </trkpt>
      <trkpt lat="37.358146" lon="-122.138101">
        <ele>121.9</ele>
        <time>2015-03-25T18:08:12Z</time>
      </trkpt>
      <trkpt lat="37.358131" lon="-122.13797">
        <ele>121.4</ele>
        <time>2015-03-25T18:08:14Z</time>
      </trkpt>
      <trkpt lat="37.358102" lon="-122.13771">
        <ele>120.3</ele>
        <time>2015-03-25T18:08:15Z</time>
      </trkpt>
      <trkpt lat="37.358087" lon="-122.13758">
        <ele>119.8</ele>
        <time>2015-03-25T18:08:16Z</time>
      </trkpt>
      <trkpt lat="37.358072" lon="-122.137453">
        <ele>119.3</ele>
        <time>2015-03-25T18:08:17Z</time>
      </trkpt>
      <trkpt lat="37.358057" lon="-122.137325">
        <ele>118.8</ele>
        <time>2015-03-25T18:08:18Z</time>
      </trkpt>
      <trkpt lat="37.358042" lon="-122.137188">
        <ele>118.4</ele>
        <time>2015-03-25T18:08:19Z</time>
      </trkpt>
      <trkpt lat="37.358029" lon="-122.137065">
        <ele>117.9</ele>
        <time>2015-03-25T18:08:20Z</time>
      </trkpt>
      <trkpt lat="37.358014" lon="-122.136937">
        <ele>117.5</ele>
        <time>2015-03-25T18:08:21Z</time>
      </trkpt>
      <trkpt lat="37.357996" lon="-122.136795">
        <ele>117</ele>
        <time>2015-03-25T18:08:22Z</time>
      </trkpt>
      <trkpt lat="37.357981" lon="-122.13667">
        <ele>116.5</ele>
        <time>2015-03-25T18:08:23Z</time>
      </trkpt>
      <trkpt lat="37.357965" lon="-122.136538">
        <ele>116</ele>
        <time>2015-03-25T18:08:24Z</time>
      </trkpt>
      <trkpt lat="37.357949" lon="-122.136414">
        <ele>115.6</ele>
        <time>2015-03-25T18:08:25Z</time>
      </trkpt>
      <trkpt lat="37.357933" lon="-122.136283">
        <ele>115</ele>
        <time>2015-03-25T18:08:26Z</time>
      </trkpt>
      <trkpt lat="37.357919" lon="-122.136165">
        <ele>114.5</ele>
        <time>2015-03-25T18:08:27Z</time>
      </trkpt>
      <trkpt lat="37.357902" lon="-122.136034">
        <ele>113.9</ele>
        <time>2015-03-25T18:08:28Z</time>
      </trkpt>
      <trkpt lat="37.357886" lon="-122.135913">
        <ele>113.3</ele>
        <time>2015-03-25T18:08:29Z</time>
      </trkpt>
      <trkpt lat="37.357867" lon="-122.135765">
        <ele>112.7</ele>
        <time>2015-03-25T18:08:30Z</time>
      </trkpt>
      <trkpt lat="37.35785" lon="-122.135635">
        <ele>112.2</ele>
        <time>2015-03-25T18:08:31Z</time>
      </trkpt>
      <trkpt lat="37.357831" lon="-122.135485">
        <ele>111.7</ele>
        <time>2015-03-25T18:08:32Z</time>
      </trkpt>
      <trkpt lat="37.357813" lon="-122.13534">
        <ele>111.4</ele>
        <time>2015-03-25T18:08:33Z</time>
      </trkpt>
      <trkpt lat="37.357796" lon="-122.135205">
        <ele>111.2</ele>
        <time>2015-03-25T18:08:34Z</time>
      </trkpt>
      <trkpt lat="37.357783" lon="-122.135115">
        <ele>110.9</ele>
        <time>2015-03-25T18:08:35Z</time>
      </trkpt>
      <trkpt lat="37.357769" lon="-122.135012">
        <ele>110.6</ele>
        <time>2015-03-25T18:08:36Z</time>
      </trkpt>
      <trkpt lat="37.357756" lon="-122.13492">
        <ele>110.4</ele>
        <time>2015-03-25T18:08:37Z</time>
      </trkpt>
      <trkpt lat="37.357742" lon="-122.134829">
        <ele>110.2</ele>
        <time>2015-03-25T18:08:38Z</time>
      </trkpt>
      <trkpt lat="37.357731" lon="-122.134747">
        <ele>110</ele>
        <time>2015-03-25T18:08:39Z</time>
      </trkpt>
      <trkpt lat="37.357722" lon="-122.134678">
        <ele>109.8</ele>
        <time>2015-03-25T18:08:40Z</time>
      </trkpt>
      <trkpt lat="37.357714" lon="-122.134616">
        <ele>109.7</ele>
        <time>2015-03-25T18:08:41Z</time>
      </trkpt>
      <trkpt lat="37.357708" lon="-122.134565">
        <ele>109.6</ele>
        <time>2015-03-25T18:08:42Z</time>
      </trkpt>
      <trkpt lat="37.357698" lon="-122.134463">
        <ele>109.3</ele>
        <time>2015-03-25T18:08:44Z</time>
      </trkpt>
      <trkpt lat="37.357694" lon="-122.134419">
        <ele>109.3</ele>
        <time>2015-03-25T18:08:45Z</time>
      </trkpt>
      <trkpt lat="37.357692" lon="-122.134371">
        <ele>109.2</ele>
        <time>2015-03-25T18:08:46Z</time>
      </trkpt>
      <trkpt lat="37.35769" lon="-122.13433">
        <ele>109.1</ele>
        <time>2015-03-25T18:08:47Z</time>
      </trkpt>
      <trkpt lat="37.357717" lon="-122.134062">
        <ele>108.6</ele>
        <time>2015-03-25T18:08:52Z</time>
      </trkpt>
      <trkpt lat="37.357722" lon="-122.134001">
        <ele>108.6</ele>
        <time>2015-03-25T18:08:53Z</time>
      </trkpt>
      <trkpt lat="37.357726" lon="-122.133947">
        <ele>108.6</ele>
        <time>2015-03-25T18:08:54Z</time>
      </trkpt>
      <trkpt lat="37.357733" lon="-122.133849">
        <ele>108.5</ele>
        <time>2015-03-25T18:08:55Z</time>
      </trkpt>
      <trkpt lat="37.357737" lon="-122.133792">
        <ele>108.5</ele>
        <time>2015-03-25T18:08:56Z</time>
      </trkpt>
      <trkpt lat="37.357742" lon="-122.133715">
        <ele>108.3</ele>
        <time>2015-03-25T18:08:57Z</time>
      </trkpt>
      <trkpt lat="37.357746" lon="-122.133648">
        <ele>108.3</ele>
        <time>2015-03-25T18:08:58Z</time>
      </trkpt>
      <trkpt lat="37.35775" lon="-122.133569">
        <ele>108.1</ele>
        <time>2015-03-25T18:08:59Z</time>
      </trkpt>
      <trkpt lat="37.357753" lon="-122.13349">
        <ele>108</ele>
        <time>2015-03-25T18:09:00Z</time>
      </trkpt>
      <trkpt lat="37.357758" lon="-122.133388">
        <ele>107.9</ele>
        <time>2015-03-25T18:09:01Z</time>
      </trkpt>
      <trkpt lat="37.357761" lon="-122.133314">
        <ele>107.9</ele>
        <time>2015-03-25T18:09:02Z</time>
      </trkpt>
      <trkpt lat="37.357764" lon="-122.133251">
        <ele>107.9</ele>
        <time>2015-03-25T18:09:03Z</time>
      </trkpt>
      <trkpt lat="37.357768" lon="-122.133185">
        <ele>107.8</ele>
        <time>2015-03-25T18:09:04Z</time>
      </trkpt>
      <trkpt lat="37.357772" lon="-122.133114">
        <ele>107.8</ele>
        <time>2015-03-25T18:09:05Z</time>
      </trkpt>
      <trkpt lat="37.357776" lon="-122.133042">
        <ele>107.9</ele>
        <time>2015-03-25T18:09:06Z</time>
      </trkpt>
      <trkpt lat="37.35778" lon="-122.13297">
        <ele>108</ele>
        <time>2015-03-25T18:09:07Z</time>
      </trkpt>
      <trkpt lat="37.357784" lon="-122.132898">
        <ele>108.2</ele>
        <time>2015-03-25T18:09:08Z</time>
      </trkpt>
      <trkpt lat="37.35779" lon="-122.132827">
        <ele>108.3</ele>
        <time>2015-03-25T18:09:09Z</time>
      </trkpt>
      <trkpt lat="37.357797" lon="-122.132756">
        <ele>108.4</ele>
        <time>2015-03-25T18:09:10Z</time>
      </trkpt>
      <trkpt lat="37.357806" lon="-122.132675">
        <ele>108.5</ele>
        <time>2015-03-25T18:09:11Z</time>
      </trkpt>
      <trkpt lat="37.357815" lon="-122.132606">
        <ele>108.7</ele>
        <time>2015-03-25T18:09:12Z</time>
      </trkpt>
      <trkpt lat="37.357824" lon="-122.132548">
        <ele>108.7</ele>
        <time>2015-03-25T18:09:13Z</time>
      </trkpt>
      <trkpt lat="37.357834" lon="-122.132481">
        <ele>109.2</ele>
        <time>2015-03-25T18:09:14Z</time>
      </trkpt>
      <trkpt lat="37.357844" lon="-122.132415">
        <ele>109.3</ele>
        <time>2015-03-25T18:09:15Z</time>
      </trkpt>
      <trkpt lat="37.357854" lon="-122.132349">
        <ele>109.3</ele>
        <time>2015-03-25T18:09:16Z</time>
      </trkpt>
      <trkpt lat="37.357866" lon="-122.132284">
        <ele>109.8</ele>
        <time>2015-03-25T18:09:17Z</time>
      </trkpt>
      <trkpt lat="37.357877" lon="-122.132226">
        <ele>109.3</ele>
        <time>2015-03-25T18:09:18Z</time>
      </trkpt>
      <trkpt lat="37.357889" lon="-122.132165">
        <ele>109.2</ele>
        <time>2015-03-25T18:09:19Z</time>
      </trkpt>
      <trkpt lat="37.357901" lon="-122.132097">
        <ele>109.7</ele>
        <time>2015-03-25T18:09:20Z</time>
      </trkpt>
      <trkpt lat="37.357914" lon="-122.132028">
        <ele>109.2</ele>
        <time>2015-03-25T18:09:21Z</time>
      </trkpt>
      <trkpt lat="37.357924" lon="-122.131963">
        <ele>109.2</ele>
        <time>2015-03-25T18:09:22Z</time>
      </trkpt>
      <trkpt lat="37.357935" lon="-122.131893">
        <ele>108.8</ele>
        <time>2015-03-25T18:09:23Z</time>
      </trkpt>
      <trkpt lat="37.357946" lon="-122.131819">
        <ele>108.5</ele>
        <time>2015-03-25T18:09:24Z</time>
      </trkpt>
      <trkpt lat="37.357954" lon="-122.13175">
        <ele>108.6</ele>
        <time>2015-03-25T18:09:25Z</time>
      </trkpt>
      <trkpt lat="37.357962" lon="-122.13168">
        <ele>108.6</ele>
        <time>2015-03-25T18:09:26Z</time>
      </trkpt>
      <trkpt lat="37.35797" lon="-122.131607">
        <ele>108.4</ele>
        <time>2015-03-25T18:09:27Z</time>
      </trkpt>
      <trkpt lat="37.357976" lon="-122.131531">
        <ele>108.5</ele>
        <time>2015-03-25T18:09:28Z</time>
      </trkpt>
      <trkpt lat="37.357982" lon="-122.131458">
        <ele>108.5</ele>
        <time>2015-03-25T18:09:29Z</time>
      </trkpt>
      <trkpt lat="37.357987" lon="-122.131383">
        <ele>108.6</ele>
        <time>2015-03-25T18:09:30Z</time>
      </trkpt>
      <trkpt lat="37.35799" lon="-122.131307">
        <ele>108.4</ele>
        <time>2015-03-25T18:09:31Z</time>
      </trkpt>
      <trkpt lat="37.357993" lon="-122.131233">
        <ele>108.5</ele>
        <time>2015-03-25T18:09:33Z</time>
      </trkpt>
      <trkpt lat="37.357997" lon="-122.13109">
        <ele>108.1</ele>
        <time>2015-03-25T18:09:34Z</time>
      </trkpt>
      <trkpt lat="37.357999" lon="-122.131019">
        <ele>108</ele>
        <time>2015-03-25T18:09:35Z</time>
      </trkpt>
      <trkpt lat="37.358" lon="-122.130938">
        <ele>107.8</ele>
        <time>2015-03-25T18:09:36Z</time>
      </trkpt>
      <trkpt lat="37.357999" lon="-122.130864">
        <ele>107.6</ele>
        <time>2015-03-25T18:09:37Z</time>
      </trkpt>
      <trkpt lat="37.357999" lon="-122.130789">
        <ele>107.5</ele>
        <time>2015-03-25T18:09:38Z</time>
      </trkpt>
      <trkpt lat="37.357998" lon="-122.130706">
        <ele>107.2</ele>
        <time>2015-03-25T18:09:39Z</time>
      </trkpt>
      <trkpt lat="37.357999" lon="-122.130629">
        <ele>107</ele>
        <time>2015-03-25T18:09:40Z</time>
      </trkpt>
      <trkpt lat="37.358004" lon="-122.130546">
        <ele>106.8</ele>
        <time>2015-03-25T18:09:41Z</time>
      </trkpt>
      <trkpt lat="37.358012" lon="-122.130465">
        <ele>106.5</ele>
        <time>2015-03-25T18:09:42Z</time>
      </trkpt>
      <trkpt lat="37.358019" lon="-122.130411">
        <ele>106.4</ele>
        <time>2015-03-25T18:09:43Z</time>
      </trkpt>
      <trkpt lat="37.358042" lon="-122.130306">
        <ele>106.2</ele>
        <time>2015-03-25T18:09:44Z</time>
      </trkpt>
      <trkpt lat="37.358055" lon="-122.130256">
        <ele>106.1</ele>
        <time>2015-03-25T18:09:45Z</time>
      </trkpt>
      <trkpt lat="37.358097" lon="-122.130161">
        <ele>105.5</ele>
        <time>2015-03-25T18:09:46Z</time>
      </trkpt>
      <trkpt lat="37.358126" lon="-122.130096">
        <ele>105.3</ele>
        <time>2015-03-25T18:09:47Z</time>
      </trkpt>
      <trkpt lat="37.358157" lon="-122.130037">
        <ele>105.2</ele>
        <time>2015-03-25T18:09:48Z</time>
      </trkpt>
      <trkpt lat="37.358198" lon="-122.129971">
        <ele>105</ele>
        <time>2015-03-25T18:09:49Z</time>
      </trkpt>
      <trkpt lat="37.358237" lon="-122.129914">
        <ele>104.9</ele>
        <time>2015-03-25T18:09:50Z</time>
      </trkpt>
      <trkpt lat="37.358292" lon="-122.129842">
        <ele>103.8</ele>
        <time>2015-03-25T18:09:51Z</time>
      </trkpt>
      <trkpt lat="37.358338" lon="-122.129784">
        <ele>102.9</ele>
        <time>2015-03-25T18:09:52Z</time>
      </trkpt>
      <trkpt lat="37.35838" lon="-122.129735">
        <ele>102.6</ele>
        <time>2015-03-25T18:09:53Z</time>
      </trkpt>
      <trkpt lat="37.358417" lon="-122.129692">
        <ele>102.3</ele>
        <time>2015-03-25T18:09:54Z</time>
      </trkpt>
      <trkpt lat="37.358443" lon="-122.129662">
        <ele>102.1</ele>
        <time>2015-03-25T18:09:55Z</time>
      </trkpt>
      <trkpt lat="37.358475" lon="-122.129627">
        <ele>101.9</ele>
        <time>2015-03-25T18:09:56Z</time>
      </trkpt>
      <trkpt lat="37.358501" lon="-122.129599">
        <ele>101.8</ele>
        <time>2015-03-25T18:09:57Z</time>
      </trkpt>
      <trkpt lat="37.358523" lon="-122.129526">
        <ele>101.6</ele>
        <time>2015-03-25T18:09:59Z</time>
      </trkpt>
      <trkpt lat="37.358521" lon="-122.129572">
        <ele>101.8</ele>
        <time>2015-03-25T18:10:00Z</time>
      </trkpt>
      <trkpt lat="37.358521" lon="-122.129804">
        <ele>102.5</ele>
        <time>2015-03-25T18:10:02Z</time>
      </trkpt>
      <trkpt lat="37.358524" lon="-122.129872">
        <ele>102.7</ele>
        <time>2015-03-25T18:10:03Z</time>
      </trkpt>
      <trkpt lat="37.358545" lon="-122.130146">
        <ele>104.1</ele>
        <time>2015-03-25T18:10:08Z</time>
      </trkpt>
      <trkpt lat="37.358551" lon="-122.130196">
        <ele>104.3</ele>
        <time>2015-03-25T18:10:09Z</time>
      </trkpt>
      <trkpt lat="37.358557" lon="-122.130239">
        <ele>104.7</ele>
        <time>2015-03-25T18:10:10Z</time>
      </trkpt>
      <trkpt lat="37.358565" lon="-122.130302">
        <ele>105.1</ele>
        <time>2015-03-25T18:10:11Z</time>
      </trkpt>
      <trkpt lat="37.358582" lon="-122.130422">
        <ele>105.7</ele>
        <time>2015-03-25T18:10:14Z</time>
      </trkpt>
      <trkpt lat="37.358588" lon="-122.130457">
        <ele>105.8</ele>
        <time>2015-03-25T18:10:15Z</time>
      </trkpt>
      <trkpt lat="37.358597" lon="-122.130511">
        <ele>106</ele>
        <time>2015-03-25T18:10:16Z</time>
      </trkpt>
      <trkpt lat="37.358606" lon="-122.13055">
        <ele>106.1</ele>
        <time>2015-03-25T18:10:17Z</time>
      </trkpt>
      <trkpt lat="37.358614" lon="-122.130592">
        <ele>106.2</ele>
        <time>2015-03-25T18:10:18Z</time>
      </trkpt>
      <trkpt lat="37.358622" lon="-122.13063">
        <ele>106.3</ele>
        <time>2015-03-25T18:10:19Z</time>
      </trkpt>
      <trkpt lat="37.358633" lon="-122.130676">
        <ele>106.5</ele>
        <time>2015-03-25T18:10:20Z</time>
      </trkpt>
      <trkpt lat="37.358643" lon="-122.130719">
        <ele>106.6</ele>
        <time>2015-03-25T18:10:21Z</time>
      </trkpt>
      <trkpt lat="37.358654" lon="-122.130768">
        <ele>106.6</ele>
        <time>2015-03-25T18:10:22Z</time>
      </trkpt>
      <trkpt lat="37.358668" lon="-122.130827">
        <ele>106.7</ele>
        <time>2015-03-25T18:10:23Z</time>
      </trkpt>
      <trkpt lat="37.358678" lon="-122.130867">
        <ele>106.8</ele>
        <time>2015-03-25T18:10:24Z</time>
      </trkpt>
      <trkpt lat="37.358694" lon="-122.130941">
        <ele>107</ele>
        <time>2015-03-25T18:10:26Z</time>
      </trkpt>
      <trkpt lat="37.358702" lon="-122.130976">
        <ele>107</ele>
        <time>2015-03-25T18:10:27Z</time>
      </trkpt>
      <trkpt lat="37.358715" lon="-122.131032">
        <ele>107.2</ele>
        <time>2015-03-25T18:10:28Z</time>
      </trkpt>
      <trkpt lat="37.358725" lon="-122.131077">
        <ele>107.2</ele>
        <time>2015-03-25T18:10:29Z</time>
      </trkpt>
      <trkpt lat="37.358733" lon="-122.131113">
        <ele>107.3</ele>
        <time>2015-03-25T18:10:30Z</time>
      </trkpt>
      <trkpt lat="37.358742" lon="-122.131153">
        <ele>107.5</ele>
        <time>2015-03-25T18:10:31Z</time>
      </trkpt>
      <trkpt lat="37.358751" lon="-122.131197">
        <ele>107.6</ele>
        <time>2015-03-25T18:10:32Z</time>
      </trkpt>
      <trkpt lat="37.358761" lon="-122.13124">
        <ele>107.7</ele>
        <time>2015-03-25T18:10:33Z</time>
      </trkpt>
      <trkpt lat="37.358772" lon="-122.131289">
        <ele>107.9</ele>
        <time>2015-03-25T18:10:34Z</time>
      </trkpt>
      <trkpt lat="37.358781" lon="-122.131333">
        <ele>108</ele>
        <time>2015-03-25T18:10:36Z</time>
      </trkpt>
      <trkpt lat="37.358799" lon="-122.131416">
        <ele>108.4</ele>
        <time>2015-03-25T18:10:37Z</time>
      </trkpt>
      <trkpt lat="37.358807" lon="-122.131458">
        <ele>108.6</ele>
        <time>2015-03-25T18:10:38Z</time>
      </trkpt>
      <trkpt lat="37.358815" lon="-122.131495">
        <ele>108.7</ele>
        <time>2015-03-25T18:10:39Z</time>
      </trkpt>
      <trkpt lat="37.358825" lon="-122.13154">
        <ele>108.8</ele>
        <time>2015-03-25T18:10:40Z</time>
      </trkpt>
      <trkpt lat="37.358834" lon="-122.131587">
        <ele>109</ele>
        <time>2015-03-25T18:10:41Z</time>
      </trkpt>
      <trkpt lat="37.358845" lon="-122.131636">
        <ele>109.2</ele>
        <time>2015-03-25T18:10:42Z</time>
      </trkpt>
      <trkpt lat="37.358854" lon="-122.131682">
        <ele>109.4</ele>
        <time>2015-03-25T18:10:43Z</time>
      </trkpt>
      <trkpt lat="37.358872" lon="-122.131769">
        <ele>109.7</ele>
        <time>2015-03-25T18:10:45Z</time>
      </trkpt>
      <trkpt lat="37.358882" lon="-122.131814">
        <ele>109.9</ele>
        <time>2015-03-25T18:10:46Z</time>
      </trkpt>
      <trkpt lat="37.35889" lon="-122.131854">
        <ele>110</ele>
        <time>2015-03-25T18:10:47Z</time>
      </trkpt>
      <trkpt lat="37.3589" lon="-122.1319">
        <ele>110.2</ele>
        <time>2015-03-25T18:10:48Z</time>
      </trkpt>
      <trkpt lat="37.358909" lon="-122.131942">
        <ele>110.5</ele>
        <time>2015-03-25T18:10:49Z</time>
      </trkpt>
      <trkpt lat="37.358918" lon="-122.131985">
        <ele>110.7</ele>
        <time>2015-03-25T18:10:50Z</time>
      </trkpt>
      <trkpt lat="37.358928" lon="-122.132027">
        <ele>110.9</ele>
        <time>2015-03-25T18:10:51Z</time>
      </trkpt>
      <trkpt lat="37.358938" lon="-122.132074">
        <ele>111.2</ele>
        <time>2015-03-25T18:10:52Z</time>
      </trkpt>
      <trkpt lat="37.358948" lon="-122.13212">
        <ele>111.4</ele>
        <time>2015-03-25T18:10:53Z</time>
      </trkpt>
      <trkpt lat="37.358958" lon="-122.132165">
        <ele>111.7</ele>
        <time>2015-03-25T18:10:54Z</time>
      </trkpt>
      <trkpt lat="37.358966" lon="-122.132206">
        <ele>112</ele>
        <time>2015-03-25T18:10:55Z</time>
      </trkpt>
      <trkpt lat="37.358975" lon="-122.132246">
        <ele>112.1</ele>
        <time>2015-03-25T18:10:56Z</time>
      </trkpt>
      <trkpt lat="37.358984" lon="-122.132288">
        <ele>112.3</ele>
        <time>2015-03-25T18:10:57Z</time>
      </trkpt>
      <trkpt lat="37.358992" lon="-122.132326">
        <ele>112.5</ele>
        <time>2015-03-25T18:10:58Z</time>
      </trkpt>
      <trkpt lat="37.359001" lon="-122.13237">
        <ele>112.6</ele>
        <time>2015-03-25T18:10:59Z</time>
      </trkpt>
      <trkpt lat="37.359009" lon="-122.132413">
        <ele>112.8</ele>
        <time>2015-03-25T18:11:00Z</time>
      </trkpt>
      <trkpt lat="37.359019" lon="-122.132459">
        <ele>112.9</ele>
        <time>2015-03-25T18:11:02Z</time>
      </trkpt>
      <trkpt lat="37.359036" lon="-122.132545">
        <ele>113.2</ele>
        <time>2015-03-25T18:11:03Z</time>
      </trkpt>
      <trkpt lat="37.359045" lon="-122.132586">
        <ele>113.3</ele>
        <time>2015-03-25T18:11:04Z</time>
      </trkpt>
      <trkpt lat="37.359055" lon="-122.132635">
        <ele>113.5</ele>
        <time>2015-03-25T18:11:05Z</time>
      </trkpt>
      <trkpt lat="37.359103" lon="-122.132899">
        <ele>114.2</ele>
        <time>2015-03-25T18:11:11Z</time>
      </trkpt>
      <trkpt lat="37.35911" lon="-122.132939">
        <ele>114.3</ele>
        <time>2015-03-25T18:11:12Z</time>
      </trkpt>
      <trkpt lat="37.359121" lon="-122.133017">
        <ele>114.7</ele>
        <time>2015-03-25T18:11:14Z</time>
      </trkpt>
      <trkpt lat="37.359129" lon="-122.133082">
        <ele>114.9</ele>
        <time>2015-03-25T18:11:16Z</time>
      </trkpt>
      <trkpt lat="37.359133" lon="-122.13312">
        <ele>115.1</ele>
        <time>2015-03-25T18:11:17Z</time>
      </trkpt>
      <trkpt lat="37.359138" lon="-122.133182">
        <ele>115.6</ele>
        <time>2015-03-25T18:11:19Z</time>
      </trkpt>
      <trkpt lat="37.359144" lon="-122.133248">
        <ele>116.1</ele>
        <time>2015-03-25T18:11:21Z</time>
      </trkpt>
      <trkpt lat="37.359147" lon="-122.133309">
        <ele>116.6</ele>
        <time>2015-03-25T18:11:23Z</time>
      </trkpt>
      <trkpt lat="37.35915" lon="-122.133367">
        <ele>117.1</ele>
        <time>2015-03-25T18:11:25Z</time>
      </trkpt>
      <trkpt lat="37.359153" lon="-122.133455">
        <ele>117.9</ele>
        <time>2015-03-25T18:11:28Z</time>
      </trkpt>
      <trkpt lat="37.359155" lon="-122.133484">
        <ele>118.1</ele>
        <time>2015-03-25T18:11:29Z</time>
      </trkpt>
      <trkpt lat="37.359161" lon="-122.133569">
        <ele>118.9</ele>
        <time>2015-03-25T18:11:32Z</time>
      </trkpt>
      <trkpt lat="37.359163" lon="-122.133592">
        <ele>119</ele>
        <time>2015-03-25T18:11:33Z</time>
      </trkpt>
      <trkpt lat="37.359169" lon="-122.133634">
        <ele>119.3</ele>
        <time>2015-03-25T18:11:34Z</time>
      </trkpt>
      <trkpt lat="37.359174" lon="-122.133668">
        <ele>119.6</ele>
        <time>2015-03-25T18:11:35Z</time>
      </trkpt>
      <trkpt lat="37.359191" lon="-122.133739">
        <ele>120.1</ele>
        <time>2015-03-25T18:11:37Z</time>
      </trkpt>
      <trkpt lat="37.359207" lon="-122.133779">
        <ele>120.4</ele>
        <time>2015-03-25T18:11:38Z</time>
      </trkpt>
      <trkpt lat="37.359243" lon="-122.13386">
        <ele>120.9</ele>
        <time>2015-03-25T18:11:41Z</time>
      </trkpt>
      <trkpt lat="37.359274" lon="-122.133917">
        <ele>121.2</ele>
        <time>2015-03-25T18:11:44Z</time>
      </trkpt>
      <trkpt lat="37.359318" lon="-122.133993">
        <ele>121.6</ele>
        <time>2015-03-25T18:11:46Z</time>
      </trkpt>
      <trkpt lat="37.359336" lon="-122.134023">
        <ele>121.7</ele>
        <time>2015-03-25T18:11:47Z</time>
      </trkpt>
      <trkpt lat="37.359406" lon="-122.134004">
        <ele>122</ele>
        <time>2015-03-25T18:11:49Z</time>
      </trkpt>
      <trkpt lat="37.359439" lon="-122.134061">
        <ele>122.2</ele>
        <time>2015-03-25T18:11:50Z</time>
      </trkpt>
      <trkpt lat="37.359469" lon="-122.134109">
        <ele>122.4</ele>
        <time>2015-03-25T18:11:52Z</time>
      </trkpt>
      <trkpt lat="37.359501" lon="-122.134161">
        <ele>122.6</ele>
        <time>2015-03-25T18:11:54Z</time>
      </trkpt>
      <trkpt lat="37.359518" lon="-122.134191">
        <ele>122.7</ele>
        <time>2015-03-25T18:11:55Z</time>
      </trkpt>
      <trkpt lat="37.359533" lon="-122.134224">
        <ele>122.7</ele>
        <time>2015-03-25T18:11:56Z</time>
      </trkpt>
      <trkpt lat="37.359549" lon="-122.134254">
        <ele>122.9</ele>
        <time>2015-03-25T18:11:57Z</time>
      </trkpt>
      <trkpt lat="37.359588" lon="-122.134303">
        <ele>123.5</ele>
        <time>2015-03-25T18:11:59Z</time>
      </trkpt>
      <trkpt lat="37.359617" lon="-122.134344">
        <ele>124.1</ele>
        <time>2015-03-25T18:12:01Z</time>
      </trkpt>
      <trkpt lat="37.359643" lon="-122.134398">
        <ele>124.1</ele>
        <time>2015-03-25T18:12:03Z</time>
      </trkpt>
      <trkpt lat="37.359662" lon="-122.134447">
        <ele>124.1</ele>
        <time>2015-03-25T18:12:05Z</time>
      </trkpt>
      <trkpt lat="37.359689" lon="-122.134491">
        <ele>124.1</ele>
        <time>2015-03-25T18:12:07Z</time>
      </trkpt>
      <trkpt lat="37.359708" lon="-122.134517">
        <ele>124.2</ele>
        <time>2015-03-25T18:12:08Z</time>
      </trkpt>
      <trkpt lat="37.359748" lon="-122.134562">
        <ele>125</ele>
        <time>2015-03-25T18:12:10Z</time>
      </trkpt>
      <trkpt lat="37.359774" lon="-122.134587">
        <ele>125.5</ele>
        <time>2015-03-25T18:12:11Z</time>
      </trkpt>
      <trkpt lat="37.359797" lon="-122.134613">
        <ele>125.9</ele>
        <time>2015-03-25T18:12:12Z</time>
      </trkpt>
      <trkpt lat="37.359821" lon="-122.13464">
        <ele>125.9</ele>
        <time>2015-03-25T18:12:13Z</time>
      </trkpt>
      <trkpt lat="37.359859" lon="-122.134694">
        <ele>126</ele>
        <time>2015-03-25T18:12:15Z</time>
      </trkpt>
      <trkpt lat="37.359878" lon="-122.134721">
        <ele>126.1</ele>
        <time>2015-03-25T18:12:16Z</time>
      </trkpt>
      <trkpt lat="37.359898" lon="-122.134748">
        <ele>126.3</ele>
        <time>2015-03-25T18:12:17Z</time>
      </trkpt>
      <trkpt lat="37.359916" lon="-122.134776">
        <ele>126.3</ele>
        <time>2015-03-25T18:12:18Z</time>
      </trkpt>
      <trkpt lat="37.359949" lon="-122.13483">
        <ele>126.4</ele>
        <time>2015-03-25T18:12:20Z</time>
      </trkpt>
      <trkpt lat="37.35997" lon="-122.13486">
        <ele>126.5</ele>
        <time>2015-03-25T18:12:21Z</time>
      </trkpt>
      <trkpt lat="37.359991" lon="-122.134887">
        <ele>126.7</ele>
        <time>2015-03-25T18:12:22Z</time>
      </trkpt>
      <trkpt lat="37.36001" lon="-122.134911">
        <ele>126.9</ele>
        <time>2015-03-25T18:12:23Z</time>
      </trkpt>
      <trkpt lat="37.360015" lon="-122.135015">
        <ele>126.4</ele>
        <time>2015-03-25T18:12:26Z</time>
      </trkpt>
      <trkpt lat="37.359988" lon="-122.135079">
        <ele>126.3</ele>
        <time>2015-03-25T18:12:27Z</time>
      </trkpt>
      <trkpt lat="37.360038" lon="-122.135157">
        <ele>126.8</ele>
        <time>2015-03-25T18:12:30Z</time>
      </trkpt>
      <trkpt lat="37.360056" lon="-122.135185">
        <ele>126.9</ele>
        <time>2015-03-25T18:12:31Z</time>
      </trkpt>
      <trkpt lat="37.360073" lon="-122.135213">
        <ele>127.1</ele>
        <time>2015-03-25T18:12:32Z</time>
      </trkpt>
      <trkpt lat="37.360093" lon="-122.135245">
        <ele>127.2</ele>
        <time>2015-03-25T18:12:33Z</time>
      </trkpt>
      <trkpt lat="37.360115" lon="-122.135282">
        <ele>127.4</ele>
        <time>2015-03-25T18:12:35Z</time>
      </trkpt>
      <trkpt lat="37.360154" lon="-122.135344">
        <ele>127.6</ele>
        <time>2015-03-25T18:12:36Z</time>
      </trkpt>
      <trkpt lat="37.360177" lon="-122.135382">
        <ele>127.8</ele>
        <time>2015-03-25T18:12:37Z</time>
      </trkpt>
      <trkpt lat="37.360198" lon="-122.135417">
        <ele>127.9</ele>
        <time>2015-03-25T18:12:38Z</time>
      </trkpt>
      <trkpt lat="37.360217" lon="-122.13545">
        <ele>128</ele>
        <time>2015-03-25T18:12:39Z</time>
      </trkpt>
      <trkpt lat="37.360237" lon="-122.135485">
        <ele>128.2</ele>
        <time>2015-03-25T18:12:40Z</time>
      </trkpt>
      <trkpt lat="37.360269" lon="-122.135546">
        <ele>128.4</ele>
        <time>2015-03-25T18:12:42Z</time>
      </trkpt>
      <trkpt lat="37.360284" lon="-122.135585">
        <ele>128.5</ele>
        <time>2015-03-25T18:12:43Z</time>
      </trkpt>
      <trkpt lat="37.360301" lon="-122.135627">
        <ele>128.4</ele>
        <time>2015-03-25T18:12:44Z</time>
      </trkpt>
      <trkpt lat="37.360314" lon="-122.135661">
        <ele>128.5</ele>
        <time>2015-03-25T18:12:45Z</time>
      </trkpt>
      <trkpt lat="37.360327" lon="-122.135697">
        <ele>128.5</ele>
        <time>2015-03-25T18:12:46Z</time>
      </trkpt>
      <trkpt lat="37.360341" lon="-122.135735">
        <ele>128.5</ele>
        <time>2015-03-25T18:12:47Z</time>
      </trkpt>
      <trkpt lat="37.360355" lon="-122.135774">
        <ele>128.5</ele>
        <time>2015-03-25T18:12:48Z</time>
      </trkpt>
      <trkpt lat="37.360372" lon="-122.135821">
        <ele>128.4</ele>
        <time>2015-03-25T18:12:49Z</time>
      </trkpt>
      <trkpt lat="37.360385" lon="-122.135858">
        <ele>128.3</ele>
        <time>2015-03-25T18:12:50Z</time>
      </trkpt>
      <trkpt lat="37.360402" lon="-122.135907">
        <ele>128.2</ele>
        <time>2015-03-25T18:12:51Z</time>
      </trkpt>
      <trkpt lat="37.360417" lon="-122.135954">
        <ele>128</ele>
        <time>2015-03-25T18:12:52Z</time>
      </trkpt>
      <trkpt lat="37.360434" lon="-122.136002">
        <ele>127.7</ele>
        <time>2015-03-25T18:12:53Z</time>
      </trkpt>
      <trkpt lat="37.360455" lon="-122.136064">
        <ele>127.3</ele>
        <time>2015-03-25T18:12:54Z</time>
      </trkpt>
      <trkpt lat="37.360473" lon="-122.136119">
        <ele>126.9</ele>
        <time>2015-03-25T18:12:55Z</time>
      </trkpt>
      <trkpt lat="37.360495" lon="-122.136184">
        <ele>126.5</ele>
        <time>2015-03-25T18:12:56Z</time>
      </trkpt>
      <trkpt lat="37.360519" lon="-122.136252">
        <ele>126.1</ele>
        <time>2015-03-25T18:12:57Z</time>
      </trkpt>
      <trkpt lat="37.360536" lon="-122.136304">
        <ele>125.6</ele>
        <time>2015-03-25T18:12:58Z</time>
      </trkpt>
      <trkpt lat="37.360565" lon="-122.136387">
        <ele>125.1</ele>
        <time>2015-03-25T18:12:59Z</time>
      </trkpt>
      <trkpt lat="37.360593" lon="-122.136472">
        <ele>124.4</ele>
        <time>2015-03-25T18:13:00Z</time>
      </trkpt>
      <trkpt lat="37.360618" lon="-122.136541">
        <ele>124</ele>
        <time>2015-03-25T18:13:01Z</time>
      </trkpt>
      <trkpt lat="37.360641" lon="-122.136603">
        <ele>123.6</ele>
        <time>2015-03-25T18:13:02Z</time>
      </trkpt>
      <trkpt lat="37.360676" lon="-122.136682">
        <ele>123.1</ele>
        <time>2015-03-25T18:13:03Z</time>
      </trkpt>
      <trkpt lat="37.360714" lon="-122.136742">
        <ele>122.7</ele>
        <time>2015-03-25T18:13:04Z</time>
      </trkpt>
      <trkpt lat="37.360833" lon="-122.13684">
        <ele>121.8</ele>
        <time>2015-03-25T18:13:05Z</time>
      </trkpt>
      <trkpt lat="37.360968" lon="-122.13686">
        <ele>120.9</ele>
        <time>2015-03-25T18:13:07Z</time>
      </trkpt>
      <trkpt lat="37.36118" lon="-122.13676">
        <ele>119.4</ele>
        <time>2015-03-25T18:13:08Z</time>
      </trkpt>
      <trkpt lat="37.361262" lon="-122.136706">
        <ele>118.4</ele>
        <time>2015-03-25T18:13:09Z</time>
      </trkpt>
      <trkpt lat="37.361337" lon="-122.13666">
        <ele>117.8</ele>
        <time>2015-03-25T18:13:10Z</time>
      </trkpt>
      <trkpt lat="37.361401" lon="-122.136628">
        <ele>117.4</ele>
        <time>2015-03-25T18:13:11Z</time>
      </trkpt>
      <trkpt lat="37.361493" lon="-122.136592">
        <ele>116.8</ele>
        <time>2015-03-25T18:13:12Z</time>
      </trkpt>
      <trkpt lat="37.361569" lon="-122.136573">
        <ele>116.4</ele>
        <time>2015-03-25T18:13:13Z</time>
      </trkpt>
      <trkpt lat="37.361688" lon="-122.136552">
        <ele>115.7</ele>
        <time>2015-03-25T18:13:14Z</time>
      </trkpt>
      <trkpt lat="37.36179" lon="-122.136538">
        <ele>115.1</ele>
        <time>2015-03-25T18:13:16Z</time>
      </trkpt>
      <trkpt lat="37.361895" lon="-122.136527">
        <ele>114.4</ele>
        <time>2015-03-25T18:13:17Z</time>
      </trkpt>
      <trkpt lat="37.362102" lon="-122.136502">
        <ele>113.5</ele>
        <time>2015-03-25T18:13:18Z</time>
      </trkpt>
      <trkpt lat="37.362229" lon="-122.136483">
        <ele>112.9</ele>
        <time>2015-03-25T18:13:19Z</time>
      </trkpt>
      <trkpt lat="37.362333" lon="-122.136461">
        <ele>112.2</ele>
        <time>2015-03-25T18:13:20Z</time>
      </trkpt>
      <trkpt lat="37.36245" lon="-122.136433">
        <ele>111.5</ele>
        <time>2015-03-25T18:13:21Z</time>
      </trkpt>
      <trkpt lat="37.362555" lon="-122.136407">
        <ele>110.9</ele>
        <time>2015-03-25T18:13:22Z</time>
      </trkpt>
      <trkpt lat="37.362664" lon="-122.136382">
        <ele>110.4</ele>
        <time>2015-03-25T18:13:23Z</time>
      </trkpt>
      <trkpt lat="37.36277" lon="-122.136359">
        <ele>109.9</ele>
        <time>2015-03-25T18:13:24Z</time>
      </trkpt>
      <trkpt lat="37.362888" lon="-122.136334">
        <ele>109.4</ele>
        <time>2015-03-25T18:13:25Z</time>
      </trkpt>
      <trkpt lat="37.363007" lon="-122.136305">
        <ele>109.1</ele>
        <time>2015-03-25T18:13:26Z</time>
      </trkpt>
      <trkpt lat="37.363098" lon="-122.136281">
        <ele>109</ele>
        <time>2015-03-25T18:13:27Z</time>
      </trkpt>
      <trkpt lat="37.363196" lon="-122.136255">
        <ele>109</ele>
        <time>2015-03-25T18:13:28Z</time>
      </trkpt>
      <trkpt lat="37.363268" lon="-122.136245">
        <ele>109.1</ele>
        <time>2015-03-25T18:13:29Z</time>
      </trkpt>
      <trkpt lat="37.363305" lon="-122.136251">
        <ele>109.1</ele>
        <time>2015-03-25T18:13:30Z</time>
      </trkpt>
      <trkpt lat="37.363338" lon="-122.136265">
        <ele>109.2</ele>
        <time>2015-03-25T18:13:31Z</time>
      </trkpt>
      <trkpt lat="37.363529" lon="-122.13638">
        <ele>110.3</ele>
        <time>2015-03-25T18:13:33Z</time>
      </trkpt>
      <trkpt lat="37.363583" lon="-122.136418">
        <ele>110.8</ele>
        <time>2015-03-25T18:13:34Z</time>
      </trkpt>
      <trkpt lat="37.363621" lon="-122.13645">
        <ele>111.1</ele>
        <time>2015-03-25T18:13:35Z</time>
      </trkpt>
      <trkpt lat="37.36367" lon="-122.136495">
        <ele>111.6</ele>
        <time>2015-03-25T18:13:36Z</time>
      </trkpt>
      <trkpt lat="37.363716" lon="-122.136542">
        <ele>112.1</ele>
        <time>2015-03-25T18:13:37Z</time>
      </trkpt>
      <trkpt lat="37.363751" lon="-122.136582">
        <ele>112.4</ele>
        <time>2015-03-25T18:13:38Z</time>
      </trkpt>
      <trkpt lat="37.363794" lon="-122.136639">
        <ele>112.6</ele>
        <time>2015-03-25T18:13:39Z</time>
      </trkpt>
      <trkpt lat="37.363818" lon="-122.136675">
        <ele>112.8</ele>
        <time>2015-03-25T18:13:40Z</time>
      </trkpt>
      <trkpt lat="37.363856" lon="-122.136737">
        <ele>113.2</ele>
        <time>2015-03-25T18:13:42Z</time>
      </trkpt>
      <trkpt lat="37.363912" lon="-122.136838">
        <ele>113.9</ele>
        <time>2015-03-25T18:13:43Z</time>
      </trkpt>
      <trkpt lat="37.363942" lon="-122.136897">
        <ele>114.3</ele>
        <time>2015-03-25T18:13:44Z</time>
      </trkpt>
      <trkpt lat="37.363963" lon="-122.136942">
        <ele>114.7</ele>
        <time>2015-03-25T18:13:45Z</time>
      </trkpt>
      <trkpt lat="37.363987" lon="-122.136993">
        <ele>115.1</ele>
        <time>2015-03-25T18:13:47Z</time>
      </trkpt>
      <trkpt lat="37.364013" lon="-122.137049">
        <ele>115.7</ele>
        <time>2015-03-25T18:13:48Z</time>
      </trkpt>
      <trkpt lat="37.364053" lon="-122.137137">
        <ele>116.6</ele>
        <time>2015-03-25T18:13:49Z</time>
      </trkpt>
      <trkpt lat="37.364072" lon="-122.137175">
        <ele>117</ele>
        <time>2015-03-25T18:13:50Z</time>
      </trkpt>
      <trkpt lat="37.364102" lon="-122.137227">
        <ele>117.4</ele>
        <time>2015-03-25T18:13:52Z</time>
      </trkpt>
      <trkpt lat="37.364164" lon="-122.13731">
        <ele>118.2</ele>
        <time>2015-03-25T18:13:53Z</time>
      </trkpt>
      <trkpt lat="37.364195" lon="-122.137342">
        <ele>118.5</ele>
        <time>2015-03-25T18:13:54Z</time>
      </trkpt>
      <trkpt lat="37.364226" lon="-122.13737">
        <ele>118.8</ele>
        <time>2015-03-25T18:13:56Z</time>
      </trkpt>
      <trkpt lat="37.364311" lon="-122.137423">
        <ele>119.8</ele>
        <time>2015-03-25T18:13:57Z</time>
      </trkpt>
      <trkpt lat="37.36442" lon="-122.137462">
        <ele>120.8</ele>
        <time>2015-03-25T18:14:00Z</time>
      </trkpt>
      <trkpt lat="37.364494" lon="-122.137471">
        <ele>121.6</ele>
        <time>2015-03-25T18:14:01Z</time>
      </trkpt>
      <trkpt lat="37.364527" lon="-122.137474">
        <ele>121.9</ele>
        <time>2015-03-25T18:14:02Z</time>
      </trkpt>
      <trkpt lat="37.364613" lon="-122.137479">
        <ele>122.8</ele>
        <time>2015-03-25T18:14:03Z</time>
      </trkpt>
      <trkpt lat="37.364656" lon="-122.13748">
        <ele>123.3</ele>
        <time>2015-03-25T18:14:04Z</time>
      </trkpt>
      <trkpt lat="37.36471" lon="-122.137482">
        <ele>123.7</ele>
        <time>2015-03-25T18:14:07Z</time>
      </trkpt>
      <trkpt lat="37.364785" lon="-122.137487">
        <ele>124.5</ele>
        <time>2015-03-25T18:14:08Z</time>
      </trkpt>
      <trkpt lat="37.3648" lon="-122.137488">
        <ele>124.6</ele>
        <time>2015-03-25T18:14:09Z</time>
      </trkpt>
      <trkpt lat="37.364835" lon="-122.137492">
        <ele>124.9</ele>
        <time>2015-03-25T18:14:10Z</time>
      </trkpt>
      <trkpt lat="37.364904" lon="-122.137506">
        <ele>125.5</ele>
        <time>2015-03-25T18:14:13Z</time>
      </trkpt>
      <trkpt lat="37.365018" lon="-122.137363">
        <ele>125.4</ele>
        <time>2015-03-25T18:14:17Z</time>
      </trkpt>
      <trkpt lat="37.365037" lon="-122.137334">
        <ele>125.2</ele>
        <time>2015-03-25T18:14:18Z</time>
      </trkpt>
      <trkpt lat="37.365058" lon="-122.137303">
        <ele>125.1</ele>
        <time>2015-03-25T18:14:19Z</time>
      </trkpt>
      <trkpt lat="37.365081" lon="-122.13727">
        <ele>124.8</ele>
        <time>2015-03-25T18:14:20Z</time>
      </trkpt>
      <trkpt lat="37.365107" lon="-122.137232">
        <ele>124.6</ele>
        <time>2015-03-25T18:14:21Z</time>
      </trkpt>
      <trkpt lat="37.365134" lon="-122.137191">
        <ele>124.3</ele>
        <time>2015-03-25T18:14:22Z</time>
      </trkpt>
      <trkpt lat="37.365166" lon="-122.137145">
        <ele>124</ele>
        <time>2015-03-25T18:14:23Z</time>
      </trkpt>
      <trkpt lat="37.365197" lon="-122.137099">
        <ele>123.7</ele>
        <time>2015-03-25T18:14:24Z</time>
      </trkpt>
      <trkpt lat="37.365226" lon="-122.137057">
        <ele>123.4</ele>
        <time>2015-03-25T18:14:25Z</time>
      </trkpt>
      <trkpt lat="37.365259" lon="-122.137008">
        <ele>123</ele>
        <time>2015-03-25T18:14:26Z</time>
      </trkpt>
      <trkpt lat="37.365305" lon="-122.136941">
        <ele>122.6</ele>
        <time>2015-03-25T18:14:27Z</time>
      </trkpt>
      <trkpt lat="37.365342" lon="-122.136887">
        <ele>122.3</ele>
        <time>2015-03-25T18:14:28Z</time>
      </trkpt>
      <trkpt lat="37.36538" lon="-122.136832">
        <ele>122</ele>
        <time>2015-03-25T18:14:29Z</time>
      </trkpt>
      <trkpt lat="37.365425" lon="-122.136765">
        <ele>121.5</ele>
        <time>2015-03-25T18:14:30Z</time>
      </trkpt>
      <trkpt lat="37.365463" lon="-122.13671">
        <ele>121.2</ele>
        <time>2015-03-25T18:14:31Z</time>
      </trkpt>
      <trkpt lat="37.365502" lon="-122.136652">
        <ele>121</ele>
        <time>2015-03-25T18:14:32Z</time>
      </trkpt>
      <trkpt lat="37.365544" lon="-122.136591">
        <ele>120.8</ele>
        <time>2015-03-25T18:14:33Z</time>
      </trkpt>
      <trkpt lat="37.365584" lon="-122.136532">
        <ele>120.6</ele>
        <time>2015-03-25T18:14:34Z</time>
      </trkpt>
      <trkpt lat="37.365629" lon="-122.136466">
        <ele>120.4</ele>
        <time>2015-03-25T18:14:35Z</time>
      </trkpt>
      <trkpt lat="37.36567" lon="-122.136406">
        <ele>120.2</ele>
        <time>2015-03-25T18:14:36Z</time>
      </trkpt>
      <trkpt lat="37.365718" lon="-122.136336">
        <ele>120</ele>
        <time>2015-03-25T18:14:37Z</time>
      </trkpt>
      <trkpt lat="37.365761" lon="-122.136273">
        <ele>119.8</ele>
        <time>2015-03-25T18:14:38Z</time>
      </trkpt>
      <trkpt lat="37.365804" lon="-122.13621">
        <ele>119.4</ele>
        <time>2015-03-25T18:14:39Z</time>
      </trkpt>
      <trkpt lat="37.365849" lon="-122.136144">
        <ele>118.8</ele>
        <time>2015-03-25T18:14:40Z</time>
      </trkpt>
      <trkpt lat="37.365904" lon="-122.136064">
        <ele>118.1</ele>
        <time>2015-03-25T18:14:41Z</time>
      </trkpt>
      <trkpt lat="37.365962" lon="-122.135979">
        <ele>117.2</ele>
        <time>2015-03-25T18:14:42Z</time>
      </trkpt>
      <trkpt lat="37.366014" lon="-122.135903">
        <ele>116.3</ele>
        <time>2015-03-25T18:14:43Z</time>
      </trkpt>
      <trkpt lat="37.366068" lon="-122.135823">
        <ele>115.5</ele>
        <time>2015-03-25T18:14:44Z</time>
      </trkpt>
      <trkpt lat="37.366127" lon="-122.135736">
        <ele>114.8</ele>
        <time>2015-03-25T18:14:45Z</time>
      </trkpt>
      <trkpt lat="37.36619" lon="-122.135644">
        <ele>114.4</ele>
        <time>2015-03-25T18:14:46Z</time>
      </trkpt>
      <trkpt lat="37.366249" lon="-122.135558">
        <ele>114</ele>
        <time>2015-03-25T18:14:47Z</time>
      </trkpt>
      <trkpt lat="37.366305" lon="-122.135476">
        <ele>113.4</ele>
        <time>2015-03-25T18:14:48Z</time>
      </trkpt>
      <trkpt lat="37.366362" lon="-122.135393">
        <ele>113.1</ele>
        <time>2015-03-25T18:14:49Z</time>
      </trkpt>
      <trkpt lat="37.36642" lon="-122.135309">
        <ele>113.1</ele>
        <time>2015-03-25T18:14:50Z</time>
      </trkpt>
      <trkpt lat="37.366477" lon="-122.135226">
        <ele>112.7</ele>
        <time>2015-03-25T18:14:51Z</time>
      </trkpt>
      <trkpt lat="37.366534" lon="-122.135142">
        <ele>112.1</ele>
        <time>2015-03-25T18:14:52Z</time>
      </trkpt>
      <trkpt lat="37.366584" lon="-122.135068">
        <ele>111.9</ele>
        <time>2015-03-25T18:14:53Z</time>
      </trkpt>
      <trkpt lat="37.36664" lon="-122.134986">
        <ele>111.8</ele>
        <time>2015-03-25T18:14:54Z</time>
      </trkpt>
      <trkpt lat="37.366705" lon="-122.134891">
        <ele>111.6</ele>
        <time>2015-03-25T18:14:55Z</time>
      </trkpt>
      <trkpt lat="37.36676" lon="-122.134812">
        <ele>111.5</ele>
        <time>2015-03-25T18:14:56Z</time>
      </trkpt>
      <trkpt lat="37.36682" lon="-122.134727">
        <ele>111.3</ele>
        <time>2015-03-25T18:14:57Z</time>
      </trkpt>
      <trkpt lat="37.366875" lon="-122.134649">
        <ele>111.3</ele>
        <time>2015-03-25T18:14:58Z</time>
      </trkpt>
      <trkpt lat="37.36693" lon="-122.134571">
        <ele>111.1</ele>
        <time>2015-03-25T18:14:59Z</time>
      </trkpt>
      <trkpt lat="37.366983" lon="-122.134496">
        <ele>111</ele>
        <time>2015-03-25T18:15:00Z</time>
      </trkpt>
      <trkpt lat="37.367038" lon="-122.134418">
        <ele>110.8</ele>
        <time>2015-03-25T18:15:01Z</time>
      </trkpt>
      <trkpt lat="37.367103" lon="-122.134327">
        <ele>110.5</ele>
        <time>2015-03-25T18:15:02Z</time>
      </trkpt>
      <trkpt lat="37.367149" lon="-122.134261">
        <ele>110.3</ele>
        <time>2015-03-25T18:15:03Z</time>
      </trkpt>
      <trkpt lat="37.3672" lon="-122.134189">
        <ele>110</ele>
        <time>2015-03-25T18:15:04Z</time>
      </trkpt>
      <trkpt lat="37.36725" lon="-122.134118">
        <ele>109.7</ele>
        <time>2015-03-25T18:15:05Z</time>
      </trkpt>
      <trkpt lat="37.367297" lon="-122.134051">
        <ele>109.5</ele>
        <time>2015-03-25T18:15:06Z</time>
      </trkpt>
      <trkpt lat="37.367347" lon="-122.13398">
        <ele>109.2</ele>
        <time>2015-03-25T18:15:07Z</time>
      </trkpt>
      <trkpt lat="37.367402" lon="-122.133904">
        <ele>108.7</ele>
        <time>2015-03-25T18:15:08Z</time>
      </trkpt>
      <trkpt lat="37.367453" lon="-122.13383">
        <ele>108.3</ele>
        <time>2015-03-25T18:15:09Z</time>
      </trkpt>
      <trkpt lat="37.367507" lon="-122.133754">
        <ele>108.1</ele>
        <time>2015-03-25T18:15:10Z</time>
      </trkpt>
      <trkpt lat="37.36756" lon="-122.133679">
        <ele>107.9</ele>
        <time>2015-03-25T18:15:11Z</time>
      </trkpt>
      <trkpt lat="37.367615" lon="-122.133601">
        <ele>107.5</ele>
        <time>2015-03-25T18:15:12Z</time>
      </trkpt>
      <trkpt lat="37.367669" lon="-122.133526">
        <ele>107.3</ele>
        <time>2015-03-25T18:15:13Z</time>
      </trkpt>
      <trkpt lat="37.367718" lon="-122.133455">
        <ele>107.1</ele>
        <time>2015-03-25T18:15:14Z</time>
      </trkpt>
      <trkpt lat="37.367767" lon="-122.133386">
        <ele>106.9</ele>
        <time>2015-03-25T18:15:15Z</time>
      </trkpt>
      <trkpt lat="37.367813" lon="-122.133321">
        <ele>106.6</ele>
        <time>2015-03-25T18:15:16Z</time>
      </trkpt>
      <trkpt lat="37.367874" lon="-122.133231">
        <ele>106.1</ele>
        <time>2015-03-25T18:15:17Z</time>
      </trkpt>
      <trkpt lat="37.367924" lon="-122.13313">
        <ele>105.6</ele>
        <time>2015-03-25T18:15:18Z</time>
      </trkpt>
      <trkpt lat="37.367956" lon="-122.133007">
        <ele>105.2</ele>
        <time>2015-03-25T18:15:19Z</time>
      </trkpt>
      <trkpt lat="37.367966" lon="-122.132919">
        <ele>104.9</ele>
        <time>2015-03-25T18:15:20Z</time>
      </trkpt>
      <trkpt lat="37.367965" lon="-122.132803">
        <ele>104.5</ele>
        <time>2015-03-25T18:15:21Z</time>
      </trkpt>
      <trkpt lat="37.36795" lon="-122.132691">
        <ele>104</ele>
        <time>2015-03-25T18:15:22Z</time>
      </trkpt>
      <trkpt lat="37.367927" lon="-122.132584">
        <ele>103.6</ele>
        <time>2015-03-25T18:15:23Z</time>
      </trkpt>
      <trkpt lat="37.367905" lon="-122.132483">
        <ele>103.2</ele>
        <time>2015-03-25T18:15:24Z</time>
      </trkpt>
      <trkpt lat="37.367885" lon="-122.132391">
        <ele>102.9</ele>
        <time>2015-03-25T18:15:25Z</time>
      </trkpt>
      <trkpt lat="37.367855" lon="-122.132253">
        <ele>102.2</ele>
        <time>2015-03-25T18:15:26Z</time>
      </trkpt>
      <trkpt lat="37.367838" lon="-122.132171">
        <ele>101.8</ele>
        <time>2015-03-25T18:15:27Z</time>
      </trkpt>
      <trkpt lat="37.367781" lon="-122.131879">
        <ele>100.4</ele>
        <time>2015-03-25T18:15:29Z</time>
      </trkpt>
      <trkpt lat="37.367762" lon="-122.131777">
        <ele>99.7</ele>
        <time>2015-03-25T18:15:30Z</time>
      </trkpt>
      <trkpt lat="37.367746" lon="-122.131636">
        <ele>98.8</ele>
        <time>2015-03-25T18:15:31Z</time>
      </trkpt>
      <trkpt lat="37.367736" lon="-122.131484">
        <ele>97.8</ele>
        <time>2015-03-25T18:15:32Z</time>
      </trkpt>
      <trkpt lat="37.367733" lon="-122.131381">
        <ele>96.8</ele>
        <time>2015-03-25T18:15:33Z</time>
      </trkpt>
      <trkpt lat="37.36774" lon="-122.131291">
        <ele>96.4</ele>
        <time>2015-03-25T18:15:34Z</time>
      </trkpt>
      <trkpt lat="37.367752" lon="-122.131215">
        <ele>96</ele>
        <time>2015-03-25T18:15:35Z</time>
      </trkpt>
      <trkpt lat="37.367779" lon="-122.131114">
        <ele>95.6</ele>
        <time>2015-03-25T18:15:36Z</time>
      </trkpt>
      <trkpt lat="37.367809" lon="-122.131015">
        <ele>95.3</ele>
        <time>2015-03-25T18:15:37Z</time>
      </trkpt>
      <trkpt lat="37.36784" lon="-122.130908">
        <ele>94.8</ele>
        <time>2015-03-25T18:15:38Z</time>
      </trkpt>
      <trkpt lat="37.367872" lon="-122.130801">
        <ele>94.2</ele>
        <time>2015-03-25T18:15:39Z</time>
      </trkpt>
      <trkpt lat="37.367906" lon="-122.130687">
        <ele>93.7</ele>
        <time>2015-03-25T18:15:40Z</time>
      </trkpt>
      <trkpt lat="37.367943" lon="-122.130584">
        <ele>93.8</ele>
        <time>2015-03-25T18:15:41Z</time>
      </trkpt>
      <trkpt lat="37.367965" lon="-122.130525">
        <ele>94</ele>
        <time>2015-03-25T18:15:42Z</time>
      </trkpt>
      <trkpt lat="37.368001" lon="-122.130448">
        <ele>94.4</ele>
        <time>2015-03-25T18:15:43Z</time>
      </trkpt>
      <trkpt lat="37.368056" lon="-122.130371">
        <ele>94.6</ele>
        <time>2015-03-25T18:15:44Z</time>
      </trkpt>
      <trkpt lat="37.368095" lon="-122.130323">
        <ele>94.7</ele>
        <time>2015-03-25T18:15:45Z</time>
      </trkpt>
      <trkpt lat="37.368153" lon="-122.130257">
        <ele>95</ele>
        <time>2015-03-25T18:15:46Z</time>
      </trkpt>
      <trkpt lat="37.368178" lon="-122.130229">
        <ele>95</ele>
        <time>2015-03-25T18:15:47Z</time>
      </trkpt>
      <trkpt lat="37.368403" lon="-122.130048">
        <ele>95.4</ele>
        <time>2015-03-25T18:15:51Z</time>
      </trkpt>
      <trkpt lat="37.368457" lon="-122.130011">
        <ele>95.4</ele>
        <time>2015-03-25T18:15:52Z</time>
      </trkpt>
      <trkpt lat="37.368483" lon="-122.129994">
        <ele>95.4</ele>
        <time>2015-03-25T18:15:53Z</time>
      </trkpt>
      <trkpt lat="37.368664" lon="-122.129893">
        <ele>95.7</ele>
        <time>2015-03-25T18:15:56Z</time>
      </trkpt>
      <trkpt lat="37.368725" lon="-122.129859">
        <ele>95.7</ele>
        <time>2015-03-25T18:15:57Z</time>
      </trkpt>
      <trkpt lat="37.368781" lon="-122.129829">
        <ele>95.7</ele>
        <time>2015-03-25T18:15:58Z</time>
      </trkpt>
      <trkpt lat="37.368835" lon="-122.129799">
        <ele>95.6</ele>
        <time>2015-03-25T18:15:59Z</time>
      </trkpt>
      <trkpt lat="37.368897" lon="-122.129764">
        <ele>95.6</ele>
        <time>2015-03-25T18:16:00Z</time>
      </trkpt>
      <trkpt lat="37.36894" lon="-122.129741">
        <ele>95.5</ele>
        <time>2015-03-25T18:16:01Z</time>
      </trkpt>
      <trkpt lat="37.368992" lon="-122.129712">
        <ele>95.4</ele>
        <time>2015-03-25T18:16:02Z</time>
      </trkpt>
      <trkpt lat="37.369044" lon="-122.129684">
        <ele>95.4</ele>
        <time>2015-03-25T18:16:03Z</time>
      </trkpt>
      <trkpt lat="37.369095" lon="-122.129655">
        <ele>95.3</ele>
        <time>2015-03-25T18:16:04Z</time>
      </trkpt>
      <trkpt lat="37.369135" lon="-122.129633">
        <ele>95.3</ele>
        <time>2015-03-25T18:16:05Z</time>
      </trkpt>
      <trkpt lat="37.369204" lon="-122.129587">
        <ele>95.1</ele>
        <time>2015-03-25T18:16:06Z</time>
      </trkpt>
      <trkpt lat="37.369255" lon="-122.129548">
        <ele>94.9</ele>
        <time>2015-03-25T18:16:07Z</time>
      </trkpt>
      <trkpt lat="37.369307" lon="-122.129508">
        <ele>94.7</ele>
        <time>2015-03-25T18:16:08Z</time>
      </trkpt>
      <trkpt lat="37.369361" lon="-122.129466">
        <ele>94.5</ele>
        <time>2015-03-25T18:16:09Z</time>
      </trkpt>
      <trkpt lat="37.369405" lon="-122.129429">
        <ele>94.4</ele>
        <time>2015-03-25T18:16:10Z</time>
      </trkpt>
      <trkpt lat="37.369453" lon="-122.129387">
        <ele>94.1</ele>
        <time>2015-03-25T18:16:11Z</time>
      </trkpt>
      <trkpt lat="37.369504" lon="-122.129341">
        <ele>93.9</ele>
        <time>2015-03-25T18:16:12Z</time>
      </trkpt>
      <trkpt lat="37.369558" lon="-122.12929">
        <ele>93.5</ele>
        <time>2015-03-25T18:16:13Z</time>
      </trkpt>
      <trkpt lat="37.369612" lon="-122.12924">
        <ele>93.2</ele>
        <time>2015-03-25T18:16:14Z</time>
      </trkpt>
      <trkpt lat="37.36968" lon="-122.129177">
        <ele>92.6</ele>
        <time>2015-03-25T18:16:15Z</time>
      </trkpt>
      <trkpt lat="37.36972" lon="-122.129139">
        <ele>92.6</ele>
        <time>2015-03-25T18:16:16Z</time>
      </trkpt>
      <trkpt lat="37.369771" lon="-122.129094">
        <ele>92.7</ele>
        <time>2015-03-25T18:16:17Z</time>
      </trkpt>
      <trkpt lat="37.369851" lon="-122.129029">
        <ele>92.6</ele>
        <time>2015-03-25T18:16:18Z</time>
      </trkpt>
      <trkpt lat="37.36991" lon="-122.12899">
        <ele>92.3</ele>
        <time>2015-03-25T18:16:19Z</time>
      </trkpt>
      <trkpt lat="37.36996" lon="-122.128962">
        <ele>92.1</ele>
        <time>2015-03-25T18:16:20Z</time>
      </trkpt>
      <trkpt lat="37.370019" lon="-122.128939">
        <ele>91.8</ele>
        <time>2015-03-25T18:16:21Z</time>
      </trkpt>
      <trkpt lat="37.370083" lon="-122.128921">
        <ele>91.4</ele>
        <time>2015-03-25T18:16:22Z</time>
      </trkpt>
      <trkpt lat="37.370157" lon="-122.128903">
        <ele>91</ele>
        <time>2015-03-25T18:16:23Z</time>
      </trkpt>
      <trkpt lat="37.370257" lon="-122.128884">
        <ele>90.5</ele>
        <time>2015-03-25T18:16:24Z</time>
      </trkpt>
      <trkpt lat="37.370299" lon="-122.128877">
        <ele>90.3</ele>
        <time>2015-03-25T18:16:25Z</time>
      </trkpt>
      <trkpt lat="37.370372" lon="-122.128868">
        <ele>90.1</ele>
        <time>2015-03-25T18:16:26Z</time>
      </trkpt>
      <trkpt lat="37.370434" lon="-122.12886">
        <ele>89.8</ele>
        <time>2015-03-25T18:16:27Z</time>
      </trkpt>
      <trkpt lat="37.370511" lon="-122.128851">
        <ele>89.5</ele>
        <time>2015-03-25T18:16:28Z</time>
      </trkpt>
      <trkpt lat="37.370577" lon="-122.128843">
        <ele>89.2</ele>
        <time>2015-03-25T18:16:29Z</time>
      </trkpt>
      <trkpt lat="37.370637" lon="-122.128832">
        <ele>88.7</ele>
        <time>2015-03-25T18:16:30Z</time>
      </trkpt>
      <trkpt lat="37.370685" lon="-122.128821">
        <ele>88.4</ele>
        <time>2015-03-25T18:16:31Z</time>
      </trkpt>
      <trkpt lat="37.370788" lon="-122.128785">
        <ele>87.3</ele>
        <time>2015-03-25T18:16:32Z</time>
      </trkpt>
      <trkpt lat="37.370884" lon="-122.128745">
        <ele>86.4</ele>
        <time>2015-03-25T18:16:33Z</time>
      </trkpt>
      <trkpt lat="37.370937" lon="-122.128719">
        <ele>85.9</ele>
        <time>2015-03-25T18:16:34Z</time>
      </trkpt>
      <trkpt lat="37.371017" lon="-122.128674">
        <ele>85.3</ele>
        <time>2015-03-25T18:16:35Z</time>
      </trkpt>
      <trkpt lat="37.371076" lon="-122.128637">
        <ele>84.8</ele>
        <time>2015-03-25T18:16:36Z</time>
      </trkpt>
      <trkpt lat="37.371128" lon="-122.128604">
        <ele>84.3</ele>
        <time>2015-03-25T18:16:37Z</time>
      </trkpt>
      <trkpt lat="37.371231" lon="-122.128519">
        <ele>83</ele>
        <time>2015-03-25T18:16:38Z</time>
      </trkpt>
      <trkpt lat="37.371298" lon="-122.128456">
        <ele>82.4</ele>
        <time>2015-03-25T18:16:39Z</time>
      </trkpt>
      <trkpt lat="37.371351" lon="-122.128402">
        <ele>81.7</ele>
        <time>2015-03-25T18:16:40Z</time>
      </trkpt>
      <trkpt lat="37.371419" lon="-122.128326">
        <ele>80.8</ele>
        <time>2015-03-25T18:16:41Z</time>
      </trkpt>
      <trkpt lat="37.371468" lon="-122.128265">
        <ele>80.2</ele>
        <time>2015-03-25T18:16:42Z</time>
      </trkpt>
      <trkpt lat="37.371512" lon="-122.128195">
        <ele>79.5</ele>
        <time>2015-03-25T18:16:43Z</time>
      </trkpt>
      <trkpt lat="37.371557" lon="-122.128106">
        <ele>78.9</ele>
        <time>2015-03-25T18:16:44Z</time>
      </trkpt>
      <trkpt lat="37.3716" lon="-122.128011">
        <ele>78.5</ele>
        <time>2015-03-25T18:16:45Z</time>
      </trkpt>
      <trkpt lat="37.371639" lon="-122.127916">
        <ele>78.2</ele>
        <time>2015-03-25T18:16:46Z</time>
      </trkpt>
      <trkpt lat="37.371654" lon="-122.127881">
        <ele>78.2</ele>
        <time>2015-03-25T18:16:47Z</time>
      </trkpt>
      <trkpt lat="37.371746" lon="-122.12776">
        <ele>77.7</ele>
        <time>2015-03-25T18:16:48Z</time>
      </trkpt>
      <trkpt lat="37.371806" lon="-122.127707">
        <ele>77.8</ele>
        <time>2015-03-25T18:16:49Z</time>
      </trkpt>
      <trkpt lat="37.371904" lon="-122.127649">
        <ele>77.6</ele>
        <time>2015-03-25T18:16:50Z</time>
      </trkpt>
      <trkpt lat="37.37194" lon="-122.127637">
        <ele>78.1</ele>
        <time>2015-03-25T18:16:51Z</time>
      </trkpt>
      <trkpt lat="37.372032" lon="-122.127623">
        <ele>78.1</ele>
        <time>2015-03-25T18:16:52Z</time>
      </trkpt>
      <trkpt lat="37.372095" lon="-122.127615">
        <ele>78</ele>
        <time>2015-03-25T18:16:53Z</time>
      </trkpt>
      <trkpt lat="37.372152" lon="-122.127607">
        <ele>78.2</ele>
        <time>2015-03-25T18:16:54Z</time>
      </trkpt>
      <trkpt lat="37.372369" lon="-122.127615">
        <ele>79.2</ele>
        <time>2015-03-25T18:16:58Z</time>
      </trkpt>
      <trkpt lat="37.372444" lon="-122.12761">
        <ele>78.3</ele>
        <time>2015-03-25T18:16:59Z</time>
      </trkpt>
      <trkpt lat="37.37249" lon="-122.127602">
        <ele>78.1</ele>
        <time>2015-03-25T18:17:00Z</time>
      </trkpt>
      <trkpt lat="37.372551" lon="-122.127598">
        <ele>77</ele>
        <time>2015-03-25T18:17:01Z</time>
      </trkpt>
      <trkpt lat="37.372602" lon="-122.127587">
        <ele>75.4</ele>
        <time>2015-03-25T18:17:02Z</time>
      </trkpt>
      <trkpt lat="37.372669" lon="-122.127561">
        <ele>73.9</ele>
        <time>2015-03-25T18:17:03Z</time>
      </trkpt>
      <trkpt lat="37.372747" lon="-122.12752">
        <ele>73.6</ele>
        <time>2015-03-25T18:17:04Z</time>
      </trkpt>
      <trkpt lat="37.372816" lon="-122.127472">
        <ele>72.3</ele>
        <time>2015-03-25T18:17:05Z</time>
      </trkpt>
      <trkpt lat="37.37283" lon="-122.127346">
        <ele>74.7</ele>
        <time>2015-03-25T18:17:06Z</time>
      </trkpt>
      <trkpt lat="37.372894" lon="-122.127271">
        <ele>74.3</ele>
        <time>2015-03-25T18:17:07Z</time>
      </trkpt>
      <trkpt lat="37.372943" lon="-122.127213">
        <ele>74.2</ele>
        <time>2015-03-25T18:17:08Z</time>
      </trkpt>
      <trkpt lat="37.373002" lon="-122.127138">
        <ele>73.7</ele>
        <time>2015-03-25T18:17:09Z</time>
      </trkpt>
      <trkpt lat="37.373056" lon="-122.12707">
        <ele>73.2</ele>
        <time>2015-03-25T18:17:10Z</time>
      </trkpt>
      <trkpt lat="37.373114" lon="-122.126997">
        <ele>72.9</ele>
        <time>2015-03-25T18:17:11Z</time>
      </trkpt>
      <trkpt lat="37.373167" lon="-122.126941">
        <ele>72.7</ele>
        <time>2015-03-25T18:17:12Z</time>
      </trkpt>
      <trkpt lat="37.373243" lon="-122.126893">
        <ele>73.1</ele>
        <time>2015-03-25T18:17:13Z</time>
      </trkpt>
      <trkpt lat="37.373288" lon="-122.126874">
        <ele>73.2</ele>
        <time>2015-03-25T18:17:14Z</time>
      </trkpt>
      <trkpt lat="37.373378" lon="-122.126861">
        <ele>73.5</ele>
        <time>2015-03-25T18:17:15Z</time>
      </trkpt>
      <trkpt lat="37.373443" lon="-122.126851">
        <ele>73.6</ele>
        <time>2015-03-25T18:17:16Z</time>
      </trkpt>
      <trkpt lat="37.373524" lon="-122.12684">
        <ele>73.5</ele>
        <time>2015-03-25T18:17:17Z</time>
      </trkpt>
      <trkpt lat="37.373587" lon="-122.126832">
        <ele>73.4</ele>
        <time>2015-03-25T18:17:18Z</time>
      </trkpt>
      <trkpt lat="37.373653" lon="-122.12682">
        <ele>73.1</ele>
        <time>2015-03-25T18:17:19Z</time>
      </trkpt>
      <trkpt lat="37.373721" lon="-122.126808">
        <ele>73</ele>
        <time>2015-03-25T18:17:20Z</time>
      </trkpt>
      <trkpt lat="37.373779" lon="-122.126797">
        <ele>72.6</ele>
        <time>2015-03-25T18:17:21Z</time>
      </trkpt>
      <trkpt lat="37.373854" lon="-122.126783">
        <ele>72.1</ele>
        <time>2015-03-25T18:17:22Z</time>
      </trkpt>
      <trkpt lat="37.373929" lon="-122.126769">
        <ele>71.6</ele>
        <time>2015-03-25T18:17:23Z</time>
      </trkpt>
      <trkpt lat="37.374002" lon="-122.126756">
        <ele>70.9</ele>
        <time>2015-03-25T18:17:24Z</time>
      </trkpt>
      <trkpt lat="37.374098" lon="-122.126747">
        <ele>70.4</ele>
        <time>2015-03-25T18:17:25Z</time>
      </trkpt>
      <trkpt lat="37.374173" lon="-122.126747">
        <ele>69.6</ele>
        <time>2015-03-25T18:17:26Z</time>
      </trkpt>
      <trkpt lat="37.374257" lon="-122.126753">
        <ele>69.1</ele>
        <time>2015-03-25T18:17:27Z</time>
      </trkpt>
      <trkpt lat="37.374356" lon="-122.126764">
        <ele>68.6</ele>
        <time>2015-03-25T18:17:28Z</time>
      </trkpt>
      <trkpt lat="37.374446" lon="-122.126774">
        <ele>68.3</ele>
        <time>2015-03-25T18:17:29Z</time>
      </trkpt>
      <trkpt lat="37.37456" lon="-122.126791">
        <ele>67.9</ele>
        <time>2015-03-25T18:17:30Z</time>
      </trkpt>
      <trkpt lat="37.37465" lon="-122.126806">
        <ele>67.7</ele>
        <time>2015-03-25T18:17:31Z</time>
      </trkpt>
      <trkpt lat="37.374738" lon="-122.12682">
        <ele>67.3</ele>
        <time>2015-03-25T18:17:32Z</time>
      </trkpt>
      <trkpt lat="37.374836" lon="-122.126836">
        <ele>67</ele>
        <time>2015-03-25T18:17:33Z</time>
      </trkpt>
      <trkpt lat="37.374923" lon="-122.126851">
        <ele>66.9</ele>
        <time>2015-03-25T18:17:34Z</time>
      </trkpt>
      <trkpt lat="37.375008" lon="-122.126866">
        <ele>66.7</ele>
        <time>2015-03-25T18:17:35Z</time>
      </trkpt>
      <trkpt lat="37.375095" lon="-122.126881">
        <ele>66.2</ele>
        <time>2015-03-25T18:17:36Z</time>
      </trkpt>
      <trkpt lat="37.375172" lon="-122.126895">
        <ele>66.4</ele>
        <time>2015-03-25T18:17:37Z</time>
      </trkpt>
      <trkpt lat="37.37524" lon="-122.126907">
        <ele>66.3</ele>
        <time>2015-03-25T18:17:38Z</time>
      </trkpt>
      <trkpt lat="37.375352" lon="-122.126914">
        <ele>66</ele>
        <time>2015-03-25T18:17:39Z</time>
      </trkpt>
      <trkpt lat="37.375439" lon="-122.126907">
        <ele>65.8</ele>
        <time>2015-03-25T18:17:40Z</time>
      </trkpt>
      <trkpt lat="37.375538" lon="-122.126879">
        <ele>65.5</ele>
        <time>2015-03-25T18:17:41Z</time>
      </trkpt>
      <trkpt lat="37.375623" lon="-122.126852">
        <ele>65.4</ele>
        <time>2015-03-25T18:17:42Z</time>
      </trkpt>
      <trkpt lat="37.375699" lon="-122.126822">
        <ele>65.1</ele>
        <time>2015-03-25T18:17:43Z</time>
      </trkpt>
      <trkpt lat="37.375774" lon="-122.126794">
        <ele>64.9</ele>
        <time>2015-03-25T18:17:44Z</time>
      </trkpt>
      <trkpt lat="37.375854" lon="-122.126765">
        <ele>64.7</ele>
        <time>2015-03-25T18:17:45Z</time>
      </trkpt>
      <trkpt lat="37.375923" lon="-122.12674">
        <ele>64.6</ele>
        <time>2015-03-25T18:17:46Z</time>
      </trkpt>
      <trkpt lat="37.376006" lon="-122.126712">
        <ele>64.4</ele>
        <time>2015-03-25T18:17:47Z</time>
      </trkpt>
      <trkpt lat="37.376076" lon="-122.12669">
        <ele>64.3</ele>
        <time>2015-03-25T18:17:48Z</time>
      </trkpt>
      <trkpt lat="37.376138" lon="-122.12667">
        <ele>64</ele>
        <time>2015-03-25T18:17:49Z</time>
      </trkpt>
      <trkpt lat="37.376222" lon="-122.126649">
        <ele>63.8</ele>
        <time>2015-03-25T18:17:50Z</time>
      </trkpt>
      <trkpt lat="37.376308" lon="-122.126628">
        <ele>63.6</ele>
        <time>2015-03-25T18:17:51Z</time>
      </trkpt>
      <trkpt lat="37.376391" lon="-122.126608">
        <ele>63.4</ele>
        <time>2015-03-25T18:17:52Z</time>
      </trkpt>
      <trkpt lat="37.37647" lon="-122.126588">
        <ele>63.2</ele>
        <time>2015-03-25T18:17:53Z</time>
      </trkpt>
      <trkpt lat="37.376547" lon="-122.126576">
        <ele>62.9</ele>
        <time>2015-03-25T18:17:54Z</time>
      </trkpt>
      <trkpt lat="37.376615" lon="-122.12657">
        <ele>62.8</ele>
        <time>2015-03-25T18:17:55Z</time>
      </trkpt>
      <trkpt lat="37.376658" lon="-122.126568">
        <ele>62.8</ele>
        <time>2015-03-25T18:17:56Z</time>
      </trkpt>
      <trkpt lat="37.376776" lon="-122.126566">
        <ele>62.5</ele>
        <time>2015-03-25T18:17:57Z</time>
      </trkpt>
      <trkpt lat="37.376838" lon="-122.12657">
        <ele>62.4</ele>
        <time>2015-03-25T18:17:58Z</time>
      </trkpt>
      <trkpt lat="37.376932" lon="-122.12657">
        <ele>62.3</ele>
        <time>2015-03-25T18:17:59Z</time>
      </trkpt>
      <trkpt lat="37.377006" lon="-122.12657">
        <ele>62.1</ele>
        <time>2015-03-25T18:18:00Z</time>
      </trkpt>
      <trkpt lat="37.377101" lon="-122.126569">
        <ele>61.9</ele>
        <time>2015-03-25T18:18:01Z</time>
      </trkpt>
      <trkpt lat="37.377174" lon="-122.126569">
        <ele>61.8</ele>
        <time>2015-03-25T18:18:02Z</time>
      </trkpt>
      <trkpt lat="37.377257" lon="-122.126566">
        <ele>61.6</ele>
        <time>2015-03-25T18:18:03Z</time>
      </trkpt>
      <trkpt lat="37.37734" lon="-122.126563">
        <ele>61.4</ele>
        <time>2015-03-25T18:18:04Z</time>
      </trkpt>
      <trkpt lat="37.377407" lon="-122.126559">
        <ele>61.3</ele>
        <time>2015-03-25T18:18:05Z</time>
      </trkpt>
      <trkpt lat="37.377491" lon="-122.126555">
        <ele>61.1</ele>
        <time>2015-03-25T18:18:06Z</time>
      </trkpt>
      <trkpt lat="37.377596" lon="-122.12655">
        <ele>60.9</ele>
        <time>2015-03-25T18:18:07Z</time>
      </trkpt>
      <trkpt lat="37.377653" lon="-122.126546">
        <ele>60.8</ele>
        <time>2015-03-25T18:18:08Z</time>
      </trkpt>
      <trkpt lat="37.377744" lon="-122.126539">
        <ele>60.6</ele>
        <time>2015-03-25T18:18:09Z</time>
      </trkpt>
      <trkpt lat="37.377796" lon="-122.126536">
        <ele>60.5</ele>
        <time>2015-03-25T18:18:10Z</time>
      </trkpt>
      <trkpt lat="37.377892" lon="-122.12653">
        <ele>60.2</ele>
        <time>2015-03-25T18:18:11Z</time>
      </trkpt>
      <trkpt lat="37.377965" lon="-122.126534">
        <ele>60</ele>
        <time>2015-03-25T18:18:12Z</time>
      </trkpt>
      <trkpt lat="37.378006" lon="-122.126537">
        <ele>60.1</ele>
        <time>2015-03-25T18:18:13Z</time>
      </trkpt>
      <trkpt lat="37.378109" lon="-122.126555">
        <ele>59.9</ele>
        <time>2015-03-25T18:18:14Z</time>
      </trkpt>
      <trkpt lat="37.378207" lon="-122.126576">
        <ele>59.7</ele>
        <time>2015-03-25T18:18:15Z</time>
      </trkpt>
      <trkpt lat="37.37825" lon="-122.126583">
        <ele>59.5</ele>
        <time>2015-03-25T18:18:16Z</time>
      </trkpt>
      <trkpt lat="37.378339" lon="-122.126596">
        <ele>59.3</ele>
        <time>2015-03-25T18:18:17Z</time>
      </trkpt>
      <trkpt lat="37.378441" lon="-122.126608">
        <ele>59.3</ele>
        <time>2015-03-25T18:18:18Z</time>
      </trkpt>
      <trkpt lat="37.378502" lon="-122.126601">
        <ele>59.2</ele>
        <time>2015-03-25T18:18:19Z</time>
      </trkpt>
      <trkpt lat="37.378583" lon="-122.126574">
        <ele>59</ele>
        <time>2015-03-25T18:18:20Z</time>
      </trkpt>
      <trkpt lat="37.378686" lon="-122.126531">
        <ele>58.7</ele>
        <time>2015-03-25T18:18:21Z</time>
      </trkpt>
      <trkpt lat="37.378749" lon="-122.126496">
        <ele>58.5</ele>
        <time>2015-03-25T18:18:22Z</time>
      </trkpt>
      <trkpt lat="37.378798" lon="-122.126465">
        <ele>58.5</ele>
        <time>2015-03-25T18:18:23Z</time>
      </trkpt>
      <trkpt lat="37.378864" lon="-122.126418">
        <ele>58.3</ele>
        <time>2015-03-25T18:18:24Z</time>
      </trkpt>
      <trkpt lat="37.37893" lon="-122.12637">
        <ele>58.2</ele>
        <time>2015-03-25T18:18:25Z</time>
      </trkpt>
      <trkpt lat="37.378993" lon="-122.126281">
        <ele>58</ele>
        <time>2015-03-25T18:18:26Z</time>
      </trkpt>
      <trkpt lat="37.379042" lon="-122.126209">
        <ele>57.7</ele>
        <time>2015-03-25T18:18:27Z</time>
      </trkpt>
      <trkpt lat="37.379091" lon="-122.126125">
        <ele>57.6</ele>
        <time>2015-03-25T18:18:28Z</time>
      </trkpt>
      <trkpt lat="37.379134" lon="-122.126049">
        <ele>57.6</ele>
        <time>2015-03-25T18:18:29Z</time>
      </trkpt>
      <trkpt lat="37.379176" lon="-122.125972">
        <ele>57.5</ele>
        <time>2015-03-25T18:18:30Z</time>
      </trkpt>
      <trkpt lat="37.379217" lon="-122.125892">
        <ele>57.2</ele>
        <time>2015-03-25T18:18:32Z</time>
      </trkpt>
      <trkpt lat="37.379302" lon="-122.125727">
        <ele>56.7</ele>
        <time>2015-03-25T18:18:33Z</time>
      </trkpt>
      <trkpt lat="37.379346" lon="-122.125643">
        <ele>56.4</ele>
        <time>2015-03-25T18:18:34Z</time>
      </trkpt>
      <trkpt lat="37.379386" lon="-122.125563">
        <ele>56.4</ele>
        <time>2015-03-25T18:18:35Z</time>
      </trkpt>
      <trkpt lat="37.379429" lon="-122.125478">
        <ele>56.4</ele>
        <time>2015-03-25T18:18:36Z</time>
      </trkpt>
      <trkpt lat="37.37947" lon="-122.125396">
        <ele>56.2</ele>
        <time>2015-03-25T18:18:37Z</time>
      </trkpt>
      <trkpt lat="37.379512" lon="-122.125313">
        <ele>56.3</ele>
        <time>2015-03-25T18:18:38Z</time>
      </trkpt>
      <trkpt lat="37.379555" lon="-122.125229">
        <ele>56.3</ele>
        <time>2015-03-25T18:18:39Z</time>
      </trkpt>
      <trkpt lat="37.379596" lon="-122.125149">
        <ele>56.2</ele>
        <time>2015-03-25T18:18:40Z</time>
      </trkpt>
      <trkpt lat="37.37964" lon="-122.125066">
        <ele>56.1</ele>
        <time>2015-03-25T18:18:41Z</time>
      </trkpt>
      <trkpt lat="37.379681" lon="-122.124987">
        <ele>56</ele>
        <time>2015-03-25T18:18:42Z</time>
      </trkpt>
      <trkpt lat="37.379722" lon="-122.12491">
        <ele>56</ele>
        <time>2015-03-25T18:18:43Z</time>
      </trkpt>
      <trkpt lat="37.379765" lon="-122.12483">
        <ele>55.9</ele>
        <time>2015-03-25T18:18:44Z</time>
      </trkpt>
      <trkpt lat="37.379808" lon="-122.12475">
        <ele>55.7</ele>
        <time>2015-03-25T18:18:45Z</time>
      </trkpt>
      <trkpt lat="37.379846" lon="-122.124682">
        <ele>55.6</ele>
        <time>2015-03-25T18:18:46Z</time>
      </trkpt>
      <trkpt lat="37.379887" lon="-122.124608">
        <ele>55.5</ele>
        <time>2015-03-25T18:18:47Z</time>
      </trkpt>
      <trkpt lat="37.379926" lon="-122.124537">
        <ele>55.4</ele>
        <time>2015-03-25T18:18:48Z</time>
      </trkpt>
      <trkpt lat="37.379964" lon="-122.12447">
        <ele>55.2</ele>
        <time>2015-03-25T18:18:49Z</time>
      </trkpt>
      <trkpt lat="37.380002" lon="-122.124402">
        <ele>54.9</ele>
        <time>2015-03-25T18:18:50Z</time>
      </trkpt>
      <trkpt lat="37.380047" lon="-122.124325">
        <ele>54.5</ele>
        <time>2015-03-25T18:18:51Z</time>
      </trkpt>
      <trkpt lat="37.380086" lon="-122.124263">
        <ele>54.3</ele>
        <time>2015-03-25T18:18:52Z</time>
      </trkpt>
      <trkpt lat="37.38013" lon="-122.124194">
        <ele>54.1</ele>
        <time>2015-03-25T18:18:53Z</time>
      </trkpt>
      <trkpt lat="37.380166" lon="-122.124139">
        <ele>54</ele>
        <time>2015-03-25T18:18:54Z</time>
      </trkpt>
      <trkpt lat="37.380192" lon="-122.1241">
        <ele>54</ele>
        <time>2015-03-25T18:18:55Z</time>
      </trkpt>
      <trkpt lat="37.380229" lon="-122.124163">
        <ele>54</ele>
        <time>2015-03-25T18:18:57Z</time>
      </trkpt>
      <trkpt lat="37.380263" lon="-122.124234">
        <ele>54</ele>
        <time>2015-03-25T18:18:59Z</time>
      </trkpt>
      <trkpt lat="37.380281" lon="-122.124266">
        <ele>54.1</ele>
        <time>2015-03-25T18:19:00Z</time>
      </trkpt>
      <trkpt lat="37.380316" lon="-122.124335">
        <ele>54.2</ele>
        <time>2015-03-25T18:19:01Z</time>
      </trkpt>
      <trkpt lat="37.38034" lon="-122.124382">
        <ele>54.4</ele>
        <time>2015-03-25T18:19:02Z</time>
      </trkpt>
      <trkpt lat="37.380356" lon="-122.124413">
        <ele>54.5</ele>
        <time>2015-03-25T18:19:03Z</time>
      </trkpt>
      <trkpt lat="37.380372" lon="-122.124445">
        <ele>54.5</ele>
        <time>2015-03-25T18:19:04Z</time>
      </trkpt>
      <trkpt lat="37.380388" lon="-122.124477">
        <ele>54.5</ele>
        <time>2015-03-25T18:19:05Z</time>
      </trkpt>
      <trkpt lat="37.380424" lon="-122.124539">
        <ele>54.5</ele>
        <time>2015-03-25T18:19:07Z</time>
      </trkpt>
      <trkpt lat="37.380595" lon="-122.124363">
        <ele>53.9</ele>
        <time>2015-03-25T18:19:09Z</time>
      </trkpt>
      <trkpt lat="37.380631" lon="-122.124312">
        <ele>53.7</ele>
        <time>2015-03-25T18:19:10Z</time>
      </trkpt>
      <trkpt lat="37.380667" lon="-122.124262">
        <ele>53.6</ele>
        <time>2015-03-25T18:19:11Z</time>
      </trkpt>
      <trkpt lat="37.380709" lon="-122.124204">
        <ele>53.6</ele>
        <time>2015-03-25T18:19:12Z</time>
      </trkpt>
      <trkpt lat="37.380748" lon="-122.124149">
        <ele>53.5</ele>
        <time>2015-03-25T18:19:13Z</time>
      </trkpt>
      <trkpt lat="37.380784" lon="-122.124099">
        <ele>53.4</ele>
        <time>2015-03-25T18:19:14Z</time>
      </trkpt>
      <trkpt lat="37.380822" lon="-122.124047">
        <ele>53.4</ele>
        <time>2015-03-25T18:19:15Z</time>
      </trkpt>
      <trkpt lat="37.380858" lon="-122.123997">
        <ele>53.5</ele>
        <time>2015-03-25T18:19:16Z</time>
      </trkpt>
      <trkpt lat="37.380894" lon="-122.123946">
        <ele>53.5</ele>
        <time>2015-03-25T18:19:17Z</time>
      </trkpt>
      <trkpt lat="37.380927" lon="-122.123902">
        <ele>53.4</ele>
        <time>2015-03-25T18:19:18Z</time>
      </trkpt>
      <trkpt lat="37.380961" lon="-122.123854">
        <ele>53.3</ele>
        <time>2015-03-25T18:19:19Z</time>
      </trkpt>
      <trkpt lat="37.380991" lon="-122.123811">
        <ele>53.3</ele>
        <time>2015-03-25T18:19:20Z</time>
      </trkpt>
      <trkpt lat="37.381027" lon="-122.123759">
        <ele>53.4</ele>
        <time>2015-03-25T18:19:21Z</time>
      </trkpt>
      <trkpt lat="37.381059" lon="-122.123709">
        <ele>53.6</ele>
        <time>2015-03-25T18:19:22Z</time>
      </trkpt>
      <trkpt lat="37.38109" lon="-122.123662">
        <ele>53.8</ele>
        <time>2015-03-25T18:19:23Z</time>
      </trkpt>
      <trkpt lat="37.381117" lon="-122.123622">
        <ele>53.9</ele>
        <time>2015-03-25T18:19:24Z</time>
      </trkpt>
      <trkpt lat="37.381156" lon="-122.123561">
        <ele>54.1</ele>
        <time>2015-03-25T18:19:25Z</time>
      </trkpt>
      <trkpt lat="37.381188" lon="-122.123511">
        <ele>54.3</ele>
        <time>2015-03-25T18:19:26Z</time>
      </trkpt>
      <trkpt lat="37.381219" lon="-122.123455">
        <ele>54.3</ele>
        <time>2015-03-25T18:19:27Z</time>
      </trkpt>
      <trkpt lat="37.381247" lon="-122.123401">
        <ele>54.4</ele>
        <time>2015-03-25T18:19:29Z</time>
      </trkpt>
      <trkpt lat="37.381271" lon="-122.123349">
        <ele>54.5</ele>
        <time>2015-03-25T18:19:30Z</time>
      </trkpt>
      <trkpt lat="37.381292" lon="-122.123291">
        <ele>54.6</ele>
        <time>2015-03-25T18:19:31Z</time>
      </trkpt>
      <trkpt lat="37.381314" lon="-122.12317">
        <ele>54.8</ele>
        <time>2015-03-25T18:19:32Z</time>
      </trkpt>
      <trkpt lat="37.381323" lon="-122.123106">
        <ele>55</ele>
        <time>2015-03-25T18:19:34Z</time>
      </trkpt>
      <trkpt lat="37.381324" lon="-122.123017">
        <ele>55.3</ele>
        <time>2015-03-25T18:19:35Z</time>
      </trkpt>
      <trkpt lat="37.381324" lon="-122.122678">
        <ele>56.2</ele>
        <time>2015-03-25T18:19:39Z</time>
      </trkpt>
      <trkpt lat="37.381324" lon="-122.122599">
        <ele>56.4</ele>
        <time>2015-03-25T18:19:40Z</time>
      </trkpt>
      <trkpt lat="37.381323" lon="-122.122539">
        <ele>56.6</ele>
        <time>2015-03-25T18:19:41Z</time>
      </trkpt>
      <trkpt lat="37.381323" lon="-122.122466">
        <ele>56.7</ele>
        <time>2015-03-25T18:19:43Z</time>
      </trkpt>
      <trkpt lat="37.381323" lon="-122.122407">
        <ele>56.8</ele>
        <time>2015-03-25T18:19:44Z</time>
      </trkpt>
      <trkpt lat="37.381323" lon="-122.12227">
        <ele>57</ele>
        <time>2015-03-25T18:19:45Z</time>
      </trkpt>
      <trkpt lat="37.381323" lon="-122.122209">
        <ele>57.1</ele>
        <time>2015-03-25T18:19:46Z</time>
      </trkpt>
      <trkpt lat="37.381323" lon="-122.122172">
        <ele>57.1</ele>
        <time>2015-03-25T18:19:47Z</time>
      </trkpt>
      <trkpt lat="37.381323" lon="-122.122118">
        <ele>57.2</ele>
        <time>2015-03-25T18:19:49Z</time>
      </trkpt>
      <trkpt lat="37.381322" lon="-122.122022">
        <ele>57.3</ele>
        <time>2015-03-25T18:19:50Z</time>
      </trkpt>
      <trkpt lat="37.381322" lon="-122.121977">
        <ele>57.4</ele>
        <time>2015-03-25T18:19:51Z</time>
      </trkpt>
      <trkpt lat="37.381322" lon="-122.121931">
        <ele>57.4</ele>
        <time>2015-03-25T18:19:52Z</time>
      </trkpt>
      <trkpt lat="37.381322" lon="-122.121863">
        <ele>57.4</ele>
        <time>2015-03-25T18:19:53Z</time>
      </trkpt>
      <trkpt lat="37.381318" lon="-122.121707">
        <ele>57.3</ele>
        <time>2015-03-25T18:19:55Z</time>
      </trkpt>
      <trkpt lat="37.38132" lon="-122.121506">
        <ele>57.2</ele>
        <time>2015-03-25T18:19:58Z</time>
      </trkpt>
      <trkpt lat="37.381321" lon="-122.12146">
        <ele>57.2</ele>
        <time>2015-03-25T18:19:59Z</time>
      </trkpt>
      <trkpt lat="37.381322" lon="-122.121404">
        <ele>57.2</ele>
        <time>2015-03-25T18:20:00Z</time>
      </trkpt>
      <trkpt lat="37.381323" lon="-122.121366">
        <ele>57.2</ele>
        <time>2015-03-25T18:20:02Z</time>
      </trkpt>
      <trkpt lat="37.381327" lon="-122.121267">
        <ele>57.5</ele>
        <time>2015-03-25T18:20:11Z</time>
      </trkpt>
      <trkpt lat="37.38133" lon="-122.121228">
        <ele>57.5</ele>
        <time>2015-03-25T18:20:12Z</time>
      </trkpt>
      <trkpt lat="37.381333" lon="-122.12117">
        <ele>57.3</ele>
        <time>2015-03-25T18:20:13Z</time>
      </trkpt>
      <trkpt lat="37.381337" lon="-122.121062">
        <ele>57.2</ele>
        <time>2015-03-25T18:20:16Z</time>
      </trkpt>
      <trkpt lat="37.381339" lon="-122.121021">
        <ele>57.1</ele>
        <time>2015-03-25T18:20:17Z</time>
      </trkpt>
      <trkpt lat="37.381342" lon="-122.120932">
        <ele>57.1</ele>
        <time>2015-03-25T18:20:18Z</time>
      </trkpt>
      <trkpt lat="37.381343" lon="-122.120897">
        <ele>57.1</ele>
        <time>2015-03-25T18:20:20Z</time>
      </trkpt>
      <trkpt lat="37.381349" lon="-122.120774">
        <ele>57</ele>
        <time>2015-03-25T18:20:22Z</time>
      </trkpt>
      <trkpt lat="37.381351" lon="-122.120736">
        <ele>57</ele>
        <time>2015-03-25T18:20:24Z</time>
      </trkpt>
      <trkpt lat="37.381353" lon="-122.120684">
        <ele>57</ele>
        <time>2015-03-25T18:20:25Z</time>
      </trkpt>
      <trkpt lat="37.381354" lon="-122.120645">
        <ele>57</ele>
        <time>2015-03-25T18:20:26Z</time>
      </trkpt>
      <trkpt lat="37.381357" lon="-122.120582">
        <ele>57</ele>
        <time>2015-03-25T18:20:27Z</time>
      </trkpt>
      <trkpt lat="37.381358" lon="-122.120557">
        <ele>57</ele>
        <time>2015-03-25T18:20:28Z</time>
      </trkpt>
      <trkpt lat="37.38136" lon="-122.120516">
        <ele>56.9</ele>
        <time>2015-03-25T18:20:41Z</time>
      </trkpt>
      <trkpt lat="37.381526" lon="-122.120595">
        <ele>56.5</ele>
        <time>2015-03-25T18:20:47Z</time>
      </trkpt>
      <trkpt lat="37.38156" lon="-122.120615">
        <ele>56.4</ele>
        <time>2015-03-25T18:20:48Z</time>
      </trkpt>
      <trkpt lat="37.381608" lon="-122.120645">
        <ele>56.3</ele>
        <time>2015-03-25T18:20:49Z</time>
      </trkpt>
      <trkpt lat="37.381669" lon="-122.120682">
        <ele>56.1</ele>
        <time>2015-03-25T18:20:50Z</time>
      </trkpt>
      <trkpt lat="37.381921" lon="-122.120772">
        <ele>55.5</ele>
        <time>2015-03-25T18:20:54Z</time>
      </trkpt>
      <trkpt lat="37.382009" lon="-122.12078">
        <ele>55.4</ele>
        <time>2015-03-25T18:20:55Z</time>
      </trkpt>
      <trkpt lat="37.382071" lon="-122.120781">
        <ele>55.2</ele>
        <time>2015-03-25T18:20:56Z</time>
      </trkpt>
      <trkpt lat="37.382146" lon="-122.120783">
        <ele>55</ele>
        <time>2015-03-25T18:20:57Z</time>
      </trkpt>
      <trkpt lat="37.382214" lon="-122.120784">
        <ele>54.8</ele>
        <time>2015-03-25T18:20:58Z</time>
      </trkpt>
      <trkpt lat="37.382278" lon="-122.120785">
        <ele>54.6</ele>
        <time>2015-03-25T18:20:59Z</time>
      </trkpt>
      <trkpt lat="37.382339" lon="-122.120787">
        <ele>54.4</ele>
        <time>2015-03-25T18:21:00Z</time>
      </trkpt>
      <trkpt lat="37.38241" lon="-122.120788">
        <ele>54.2</ele>
        <time>2015-03-25T18:21:01Z</time>
      </trkpt>
      <trkpt lat="37.382472" lon="-122.120789">
        <ele>54.2</ele>
        <time>2015-03-25T18:21:02Z</time>
      </trkpt>
      <trkpt lat="37.382727" lon="-122.120791">
        <ele>53.7</ele>
        <time>2015-03-25T18:21:06Z</time>
      </trkpt>
      <trkpt lat="37.382798" lon="-122.120792">
        <ele>53.5</ele>
        <time>2015-03-25T18:21:07Z</time>
      </trkpt>
      <trkpt lat="37.382865" lon="-122.120792">
        <ele>53.4</ele>
        <time>2015-03-25T18:21:08Z</time>
      </trkpt>
      <trkpt lat="37.382931" lon="-122.120793">
        <ele>53.2</ele>
        <time>2015-03-25T18:21:09Z</time>
      </trkpt>
      <trkpt lat="37.382998" lon="-122.120793">
        <ele>53</ele>
        <time>2015-03-25T18:21:10Z</time>
      </trkpt>
      <trkpt lat="37.383059" lon="-122.120793">
        <ele>52.9</ele>
        <time>2015-03-25T18:21:11Z</time>
      </trkpt>
      <trkpt lat="37.383127" lon="-122.120794">
        <ele>52.7</ele>
        <time>2015-03-25T18:21:12Z</time>
      </trkpt>
      <trkpt lat="37.383194" lon="-122.120794">
        <ele>52.5</ele>
        <time>2015-03-25T18:21:13Z</time>
      </trkpt>
      <trkpt lat="37.383267" lon="-122.120795">
        <ele>52.3</ele>
        <time>2015-03-25T18:21:14Z</time>
      </trkpt>
      <trkpt lat="37.383524" lon="-122.120796">
        <ele>51.8</ele>
        <time>2015-03-25T18:21:18Z</time>
      </trkpt>
      <trkpt lat="37.38359" lon="-122.120796">
        <ele>51.5</ele>
        <time>2015-03-25T18:21:19Z</time>
      </trkpt>
      <trkpt lat="37.383652" lon="-122.120796">
        <ele>51.4</ele>
        <time>2015-03-25T18:21:20Z</time>
      </trkpt>
      <trkpt lat="37.383724" lon="-122.120796">
        <ele>51.2</ele>
        <time>2015-03-25T18:21:21Z</time>
      </trkpt>
      <trkpt lat="37.383792" lon="-122.120796">
        <ele>51</ele>
        <time>2015-03-25T18:21:22Z</time>
      </trkpt>
      <trkpt lat="37.383863" lon="-122.120796">
        <ele>50.9</ele>
        <time>2015-03-25T18:21:23Z</time>
      </trkpt>
      <trkpt lat="37.383935" lon="-122.120796">
        <ele>50.7</ele>
        <time>2015-03-25T18:21:24Z</time>
      </trkpt>
      <trkpt lat="37.384008" lon="-122.120797">
        <ele>50.6</ele>
        <time>2015-03-25T18:21:25Z</time>
      </trkpt>
      <trkpt lat="37.384079" lon="-122.120797">
        <ele>50.3</ele>
        <time>2015-03-25T18:21:26Z</time>
      </trkpt>
      <trkpt lat="37.384167" lon="-122.120797">
        <ele>50.2</ele>
        <time>2015-03-25T18:21:27Z</time>
      </trkpt>
      <trkpt lat="37.384243" lon="-122.120797">
        <ele>50</ele>
        <time>2015-03-25T18:21:28Z</time>
      </trkpt>
      <trkpt lat="37.384323" lon="-122.120797">
        <ele>49.8</ele>
        <time>2015-03-25T18:21:29Z</time>
      </trkpt>
      <trkpt lat="37.384394" lon="-122.120797">
        <ele>49.6</ele>
        <time>2015-03-25T18:21:30Z</time>
      </trkpt>
      <trkpt lat="37.384471" lon="-122.120797">
        <ele>49.3</ele>
        <time>2015-03-25T18:21:31Z</time>
      </trkpt>
      <trkpt lat="37.384549" lon="-122.120798">
        <ele>49.1</ele>
        <time>2015-03-25T18:21:32Z</time>
      </trkpt>
      <trkpt lat="37.384782" lon="-122.120798">
        <ele>48.4</ele>
        <time>2015-03-25T18:21:35Z</time>
      </trkpt>
      <trkpt lat="37.384859" lon="-122.120798">
        <ele>48.2</ele>
        <time>2015-03-25T18:21:36Z</time>
      </trkpt>
      <trkpt lat="37.384904" lon="-122.120798">
        <ele>48.2</ele>
        <time>2015-03-25T18:21:37Z</time>
      </trkpt>
      <trkpt lat="37.385013" lon="-122.120798">
        <ele>47.7</ele>
        <time>2015-03-25T18:21:38Z</time>
      </trkpt>
      <trkpt lat="37.3851" lon="-122.120798">
        <ele>47.5</ele>
        <time>2015-03-25T18:21:39Z</time>
      </trkpt>
      <trkpt lat="37.385181" lon="-122.120799">
        <ele>47.2</ele>
        <time>2015-03-25T18:21:40Z</time>
      </trkpt>
      <trkpt lat="37.38524" lon="-122.120799">
        <ele>47.1</ele>
        <time>2015-03-25T18:21:41Z</time>
      </trkpt>
      <trkpt lat="37.38534" lon="-122.120801">
        <ele>46.8</ele>
        <time>2015-03-25T18:21:42Z</time>
      </trkpt>
      <trkpt lat="37.385427" lon="-122.120802">
        <ele>46.6</ele>
        <time>2015-03-25T18:21:43Z</time>
      </trkpt>
      <trkpt lat="37.3855" lon="-122.120803">
        <ele>46.4</ele>
        <time>2015-03-25T18:21:44Z</time>
      </trkpt>
      <trkpt lat="37.38557" lon="-122.120804">
        <ele>46.2</ele>
        <time>2015-03-25T18:21:45Z</time>
      </trkpt>
      <trkpt lat="37.385646" lon="-122.120806">
        <ele>46.1</ele>
        <time>2015-03-25T18:21:46Z</time>
      </trkpt>
      <trkpt lat="37.38572" lon="-122.120807">
        <ele>45.9</ele>
        <time>2015-03-25T18:21:47Z</time>
      </trkpt>
      <trkpt lat="37.385794" lon="-122.120808">
        <ele>45.7</ele>
        <time>2015-03-25T18:21:48Z</time>
      </trkpt>
      <trkpt lat="37.385872" lon="-122.120809">
        <ele>45.6</ele>
        <time>2015-03-25T18:21:49Z</time>
      </trkpt>
      <trkpt lat="37.385952" lon="-122.12081">
        <ele>45.5</ele>
        <time>2015-03-25T18:21:50Z</time>
      </trkpt>
      <trkpt lat="37.386036" lon="-122.12081">
        <ele>45.4</ele>
        <time>2015-03-25T18:21:51Z</time>
      </trkpt>
      <trkpt lat="37.386106" lon="-122.12081">
        <ele>45.2</ele>
        <time>2015-03-25T18:21:52Z</time>
      </trkpt>
      <trkpt lat="37.386178" lon="-122.120808">
        <ele>45.2</ele>
        <time>2015-03-25T18:21:53Z</time>
      </trkpt>
      <trkpt lat="37.386261" lon="-122.120807">
        <ele>45</ele>
        <time>2015-03-25T18:21:54Z</time>
      </trkpt>
      <trkpt lat="37.386334" lon="-122.120807">
        <ele>44.9</ele>
        <time>2015-03-25T18:21:55Z</time>
      </trkpt>
      <trkpt lat="37.386412" lon="-122.120807">
        <ele>44.7</ele>
        <time>2015-03-25T18:21:56Z</time>
      </trkpt>
      <trkpt lat="37.386482" lon="-122.120808">
        <ele>44.6</ele>
        <time>2015-03-25T18:21:57Z</time>
      </trkpt>
      <trkpt lat="37.386561" lon="-122.120808">
        <ele>44.5</ele>
        <time>2015-03-25T18:21:58Z</time>
      </trkpt>
      <trkpt lat="37.386637" lon="-122.120808">
        <ele>44.3</ele>
        <time>2015-03-25T18:21:59Z</time>
      </trkpt>
      <trkpt lat="37.386716" lon="-122.120808">
        <ele>44.3</ele>
        <time>2015-03-25T18:22:00Z</time>
      </trkpt>
      <trkpt lat="37.386797" lon="-122.120808">
        <ele>44.1</ele>
        <time>2015-03-25T18:22:01Z</time>
      </trkpt>
      <trkpt lat="37.386868" lon="-122.120808">
        <ele>44</ele>
        <time>2015-03-25T18:22:02Z</time>
      </trkpt>
      <trkpt lat="37.38696" lon="-122.120808">
        <ele>44</ele>
        <time>2015-03-25T18:22:03Z</time>
      </trkpt>
      <trkpt lat="37.387037" lon="-122.120807">
        <ele>43.9</ele>
        <time>2015-03-25T18:22:04Z</time>
      </trkpt>
      <trkpt lat="37.387113" lon="-122.120807">
        <ele>43.9</ele>
        <time>2015-03-25T18:22:05Z</time>
      </trkpt>
      <trkpt lat="37.387192" lon="-122.120806">
        <ele>43.9</ele>
        <time>2015-03-25T18:22:06Z</time>
      </trkpt>
      <trkpt lat="37.387265" lon="-122.120806">
        <ele>43.8</ele>
        <time>2015-03-25T18:22:07Z</time>
      </trkpt>
      <trkpt lat="37.38734" lon="-122.120805">
        <ele>43.7</ele>
        <time>2015-03-25T18:22:08Z</time>
      </trkpt>
      <trkpt lat="37.387413" lon="-122.120805">
        <ele>43.6</ele>
        <time>2015-03-25T18:22:09Z</time>
      </trkpt>
      <trkpt lat="37.387486" lon="-122.120804">
        <ele>43.5</ele>
        <time>2015-03-25T18:22:10Z</time>
      </trkpt>
      <trkpt lat="37.387557" lon="-122.120803">
        <ele>43.4</ele>
        <time>2015-03-25T18:22:11Z</time>
      </trkpt>
      <trkpt lat="37.38763" lon="-122.120803">
        <ele>43.4</ele>
        <time>2015-03-25T18:22:12Z</time>
      </trkpt>
      <trkpt lat="37.387691" lon="-122.120802">
        <ele>43.3</ele>
        <time>2015-03-25T18:22:13Z</time>
      </trkpt>
      <trkpt lat="37.387908" lon="-122.120799">
        <ele>43</ele>
        <time>2015-03-25T18:22:16Z</time>
      </trkpt>
      <trkpt lat="37.388009" lon="-122.120799">
        <ele>42.9</ele>
        <time>2015-03-25T18:22:17Z</time>
      </trkpt>
      <trkpt lat="37.38808" lon="-122.120799">
        <ele>42.8</ele>
        <time>2015-03-25T18:22:18Z</time>
      </trkpt>
      <trkpt lat="37.388153" lon="-122.120799">
        <ele>42.7</ele>
        <time>2015-03-25T18:22:19Z</time>
      </trkpt>
      <trkpt lat="37.388225" lon="-122.120799">
        <ele>42.6</ele>
        <time>2015-03-25T18:22:20Z</time>
      </trkpt>
      <trkpt lat="37.388295" lon="-122.120799">
        <ele>42.4</ele>
        <time>2015-03-25T18:22:21Z</time>
      </trkpt>
      <trkpt lat="37.388367" lon="-122.120799">
        <ele>42.4</ele>
        <time>2015-03-25T18:22:22Z</time>
      </trkpt>
      <trkpt lat="37.388432" lon="-122.120799">
        <ele>42.3</ele>
        <time>2015-03-25T18:22:23Z</time>
      </trkpt>
      <trkpt lat="37.388492" lon="-122.120799">
        <ele>42.3</ele>
        <time>2015-03-25T18:22:24Z</time>
      </trkpt>
      <trkpt lat="37.388541" lon="-122.120799">
        <ele>42.3</ele>
        <time>2015-03-25T18:22:25Z</time>
      </trkpt>
      <trkpt lat="37.388793" lon="-122.120797">
        <ele>42</ele>
        <time>2015-03-25T18:22:29Z</time>
      </trkpt>
      <trkpt lat="37.388866" lon="-122.120796">
        <ele>41.9</ele>
        <time>2015-03-25T18:22:30Z</time>
      </trkpt>
      <trkpt lat="37.38893" lon="-122.120795">
        <ele>41.9</ele>
        <time>2015-03-25T18:22:31Z</time>
      </trkpt>
      <trkpt lat="37.38899" lon="-122.120794">
        <ele>41.8</ele>
        <time>2015-03-25T18:22:32Z</time>
      </trkpt>
      <trkpt lat="37.389046" lon="-122.120793">
        <ele>41.7</ele>
        <time>2015-03-25T18:22:33Z</time>
      </trkpt>
      <trkpt lat="37.389111" lon="-122.120792">
        <ele>41.7</ele>
        <time>2015-03-25T18:22:34Z</time>
      </trkpt>
      <trkpt lat="37.389185" lon="-122.120791">
        <ele>41.6</ele>
        <time>2015-03-25T18:22:35Z</time>
      </trkpt>
      <trkpt lat="37.389248" lon="-122.12079">
        <ele>41.6</ele>
        <time>2015-03-25T18:22:36Z</time>
      </trkpt>
      <trkpt lat="37.389313" lon="-122.120789">
        <ele>41.5</ele>
        <time>2015-03-25T18:22:37Z</time>
      </trkpt>
      <trkpt lat="37.389375" lon="-122.120788">
        <ele>41.4</ele>
        <time>2015-03-25T18:22:38Z</time>
      </trkpt>
      <trkpt lat="37.389635" lon="-122.120788">
        <ele>41.1</ele>
        <time>2015-03-25T18:22:42Z</time>
      </trkpt>
      <trkpt lat="37.389689" lon="-122.120788">
        <ele>41</ele>
        <time>2015-03-25T18:22:43Z</time>
      </trkpt>
      <trkpt lat="37.389753" lon="-122.120788">
        <ele>41</ele>
        <time>2015-03-25T18:22:44Z</time>
      </trkpt>
      <trkpt lat="37.389813" lon="-122.120788">
        <ele>41</ele>
        <time>2015-03-25T18:22:45Z</time>
      </trkpt>
      <trkpt lat="37.389871" lon="-122.120788">
        <ele>41</ele>
        <time>2015-03-25T18:22:46Z</time>
      </trkpt>
      <trkpt lat="37.38992" lon="-122.120788">
        <ele>40.9</ele>
        <time>2015-03-25T18:22:47Z</time>
      </trkpt>
      <trkpt lat="37.38998" lon="-122.120788">
        <ele>40.8</ele>
        <time>2015-03-25T18:22:48Z</time>
      </trkpt>
      <trkpt lat="37.390039" lon="-122.120788">
        <ele>40.8</ele>
        <time>2015-03-25T18:22:49Z</time>
      </trkpt>
      <trkpt lat="37.390082" lon="-122.120788">
        <ele>40.7</ele>
        <time>2015-03-25T18:22:50Z</time>
      </trkpt>
      <trkpt lat="37.390136" lon="-122.120788">
        <ele>40.7</ele>
        <time>2015-03-25T18:22:51Z</time>
      </trkpt>
      <trkpt lat="37.390194" lon="-122.120788">
        <ele>40.6</ele>
        <time>2015-03-25T18:22:52Z</time>
      </trkpt>
      <trkpt lat="37.390244" lon="-122.120788">
        <ele>40.4</ele>
        <time>2015-03-25T18:22:53Z</time>
      </trkpt>
      <trkpt lat="37.3903" lon="-122.120788">
        <ele>40.4</ele>
        <time>2015-03-25T18:22:54Z</time>
      </trkpt>
      <trkpt lat="37.390354" lon="-122.120788">
        <ele>40.3</ele>
        <time>2015-03-25T18:22:55Z</time>
      </trkpt>
      <trkpt lat="37.390402" lon="-122.120788">
        <ele>40.2</ele>
        <time>2015-03-25T18:22:56Z</time>
      </trkpt>
      <trkpt lat="37.390452" lon="-122.120788">
        <ele>40.2</ele>
        <time>2015-03-25T18:22:57Z</time>
      </trkpt>
      <trkpt lat="37.390491" lon="-122.120788">
        <ele>40.1</ele>
        <time>2015-03-25T18:22:58Z</time>
      </trkpt>
      <trkpt lat="37.39049" lon="-122.120832">
        <ele>40.1</ele>
        <time>2015-03-25T18:22:59Z</time>
      </trkpt>
      <trkpt lat="37.390488" lon="-122.120919">
        <ele>40.1</ele>
        <time>2015-03-25T18:23:00Z</time>
      </trkpt>
      <trkpt lat="37.390486" lon="-122.120997">
        <ele>40.1</ele>
        <time>2015-03-25T18:23:01Z</time>
      </trkpt>
      <trkpt lat="37.390484" lon="-122.121072">
        <ele>40.2</ele>
        <time>2015-03-25T18:23:02Z</time>
      </trkpt>
      <trkpt lat="37.390482" lon="-122.121139">
        <ele>40.3</ele>
        <time>2015-03-25T18:23:03Z</time>
      </trkpt>
      <trkpt lat="37.39048" lon="-122.121207">
        <ele>40.2</ele>
        <time>2015-03-25T18:23:04Z</time>
      </trkpt>
      <trkpt lat="37.390478" lon="-122.121278">
        <ele>40.2</ele>
        <time>2015-03-25T18:23:05Z</time>
      </trkpt>
      <trkpt lat="37.390476" lon="-122.121344">
        <ele>40.2</ele>
        <time>2015-03-25T18:23:06Z</time>
      </trkpt>
      <trkpt lat="37.390474" lon="-122.121418">
        <ele>40.2</ele>
        <time>2015-03-25T18:23:07Z</time>
      </trkpt>
      <trkpt lat="37.390472" lon="-122.121472">
        <ele>40.1</ele>
        <time>2015-03-25T18:23:08Z</time>
      </trkpt>
      <trkpt lat="37.39047" lon="-122.121538">
        <ele>40.1</ele>
        <time>2015-03-25T18:23:09Z</time>
      </trkpt>
      <trkpt lat="37.390469" lon="-122.121589">
        <ele>40.1</ele>
        <time>2015-03-25T18:23:10Z</time>
      </trkpt>
      <trkpt lat="37.390467" lon="-122.121653">
        <ele>40.1</ele>
        <time>2015-03-25T18:23:11Z</time>
      </trkpt>
      <trkpt lat="37.390465" lon="-122.121728">
        <ele>40.1</ele>
        <time>2015-03-25T18:23:12Z</time>
      </trkpt>
      <trkpt lat="37.390463" lon="-122.12179">
        <ele>40.2</ele>
        <time>2015-03-25T18:23:14Z</time>
      </trkpt>
      <trkpt lat="37.390446" lon="-122.12208">
        <ele>40.3</ele>
        <time>2015-03-25T18:23:17Z</time>
      </trkpt>
      <trkpt lat="37.390442" lon="-122.122154">
        <ele>40.5</ele>
        <time>2015-03-25T18:23:18Z</time>
      </trkpt>
      <trkpt lat="37.390429" lon="-122.12225">
        <ele>40.7</ele>
        <time>2015-03-25T18:23:19Z</time>
      </trkpt>
      <trkpt lat="37.390404" lon="-122.122298">
        <ele>40.8</ele>
        <time>2015-03-25T18:23:20Z</time>
      </trkpt>
      <trkpt lat="37.390372" lon="-122.12235">
        <ele>40.8</ele>
        <time>2015-03-25T18:23:21Z</time>
      </trkpt>
      <trkpt lat="37.390333" lon="-122.122411">
        <ele>41</ele>
        <time>2015-03-25T18:23:22Z</time>
      </trkpt>
      <trkpt lat="37.390287" lon="-122.122482">
        <ele>41.1</ele>
        <time>2015-03-25T18:23:23Z</time>
      </trkpt>
      <trkpt lat="37.390247" lon="-122.122544">
        <ele>41.2</ele>
        <time>2015-03-25T18:23:24Z</time>
      </trkpt>
      <trkpt lat="37.390229" lon="-122.122575">
        <ele>41.3</ele>
        <time>2015-03-25T18:23:25Z</time>
      </trkpt>
      <trkpt lat="37.390195" lon="-122.122638">
        <ele>41.4</ele>
        <time>2015-03-25T18:23:26Z</time>
      </trkpt>
      <trkpt lat="37.39017" lon="-122.122691">
        <ele>41.6</ele>
        <time>2015-03-25T18:23:27Z</time>
      </trkpt>
      <trkpt lat="37.390149" lon="-122.122742">
        <ele>41.6</ele>
        <time>2015-03-25T18:23:28Z</time>
      </trkpt>
      <trkpt lat="37.390126" lon="-122.122801">
        <ele>41.7</ele>
        <time>2015-03-25T18:23:29Z</time>
      </trkpt>
      <trkpt lat="37.390114" lon="-122.122834">
        <ele>41.8</ele>
        <time>2015-03-25T18:23:30Z</time>
      </trkpt>
      <trkpt lat="37.390101" lon="-122.122873">
        <ele>41.8</ele>
        <time>2015-03-25T18:23:31Z</time>
      </trkpt>
      <trkpt lat="37.390033" lon="-122.123137">
        <ele>42.2</ele>
        <time>2015-03-25T18:23:36Z</time>
      </trkpt>
      <trkpt lat="37.390022" lon="-122.123185">
        <ele>42.2</ele>
        <time>2015-03-25T18:23:37Z</time>
      </trkpt>
      <trkpt lat="37.390006" lon="-122.123258">
        <ele>42.3</ele>
        <time>2015-03-25T18:23:38Z</time>
      </trkpt>
      <trkpt lat="37.389996" lon="-122.1233">
        <ele>42.3</ele>
        <time>2015-03-25T18:23:39Z</time>
      </trkpt>
      <trkpt lat="37.389988" lon="-122.123336">
        <ele>42.4</ele>
        <time>2015-03-25T18:23:40Z</time>
      </trkpt>
      <trkpt lat="37.390167" lon="-122.123436">
        <ele>42.7</ele>
        <time>2015-03-25T18:23:47Z</time>
      </trkpt>
      <trkpt lat="37.390193" lon="-122.123423">
        <ele>42.6</ele>
        <time>2015-03-25T18:23:54Z</time>
      </trkpt>
      <trkpt lat="37.390152" lon="-122.123399">
        <ele>42.6</ele>
        <time>2015-03-25T18:24:05Z</time>
      </trkpt>
      <trkpt lat="37.390047" lon="-122.123332">
        <ele>42.4</ele>
        <time>2015-03-25T18:24:48Z</time>
      </trkpt>
      <trkpt lat="37.390066" lon="-122.123299">
        <ele>42.4</ele>
        <time>2015-03-25T18:25:20Z</time>
      </trkpt>
      <trkpt lat="37.390031" lon="-122.1233">
        <ele>42.4</ele>
        <time>2015-03-25T18:25:31Z</time>
      </trkpt>
      <trkpt lat="37.390001" lon="-122.123295">
        <ele>42.3</ele>
        <time>2015-03-25T18:25:34Z</time>
      </trkpt>
      <trkpt lat="37.390024" lon="-122.123327">
        <ele>42.4</ele>
        <time>2015-03-25T18:25:36Z</time>
      </trkpt>
      <trkpt lat="37.390037" lon="-122.123369">
        <ele>42.4</ele>
        <time>2015-03-25T18:25:38Z</time>
      </trkpt>
      <trkpt lat="37.390057" lon="-122.123397">
        <ele>42.5</ele>
        <time>2015-03-25T18:25:44Z</time>
      </trkpt>
      <trkpt lat="37.390087" lon="-122.123385">
        <ele>42.6</ele>
        <time>2015-03-25T18:25:48Z</time>
      </trkpt>
      <trkpt lat="37.390048" lon="-122.12334">
        <ele>42.4</ele>
        <time>2015-03-25T18:27:14Z</time>
      </trkpt>
      <trkpt lat="37.390064" lon="-122.123396">
        <ele>42.5</ele>
        <time>2015-03-25T18:27:34Z</time>
      </trkpt>
      <trkpt lat="37.390103" lon="-122.123346">
        <ele>42.6</ele>
        <time>2015-03-25T18:28:09Z</time>
      </trkpt>
      <trkpt lat="37.39001" lon="-122.123343">
        <ele>42.4</ele>
        <time>2015-03-25T18:29:24Z</time>
      </trkpt>
      <trkpt lat="37.390036" lon="-122.123356">
        <ele>42.4</ele>
        <time>2015-03-25T18:29:32Z</time>
      </trkpt>
      <trkpt lat="37.390075" lon="-122.123403">
        <ele>42.6</ele>
        <time>2015-03-25T18:32:24Z</time>
      </trkpt>
      <trkpt lat="37.390121" lon="-122.123424">
        <ele>42.7</ele>
        <time>2015-03-25T18:32:33Z</time>
      </trkpt>
      <trkpt lat="37.390083" lon="-122.123418">
        <ele>42.6</ele>
        <time>2015-03-25T18:32:37Z</time>
      </trkpt>
      <trkpt lat="37.390088" lon="-122.123457">
        <ele>42.7</ele>
        <time>2015-03-25T18:32:45Z</time>
      </trkpt>
      <trkpt lat="37.390073" lon="-122.123421">
        <ele>42.6</ele>
        <time>2015-03-25T18:32:57Z</time>
      </trkpt>
      <trkpt lat="37.390042" lon="-122.123414">
        <ele>42.4</ele>
        <time>2015-03-25T18:32:59Z</time>
      </trkpt>
      <trkpt lat="37.390011" lon="-122.123399">
        <ele>42.4</ele>
        <time>2015-03-25T18:33:12Z</time>
      </trkpt>
      <trkpt lat="37.38999" lon="-122.123192">
        <ele>42.3</ele>
        <time>2015-03-25T18:34:26Z</time>
      </trkpt>
      <trkpt lat="37.390021" lon="-122.123193">
        <ele>42.2</ele>
        <time>2015-03-25T18:34:36Z</time>
      </trkpt>
      <trkpt lat="37.390058" lon="-122.123185">
        <ele>42.2</ele>
        <time>2015-03-25T18:34:39Z</time>
      </trkpt>
      <trkpt lat="37.390053" lon="-122.12314">
        <ele>42.1</ele>
        <time>2015-03-25T18:34:47Z</time>
      </trkpt>
      <trkpt lat="37.390025" lon="-122.123111">
        <ele>42.1</ele>
        <time>2015-03-25T18:34:48Z</time>
      </trkpt>
      <trkpt lat="37.390018" lon="-122.123149">
        <ele>42.2</ele>
        <time>2015-03-25T18:34:50Z</time>
      </trkpt>
      <trkpt lat="37.389979" lon="-122.123251">
        <ele>42.3</ele>
        <time>2015-03-25T18:34:52Z</time>
      </trkpt>
      <trkpt lat="37.389988" lon="-122.123308">
        <ele>42.3</ele>
        <time>2015-03-25T18:34:56Z</time>
      </trkpt>
      <trkpt lat="37.389965" lon="-122.12333">
        <ele>42.4</ele>
        <time>2015-03-25T18:35:04Z</time>
      </trkpt>
      <trkpt lat="37.389932" lon="-122.123306">
        <ele>42.6</ele>
        <time>2015-03-25T18:35:05Z</time>
      </trkpt>
      <trkpt lat="37.389959" lon="-122.123322">
        <ele>42.4</ele>
        <time>2015-03-25T18:35:06Z</time>
      </trkpt>
      <trkpt lat="37.389921" lon="-122.123331">
        <ele>42.6</ele>
        <time>2015-03-25T18:35:13Z</time>
      </trkpt>
      <trkpt lat="37.389974" lon="-122.123376">
        <ele>42.4</ele>
        <time>2015-03-25T18:35:15Z</time>
      </trkpt>
      <trkpt lat="37.390043" lon="-122.123411">
        <ele>42.4</ele>
        <time>2015-03-25T18:35:19Z</time>
      </trkpt>
      <trkpt lat="37.389939" lon="-122.123402">
        <ele>42.4</ele>
        <time>2015-03-25T18:36:43Z</time>
      </trkpt>
      <trkpt lat="37.389952" lon="-122.123435">
        <ele>42.4</ele>
        <time>2015-03-25T18:36:48Z</time>
      </trkpt>
      <trkpt lat="37.389928" lon="-122.12341">
        <ele>42.4</ele>
        <time>2015-03-25T18:37:04Z</time>
      </trkpt>
      <trkpt lat="37.389903" lon="-122.123379">
        <ele>42.7</ele>
        <time>2015-03-25T18:37:07Z</time>
      </trkpt>
      <trkpt lat="37.389941" lon="-122.123359">
        <ele>42.5</ele>
        <time>2015-03-25T18:37:13Z</time>
      </trkpt>
      <trkpt lat="37.389968" lon="-122.123398">
        <ele>42.4</ele>
        <time>2015-03-25T18:37:19Z</time>
      </trkpt>
      <trkpt lat="37.390024" lon="-122.123414">
        <ele>42.4</ele>
        <time>2015-03-25T18:37:30Z</time>
      </trkpt>
      <trkpt lat="37.389986" lon="-122.123364">
        <ele>42.4</ele>
        <time>2015-03-25T18:38:13Z</time>
      </trkpt>
      <trkpt lat="37.389969" lon="-122.123325">
        <ele>42.4</ele>
        <time>2015-03-25T18:38:23Z</time>
      </trkpt>
      <trkpt lat="37.38994" lon="-122.123316">
        <ele>42.5</ele>
        <time>2015-03-25T18:38:25Z</time>
      </trkpt>
      <trkpt lat="37.389979" lon="-122.123337">
        <ele>42.4</ele>
        <time>2015-03-25T18:38:27Z</time>
      </trkpt>
      <trkpt lat="37.390026" lon="-122.123275">
        <ele>42.3</ele>
        <time>2015-03-25T18:38:30Z</time>
      </trkpt>
      <trkpt lat="37.390074" lon="-122.123252">
        <ele>42.4</ele>
        <time>2015-03-25T18:38:31Z</time>
      </trkpt>
      <trkpt lat="37.390116" lon="-122.123298">
        <ele>42.5</ele>
        <time>2015-03-25T18:38:32Z</time>
      </trkpt>
      <trkpt lat="37.390126" lon="-122.12333">
        <ele>42.5</ele>
        <time>2015-03-25T18:38:36Z</time>
      </trkpt>
      <trkpt lat="37.390086" lon="-122.123321">
        <ele>42.5</ele>
        <time>2015-03-25T18:38:42Z</time>
      </trkpt>
      <trkpt lat="37.390039" lon="-122.123301">
        <ele>42.4</ele>
        <time>2015-03-25T18:38:46Z</time>
      </trkpt>
      <trkpt lat="37.390044" lon="-122.123263">
        <ele>42.3</ele>
        <time>2015-03-25T18:38:50Z</time>
      </trkpt>
      <trkpt lat="37.390078" lon="-122.123291">
        <ele>42.4</ele>
        <time>2015-03-25T18:38:59Z</time>
      </trkpt>
      <trkpt lat="37.390115" lon="-122.123281">
        <ele>42.4</ele>
        <time>2015-03-25T18:39:02Z</time>
      </trkpt>
      <trkpt lat="37.390085" lon="-122.123271">
        <ele>42.4</ele>
        <time>2015-03-25T18:39:08Z</time>
      </trkpt>
      <trkpt lat="37.390046" lon="-122.123322">
        <ele>42.4</ele>
        <time>2015-03-25T18:39:15Z</time>
      </trkpt>
      <trkpt lat="37.390058" lon="-122.123284">
        <ele>42.4</ele>
        <time>2015-03-25T18:39:23Z</time>
      </trkpt>
      <trkpt lat="37.390013" lon="-122.123193">
        <ele>42.2</ele>
        <time>2015-03-25T18:39:31Z</time>
      </trkpt>
      <trkpt lat="37.390003" lon="-122.123153">
        <ele>42.3</ele>
        <time>2015-03-25T18:39:35Z</time>
      </trkpt>
      <trkpt lat="37.389989" lon="-122.123122">
        <ele>42.5</ele>
        <time>2015-03-25T18:39:40Z</time>
      </trkpt>
      <trkpt lat="37.389971" lon="-122.123097">
        <ele>42.6</ele>
        <time>2015-03-25T18:39:46Z</time>
      </trkpt>
      <trkpt lat="37.390034" lon="-122.123112">
        <ele>42.1</ele>
        <time>2015-03-25T18:39:51Z</time>
      </trkpt>
      <trkpt lat="37.390062" lon="-122.12313">
        <ele>42.1</ele>
        <time>2015-03-25T18:39:53Z</time>
      </trkpt>
      <trkpt lat="37.390098" lon="-122.123137">
        <ele>42.1</ele>
        <time>2015-03-25T18:39:55Z</time>
      </trkpt>
      <trkpt lat="37.390074" lon="-122.123205">
        <ele>42.2</ele>
        <time>2015-03-25T18:40:02Z</time>
      </trkpt>
      <trkpt lat="37.390081" lon="-122.123243">
        <ele>42.3</ele>
        <time>2015-03-25T18:40:03Z</time>
      </trkpt>
      <trkpt lat="37.390083" lon="-122.123303">
        <ele>42.4</ele>
        <time>2015-03-25T18:40:06Z</time>
      </trkpt>
      <trkpt lat="37.390051" lon="-122.123302">
        <ele>42.4</ele>
        <time>2015-03-25T18:40:15Z</time>
      </trkpt>
      <trkpt lat="37.389953" lon="-122.123214">
        <ele>42.5</ele>
        <time>2015-03-25T18:40:18Z</time>
      </trkpt>
      <trkpt lat="37.389925" lon="-122.1232">
        <ele>42.8</ele>
        <time>2015-03-25T18:40:19Z</time>
      </trkpt>
      <trkpt lat="37.389974" lon="-122.123227">
        <ele>42.3</ele>
        <time>2015-03-25T18:40:21Z</time>
      </trkpt>
      <trkpt lat="37.39001" lon="-122.123266">
        <ele>42.3</ele>
        <time>2015-03-25T18:40:22Z</time>
      </trkpt>
      <trkpt lat="37.390068" lon="-122.123359">
        <ele>42.5</ele>
        <time>2015-03-25T18:40:24Z</time>
      </trkpt>
      <trkpt lat="37.390172" lon="-122.12347">
        <ele>42.7</ele>
        <time>2015-03-25T18:41:37Z</time>
      </trkpt>
      <trkpt lat="37.390191" lon="-122.123495">
        <ele>42.7</ele>
        <time>2015-03-25T18:41:39Z</time>
      </trkpt>
      <trkpt lat="37.390161" lon="-122.123479">
        <ele>42.7</ele>
        <time>2015-03-25T18:41:41Z</time>
      </trkpt>
      <trkpt lat="37.390116" lon="-122.12344">
        <ele>42.7</ele>
        <time>2015-03-25T18:41:44Z</time>
      </trkpt>
      <trkpt lat="37.390083" lon="-122.123434">
        <ele>42.7</ele>
        <time>2015-03-25T18:41:50Z</time>
      </trkpt>
      <trkpt lat="37.390056" lon="-122.123438">
        <ele>42.5</ele>
        <time>2015-03-25T18:41:52Z</time>
      </trkpt>
      <trkpt lat="37.390027" lon="-122.123441">
        <ele>42.4</ele>
        <time>2015-03-25T18:41:54Z</time>
      </trkpt>
      <trkpt lat="37.389997" lon="-122.123434">
        <ele>42.4</ele>
        <time>2015-03-25T18:41:58Z</time>
      </trkpt>
      <trkpt lat="37.390022" lon="-122.123411">
        <ele>42.3</ele>
        <time>2015-03-25T18:42:05Z</time>
      </trkpt>
      <trkpt lat="37.390003" lon="-122.123381">
        <ele>42.4</ele>
        <time>2015-03-25T18:42:12Z</time>
      </trkpt>
      <trkpt lat="37.389952" lon="-122.123332">
        <ele>42.4</ele>
        <time>2015-03-25T18:42:14Z</time>
      </trkpt>
      <trkpt lat="37.389923" lon="-122.123296">
        <ele>42.6</ele>
        <time>2015-03-25T18:42:18Z</time>
      </trkpt>
      <trkpt lat="37.389894" lon="-122.123264">
        <ele>42.9</ele>
        <time>2015-03-25T18:42:20Z</time>
      </trkpt>
      <trkpt lat="37.389848" lon="-122.123216">
        <ele>43.1</ele>
        <time>2015-03-25T18:42:22Z</time>
      </trkpt>
      <trkpt lat="37.38981" lon="-122.12317">
        <ele>43</ele>
        <time>2015-03-25T18:42:25Z</time>
      </trkpt>
      <trkpt lat="37.389839" lon="-122.123182">
        <ele>43</ele>
        <time>2015-03-25T18:42:26Z</time>
      </trkpt>
      <trkpt lat="37.389869" lon="-122.123194">
        <ele>43</ele>
        <time>2015-03-25T18:42:27Z</time>
      </trkpt>
      <trkpt lat="37.389889" lon="-122.123188">
        <ele>43</ele>
        <time>2015-03-25T18:42:32Z</time>
      </trkpt>
      <trkpt lat="37.389915" lon="-122.12322">
        <ele>42.8</ele>
        <time>2015-03-25T18:42:35Z</time>
      </trkpt>
      <trkpt lat="37.389942" lon="-122.123251">
        <ele>42.6</ele>
        <time>2015-03-25T18:42:42Z</time>
      </trkpt>
      <trkpt lat="37.389969" lon="-122.123283">
        <ele>42.4</ele>
        <time>2015-03-25T18:42:43Z</time>
      </trkpt>
      <trkpt lat="37.390002" lon="-122.123277">
        <ele>42.3</ele>
        <time>2015-03-25T18:42:45Z</time>
      </trkpt>
      <trkpt lat="37.390005" lon="-122.123354">
        <ele>42.4</ele>
        <time>2015-03-25T18:42:55Z</time>
      </trkpt>
      <trkpt lat="37.389973" lon="-122.123354">
        <ele>42.4</ele>
        <time>2015-03-25T18:43:02Z</time>
      </trkpt>
      <trkpt lat="37.389948" lon="-122.123335">
        <ele>42.4</ele>
        <time>2015-03-25T18:43:07Z</time>
      </trkpt>
      <trkpt lat="37.389917" lon="-122.123336">
        <ele>42.6</ele>
        <time>2015-03-25T18:43:10Z</time>
      </trkpt>
      <trkpt lat="37.38987" lon="-122.123294">
        <ele>43.1</ele>
        <time>2015-03-25T18:43:20Z</time>
      </trkpt>
      <trkpt lat="37.389854" lon="-122.123253">
        <ele>43.1</ele>
        <time>2015-03-25T18:43:24Z</time>
      </trkpt>
      <trkpt lat="37.390083" lon="-122.123408">
        <ele>42.6</ele>
        <time>2015-03-25T18:44:18Z</time>
      </trkpt>
      <trkpt lat="37.390112" lon="-122.123387">
        <ele>42.7</ele>
        <time>2015-03-25T18:44:21Z</time>
      </trkpt>
      <trkpt lat="37.39013" lon="-122.123361">
        <ele>42.6</ele>
        <time>2015-03-25T18:44:32Z</time>
      </trkpt>
      <trkpt lat="37.390165" lon="-122.123359">
        <ele>42.5</ele>
        <time>2015-03-25T18:44:38Z</time>
      </trkpt>
      <trkpt lat="37.390192" lon="-122.123381">
        <ele>42.6</ele>
        <time>2015-03-25T18:44:44Z</time>
      </trkpt>
      <trkpt lat="37.390156" lon="-122.123395">
        <ele>42.6</ele>
        <time>2015-03-25T18:44:51Z</time>
      </trkpt>
      <trkpt lat="37.390182" lon="-122.123414">
        <ele>42.6</ele>
        <time>2015-03-25T18:45:05Z</time>
      </trkpt>
      <trkpt lat="37.390193" lon="-122.123447">
        <ele>42.6</ele>
        <time>2015-03-25T18:45:16Z</time>
      </trkpt>
      <trkpt lat="37.390223" lon="-122.123471">
        <ele>42.6</ele>
        <time>2015-03-25T18:45:29Z</time>
      </trkpt>
      <trkpt lat="37.390221" lon="-122.123507">
        <ele>42.7</ele>
        <time>2015-03-25T18:45:53Z</time>
      </trkpt>
      <trkpt lat="37.390197" lon="-122.12353">
        <ele>42.7</ele>
        <time>2015-03-25T18:46:03Z</time>
      </trkpt>
      <trkpt lat="37.390225" lon="-122.123555">
        <ele>42.7</ele>
        <time>2015-03-25T18:46:06Z</time>
      </trkpt>
      <trkpt lat="37.390255" lon="-122.123574">
        <ele>42.7</ele>
        <time>2015-03-25T18:46:09Z</time>
      </trkpt>
      <trkpt lat="37.390266" lon="-122.123612">
        <ele>42.6</ele>
        <time>2015-03-25T18:46:13Z</time>
      </trkpt>
      <trkpt lat="37.390264" lon="-122.123652">
        <ele>42.6</ele>
        <time>2015-03-25T18:46:22Z</time>
      </trkpt>
      <trkpt lat="37.390271" lon="-122.12369">
        <ele>42.8</ele>
        <time>2015-03-25T18:46:30Z</time>
      </trkpt>
      <trkpt lat="37.390244" lon="-122.12369">
        <ele>42.8</ele>
        <time>2015-03-25T18:46:35Z</time>
      </trkpt>
      <trkpt lat="37.390211" lon="-122.12366">
        <ele>42.7</ele>
        <time>2015-03-25T18:46:51Z</time>
      </trkpt>
      <trkpt lat="37.390188" lon="-122.123679">
        <ele>42.7</ele>
        <time>2015-03-25T18:47:05Z</time>
      </trkpt>
      <trkpt lat="37.390221" lon="-122.123687">
        <ele>42.7</ele>
        <time>2015-03-25T18:47:14Z</time>
      </trkpt>
      <trkpt lat="37.390242" lon="-122.123715">
        <ele>42.8</ele>
        <time>2015-03-25T18:47:17Z</time>
      </trkpt>
      <trkpt lat="37.390269" lon="-122.123713">
        <ele>42.8</ele>
        <time>2015-03-25T18:47:27Z</time>
      </trkpt>
    </trkseg>
  </trk>
</gpx>